<?xml version="1.0" encoding="UTF-8"?>
<gpx version="1.1" creator="2bulu-scraper" xmlns="http://www.topografix.com/GPX/1/1">
  <metadata><name>峨眉山后山</name><desc>source: 2bulu.com trackId=78690522; exported 2026-09-01T15:52:23.866Z</desc>
    <bounds minlat="29.4453281" minlon="103.2789676" maxlat="29.5238437" maxlon="103.3349395"/>
    <link href="https://www.2bulu.com/track/t-Bm10nXyvS1bp%252FR2KBg5Tzw%253D%253D.htm"><text>2bulu 源页面</text></link>
  </metadata>
  <wpt lat="29.4833437" lon="103.285135"><ele>1799</ele><name>起点
        </name></wpt>
  <wpt lat="29.4844248" lon="103.2849491"><ele>1800</ele><name>沿着机耕路走
        </name></wpt>
  <wpt lat="29.4879926" lon="103.2853206"><ele>1852</ele><name>
        </name></wpt>
  <wpt lat="29.4905467" lon="103.2861015"><ele>1874</ele><name>走大路
        </name></wpt>
  <wpt lat="29.4915024" lon="103.2859633"><ele>1888</ele><name>走右
        </name></wpt>
  <wpt lat="29.4920139" lon="103.2868544"><ele>1897</ele><name>走左
        </name></wpt>
  <wpt lat="29.4968593" lon="103.2886669"><ele>1978</ele><name>
        </name></wpt>
  <wpt lat="29.4997583" lon="103.2894782"><ele>2011</ele><name>
        </name></wpt>
  <wpt lat="29.5008119" lon="103.28902"><ele>2026</ele><name>滑，加冰爪
        </name></wpt>
  <wpt lat="29.5015279" lon="103.2892807"><ele>2026</ele><name>下去过河
        </name></wpt>
  <wpt lat="29.50631" lon="103.293051"><ele>2114</ele><name>
        </name></wpt>
  <wpt lat="29.5054971" lon="103.2986116"><ele>2210</ele><name>
        </name></wpt>
  <wpt lat="29.504508" lon="103.3022789"><ele>2255</ele><name>右边绕
        </name></wpt>
  <wpt lat="29.5050137" lon="103.3045362"><ele>2320</ele><name>上石梯路
        </name></wpt>
  <wpt lat="29.5050749" lon="103.3049255"><ele>2321</ele><name>
        </name></wpt>
  <wpt lat="29.5050824" lon="103.3050333"><ele>2324</ele><name>左下绕
        </name></wpt>
  <wpt lat="29.5040715" lon="103.3073019"><ele>2383</ele><name>
        </name></wpt>
  <wpt lat="29.5032316" lon="103.3111121"><ele>2551</ele><name>
        </name></wpt>
  <wpt lat="29.5043734" lon="103.3155879"><ele>2691</ele><name>
        </name></wpt>
  <wpt lat="29.5060781" lon="103.321497"><ele>2836</ele><name>
        </name></wpt>
  <wpt lat="29.5069261" lon="103.3234093"><ele>2899</ele><name>
        </name></wpt>
  <wpt lat="29.5101262" lon="103.3318179"><ele>3061</ele><name>
        </name></wpt>
  <wpt lat="29.5100917" lon="103.3323167"><ele>3070</ele><name>万佛顶
        </name></wpt>
  <wpt lat="29.522847" lon="103.3347959"><ele>3007</ele><name>金顶
        </name></wpt>
  <wpt lat="29.5112819" lon="103.330894"><ele>2995</ele><name>抄近路
        </name></wpt>
  <wpt lat="29.5053806" lon="103.317172"><ele>2737</ele><name>
        </name></wpt>
  <wpt lat="29.4463922" lon="103.2790421"><ele>1370</ele><name>车只能开到这个位置
        </name></wpt>
  <trk><name>峨眉山后山</name>
      <trkseg>
        <trkpt lat="29.4833437" lon="103.285135"><ele>1798.98</ele><time>2026-01-31T17:28:12.000Z</time></trkpt>
        <trkpt lat="29.4833856" lon="103.2851104"><ele>1798.98</ele><time>2026-01-31T17:28:56.000Z</time></trkpt>
        <trkpt lat="29.4834476" lon="103.2850941"><ele>1799.42</ele><time>2026-01-31T17:29:02.000Z</time></trkpt>
        <trkpt lat="29.4835116" lon="103.2850839"><ele>1799.77</ele><time>2026-01-31T17:29:09.000Z</time></trkpt>
        <trkpt lat="29.4835687" lon="103.2850915"><ele>1799.58</ele><time>2026-01-31T17:29:17.000Z</time></trkpt>
        <trkpt lat="29.4836191" lon="103.2851209"><ele>1799.03</ele><time>2026-01-31T17:29:25.000Z</time></trkpt>
        <trkpt lat="29.4836643" lon="103.2851646"><ele>1798.48</ele><time>2026-01-31T17:29:31.000Z</time></trkpt>
        <trkpt lat="29.4837082" lon="103.2852008"><ele>1798</ele><time>2026-01-31T17:29:37.000Z</time></trkpt>
        <trkpt lat="29.4837586" lon="103.2852173"><ele>1797.51</ele><time>2026-01-31T17:29:43.000Z</time></trkpt>
        <trkpt lat="29.4838046" lon="103.285199"><ele>1798.04</ele><time>2026-01-31T17:29:49.000Z</time></trkpt>
        <trkpt lat="29.4838475" lon="103.2851634"><ele>1797.69</ele><time>2026-01-31T17:29:58.000Z</time></trkpt>
        <trkpt lat="29.4838818" lon="103.2851136"><ele>1797.4</ele><time>2026-01-31T17:30:03.000Z</time></trkpt>
        <trkpt lat="29.483917" lon="103.2850644"><ele>1797.46</ele><time>2026-01-31T17:30:09.000Z</time></trkpt>
        <trkpt lat="29.4839646" lon="103.2850242"><ele>1797.65</ele><time>2026-01-31T17:30:17.000Z</time></trkpt>
        <trkpt lat="29.4840098" lon="103.2849957"><ele>1797.97</ele><time>2026-01-31T17:30:25.000Z</time></trkpt>
        <trkpt lat="29.4840546" lon="103.2849758"><ele>1798.36</ele><time>2026-01-31T17:30:34.000Z</time></trkpt>
        <trkpt lat="29.4841035" lon="103.2849709"><ele>1798.74</ele><time>2026-01-31T17:30:45.000Z</time></trkpt>
        <trkpt lat="29.4841576" lon="103.2849702"><ele>1798.22</ele><time>2026-01-31T17:31:25.000Z</time></trkpt>
        <trkpt lat="29.4842085" lon="103.2849748"><ele>1798.66</ele><time>2026-01-31T17:31:31.000Z</time></trkpt>
        <trkpt lat="29.4842642" lon="103.2849823"><ele>1798.9</ele><time>2026-01-31T17:31:37.000Z</time></trkpt>
        <trkpt lat="29.4843162" lon="103.2849663"><ele>1798.72</ele><time>2026-01-31T17:31:45.000Z</time></trkpt>
        <trkpt lat="29.484366" lon="103.2849609"><ele>1798.94</ele><time>2026-01-31T17:31:51.000Z</time></trkpt>
        <trkpt lat="29.4844248" lon="103.2849491"><ele>1799.08</ele><time>2026-01-31T17:31:57.000Z</time></trkpt>
        <trkpt lat="29.4844734" lon="103.284933"><ele>1799.51</ele><time>2026-01-31T17:32:03.000Z</time></trkpt>
        <trkpt lat="29.4845161" lon="103.2849124"><ele>1800.37</ele><time>2026-01-31T17:32:09.000Z</time></trkpt>
        <trkpt lat="29.4845648" lon="103.2848903"><ele>1800.96</ele><time>2026-01-31T17:32:19.000Z</time></trkpt>
        <trkpt lat="29.4846181" lon="103.2848722"><ele>1801.81</ele><time>2026-01-31T17:32:25.000Z</time></trkpt>
        <trkpt lat="29.4846681" lon="103.2848573"><ele>1802.58</ele><time>2026-01-31T17:32:31.000Z</time></trkpt>
        <trkpt lat="29.4847181" lon="103.2848552"><ele>1803.46</ele><time>2026-01-31T17:32:37.000Z</time></trkpt>
        <trkpt lat="29.4847676" lon="103.2848416"><ele>1804.11</ele><time>2026-01-31T17:32:45.000Z</time></trkpt>
        <trkpt lat="29.4848138" lon="103.2848327"><ele>1804.71</ele><time>2026-01-31T17:32:55.000Z</time></trkpt>
        <trkpt lat="29.4848654" lon="103.2848257"><ele>1805.63</ele><time>2026-01-31T17:33:03.000Z</time></trkpt>
        <trkpt lat="29.484913" lon="103.2848185"><ele>1806.67</ele><time>2026-01-31T17:33:11.000Z</time></trkpt>
        <trkpt lat="29.4849662" lon="103.2848033"><ele>1807.23</ele><time>2026-01-31T17:33:19.000Z</time></trkpt>
        <trkpt lat="29.4850224" lon="103.2847915"><ele>1807.5</ele><time>2026-01-31T17:33:27.000Z</time></trkpt>
        <trkpt lat="29.4850811" lon="103.2847954"><ele>1807.69</ele><time>2026-01-31T17:33:37.000Z</time></trkpt>
        <trkpt lat="29.4851309" lon="103.2847955"><ele>1807.68</ele><time>2026-01-31T17:33:43.000Z</time></trkpt>
        <trkpt lat="29.4851811" lon="103.284795"><ele>1807.53</ele><time>2026-01-31T17:33:49.000Z</time></trkpt>
        <trkpt lat="29.4852412" lon="103.2847899"><ele>1807.63</ele><time>2026-01-31T17:33:57.000Z</time></trkpt>
        <trkpt lat="29.4853086" lon="103.2847797"><ele>1807.76</ele><time>2026-01-31T17:34:05.000Z</time></trkpt>
        <trkpt lat="29.4853652" lon="103.2847723"><ele>1807.98</ele><time>2026-01-31T17:34:11.000Z</time></trkpt>
        <trkpt lat="29.4854164" lon="103.2847805"><ele>1808.08</ele><time>2026-01-31T17:34:17.000Z</time></trkpt>
        <trkpt lat="29.4854633" lon="103.2847972"><ele>1808.11</ele><time>2026-01-31T17:34:23.000Z</time></trkpt>
        <trkpt lat="29.4855121" lon="103.2848214"><ele>1808.2</ele><time>2026-01-31T17:34:29.000Z</time></trkpt>
        <trkpt lat="29.4855567" lon="103.2848411"><ele>1808.46</ele><time>2026-01-31T17:34:35.000Z</time></trkpt>
        <trkpt lat="29.485598" lon="103.2848758"><ele>1808.74</ele><time>2026-01-31T17:34:43.000Z</time></trkpt>
        <trkpt lat="29.4856395" lon="103.2849103"><ele>1809.06</ele><time>2026-01-31T17:34:51.000Z</time></trkpt>
        <trkpt lat="29.485676" lon="103.2849535"><ele>1809.1</ele><time>2026-01-31T17:34:57.000Z</time></trkpt>
        <trkpt lat="29.4857103" lon="103.2849984"><ele>1808.89</ele><time>2026-01-31T17:35:05.000Z</time></trkpt>
        <trkpt lat="29.4857532" lon="103.2850421"><ele>1808.94</ele><time>2026-01-31T17:35:13.000Z</time></trkpt>
        <trkpt lat="29.4857937" lon="103.2850882"><ele>1809.4</ele><time>2026-01-31T17:35:19.000Z</time></trkpt>
        <trkpt lat="29.4858388" lon="103.2850905"><ele>1809.8</ele><time>2026-01-31T17:35:25.000Z</time></trkpt>
        <trkpt lat="29.4858687" lon="103.2850459"><ele>1810.01</ele><time>2026-01-31T17:35:31.000Z</time></trkpt>
        <trkpt lat="29.4858826" lon="103.2849849"><ele>1810.26</ele><time>2026-01-31T17:35:37.000Z</time></trkpt>
        <trkpt lat="29.485886" lon="103.2849185"><ele>1810.74</ele><time>2026-01-31T17:35:43.000Z</time></trkpt>
        <trkpt lat="29.4858913" lon="103.2848516"><ele>1811.48</ele><time>2026-01-31T17:35:58.000Z</time></trkpt>
        <trkpt lat="29.4858937" lon="103.2847903"><ele>1812.31</ele><time>2026-01-31T17:36:16.000Z</time></trkpt>
        <trkpt lat="29.4859241" lon="103.2847559"><ele>1813.34</ele><time>2026-01-31T17:36:21.000Z</time></trkpt>
        <trkpt lat="29.4859757" lon="103.284735"><ele>1813.91</ele><time>2026-01-31T17:36:37.000Z</time></trkpt>
        <trkpt lat="29.4860331" lon="103.2847338"><ele>1814.48</ele><time>2026-01-31T17:36:43.000Z</time></trkpt>
        <trkpt lat="29.4860845" lon="103.2847339"><ele>1814.79</ele><time>2026-01-31T17:36:49.000Z</time></trkpt>
        <trkpt lat="29.4861394" lon="103.2847418"><ele>1814.42</ele><time>2026-01-31T17:36:55.000Z</time></trkpt>
        <trkpt lat="29.486188" lon="103.2847466"><ele>1814.95</ele><time>2026-01-31T17:37:01.000Z</time></trkpt>
        <trkpt lat="29.4862364" lon="103.2847555"><ele>1815.35</ele><time>2026-01-31T17:37:07.000Z</time></trkpt>
        <trkpt lat="29.4862921" lon="103.2847617"><ele>1815.7</ele><time>2026-01-31T17:37:13.000Z</time></trkpt>
        <trkpt lat="29.4863467" lon="103.2847683"><ele>1816.01</ele><time>2026-01-31T17:37:19.000Z</time></trkpt>
        <trkpt lat="29.4863916" lon="103.2847856"><ele>1816.37</ele><time>2026-01-31T17:37:23.000Z</time></trkpt>
        <trkpt lat="29.4864441" lon="103.2848019"><ele>1816.85</ele><time>2026-01-31T17:37:29.000Z</time></trkpt>
        <trkpt lat="29.4865038" lon="103.2848245"><ele>1817.15</ele><time>2026-01-31T17:37:35.000Z</time></trkpt>
        <trkpt lat="29.486565" lon="103.2848475"><ele>1817.51</ele><time>2026-01-31T17:37:41.000Z</time></trkpt>
        <trkpt lat="29.4866249" lon="103.2848643"><ele>1817.8</ele><time>2026-01-31T17:37:47.000Z</time></trkpt>
        <trkpt lat="29.4866815" lon="103.2848668"><ele>1817.96</ele><time>2026-01-31T17:37:53.000Z</time></trkpt>
        <trkpt lat="29.4867378" lon="103.284859"><ele>1818.05</ele><time>2026-01-31T17:37:59.000Z</time></trkpt>
        <trkpt lat="29.4867854" lon="103.2848389"><ele>1818.41</ele><time>2026-01-31T17:38:05.000Z</time></trkpt>
        <trkpt lat="29.48682" lon="103.2847975"><ele>1818.89</ele><time>2026-01-31T17:38:11.000Z</time></trkpt>
        <trkpt lat="29.4868473" lon="103.2847419"><ele>1819.35</ele><time>2026-01-31T17:38:17.000Z</time></trkpt>
        <trkpt lat="29.4868803" lon="103.2846907"><ele>1820.17</ele><time>2026-01-31T17:38:23.000Z</time></trkpt>
        <trkpt lat="29.4869266" lon="103.2846682"><ele>1820.92</ele><time>2026-01-31T17:38:29.000Z</time></trkpt>
        <trkpt lat="29.4869729" lon="103.2846726"><ele>1821.27</ele><time>2026-01-31T17:38:35.000Z</time></trkpt>
        <trkpt lat="29.4870191" lon="103.2847028"><ele>1821.57</ele><time>2026-01-31T17:38:41.000Z</time></trkpt>
        <trkpt lat="29.4870467" lon="103.2847565"><ele>1821.97</ele><time>2026-01-31T17:38:47.000Z</time></trkpt>
        <trkpt lat="29.4870573" lon="103.2848163"><ele>1822.51</ele><time>2026-01-31T17:38:53.000Z</time></trkpt>
        <trkpt lat="29.4870553" lon="103.2848825"><ele>1823.06</ele><time>2026-01-31T17:38:59.000Z</time></trkpt>
        <trkpt lat="29.4870397" lon="103.2849537"><ele>1823.55</ele><time>2026-01-31T17:39:05.000Z</time></trkpt>
        <trkpt lat="29.4870145" lon="103.2850062"><ele>1824.3</ele><time>2026-01-31T17:39:11.000Z</time></trkpt>
        <trkpt lat="29.4869725" lon="103.2850405"><ele>1825.89</ele><time>2026-01-31T17:39:17.000Z</time></trkpt>
        <trkpt lat="29.4869302" lon="103.2850693"><ele>1828.03</ele><time>2026-01-31T17:39:25.000Z</time></trkpt>
        <trkpt lat="29.4868771" lon="103.2850925"><ele>1830.4</ele><time>2026-01-31T17:39:33.000Z</time></trkpt>
        <trkpt lat="29.4868235" lon="103.2851198"><ele>1832.71</ele><time>2026-01-31T17:39:41.000Z</time></trkpt>
        <trkpt lat="29.4867729" lon="103.2851284"><ele>1833.65</ele><time>2026-01-31T17:39:47.000Z</time></trkpt>
        <trkpt lat="29.4867254" lon="103.2851297"><ele>1834.17</ele><time>2026-01-31T17:39:53.000Z</time></trkpt>
        <trkpt lat="29.4866746" lon="103.2851364"><ele>1834.46</ele><time>2026-01-31T17:40:01.000Z</time></trkpt>
        <trkpt lat="29.4866434" lon="103.2851758"><ele>1834.42</ele><time>2026-01-31T17:40:11.000Z</time></trkpt>
        <trkpt lat="29.4866341" lon="103.2852332"><ele>1834.17</ele><time>2026-01-31T17:40:23.000Z</time></trkpt>
        <trkpt lat="29.4866655" lon="103.2852825"><ele>1834.12</ele><time>2026-01-31T17:40:39.000Z</time></trkpt>
        <trkpt lat="29.486715" lon="103.2852871"><ele>1835.39</ele><time>2026-01-31T17:40:45.000Z</time></trkpt>
        <trkpt lat="29.4867714" lon="103.285264"><ele>1836.12</ele><time>2026-01-31T17:40:51.000Z</time></trkpt>
        <trkpt lat="29.4868185" lon="103.2852209"><ele>1837.44</ele><time>2026-01-31T17:40:59.000Z</time></trkpt>
        <trkpt lat="29.486862" lon="103.2851854"><ele>1838.69</ele><time>2026-01-31T17:41:05.000Z</time></trkpt>
        <trkpt lat="29.4869132" lon="103.2851669"><ele>1839.4</ele><time>2026-01-31T17:41:11.000Z</time></trkpt>
        <trkpt lat="29.4869733" lon="103.2851581"><ele>1840.13</ele><time>2026-01-31T17:41:17.000Z</time></trkpt>
        <trkpt lat="29.4870286" lon="103.2851683"><ele>1840.93</ele><time>2026-01-31T17:41:23.000Z</time></trkpt>
        <trkpt lat="29.4870859" lon="103.2851985"><ele>1841.45</ele><time>2026-01-31T17:41:29.000Z</time></trkpt>
        <trkpt lat="29.4871331" lon="103.2852378"><ele>1841.65</ele><time>2026-01-31T17:41:35.000Z</time></trkpt>
        <trkpt lat="29.4871715" lon="103.2852795"><ele>1842.09</ele><time>2026-01-31T17:41:41.000Z</time></trkpt>
        <trkpt lat="29.4872047" lon="103.2853222"><ele>1842.56</ele><time>2026-01-31T17:41:47.000Z</time></trkpt>
        <trkpt lat="29.4872399" lon="103.2853673"><ele>1842.78</ele><time>2026-01-31T17:41:53.000Z</time></trkpt>
        <trkpt lat="29.4872714" lon="103.2854222"><ele>1842.94</ele><time>2026-01-31T17:41:59.000Z</time></trkpt>
        <trkpt lat="29.4872959" lon="103.285472"><ele>1843.22</ele><time>2026-01-31T17:42:05.000Z</time></trkpt>
        <trkpt lat="29.4873262" lon="103.2855235"><ele>1843.34</ele><time>2026-01-31T17:42:11.000Z</time></trkpt>
        <trkpt lat="29.4873655" lon="103.2855791"><ele>1843.4</ele><time>2026-01-31T17:42:17.000Z</time></trkpt>
        <trkpt lat="29.4874045" lon="103.2856283"><ele>1843.36</ele><time>2026-01-31T17:42:23.000Z</time></trkpt>
        <trkpt lat="29.4874441" lon="103.2856595"><ele>1843.34</ele><time>2026-01-31T17:42:27.000Z</time></trkpt>
        <trkpt lat="29.4875031" lon="103.2856495"><ele>1843.43</ele><time>2026-01-31T17:42:33.000Z</time></trkpt>
        <trkpt lat="29.4875381" lon="103.2855922"><ele>1843.67</ele><time>2026-01-31T17:42:39.000Z</time></trkpt>
        <trkpt lat="29.4875478" lon="103.2855224"><ele>1843.96</ele><time>2026-01-31T17:42:45.000Z</time></trkpt>
        <trkpt lat="29.4875535" lon="103.2854598"><ele>1844.25</ele><time>2026-01-31T17:42:49.000Z</time></trkpt>
        <trkpt lat="29.4875586" lon="103.2853909"><ele>1844.89</ele><time>2026-01-31T17:42:55.000Z</time></trkpt>
        <trkpt lat="29.4875768" lon="103.2853257"><ele>1845.55</ele><time>2026-01-31T17:43:01.000Z</time></trkpt>
        <trkpt lat="29.4876133" lon="103.2852723"><ele>1846.07</ele><time>2026-01-31T17:43:07.000Z</time></trkpt>
        <trkpt lat="29.4876592" lon="103.2852254"><ele>1846.78</ele><time>2026-01-31T17:43:13.000Z</time></trkpt>
        <trkpt lat="29.487711" lon="103.285203"><ele>1847.41</ele><time>2026-01-31T17:43:17.000Z</time></trkpt>
        <trkpt lat="29.4877589" lon="103.2851902"><ele>1848.94</ele><time>2026-01-31T17:43:21.000Z</time></trkpt>
        <trkpt lat="29.4878111" lon="103.2851938"><ele>1850.11</ele><time>2026-01-31T17:43:27.000Z</time></trkpt>
        <trkpt lat="29.4878654" lon="103.2852156"><ele>1852.01</ele><time>2026-01-31T17:43:33.000Z</time></trkpt>
        <trkpt lat="29.4879226" lon="103.2852462"><ele>1851.97</ele><time>2026-01-31T17:43:39.000Z</time></trkpt>
        <trkpt lat="29.48796" lon="103.2852708"><ele>1851.71</ele><time>2026-01-31T17:43:49.000Z</time></trkpt>
        <trkpt lat="29.4879926" lon="103.2853206"><ele>1851.97</ele><time>2026-01-31T17:43:57.000Z</time></trkpt>
        <trkpt lat="29.4880228" lon="103.2853673"><ele>1852.09</ele><time>2026-01-31T17:44:01.000Z</time></trkpt>
        <trkpt lat="29.4880511" lon="103.2854149"><ele>1851.91</ele><time>2026-01-31T17:44:05.000Z</time></trkpt>
        <trkpt lat="29.4880836" lon="103.2854685"><ele>1851.72</ele><time>2026-01-31T17:44:09.000Z</time></trkpt>
        <trkpt lat="29.4881185" lon="103.2855116"><ele>1851.46</ele><time>2026-01-31T17:44:13.000Z</time></trkpt>
        <trkpt lat="29.4881601" lon="103.2855054"><ele>1852.23</ele><time>2026-01-31T17:44:17.000Z</time></trkpt>
        <trkpt lat="29.4881924" lon="103.2854642"><ele>1851.44</ele><time>2026-01-31T17:44:22.000Z</time></trkpt>
        <trkpt lat="29.4882197" lon="103.2854092"><ele>1850.39</ele><time>2026-01-31T17:44:27.000Z</time></trkpt>
        <trkpt lat="29.488262" lon="103.2853618"><ele>1850.11</ele><time>2026-01-31T17:44:33.000Z</time></trkpt>
        <trkpt lat="29.4883122" lon="103.2853215"><ele>1849.9</ele><time>2026-01-31T17:44:40.000Z</time></trkpt>
        <trkpt lat="29.4883598" lon="103.2852723"><ele>1849.87</ele><time>2026-01-31T17:44:45.000Z</time></trkpt>
        <trkpt lat="29.4883978" lon="103.2852284"><ele>1849.63</ele><time>2026-01-31T17:44:51.000Z</time></trkpt>
        <trkpt lat="29.4884289" lon="103.285184"><ele>1849.31</ele><time>2026-01-31T17:44:58.000Z</time></trkpt>
        <trkpt lat="29.48847" lon="103.2851472"><ele>1848.99</ele><time>2026-01-31T17:45:02.000Z</time></trkpt>
        <trkpt lat="29.4885193" lon="103.2851276"><ele>1849.54</ele><time>2026-01-31T17:45:08.000Z</time></trkpt>
        <trkpt lat="29.488579" lon="103.2851262"><ele>1850.79</ele><time>2026-01-31T17:45:14.000Z</time></trkpt>
        <trkpt lat="29.4886315" lon="103.2851646"><ele>1851.14</ele><time>2026-01-31T17:45:21.000Z</time></trkpt>
        <trkpt lat="29.4886731" lon="103.2852273"><ele>1851.87</ele><time>2026-01-31T17:45:27.000Z</time></trkpt>
        <trkpt lat="29.4887053" lon="103.2852879"><ele>1853.02</ele><time>2026-01-31T17:45:31.000Z</time></trkpt>
        <trkpt lat="29.4887467" lon="103.2853437"><ele>1854.03</ele><time>2026-01-31T17:45:37.000Z</time></trkpt>
        <trkpt lat="29.4887976" lon="103.2853727"><ele>1854.88</ele><time>2026-01-31T17:45:43.000Z</time></trkpt>
        <trkpt lat="29.4888415" lon="103.285397"><ele>1855.54</ele><time>2026-01-31T17:45:49.000Z</time></trkpt>
        <trkpt lat="29.4888935" lon="103.2853973"><ele>1855.89</ele><time>2026-01-31T17:45:55.000Z</time></trkpt>
        <trkpt lat="29.4889499" lon="103.2853851"><ele>1856.28</ele><time>2026-01-31T17:46:01.000Z</time></trkpt>
        <trkpt lat="29.4890057" lon="103.2853468"><ele>1856.62</ele><time>2026-01-31T17:46:07.000Z</time></trkpt>
        <trkpt lat="29.4890524" lon="103.2853134"><ele>1856.77</ele><time>2026-01-31T17:46:11.000Z</time></trkpt>
        <trkpt lat="29.4890978" lon="103.285287"><ele>1856.79</ele><time>2026-01-31T17:46:17.000Z</time></trkpt>
        <trkpt lat="29.4891549" lon="103.2852656"><ele>1856.81</ele><time>2026-01-31T17:46:23.000Z</time></trkpt>
        <trkpt lat="29.4892078" lon="103.2852578"><ele>1856.83</ele><time>2026-01-31T17:46:28.000Z</time></trkpt>
        <trkpt lat="29.4892685" lon="103.2852606"><ele>1856.91</ele><time>2026-01-31T17:46:33.000Z</time></trkpt>
        <trkpt lat="29.4893163" lon="103.2852836"><ele>1856.98</ele><time>2026-01-31T17:46:37.000Z</time></trkpt>
        <trkpt lat="29.4893619" lon="103.2853184"><ele>1857.02</ele><time>2026-01-31T17:46:43.000Z</time></trkpt>
        <trkpt lat="29.4894099" lon="103.2853609"><ele>1857.1</ele><time>2026-01-31T17:46:49.000Z</time></trkpt>
        <trkpt lat="29.489459" lon="103.285409"><ele>1857.58</ele><time>2026-01-31T17:46:55.000Z</time></trkpt>
        <trkpt lat="29.4895071" lon="103.2854615"><ele>1857.84</ele><time>2026-01-31T17:47:04.000Z</time></trkpt>
        <trkpt lat="29.489552" lon="103.2855208"><ele>1857.87</ele><time>2026-01-31T17:47:09.000Z</time></trkpt>
        <trkpt lat="29.4895941" lon="103.2855677"><ele>1857.89</ele><time>2026-01-31T17:47:15.000Z</time></trkpt>
        <trkpt lat="29.4896372" lon="103.2856086"><ele>1858.08</ele><time>2026-01-31T17:47:23.000Z</time></trkpt>
        <trkpt lat="29.4896802" lon="103.2856394"><ele>1858.53</ele><time>2026-01-31T17:47:29.000Z</time></trkpt>
        <trkpt lat="29.4897192" lon="103.2856805"><ele>1858.74</ele><time>2026-01-31T17:47:35.000Z</time></trkpt>
        <trkpt lat="29.4897771" lon="103.2857043"><ele>1858.96</ele><time>2026-01-31T17:47:41.000Z</time></trkpt>
        <trkpt lat="29.4898146" lon="103.2857485"><ele>1859.52</ele><time>2026-01-31T17:47:47.000Z</time></trkpt>
        <trkpt lat="29.4898619" lon="103.2857939"><ele>1860.01</ele><time>2026-01-31T17:47:53.000Z</time></trkpt>
        <trkpt lat="29.4899139" lon="103.285837"><ele>1861.01</ele><time>2026-01-31T17:47:59.000Z</time></trkpt>
        <trkpt lat="29.489964" lon="103.2858695"><ele>1861.97</ele><time>2026-01-31T17:48:05.000Z</time></trkpt>
        <trkpt lat="29.4900094" lon="103.2859047"><ele>1862.91</ele><time>2026-01-31T17:48:11.000Z</time></trkpt>
        <trkpt lat="29.4900597" lon="103.2859308"><ele>1863.79</ele><time>2026-01-31T17:48:19.000Z</time></trkpt>
        <trkpt lat="29.490119" lon="103.2859473"><ele>1864.84</ele><time>2026-01-31T17:48:25.000Z</time></trkpt>
        <trkpt lat="29.4901724" lon="103.2859679"><ele>1865.83</ele><time>2026-01-31T17:48:31.000Z</time></trkpt>
        <trkpt lat="29.4902199" lon="103.2859895"><ele>1866.79</ele><time>2026-01-31T17:48:35.000Z</time></trkpt>
        <trkpt lat="29.4902689" lon="103.2860198"><ele>1867.62</ele><time>2026-01-31T17:48:41.000Z</time></trkpt>
        <trkpt lat="29.4903164" lon="103.2860558"><ele>1868.41</ele><time>2026-01-31T17:48:47.000Z</time></trkpt>
        <trkpt lat="29.4903678" lon="103.2860874"><ele>1869.12</ele><time>2026-01-31T17:48:53.000Z</time></trkpt>
        <trkpt lat="29.4904085" lon="103.286121"><ele>1869.53</ele><time>2026-01-31T17:48:57.000Z</time></trkpt>
        <trkpt lat="29.490455" lon="103.2861436"><ele>1870</ele><time>2026-01-31T17:49:03.000Z</time></trkpt>
        <trkpt lat="29.4905055" lon="103.2861425"><ele>1870.66</ele><time>2026-01-31T17:49:13.000Z</time></trkpt>
        <trkpt lat="29.4905467" lon="103.2861015"><ele>1871.78</ele><time>2026-01-31T17:49:19.000Z</time></trkpt>
        <trkpt lat="29.4905941" lon="103.2860902"><ele>1872.73</ele><time>2026-01-31T17:49:27.000Z</time></trkpt>
        <trkpt lat="29.4906422" lon="103.2861145"><ele>1873.11</ele><time>2026-01-31T17:49:33.000Z</time></trkpt>
        <trkpt lat="29.4906916" lon="103.2861318"><ele>1873.38</ele><time>2026-01-31T17:49:39.000Z</time></trkpt>
        <trkpt lat="29.4907569" lon="103.2861451"><ele>1873.61</ele><time>2026-01-31T17:49:46.000Z</time></trkpt>
        <trkpt lat="29.4908212" lon="103.2861473"><ele>1873.61</ele><time>2026-01-31T17:49:51.000Z</time></trkpt>
        <trkpt lat="29.4908809" lon="103.2861316"><ele>1873.92</ele><time>2026-01-31T17:49:57.000Z</time></trkpt>
        <trkpt lat="29.4909273" lon="103.2860916"><ele>1874.24</ele><time>2026-01-31T17:50:05.000Z</time></trkpt>
        <trkpt lat="29.490966" lon="103.2860304"><ele>1874.13</ele><time>2026-01-31T17:50:11.000Z</time></trkpt>
        <trkpt lat="29.4909971" lon="103.2859759"><ele>1874.36</ele><time>2026-01-31T17:50:17.000Z</time></trkpt>
        <trkpt lat="29.4910331" lon="103.2859368"><ele>1874.97</ele><time>2026-01-31T17:50:22.000Z</time></trkpt>
        <trkpt lat="29.4910691" lon="103.2859002"><ele>1875.69</ele><time>2026-01-31T17:50:27.000Z</time></trkpt>
        <trkpt lat="29.4911182" lon="103.2858756"><ele>1876.64</ele><time>2026-01-31T17:50:35.000Z</time></trkpt>
        <trkpt lat="29.4911696" lon="103.2858668"><ele>1878</ele><time>2026-01-31T17:50:41.000Z</time></trkpt>
        <trkpt lat="29.4912308" lon="103.2858724"><ele>1879.43</ele><time>2026-01-31T17:50:49.000Z</time></trkpt>
        <trkpt lat="29.4912929" lon="103.2858816"><ele>1880.48</ele><time>2026-01-31T17:50:55.000Z</time></trkpt>
        <trkpt lat="29.4913509" lon="103.2859036"><ele>1881.21</ele><time>2026-01-31T17:51:01.000Z</time></trkpt>
        <trkpt lat="29.4914061" lon="103.2859234"><ele>1881.59</ele><time>2026-01-31T17:51:07.000Z</time></trkpt>
        <trkpt lat="29.4914523" lon="103.2859522"><ele>1882.07</ele><time>2026-01-31T17:51:17.000Z</time></trkpt>
        <trkpt lat="29.4915024" lon="103.2859633"><ele>1882.55</ele><time>2026-01-31T17:51:25.000Z</time></trkpt>
        <trkpt lat="29.4915487" lon="103.2859858"><ele>1884.95</ele><time>2026-01-31T17:51:37.000Z</time></trkpt>
        <trkpt lat="29.4915879" lon="103.286022"><ele>1889.07</ele><time>2026-01-31T17:51:43.000Z</time></trkpt>
        <trkpt lat="29.4916176" lon="103.2860694"><ele>1890.21</ele><time>2026-01-31T17:51:49.000Z</time></trkpt>
        <trkpt lat="29.4916452" lon="103.28612"><ele>1889.27</ele><time>2026-01-31T17:51:53.000Z</time></trkpt>
        <trkpt lat="29.4916679" lon="103.2861718"><ele>1888.93</ele><time>2026-01-31T17:51:57.000Z</time></trkpt>
        <trkpt lat="29.4916833" lon="103.2862276"><ele>1889.03</ele><time>2026-01-31T17:52:01.000Z</time></trkpt>
        <trkpt lat="29.4916843" lon="103.2862824"><ele>1888.84</ele><time>2026-01-31T17:52:15.000Z</time></trkpt>
        <trkpt lat="29.491696" lon="103.2863628"><ele>1888.72</ele><time>2026-01-31T17:52:21.000Z</time></trkpt>
        <trkpt lat="29.4917136" lon="103.2864503"><ele>1887.71</ele><time>2026-01-31T17:52:23.000Z</time></trkpt>
        <trkpt lat="29.4917221" lon="103.2864904"><ele>1887.66</ele><time>2026-01-31T17:52:25.000Z</time></trkpt>
        <trkpt lat="29.4917353" lon="103.2865479"><ele>1887.9</ele><time>2026-01-31T17:52:31.000Z</time></trkpt>
        <trkpt lat="29.4917567" lon="103.2865996"><ele>1888.6</ele><time>2026-01-31T17:52:41.000Z</time></trkpt>
        <trkpt lat="29.4917896" lon="103.2866372"><ele>1889.41</ele><time>2026-01-31T17:52:47.000Z</time></trkpt>
        <trkpt lat="29.4918085" lon="103.2866845"><ele>1889.9</ele><time>2026-01-31T17:52:57.000Z</time></trkpt>
        <trkpt lat="29.4918395" lon="103.2867352"><ele>1892.5</ele><time>2026-01-31T17:53:05.000Z</time></trkpt>
        <trkpt lat="29.491878" lon="103.2867808"><ele>1894.65</ele><time>2026-01-31T17:53:13.000Z</time></trkpt>
        <trkpt lat="29.4919233" lon="103.2868142"><ele>1894.88</ele><time>2026-01-31T17:53:19.000Z</time></trkpt>
        <trkpt lat="29.4919682" lon="103.2868351"><ele>1895.13</ele><time>2026-01-31T17:53:25.000Z</time></trkpt>
        <trkpt lat="29.4920139" lon="103.2868544"><ele>1895.51</ele><time>2026-01-31T17:53:33.000Z</time></trkpt>
        <trkpt lat="29.4920697" lon="103.286864"><ele>1896.17</ele><time>2026-01-31T17:53:41.000Z</time></trkpt>
        <trkpt lat="29.4921181" lon="103.2868554"><ele>1897.15</ele><time>2026-01-31T17:53:47.000Z</time></trkpt>
        <trkpt lat="29.4921751" lon="103.2868323"><ele>1897.92</ele><time>2026-01-31T17:53:53.000Z</time></trkpt>
        <trkpt lat="29.4922267" lon="103.286802"><ele>1900.21</ele><time>2026-01-31T17:53:59.000Z</time></trkpt>
        <trkpt lat="29.4922656" lon="103.2867526"><ele>1901.77</ele><time>2026-01-31T17:54:05.000Z</time></trkpt>
        <trkpt lat="29.4923136" lon="103.2867284"><ele>1902.86</ele><time>2026-01-31T17:54:11.000Z</time></trkpt>
        <trkpt lat="29.4923625" lon="103.2867107"><ele>1903.67</ele><time>2026-01-31T17:54:17.000Z</time></trkpt>
        <trkpt lat="29.4924087" lon="103.2866902"><ele>1904.03</ele><time>2026-01-31T17:54:23.000Z</time></trkpt>
        <trkpt lat="29.4924576" lon="103.2866659"><ele>1904.53</ele><time>2026-01-31T17:54:29.000Z</time></trkpt>
        <trkpt lat="29.4925071" lon="103.286645"><ele>1905.38</ele><time>2026-01-31T17:54:34.000Z</time></trkpt>
        <trkpt lat="29.4925567" lon="103.2866136"><ele>1906.16</ele><time>2026-01-31T17:54:39.000Z</time></trkpt>
        <trkpt lat="29.492606" lon="103.2865952"><ele>1907.27</ele><time>2026-01-31T17:54:45.000Z</time></trkpt>
        <trkpt lat="29.4926556" lon="103.286567"><ele>1907.08</ele><time>2026-01-31T17:54:53.000Z</time></trkpt>
        <trkpt lat="29.492701" lon="103.2865431"><ele>1907.28</ele><time>2026-01-31T17:54:57.000Z</time></trkpt>
        <trkpt lat="29.4927535" lon="103.2865492"><ele>1907.56</ele><time>2026-01-31T17:55:07.000Z</time></trkpt>
        <trkpt lat="29.4928045" lon="103.2865672"><ele>1907.76</ele><time>2026-01-31T17:55:15.000Z</time></trkpt>
        <trkpt lat="29.4928512" lon="103.286597"><ele>1907.66</ele><time>2026-01-31T17:55:21.000Z</time></trkpt>
        <trkpt lat="29.4928951" lon="103.2866442"><ele>1907.68</ele><time>2026-01-31T17:55:29.000Z</time></trkpt>
        <trkpt lat="29.492929" lon="103.2867012"><ele>1907.61</ele><time>2026-01-31T17:55:35.000Z</time></trkpt>
        <trkpt lat="29.4929494" lon="103.2867549"><ele>1907.79</ele><time>2026-01-31T17:55:41.000Z</time></trkpt>
        <trkpt lat="29.492972" lon="103.2868037"><ele>1907.85</ele><time>2026-01-31T17:55:46.000Z</time></trkpt>
        <trkpt lat="29.4929956" lon="103.2868558"><ele>1907.84</ele><time>2026-01-31T17:55:51.000Z</time></trkpt>
        <trkpt lat="29.4930215" lon="103.2869137"><ele>1907.93</ele><time>2026-01-31T17:55:57.000Z</time></trkpt>
        <trkpt lat="29.4930454" lon="103.2869679"><ele>1908.11</ele><time>2026-01-31T17:56:01.000Z</time></trkpt>
        <trkpt lat="29.4930595" lon="103.2870204"><ele>1908.25</ele><time>2026-01-31T17:56:05.000Z</time></trkpt>
        <trkpt lat="29.493079" lon="103.2870805"><ele>1908.72</ele><time>2026-01-31T17:56:11.000Z</time></trkpt>
        <trkpt lat="29.4931053" lon="103.2871406"><ele>1909.21</ele><time>2026-01-31T17:56:17.000Z</time></trkpt>
        <trkpt lat="29.4931151" lon="103.2872044"><ele>1909.64</ele><time>2026-01-31T17:56:23.000Z</time></trkpt>
        <trkpt lat="29.4931251" lon="103.2872644"><ele>1910.21</ele><time>2026-01-31T17:56:29.000Z</time></trkpt>
        <trkpt lat="29.4931411" lon="103.2873193"><ele>1910.72</ele><time>2026-01-31T17:56:35.000Z</time></trkpt>
        <trkpt lat="29.4931633" lon="103.287381"><ele>1911.16</ele><time>2026-01-31T17:56:41.000Z</time></trkpt>
        <trkpt lat="29.493188" lon="103.2874319"><ele>1911.67</ele><time>2026-01-31T17:56:47.000Z</time></trkpt>
        <trkpt lat="29.4932272" lon="103.287466"><ele>1912.17</ele><time>2026-01-31T17:56:53.000Z</time></trkpt>
        <trkpt lat="29.4932669" lon="103.2875071"><ele>1912.76</ele><time>2026-01-31T17:56:59.000Z</time></trkpt>
        <trkpt lat="29.4932999" lon="103.2875469"><ele>1913.13</ele><time>2026-01-31T17:57:03.000Z</time></trkpt>
        <trkpt lat="29.4933349" lon="103.2875817"><ele>1913.4</ele><time>2026-01-31T17:57:09.000Z</time></trkpt>
        <trkpt lat="29.4933763" lon="103.2876182"><ele>1913.58</ele><time>2026-01-31T17:57:16.000Z</time></trkpt>
        <trkpt lat="29.4934305" lon="103.2876402"><ele>1913.59</ele><time>2026-01-31T17:57:21.000Z</time></trkpt>
        <trkpt lat="29.4934806" lon="103.2876366"><ele>1913.69</ele><time>2026-01-31T17:57:27.000Z</time></trkpt>
        <trkpt lat="29.493525" lon="103.2876045"><ele>1914.01</ele><time>2026-01-31T17:57:34.000Z</time></trkpt>
        <trkpt lat="29.4935479" lon="103.2875448"><ele>1914.2</ele><time>2026-01-31T17:57:39.000Z</time></trkpt>
        <trkpt lat="29.4935512" lon="103.2874762"><ele>1914.25</ele><time>2026-01-31T17:57:45.000Z</time></trkpt>
        <trkpt lat="29.4935583" lon="103.2874007"><ele>1914.46</ele><time>2026-01-31T17:57:52.000Z</time></trkpt>
        <trkpt lat="29.4935826" lon="103.2873331"><ele>1915.3</ele><time>2026-01-31T17:57:57.000Z</time></trkpt>
        <trkpt lat="29.4936309" lon="103.2872934"><ele>1916.31</ele><time>2026-01-31T17:58:03.000Z</time></trkpt>
        <trkpt lat="29.4936892" lon="103.287306"><ele>1917.42</ele><time>2026-01-31T17:58:10.000Z</time></trkpt>
        <trkpt lat="29.4937434" lon="103.2873465"><ele>1918.58</ele><time>2026-01-31T17:58:17.000Z</time></trkpt>
        <trkpt lat="29.4937742" lon="103.2874099"><ele>1919.49</ele><time>2026-01-31T17:58:23.000Z</time></trkpt>
        <trkpt lat="29.493805" lon="103.2874631"><ele>1920.33</ele><time>2026-01-31T17:58:29.000Z</time></trkpt>
        <trkpt lat="29.493821" lon="103.2875187"><ele>1921.08</ele><time>2026-01-31T17:58:35.000Z</time></trkpt>
        <trkpt lat="29.4938384" lon="103.2875781"><ele>1922</ele><time>2026-01-31T17:58:46.000Z</time></trkpt>
        <trkpt lat="29.4938597" lon="103.287631"><ele>1923.4</ele><time>2026-01-31T17:58:51.000Z</time></trkpt>
        <trkpt lat="29.4938761" lon="103.2876987"><ele>1924.41</ele><time>2026-01-31T17:58:57.000Z</time></trkpt>
        <trkpt lat="29.4938994" lon="103.2877607"><ele>1925</ele><time>2026-01-31T17:59:04.000Z</time></trkpt>
        <trkpt lat="29.4939421" lon="103.2878096"><ele>1925.41</ele><time>2026-01-31T17:59:11.000Z</time></trkpt>
        <trkpt lat="29.4939834" lon="103.2878503"><ele>1925.35</ele><time>2026-01-31T17:59:17.000Z</time></trkpt>
        <trkpt lat="29.4940231" lon="103.2878829"><ele>1925.38</ele><time>2026-01-31T17:59:21.000Z</time></trkpt>
        <trkpt lat="29.4940642" lon="103.2879093"><ele>1925.84</ele><time>2026-01-31T17:59:25.000Z</time></trkpt>
        <trkpt lat="29.4941059" lon="103.2879301"><ele>1926.6</ele><time>2026-01-31T17:59:29.000Z</time></trkpt>
        <trkpt lat="29.4941574" lon="103.2879511"><ele>1927.99</ele><time>2026-01-31T17:59:35.000Z</time></trkpt>
        <trkpt lat="29.4942058" lon="103.2879691"><ele>1928.92</ele><time>2026-01-31T17:59:41.000Z</time></trkpt>
        <trkpt lat="29.4942591" lon="103.2879919"><ele>1929.4</ele><time>2026-01-31T17:59:47.000Z</time></trkpt>
        <trkpt lat="29.4943165" lon="103.2880121"><ele>1929.57</ele><time>2026-01-31T17:59:53.000Z</time></trkpt>
        <trkpt lat="29.4943623" lon="103.2880416"><ele>1929.84</ele><time>2026-01-31T17:59:59.000Z</time></trkpt>
        <trkpt lat="29.4944034" lon="103.2880723"><ele>1930.32</ele><time>2026-01-31T18:00:03.000Z</time></trkpt>
        <trkpt lat="29.4944538" lon="103.2880998"><ele>1930.54</ele><time>2026-01-31T18:00:09.000Z</time></trkpt>
        <trkpt lat="29.4945073" lon="103.2881291"><ele>1930.74</ele><time>2026-01-31T18:00:17.000Z</time></trkpt>
        <trkpt lat="29.4945588" lon="103.2881354"><ele>1931.55</ele><time>2026-01-31T18:00:27.000Z</time></trkpt>
        <trkpt lat="29.4945945" lon="103.288094"><ele>1932.36</ele><time>2026-01-31T18:00:35.000Z</time></trkpt>
        <trkpt lat="29.4946265" lon="103.2880309"><ele>1933.23</ele><time>2026-01-31T18:00:41.000Z</time></trkpt>
        <trkpt lat="29.4946393" lon="103.2879675"><ele>1934.05</ele><time>2026-01-31T18:00:47.000Z</time></trkpt>
        <trkpt lat="29.4946576" lon="103.2879041"><ele>1937.56</ele><time>2026-01-31T18:00:51.000Z</time></trkpt>
        <trkpt lat="29.4946576" lon="103.2879041"><ele>1937.56</ele><time>2026-01-31T18:00:51.000Z</time></trkpt>
        <trkpt lat="29.4946835" lon="103.2878518"><ele>1941.49</ele><time>2026-01-31T18:00:55.000Z</time></trkpt>
        <trkpt lat="29.4947997" lon="103.2878125"><ele>1935.15</ele><time>2026-01-31T18:01:07.000Z</time></trkpt>
        <trkpt lat="29.4948273" lon="103.2878544"><ele>1935.15</ele><time>2026-01-31T18:01:13.000Z</time></trkpt>
        <trkpt lat="29.494862" lon="103.2879026"><ele>1935.64</ele><time>2026-01-31T18:01:19.000Z</time></trkpt>
        <trkpt lat="29.4948889" lon="103.2879656"><ele>1936.12</ele><time>2026-01-31T18:03:33.000Z</time></trkpt>
        <trkpt lat="29.4949164" lon="103.2880178"><ele>1939.39</ele><time>2026-01-31T18:03:39.000Z</time></trkpt>
        <trkpt lat="29.4949502" lon="103.2880672"><ele>1941.31</ele><time>2026-01-31T18:03:45.000Z</time></trkpt>
        <trkpt lat="29.4949882" lon="103.2881012"><ele>1940.3</ele><time>2026-01-31T18:03:52.000Z</time></trkpt>
        <trkpt lat="29.4950276" lon="103.2881414"><ele>1940.15</ele><time>2026-01-31T18:03:59.000Z</time></trkpt>
        <trkpt lat="29.4950718" lon="103.2881762"><ele>1940.37</ele><time>2026-01-31T18:04:07.000Z</time></trkpt>
        <trkpt lat="29.4951251" lon="103.2882145"><ele>1940.81</ele><time>2026-01-31T18:04:15.000Z</time></trkpt>
        <trkpt lat="29.4951773" lon="103.2882368"><ele>1940.98</ele><time>2026-01-31T18:04:21.000Z</time></trkpt>
        <trkpt lat="29.4952245" lon="103.2882612"><ele>1941.02</ele><time>2026-01-31T18:04:29.000Z</time></trkpt>
        <trkpt lat="29.4952815" lon="103.2882644"><ele>1943.28</ele><time>2026-01-31T18:04:37.000Z</time></trkpt>
        <trkpt lat="29.4953314" lon="103.2882653"><ele>1943.85</ele><time>2026-01-31T18:04:43.000Z</time></trkpt>
        <trkpt lat="29.4953839" lon="103.288264"><ele>1944.26</ele><time>2026-01-31T18:04:49.000Z</time></trkpt>
        <trkpt lat="29.4954368" lon="103.2882806"><ele>1944.21</ele><time>2026-01-31T18:04:55.000Z</time></trkpt>
        <trkpt lat="29.495489" lon="103.2883089"><ele>1944.85</ele><time>2026-01-31T18:05:01.000Z</time></trkpt>
        <trkpt lat="29.4955346" lon="103.2883597"><ele>1945.33</ele><time>2026-01-31T18:05:07.000Z</time></trkpt>
        <trkpt lat="29.4955852" lon="103.2883916"><ele>1945.51</ele><time>2026-01-31T18:05:13.000Z</time></trkpt>
        <trkpt lat="29.4956403" lon="103.2883987"><ele>1945.62</ele><time>2026-01-31T18:05:19.000Z</time></trkpt>
        <trkpt lat="29.4957045" lon="103.2883918"><ele>1945.9</ele><time>2026-01-31T18:05:25.000Z</time></trkpt>
        <trkpt lat="29.4957615" lon="103.2883792"><ele>1946.45</ele><time>2026-01-31T18:05:31.000Z</time></trkpt>
        <trkpt lat="29.4958178" lon="103.2883605"><ele>1946.99</ele><time>2026-01-31T18:05:40.000Z</time></trkpt>
        <trkpt lat="29.4958738" lon="103.2883314"><ele>1947.67</ele><time>2026-01-31T18:05:47.000Z</time></trkpt>
        <trkpt lat="29.4959204" lon="103.2883086"><ele>1948.45</ele><time>2026-01-31T18:05:53.000Z</time></trkpt>
        <trkpt lat="29.4959691" lon="103.28829"><ele>1948.93</ele><time>2026-01-31T18:05:59.000Z</time></trkpt>
        <trkpt lat="29.496022" lon="103.2882707"><ele>1949.53</ele><time>2026-01-31T18:06:09.000Z</time></trkpt>
        <trkpt lat="29.4960728" lon="103.2882626"><ele>1950.51</ele><time>2026-01-31T18:06:16.000Z</time></trkpt>
        <trkpt lat="29.4961301" lon="103.2882528"><ele>1951.42</ele><time>2026-01-31T18:06:23.000Z</time></trkpt>
        <trkpt lat="29.4961831" lon="103.2882534"><ele>1951.95</ele><time>2026-01-31T18:06:29.000Z</time></trkpt>
        <trkpt lat="29.4962369" lon="103.288255"><ele>1952.64</ele><time>2026-01-31T18:06:35.000Z</time></trkpt>
        <trkpt lat="29.4962859" lon="103.2882529"><ele>1953.61</ele><time>2026-01-31T18:06:41.000Z</time></trkpt>
        <trkpt lat="29.4963394" lon="103.2882434"><ele>1954.73</ele><time>2026-01-31T18:06:47.000Z</time></trkpt>
        <trkpt lat="29.4964017" lon="103.2882383"><ele>1955.73</ele><time>2026-01-31T18:06:55.000Z</time></trkpt>
        <trkpt lat="29.4964629" lon="103.2882425"><ele>1956.67</ele><time>2026-01-31T18:07:03.000Z</time></trkpt>
        <trkpt lat="29.4965153" lon="103.2882481"><ele>1957.37</ele><time>2026-01-31T18:07:10.000Z</time></trkpt>
        <trkpt lat="29.4965669" lon="103.2882518"><ele>1958.25</ele><time>2026-01-31T18:07:15.000Z</time></trkpt>
        <trkpt lat="29.4966167" lon="103.2882553"><ele>1959.31</ele><time>2026-01-31T18:07:21.000Z</time></trkpt>
        <trkpt lat="29.4966649" lon="103.2882483"><ele>1960.39</ele><time>2026-01-31T18:07:28.000Z</time></trkpt>
        <trkpt lat="29.4967189" lon="103.2882529"><ele>1961.32</ele><time>2026-01-31T18:07:35.000Z</time></trkpt>
        <trkpt lat="29.4967687" lon="103.2882786"><ele>1961.89</ele><time>2026-01-31T18:07:43.000Z</time></trkpt>
        <trkpt lat="29.4968065" lon="103.2883246"><ele>1962.06</ele><time>2026-01-31T18:07:51.000Z</time></trkpt>
        <trkpt lat="29.4968342" lon="103.2884214"><ele>1962.37</ele><time>2026-01-31T18:07:59.000Z</time></trkpt>
        <trkpt lat="29.4968438" lon="103.2884977"><ele>1968.26</ele><time>2026-01-31T18:08:04.000Z</time></trkpt>
        <trkpt lat="29.4968546" lon="103.2885605"><ele>1971.79</ele><time>2026-01-31T18:08:09.000Z</time></trkpt>
        <trkpt lat="29.4968692" lon="103.2886176"><ele>1972.19</ele><time>2026-01-31T18:08:19.000Z</time></trkpt>
        <trkpt lat="29.4968593" lon="103.2886669"><ele>1972.19</ele><time>2026-01-31T18:08:27.000Z</time></trkpt>
        <trkpt lat="29.4968599" lon="103.2887194"><ele>1974.6</ele><time>2026-01-31T18:08:37.000Z</time></trkpt>
        <trkpt lat="29.496881" lon="103.2887722"><ele>1975.78</ele><time>2026-01-31T18:08:43.000Z</time></trkpt>
        <trkpt lat="29.4969082" lon="103.2888238"><ele>1976.57</ele><time>2026-01-31T18:08:49.000Z</time></trkpt>
        <trkpt lat="29.496942" lon="103.288882"><ele>1977.17</ele><time>2026-01-31T18:08:55.000Z</time></trkpt>
        <trkpt lat="29.4969821" lon="103.2889247"><ele>1977.11</ele><time>2026-01-31T18:09:01.000Z</time></trkpt>
        <trkpt lat="29.4970056" lon="103.2889816"><ele>1976.48</ele><time>2026-01-31T18:09:07.000Z</time></trkpt>
        <trkpt lat="29.4970317" lon="103.2890317"><ele>1976.18</ele><time>2026-01-31T18:09:13.000Z</time></trkpt>
        <trkpt lat="29.4970684" lon="103.2890745"><ele>1976.44</ele><time>2026-01-31T18:09:21.000Z</time></trkpt>
        <trkpt lat="29.4971128" lon="103.2891086"><ele>1976.83</ele><time>2026-01-31T18:09:27.000Z</time></trkpt>
        <trkpt lat="29.4971624" lon="103.2891096"><ele>1977.35</ele><time>2026-01-31T18:09:34.000Z</time></trkpt>
        <trkpt lat="29.4972159" lon="103.2891185"><ele>1978.02</ele><time>2026-01-31T18:09:41.000Z</time></trkpt>
        <trkpt lat="29.4972666" lon="103.2891154"><ele>1978.56</ele><time>2026-01-31T18:09:47.000Z</time></trkpt>
        <trkpt lat="29.4973197" lon="103.2891066"><ele>1979.31</ele><time>2026-01-31T18:09:53.000Z</time></trkpt>
        <trkpt lat="29.4973714" lon="103.2890845"><ele>1979.97</ele><time>2026-01-31T18:09:59.000Z</time></trkpt>
        <trkpt lat="29.4974234" lon="103.2890666"><ele>1980.8</ele><time>2026-01-31T18:10:05.000Z</time></trkpt>
        <trkpt lat="29.4974663" lon="103.2890422"><ele>1981.7</ele><time>2026-01-31T18:10:11.000Z</time></trkpt>
        <trkpt lat="29.4975195" lon="103.2890285"><ele>1982.37</ele><time>2026-01-31T18:10:17.000Z</time></trkpt>
        <trkpt lat="29.4975712" lon="103.2890325"><ele>1983.21</ele><time>2026-01-31T18:10:23.000Z</time></trkpt>
        <trkpt lat="29.4976473" lon="103.2890654"><ele>1984.09</ele><time>2026-01-31T18:10:30.000Z</time></trkpt>
        <trkpt lat="29.4977001" lon="103.2891026"><ele>1988.44</ele><time>2026-01-31T18:10:34.000Z</time></trkpt>
        <trkpt lat="29.4977468" lon="103.289135"><ele>1991.12</ele><time>2026-01-31T18:10:40.000Z</time></trkpt>
        <trkpt lat="29.497795" lon="103.2891568"><ele>1992.92</ele><time>2026-01-31T18:10:47.000Z</time></trkpt>
        <trkpt lat="29.4978464" lon="103.2891825"><ele>1991.89</ele><time>2026-01-31T18:10:53.000Z</time></trkpt>
        <trkpt lat="29.497897" lon="103.2892171"><ele>1991.44</ele><time>2026-01-31T18:10:59.000Z</time></trkpt>
        <trkpt lat="29.4979494" lon="103.2892492"><ele>1991.16</ele><time>2026-01-31T18:11:05.000Z</time></trkpt>
        <trkpt lat="29.4979996" lon="103.289275"><ele>1990.87</ele><time>2026-01-31T18:11:11.000Z</time></trkpt>
        <trkpt lat="29.4980528" lon="103.2892983"><ele>1990.87</ele><time>2026-01-31T18:11:19.000Z</time></trkpt>
        <trkpt lat="29.4981071" lon="103.2893184"><ele>1991.17</ele><time>2026-01-31T18:11:25.000Z</time></trkpt>
        <trkpt lat="29.4981601" lon="103.289333"><ele>1991.36</ele><time>2026-01-31T18:11:31.000Z</time></trkpt>
        <trkpt lat="29.4982166" lon="103.2893451"><ele>1991.87</ele><time>2026-01-31T18:11:37.000Z</time></trkpt>
        <trkpt lat="29.4982734" lon="103.2893598"><ele>1992.41</ele><time>2026-01-31T18:11:43.000Z</time></trkpt>
        <trkpt lat="29.4983227" lon="103.2893771"><ele>1992.95</ele><time>2026-01-31T18:11:47.000Z</time></trkpt>
        <trkpt lat="29.4983777" lon="103.2894021"><ele>1993.61</ele><time>2026-01-31T18:11:53.000Z</time></trkpt>
        <trkpt lat="29.4984295" lon="103.2894293"><ele>1994.39</ele><time>2026-01-31T18:11:59.000Z</time></trkpt>
        <trkpt lat="29.4984764" lon="103.2894573"><ele>1995.02</ele><time>2026-01-31T18:12:05.000Z</time></trkpt>
        <trkpt lat="29.4985228" lon="103.2894826"><ele>1995.54</ele><time>2026-01-31T18:12:11.000Z</time></trkpt>
        <trkpt lat="29.49858" lon="103.2894944"><ele>1996.06</ele><time>2026-01-31T18:12:17.000Z</time></trkpt>
        <trkpt lat="29.4986338" lon="103.2894994"><ele>1996.7</ele><time>2026-01-31T18:12:23.000Z</time></trkpt>
        <trkpt lat="29.4986845" lon="103.2894992"><ele>1997.15</ele><time>2026-01-31T18:12:29.000Z</time></trkpt>
        <trkpt lat="29.4987324" lon="103.2894917"><ele>1997.76</ele><time>2026-01-31T18:12:35.000Z</time></trkpt>
        <trkpt lat="29.4987848" lon="103.2894729"><ele>1998.4</ele><time>2026-01-31T18:12:43.000Z</time></trkpt>
        <trkpt lat="29.4988319" lon="103.2894639"><ele>1999.59</ele><time>2026-01-31T18:12:49.000Z</time></trkpt>
        <trkpt lat="29.4988758" lon="103.2894753"><ele>2000.71</ele><time>2026-01-31T18:12:54.000Z</time></trkpt>
        <trkpt lat="29.4989222" lon="103.289484"><ele>2004.2</ele><time>2026-01-31T18:13:15.000Z</time></trkpt>
        <trkpt lat="29.4989676" lon="103.2894993"><ele>2006.52</ele><time>2026-01-31T18:13:21.000Z</time></trkpt>
        <trkpt lat="29.4990232" lon="103.2895116"><ele>2008.06</ele><time>2026-01-31T18:13:29.000Z</time></trkpt>
        <trkpt lat="29.4990711" lon="103.2895299"><ele>2007.82</ele><time>2026-01-31T18:13:35.000Z</time></trkpt>
        <trkpt lat="29.4991194" lon="103.2895418"><ele>2007.67</ele><time>2026-01-31T18:13:41.000Z</time></trkpt>
        <trkpt lat="29.4991647" lon="103.289526"><ele>2007.83</ele><time>2026-01-31T18:13:47.000Z</time></trkpt>
        <trkpt lat="29.4992123" lon="103.2894882"><ele>2007.86</ele><time>2026-01-31T18:13:53.000Z</time></trkpt>
        <trkpt lat="29.4992634" lon="103.2894605"><ele>2007.46</ele><time>2026-01-31T18:13:59.000Z</time></trkpt>
        <trkpt lat="29.4993176" lon="103.2894507"><ele>2007.19</ele><time>2026-01-31T18:14:05.000Z</time></trkpt>
        <trkpt lat="29.499373" lon="103.2894592"><ele>2007.03</ele><time>2026-01-31T18:14:11.000Z</time></trkpt>
        <trkpt lat="29.4994182" lon="103.2894819"><ele>2006.94</ele><time>2026-01-31T18:14:15.000Z</time></trkpt>
        <trkpt lat="29.4994411" lon="103.2894951"><ele>2007.27</ele><time>2026-01-31T18:14:17.000Z</time></trkpt>
        <trkpt lat="29.4994754" lon="103.2895146"><ele>2007.48</ele><time>2026-01-31T18:14:22.000Z</time></trkpt>
        <trkpt lat="29.4995217" lon="103.289534"><ele>2007.91</ele><time>2026-01-31T18:14:27.000Z</time></trkpt>
        <trkpt lat="29.4995764" lon="103.2895495"><ele>2008.63</ele><time>2026-01-31T18:14:33.000Z</time></trkpt>
        <trkpt lat="29.4996323" lon="103.2895557"><ele>2009.03</ele><time>2026-01-31T18:14:39.000Z</time></trkpt>
        <trkpt lat="29.4996793" lon="103.2895409"><ele>2009.45</ele><time>2026-01-31T18:14:45.000Z</time></trkpt>
        <trkpt lat="29.4997254" lon="103.289518"><ele>2009.9</ele><time>2026-01-31T18:14:51.000Z</time></trkpt>
        <trkpt lat="29.4997583" lon="103.2894782"><ele>2010.3</ele><time>2026-01-31T18:14:57.000Z</time></trkpt>
        <trkpt lat="29.4997878" lon="103.2894359"><ele>2010.73</ele><time>2026-01-31T18:15:05.000Z</time></trkpt>
        <trkpt lat="29.4998115" lon="103.2893817"><ele>2011.8</ele><time>2026-01-31T18:15:11.000Z</time></trkpt>
        <trkpt lat="29.4998122" lon="103.28931"><ele>2011.99</ele><time>2026-01-31T18:15:17.000Z</time></trkpt>
        <trkpt lat="29.4998048" lon="103.2892407"><ele>2012.15</ele><time>2026-01-31T18:15:23.000Z</time></trkpt>
        <trkpt lat="29.4998021" lon="103.2891782"><ele>2012.65</ele><time>2026-01-31T18:15:29.000Z</time></trkpt>
        <trkpt lat="29.4998028" lon="103.2891118"><ele>2013.09</ele><time>2026-01-31T18:15:35.000Z</time></trkpt>
        <trkpt lat="29.4998064" lon="103.2890502"><ele>2013.66</ele><time>2026-01-31T18:15:41.000Z</time></trkpt>
        <trkpt lat="29.4998129" lon="103.2889851"><ele>2014.15</ele><time>2026-01-31T18:15:47.000Z</time></trkpt>
        <trkpt lat="29.4998207" lon="103.2889195"><ele>2014.78</ele><time>2026-01-31T18:15:53.000Z</time></trkpt>
        <trkpt lat="29.4998361" lon="103.2888564"><ele>2015.65</ele><time>2026-01-31T18:15:59.000Z</time></trkpt>
        <trkpt lat="29.49986" lon="103.2888027"><ele>2016.44</ele><time>2026-01-31T18:16:05.000Z</time></trkpt>
        <trkpt lat="29.4998918" lon="103.2887537"><ele>2017.05</ele><time>2026-01-31T18:16:11.000Z</time></trkpt>
        <trkpt lat="29.4999317" lon="103.2887169"><ele>2017.6</ele><time>2026-01-31T18:16:17.000Z</time></trkpt>
        <trkpt lat="29.4999916" lon="103.2886989"><ele>2018.11</ele><time>2026-01-31T18:16:23.000Z</time></trkpt>
        <trkpt lat="29.5000502" lon="103.2887032"><ele>2019.49</ele><time>2026-01-31T18:16:29.000Z</time></trkpt>
        <trkpt lat="29.5001017" lon="103.2887223"><ele>2020.9</ele><time>2026-01-31T18:16:35.000Z</time></trkpt>
        <trkpt lat="29.5001494" lon="103.2887448"><ele>2021.74</ele><time>2026-01-31T18:16:41.000Z</time></trkpt>
        <trkpt lat="29.5001994" lon="103.2887636"><ele>2022.24</ele><time>2026-01-31T18:16:47.000Z</time></trkpt>
        <trkpt lat="29.5002446" lon="103.2887863"><ele>2022.66</ele><time>2026-01-31T18:16:53.000Z</time></trkpt>
        <trkpt lat="29.5002939" lon="103.2888145"><ele>2022.9</ele><time>2026-01-31T18:16:59.000Z</time></trkpt>
        <trkpt lat="29.5003434" lon="103.2888429"><ele>2023.09</ele><time>2026-01-31T18:17:05.000Z</time></trkpt>
        <trkpt lat="29.5003932" lon="103.2888739"><ele>2023.33</ele><time>2026-01-31T18:17:11.000Z</time></trkpt>
        <trkpt lat="29.5004485" lon="103.288908"><ele>2023.47</ele><time>2026-01-31T18:17:17.000Z</time></trkpt>
        <trkpt lat="29.5004953" lon="103.2889341"><ele>2023.41</ele><time>2026-01-31T18:17:22.000Z</time></trkpt>
        <trkpt lat="29.5005456" lon="103.2889639"><ele>2023.73</ele><time>2026-01-31T18:17:27.000Z</time></trkpt>
        <trkpt lat="29.500603" lon="103.2889802"><ele>2024.31</ele><time>2026-01-31T18:17:33.000Z</time></trkpt>
        <trkpt lat="29.5006627" lon="103.2889906"><ele>2024.61</ele><time>2026-01-31T18:17:39.000Z</time></trkpt>
        <trkpt lat="29.500715" lon="103.2889992"><ele>2025.02</ele><time>2026-01-31T18:17:45.000Z</time></trkpt>
        <trkpt lat="29.5007644" lon="103.2890062"><ele>2025.38</ele><time>2026-01-31T18:17:51.000Z</time></trkpt>
        <trkpt lat="29.5008119" lon="103.28902"><ele>2025.58</ele><time>2026-01-31T18:17:57.000Z</time></trkpt>
        <trkpt lat="29.5008575" lon="103.2890425"><ele>2025.92</ele><time>2026-01-31T18:18:11.000Z</time></trkpt>
        <trkpt lat="29.5009017" lon="103.2890689"><ele>2026.19</ele><time>2026-01-31T18:18:17.000Z</time></trkpt>
        <trkpt lat="29.5009457" lon="103.2890957"><ele>2026.35</ele><time>2026-01-31T18:18:21.000Z</time></trkpt>
        <trkpt lat="29.5010014" lon="103.289134"><ele>2026.53</ele><time>2026-01-31T18:18:29.000Z</time></trkpt>
        <trkpt lat="29.5010519" lon="103.2891656"><ele>2026.74</ele><time>2026-01-31T18:18:33.000Z</time></trkpt>
        <trkpt lat="29.5011043" lon="103.2891981"><ele>2026.93</ele><time>2026-01-31T18:18:39.000Z</time></trkpt>
        <trkpt lat="29.5011494" lon="103.2892261"><ele>2028.75</ele><time>2026-01-31T18:18:41.000Z</time></trkpt>
        <trkpt lat="29.5011941" lon="103.2892377"><ele>2029.81</ele><time>2026-01-31T18:18:45.000Z</time></trkpt>
        <trkpt lat="29.5012504" lon="103.2892456"><ele>2030.51</ele><time>2026-01-31T18:18:51.000Z</time></trkpt>
        <trkpt lat="29.5013054" lon="103.2892577"><ele>2028.74</ele><time>2026-01-31T18:18:59.000Z</time></trkpt>
        <trkpt lat="29.5013668" lon="103.2892619"><ele>2027.7</ele><time>2026-01-31T18:19:03.000Z</time></trkpt>
        <trkpt lat="29.5014217" lon="103.2892606"><ele>2027.08</ele><time>2026-01-31T18:19:07.000Z</time></trkpt>
        <trkpt lat="29.5014777" lon="103.289274"><ele>2026.82</ele><time>2026-01-31T18:19:13.000Z</time></trkpt>
        <trkpt lat="29.5015279" lon="103.2892807"><ele>2026.57</ele><time>2026-01-31T18:19:29.000Z</time></trkpt>
        <trkpt lat="29.5015765" lon="103.2892666"><ele>2026.17</ele><time>2026-01-31T18:23:47.000Z</time></trkpt>
        <trkpt lat="29.5016323" lon="103.2892492"><ele>2025.64</ele><time>2026-01-31T18:23:53.000Z</time></trkpt>
        <trkpt lat="29.5016799" lon="103.2892252"><ele>2025.32</ele><time>2026-01-31T18:24:01.000Z</time></trkpt>
        <trkpt lat="29.5017277" lon="103.2892081"><ele>2025.25</ele><time>2026-01-31T18:24:25.000Z</time></trkpt>
        <trkpt lat="29.5017657" lon="103.2891642"><ele>2025.23</ele><time>2026-01-31T18:24:33.000Z</time></trkpt>
        <trkpt lat="29.5017842" lon="103.2891002"><ele>2024.95</ele><time>2026-01-31T18:24:39.000Z</time></trkpt>
        <trkpt lat="29.5017796" lon="103.2890298"><ele>2024.43</ele><time>2026-01-31T18:24:45.000Z</time></trkpt>
        <trkpt lat="29.5017693" lon="103.2889582"><ele>2024.04</ele><time>2026-01-31T18:24:51.000Z</time></trkpt>
        <trkpt lat="29.5017683" lon="103.2888993"><ele>2023.34</ele><time>2026-01-31T18:24:57.000Z</time></trkpt>
        <trkpt lat="29.5017696" lon="103.2888338"><ele>2022.82</ele><time>2026-01-31T18:25:03.000Z</time></trkpt>
        <trkpt lat="29.5017736" lon="103.2887769"><ele>2022.44</ele><time>2026-01-31T18:25:07.000Z</time></trkpt>
        <trkpt lat="29.5017667" lon="103.2887233"><ele>2022.18</ele><time>2026-01-31T18:25:11.000Z</time></trkpt>
        <trkpt lat="29.5017366" lon="103.2886713"><ele>2022.2</ele><time>2026-01-31T18:25:17.000Z</time></trkpt>
        <trkpt lat="29.501713" lon="103.2886225"><ele>2022.33</ele><time>2026-01-31T18:25:21.000Z</time></trkpt>
        <trkpt lat="29.5017193" lon="103.2885688"><ele>2022.38</ele><time>2026-01-31T18:25:27.000Z</time></trkpt>
        <trkpt lat="29.5017359" lon="103.2885123"><ele>2022.48</ele><time>2026-01-31T18:25:33.000Z</time></trkpt>
        <trkpt lat="29.5017434" lon="103.2884538"><ele>2021.8</ele><time>2026-01-31T18:25:41.000Z</time></trkpt>
        <trkpt lat="29.5017812" lon="103.2884345"><ele>2021.55</ele><time>2026-01-31T18:26:27.000Z</time></trkpt>
        <trkpt lat="29.5018267" lon="103.2884094"><ele>2021.79</ele><time>2026-01-31T18:26:41.000Z</time></trkpt>
        <trkpt lat="29.5018783" lon="103.2884004"><ele>2022.1</ele><time>2026-01-31T18:27:13.000Z</time></trkpt>
        <trkpt lat="29.5019252" lon="103.2883795"><ele>2022.81</ele><time>2026-01-31T18:27:21.000Z</time></trkpt>
        <trkpt lat="29.5019736" lon="103.2883406"><ele>2023.33</ele><time>2026-01-31T18:27:29.000Z</time></trkpt>
        <trkpt lat="29.5020278" lon="103.2882975"><ele>2023.8</ele><time>2026-01-31T18:27:35.000Z</time></trkpt>
        <trkpt lat="29.5020749" lon="103.2882591"><ele>2024.34</ele><time>2026-01-31T18:27:41.000Z</time></trkpt>
        <trkpt lat="29.5021256" lon="103.2882187"><ele>2024.06</ele><time>2026-01-31T18:27:47.000Z</time></trkpt>
        <trkpt lat="29.5021708" lon="103.2881951"><ele>2024.59</ele><time>2026-01-31T18:27:52.000Z</time></trkpt>
        <trkpt lat="29.5022278" lon="103.2881756"><ele>2025.2</ele><time>2026-01-31T18:27:57.000Z</time></trkpt>
        <trkpt lat="29.5022797" lon="103.2881644"><ele>2025.61</ele><time>2026-01-31T18:28:03.000Z</time></trkpt>
        <trkpt lat="29.5023345" lon="103.2881577"><ele>2025.75</ele><time>2026-01-31T18:28:10.000Z</time></trkpt>
        <trkpt lat="29.5023827" lon="103.2881602"><ele>2026.13</ele><time>2026-01-31T18:28:15.000Z</time></trkpt>
        <trkpt lat="29.5024344" lon="103.2881596"><ele>2026.82</ele><time>2026-01-31T18:28:21.000Z</time></trkpt>
        <trkpt lat="29.5024894" lon="103.2881676"><ele>2027.42</ele><time>2026-01-31T18:28:28.000Z</time></trkpt>
        <trkpt lat="29.5025412" lon="103.2881828"><ele>2028.14</ele><time>2026-01-31T18:28:33.000Z</time></trkpt>
        <trkpt lat="29.502598" lon="103.2881993"><ele>2028.77</ele><time>2026-01-31T18:28:39.000Z</time></trkpt>
        <trkpt lat="29.5026426" lon="103.2882305"><ele>2029.17</ele><time>2026-01-31T18:28:43.000Z</time></trkpt>
        <trkpt lat="29.5026796" lon="103.2882752"><ele>2029.58</ele><time>2026-01-31T18:28:49.000Z</time></trkpt>
        <trkpt lat="29.502699" lon="103.2883283"><ele>2030.23</ele><time>2026-01-31T18:28:55.000Z</time></trkpt>
        <trkpt lat="29.5027161" lon="103.2883814"><ele>2030.97</ele><time>2026-01-31T18:29:01.000Z</time></trkpt>
        <trkpt lat="29.5027306" lon="103.2884417"><ele>2031.64</ele><time>2026-01-31T18:29:07.000Z</time></trkpt>
        <trkpt lat="29.5027397" lon="103.2884984"><ele>2032.16</ele><time>2026-01-31T18:29:13.000Z</time></trkpt>
        <trkpt lat="29.5027515" lon="103.2885616"><ele>2032.8</ele><time>2026-01-31T18:29:19.000Z</time></trkpt>
        <trkpt lat="29.5027658" lon="103.288624"><ele>2033.42</ele><time>2026-01-31T18:29:25.000Z</time></trkpt>
        <trkpt lat="29.5027813" lon="103.2886902"><ele>2034.2</ele><time>2026-01-31T18:29:31.000Z</time></trkpt>
        <trkpt lat="29.50281" lon="103.2887449"><ele>2034.95</ele><time>2026-01-31T18:29:37.000Z</time></trkpt>
        <trkpt lat="29.5028387" lon="103.2887997"><ele>2035.96</ele><time>2026-01-31T18:29:43.000Z</time></trkpt>
        <trkpt lat="29.5028743" lon="103.2888489"><ele>2036.98</ele><time>2026-01-31T18:29:49.000Z</time></trkpt>
        <trkpt lat="29.5029144" lon="103.2888972"><ele>2037.76</ele><time>2026-01-31T18:29:55.000Z</time></trkpt>
        <trkpt lat="29.5029495" lon="103.2889458"><ele>2038.69</ele><time>2026-01-31T18:30:01.000Z</time></trkpt>
        <trkpt lat="29.5029822" lon="103.2890006"><ele>2039.6</ele><time>2026-01-31T18:30:07.000Z</time></trkpt>
        <trkpt lat="29.5030197" lon="103.2890566"><ele>2040.2</ele><time>2026-01-31T18:30:13.000Z</time></trkpt>
        <trkpt lat="29.5030535" lon="103.2891219"><ele>2040.65</ele><time>2026-01-31T18:30:19.000Z</time></trkpt>
        <trkpt lat="29.5030811" lon="103.2891851"><ele>2041.16</ele><time>2026-01-31T18:30:25.000Z</time></trkpt>
        <trkpt lat="29.5031035" lon="103.2892382"><ele>2041.64</ele><time>2026-01-31T18:30:29.000Z</time></trkpt>
        <trkpt lat="29.5031216" lon="103.2893022"><ele>2042.24</ele><time>2026-01-31T18:30:35.000Z</time></trkpt>
        <trkpt lat="29.5031466" lon="103.2893681"><ele>2042.93</ele><time>2026-01-31T18:30:41.000Z</time></trkpt>
        <trkpt lat="29.5031742" lon="103.2894269"><ele>2043.51</ele><time>2026-01-31T18:30:47.000Z</time></trkpt>
        <trkpt lat="29.5031842" lon="103.28948"><ele>2044.1</ele><time>2026-01-31T18:30:52.000Z</time></trkpt>
        <trkpt lat="29.5031986" lon="103.2895479"><ele>2044.4</ele><time>2026-01-31T18:30:57.000Z</time></trkpt>
        <trkpt lat="29.5032102" lon="103.2896083"><ele>2044.7</ele><time>2026-01-31T18:31:03.000Z</time></trkpt>
        <trkpt lat="29.5032263" lon="103.2896628"><ele>2045.13</ele><time>2026-01-31T18:31:13.000Z</time></trkpt>
        <trkpt lat="29.5032597" lon="103.289722"><ele>2045.73</ele><time>2026-01-31T18:31:23.000Z</time></trkpt>
        <trkpt lat="29.5033004" lon="103.2897728"><ele>2046.14</ele><time>2026-01-31T18:31:29.000Z</time></trkpt>
        <trkpt lat="29.5033475" lon="103.2898087"><ele>2046.5</ele><time>2026-01-31T18:31:35.000Z</time></trkpt>
        <trkpt lat="29.503402" lon="103.2898166"><ele>2047</ele><time>2026-01-31T18:31:41.000Z</time></trkpt>
        <trkpt lat="29.5034512" lon="103.2898152"><ele>2047.57</ele><time>2026-01-31T18:31:47.000Z</time></trkpt>
        <trkpt lat="29.5035086" lon="103.2898223"><ele>2047.95</ele><time>2026-01-31T18:31:53.000Z</time></trkpt>
        <trkpt lat="29.5035701" lon="103.2898353"><ele>2048.25</ele><time>2026-01-31T18:31:57.000Z</time></trkpt>
        <trkpt lat="29.503624" lon="103.289805"><ele>2052.05</ele><time>2026-01-31T18:32:04.000Z</time></trkpt>
        <trkpt lat="29.5036768" lon="103.2897648"><ele>2050.25</ele><time>2026-01-31T18:32:09.000Z</time></trkpt>
        <trkpt lat="29.5037343" lon="103.2897467"><ele>2049.45</ele><time>2026-01-31T18:32:17.000Z</time></trkpt>
        <trkpt lat="29.5037834" lon="103.2897394"><ele>2048.92</ele><time>2026-01-31T18:32:27.000Z</time></trkpt>
        <trkpt lat="29.5038321" lon="103.2897558"><ele>2048.84</ele><time>2026-01-31T18:32:33.000Z</time></trkpt>
        <trkpt lat="29.5038772" lon="103.2897907"><ele>2048.7</ele><time>2026-01-31T18:32:37.000Z</time></trkpt>
        <trkpt lat="29.5039179" lon="103.2898254"><ele>2048.77</ele><time>2026-01-31T18:32:41.000Z</time></trkpt>
        <trkpt lat="29.503955" lon="103.2898776"><ele>2049.34</ele><time>2026-01-31T18:32:49.000Z</time></trkpt>
        <trkpt lat="29.5039892" lon="103.2899253"><ele>2049.44</ele><time>2026-01-31T18:32:57.000Z</time></trkpt>
        <trkpt lat="29.5040364" lon="103.2899708"><ele>2049.48</ele><time>2026-01-31T18:33:07.000Z</time></trkpt>
        <trkpt lat="29.5040787" lon="103.2900037"><ele>2048.92</ele><time>2026-01-31T18:33:13.000Z</time></trkpt>
        <trkpt lat="29.504124" lon="103.2900356"><ele>2048.9</ele><time>2026-01-31T18:33:17.000Z</time></trkpt>
        <trkpt lat="29.5041623" lon="103.2900705"><ele>2049.18</ele><time>2026-01-31T18:33:25.000Z</time></trkpt>
        <trkpt lat="29.5042055" lon="103.2900812"><ele>2049.74</ele><time>2026-01-31T18:33:31.000Z</time></trkpt>
        <trkpt lat="29.5042561" lon="103.2900882"><ele>2050.32</ele><time>2026-01-31T18:33:39.000Z</time></trkpt>
        <trkpt lat="29.5043124" lon="103.2900872"><ele>2050.95</ele><time>2026-01-31T18:33:45.000Z</time></trkpt>
        <trkpt lat="29.504361" lon="103.2901035"><ele>2051.5</ele><time>2026-01-31T18:33:52.000Z</time></trkpt>
        <trkpt lat="29.5044053" lon="103.2901195"><ele>2051.93</ele><time>2026-01-31T18:33:57.000Z</time></trkpt>
        <trkpt lat="29.5044557" lon="103.2901371"><ele>2052.44</ele><time>2026-01-31T18:34:03.000Z</time></trkpt>
        <trkpt lat="29.5045002" lon="103.2901708"><ele>2053.17</ele><time>2026-01-31T18:34:11.000Z</time></trkpt>
        <trkpt lat="29.5045246" lon="103.2902278"><ele>2053.75</ele><time>2026-01-31T18:34:17.000Z</time></trkpt>
        <trkpt lat="29.5045284" lon="103.2902951"><ele>2061.45</ele><time>2026-01-31T18:34:21.000Z</time></trkpt>
        <trkpt lat="29.5044734" lon="103.2903435"><ele>2065.83</ele><time>2026-01-31T18:35:57.000Z</time></trkpt>
        <trkpt lat="29.5044421" lon="103.2903826"><ele>2068.87</ele><time>2026-01-31T18:36:05.000Z</time></trkpt>
        <trkpt lat="29.504422" lon="103.2904312"><ele>2071.27</ele><time>2026-01-31T18:36:16.000Z</time></trkpt>
        <trkpt lat="29.5044018" lon="103.2904893"><ele>2072.59</ele><time>2026-01-31T18:36:25.000Z</time></trkpt>
        <trkpt lat="29.5043806" lon="103.290546"><ele>2073.84</ele><time>2026-01-31T18:36:34.000Z</time></trkpt>
        <trkpt lat="29.5043665" lon="103.290602"><ele>2072.93</ele><time>2026-01-31T18:36:41.000Z</time></trkpt>
        <trkpt lat="29.5043582" lon="103.2906553"><ele>2073.11</ele><time>2026-01-31T18:36:49.000Z</time></trkpt>
        <trkpt lat="29.5043511" lon="103.2907108"><ele>2073.44</ele><time>2026-01-31T18:36:57.000Z</time></trkpt>
        <trkpt lat="29.5043587" lon="103.2907661"><ele>2073.48</ele><time>2026-01-31T18:37:05.000Z</time></trkpt>
        <trkpt lat="29.5043655" lon="103.2908261"><ele>2073.9</ele><time>2026-01-31T18:37:11.000Z</time></trkpt>
        <trkpt lat="29.5043769" lon="103.290882"><ele>2074.41</ele><time>2026-01-31T18:37:17.000Z</time></trkpt>
        <trkpt lat="29.5044014" lon="103.2909315"><ele>2074.94</ele><time>2026-01-31T18:37:23.000Z</time></trkpt>
        <trkpt lat="29.5044311" lon="103.2909753"><ele>2075.44</ele><time>2026-01-31T18:37:33.000Z</time></trkpt>
        <trkpt lat="29.5044477" lon="103.2910234"><ele>2075.81</ele><time>2026-01-31T18:39:05.000Z</time></trkpt>
        <trkpt lat="29.5044856" lon="103.2910744"><ele>2078.98</ele><time>2026-01-31T18:39:17.000Z</time></trkpt>
        <trkpt lat="29.5045287" lon="103.2911182"><ele>2080.89</ele><time>2026-01-31T18:39:23.000Z</time></trkpt>
        <trkpt lat="29.5045783" lon="103.2911533"><ele>2081.9</ele><time>2026-01-31T18:39:29.000Z</time></trkpt>
        <trkpt lat="29.5046209" lon="103.2911917"><ele>2082.22</ele><time>2026-01-31T18:39:33.000Z</time></trkpt>
        <trkpt lat="29.5046607" lon="103.2912201"><ele>2082.11</ele><time>2026-01-31T18:39:37.000Z</time></trkpt>
        <trkpt lat="29.5047012" lon="103.2912473"><ele>2081.79</ele><time>2026-01-31T18:39:41.000Z</time></trkpt>
        <trkpt lat="29.5047486" lon="103.291281"><ele>2083.23</ele><time>2026-01-31T18:39:47.000Z</time></trkpt>
        <trkpt lat="29.5047888" lon="103.2913125"><ele>2083.85</ele><time>2026-01-31T18:39:52.000Z</time></trkpt>
        <trkpt lat="29.5048246" lon="103.2913485"><ele>2084.31</ele><time>2026-01-31T18:39:55.000Z</time></trkpt>
        <trkpt lat="29.5048633" lon="103.2914067"><ele>2084.6</ele><time>2026-01-31T18:40:01.000Z</time></trkpt>
        <trkpt lat="29.5048951" lon="103.2914549"><ele>2084.92</ele><time>2026-01-31T18:40:05.000Z</time></trkpt>
        <trkpt lat="29.5049277" lon="103.2915009"><ele>2084.91</ele><time>2026-01-31T18:40:11.000Z</time></trkpt>
        <trkpt lat="29.5049696" lon="103.2915456"><ele>2084.61</ele><time>2026-01-31T18:40:17.000Z</time></trkpt>
        <trkpt lat="29.5050143" lon="103.2915826"><ele>2084.22</ele><time>2026-01-31T18:40:23.000Z</time></trkpt>
        <trkpt lat="29.5050551" lon="103.2916201"><ele>2083.95</ele><time>2026-01-31T18:40:29.000Z</time></trkpt>
        <trkpt lat="29.5050906" lon="103.2916553"><ele>2083.89</ele><time>2026-01-31T18:40:33.000Z</time></trkpt>
        <trkpt lat="29.5051257" lon="103.2916922"><ele>2083.88</ele><time>2026-01-31T18:40:39.000Z</time></trkpt>
        <trkpt lat="29.5051713" lon="103.2917326"><ele>2083.86</ele><time>2026-01-31T18:40:46.000Z</time></trkpt>
        <trkpt lat="29.5052185" lon="103.2917706"><ele>2083.86</ele><time>2026-01-31T18:40:51.000Z</time></trkpt>
        <trkpt lat="29.5052686" lon="103.2918094"><ele>2083.85</ele><time>2026-01-31T18:40:57.000Z</time></trkpt>
        <trkpt lat="29.505293" lon="103.2918562"><ele>2083.66</ele><time>2026-01-31T18:41:01.000Z</time></trkpt>
        <trkpt lat="29.5053228" lon="103.2918959"><ele>2083.64</ele><time>2026-01-31T18:41:07.000Z</time></trkpt>
        <trkpt lat="29.5053679" lon="103.2919429"><ele>2083.93</ele><time>2026-01-31T18:41:13.000Z</time></trkpt>
        <trkpt lat="29.5054054" lon="103.2919897"><ele>2084.56</ele><time>2026-01-31T18:41:19.000Z</time></trkpt>
        <trkpt lat="29.5054459" lon="103.2920215"><ele>2085.22</ele><time>2026-01-31T18:41:23.000Z</time></trkpt>
        <trkpt lat="29.5054951" lon="103.2920469"><ele>2086.19</ele><time>2026-01-31T18:41:29.000Z</time></trkpt>
        <trkpt lat="29.5055516" lon="103.2920677"><ele>2087.65</ele><time>2026-01-31T18:41:35.000Z</time></trkpt>
        <trkpt lat="29.5056129" lon="103.292078"><ele>2089.54</ele><time>2026-01-31T18:41:41.000Z</time></trkpt>
        <trkpt lat="29.5056745" lon="103.2920772"><ele>2090.74</ele><time>2026-01-31T18:41:47.000Z</time></trkpt>
        <trkpt lat="29.5057275" lon="103.2920702"><ele>2091.48</ele><time>2026-01-31T18:41:53.000Z</time></trkpt>
        <trkpt lat="29.505767" lon="103.292095"><ele>2092.09</ele><time>2026-01-31T18:42:01.000Z</time></trkpt>
        <trkpt lat="29.5058011" lon="103.2921331"><ele>2093.33</ele><time>2026-01-31T18:42:09.000Z</time></trkpt>
        <trkpt lat="29.5058211" lon="103.2921863"><ele>2094.74</ele><time>2026-01-31T18:42:17.000Z</time></trkpt>
        <trkpt lat="29.5058458" lon="103.2922421"><ele>2096.17</ele><time>2026-01-31T18:42:25.000Z</time></trkpt>
        <trkpt lat="29.5058629" lon="103.2923123"><ele>2097.65</ele><time>2026-01-31T18:42:33.000Z</time></trkpt>
        <trkpt lat="29.5058853" lon="103.2923728"><ele>2098.92</ele><time>2026-01-31T18:42:39.000Z</time></trkpt>
        <trkpt lat="29.5059017" lon="103.2924325"><ele>2099.9</ele><time>2026-01-31T18:42:47.000Z</time></trkpt>
        <trkpt lat="29.5059298" lon="103.2924885"><ele>2100.54</ele><time>2026-01-31T18:42:57.000Z</time></trkpt>
        <trkpt lat="29.505974" lon="103.2925248"><ele>2100.69</ele><time>2026-01-31T18:43:01.000Z</time></trkpt>
        <trkpt lat="29.5060158" lon="103.2925769"><ele>2101.22</ele><time>2026-01-31T18:43:10.000Z</time></trkpt>
        <trkpt lat="29.5060588" lon="103.2926219"><ele>2102.24</ele><time>2026-01-31T18:43:15.000Z</time></trkpt>
        <trkpt lat="29.5060873" lon="103.2926689"><ele>2103.28</ele><time>2026-01-31T18:43:21.000Z</time></trkpt>
        <trkpt lat="29.5061165" lon="103.292711"><ele>2103.96</ele><time>2026-01-31T18:43:27.000Z</time></trkpt>
        <trkpt lat="29.5061412" lon="103.2927632"><ele>2104.5</ele><time>2026-01-31T18:43:33.000Z</time></trkpt>
        <trkpt lat="29.5061696" lon="103.2928161"><ele>2104.95</ele><time>2026-01-31T18:43:39.000Z</time></trkpt>
        <trkpt lat="29.5061994" lon="103.2928634"><ele>2106</ele><time>2026-01-31T18:43:47.000Z</time></trkpt>
        <trkpt lat="29.5062301" lon="103.2929105"><ele>2107.42</ele><time>2026-01-31T18:43:55.000Z</time></trkpt>
        <trkpt lat="29.5062648" lon="103.2929488"><ele>2108.43</ele><time>2026-01-31T18:44:01.000Z</time></trkpt>
        <trkpt lat="29.5062935" lon="103.2929951"><ele>2109.29</ele><time>2026-01-31T18:44:05.000Z</time></trkpt>
        <trkpt lat="29.50631" lon="103.293051"><ele>2110.36</ele><time>2026-01-31T18:44:13.000Z</time></trkpt>
        <trkpt lat="29.5063025" lon="103.2931041"><ele>2111.79</ele><time>2026-01-31T18:44:19.000Z</time></trkpt>
        <trkpt lat="29.5062849" lon="103.293155"><ele>2113.08</ele><time>2026-01-31T18:44:29.000Z</time></trkpt>
        <trkpt lat="29.506247" lon="103.2932052"><ele>2114.44</ele><time>2026-01-31T18:44:35.000Z</time></trkpt>
        <trkpt lat="29.5061854" lon="103.2932274"><ele>2116.11</ele><time>2026-01-31T18:44:45.000Z</time></trkpt>
        <trkpt lat="29.5061316" lon="103.2932624"><ele>2117.67</ele><time>2026-01-31T18:44:55.000Z</time></trkpt>
        <trkpt lat="29.5060856" lon="103.2932968"><ele>2119.27</ele><time>2026-01-31T18:45:01.000Z</time></trkpt>
        <trkpt lat="29.5060464" lon="103.2933454"><ele>2120.31</ele><time>2026-01-31T18:45:09.000Z</time></trkpt>
        <trkpt lat="29.5060211" lon="103.2933972"><ele>2121.55</ele><time>2026-01-31T18:45:16.000Z</time></trkpt>
        <trkpt lat="29.505999" lon="103.2934571"><ele>2122.71</ele><time>2026-01-31T18:45:23.000Z</time></trkpt>
        <trkpt lat="29.5059899" lon="103.2935208"><ele>2123.57</ele><time>2026-01-31T18:45:29.000Z</time></trkpt>
        <trkpt lat="29.5059841" lon="103.2935852"><ele>2124.12</ele><time>2026-01-31T18:45:37.000Z</time></trkpt>
        <trkpt lat="29.5059777" lon="103.293641"><ele>2124.38</ele><time>2026-01-31T18:45:43.000Z</time></trkpt>
        <trkpt lat="29.50598" lon="103.2936984"><ele>2124.7</ele><time>2026-01-31T18:45:49.000Z</time></trkpt>
        <trkpt lat="29.5059765" lon="103.2937592"><ele>2125.03</ele><time>2026-01-31T18:45:55.000Z</time></trkpt>
        <trkpt lat="29.5059816" lon="103.2938175"><ele>2125.39</ele><time>2026-01-31T18:46:01.000Z</time></trkpt>
        <trkpt lat="29.5059962" lon="103.2938779"><ele>2126.3</ele><time>2026-01-31T18:46:10.000Z</time></trkpt>
        <trkpt lat="29.5060192" lon="103.2939356"><ele>2127.14</ele><time>2026-01-31T18:46:14.000Z</time></trkpt>
        <trkpt lat="29.5060511" lon="103.2939822"><ele>2129.76</ele><time>2026-01-31T18:46:20.000Z</time></trkpt>
        <trkpt lat="29.506089" lon="103.294029"><ele>2131.66</ele><time>2026-01-31T18:46:26.000Z</time></trkpt>
        <trkpt lat="29.5061339" lon="103.2940718"><ele>2132.3</ele><time>2026-01-31T18:46:34.000Z</time></trkpt>
        <trkpt lat="29.506178" lon="103.2941107"><ele>2134.79</ele><time>2026-01-31T18:46:40.000Z</time></trkpt>
        <trkpt lat="29.5062207" lon="103.2941437"><ele>2136.97</ele><time>2026-01-31T18:46:49.000Z</time></trkpt>
        <trkpt lat="29.5062665" lon="103.2941793"><ele>2139.41</ele><time>2026-01-31T18:46:57.000Z</time></trkpt>
        <trkpt lat="29.5063049" lon="103.2942136"><ele>2141.86</ele><time>2026-01-31T18:47:04.000Z</time></trkpt>
        <trkpt lat="29.5063557" lon="103.2942426"><ele>2144.08</ele><time>2026-01-31T18:47:11.000Z</time></trkpt>
        <trkpt lat="29.5064064" lon="103.2942605"><ele>2146.45</ele><time>2026-01-31T18:47:17.000Z</time></trkpt>
        <trkpt lat="29.5064567" lon="103.2942851"><ele>2148.4</ele><time>2026-01-31T18:47:25.000Z</time></trkpt>
        <trkpt lat="29.506512" lon="103.2942898"><ele>2150.19</ele><time>2026-01-31T18:47:33.000Z</time></trkpt>
        <trkpt lat="29.5065671" lon="103.2942727"><ele>2146.26</ele><time>2026-01-31T18:47:41.000Z</time></trkpt>
        <trkpt lat="29.5066137" lon="103.2942844"><ele>2143.96</ele><time>2026-01-31T18:47:49.000Z</time></trkpt>
        <trkpt lat="29.5066674" lon="103.2942965"><ele>2142.31</ele><time>2026-01-31T18:47:55.000Z</time></trkpt>
        <trkpt lat="29.5067123" lon="103.294281"><ele>2141.6</ele><time>2026-01-31T18:47:59.000Z</time></trkpt>
        <trkpt lat="29.5067411" lon="103.2943257"><ele>2141.58</ele><time>2026-01-31T18:52:25.000Z</time></trkpt>
        <trkpt lat="29.5067688" lon="103.2943771"><ele>2148.65</ele><time>2026-01-31T18:52:33.000Z</time></trkpt>
        <trkpt lat="29.5067864" lon="103.2944342"><ele>2152.68</ele><time>2026-01-31T18:52:41.000Z</time></trkpt>
        <trkpt lat="29.5068077" lon="103.2944884"><ele>2155.19</ele><time>2026-01-31T18:52:49.000Z</time></trkpt>
        <trkpt lat="29.506818" lon="103.2945478"><ele>2156.73</ele><time>2026-01-31T18:52:59.000Z</time></trkpt>
        <trkpt lat="29.5068054" lon="103.2946084"><ele>2157.94</ele><time>2026-01-31T18:53:07.000Z</time></trkpt>
        <trkpt lat="29.50678" lon="103.2946589"><ele>2159.04</ele><time>2026-01-31T18:53:13.000Z</time></trkpt>
        <trkpt lat="29.5067625" lon="103.2947147"><ele>2159.87</ele><time>2026-01-31T18:53:19.000Z</time></trkpt>
        <trkpt lat="29.5067467" lon="103.2947739"><ele>2160.01</ele><time>2026-01-31T18:53:25.000Z</time></trkpt>
        <trkpt lat="29.5067344" lon="103.294832"><ele>2160.1</ele><time>2026-01-31T18:53:31.000Z</time></trkpt>
        <trkpt lat="29.5067389" lon="103.2948923"><ele>2158.59</ele><time>2026-01-31T18:53:41.000Z</time></trkpt>
        <trkpt lat="29.5067565" lon="103.2949497"><ele>2157.99</ele><time>2026-01-31T18:53:47.000Z</time></trkpt>
        <trkpt lat="29.5067736" lon="103.2950128"><ele>2157.49</ele><time>2026-01-31T18:53:53.000Z</time></trkpt>
        <trkpt lat="29.506787" lon="103.2950797"><ele>2157.25</ele><time>2026-01-31T18:53:59.000Z</time></trkpt>
        <trkpt lat="29.5067924" lon="103.2951385"><ele>2156.99</ele><time>2026-01-31T18:54:05.000Z</time></trkpt>
        <trkpt lat="29.5067939" lon="103.2951967"><ele>2157.02</ele><time>2026-01-31T18:54:13.000Z</time></trkpt>
        <trkpt lat="29.5068079" lon="103.2952651"><ele>2157.42</ele><time>2026-01-31T18:54:23.000Z</time></trkpt>
        <trkpt lat="29.5068256" lon="103.2953254"><ele>2158.5</ele><time>2026-01-31T18:54:29.000Z</time></trkpt>
        <trkpt lat="29.5068305" lon="103.2953883"><ele>2159.57</ele><time>2026-01-31T18:54:37.000Z</time></trkpt>
        <trkpt lat="29.5068244" lon="103.295451"><ele>2160.57</ele><time>2026-01-31T18:54:45.000Z</time></trkpt>
        <trkpt lat="29.5068176" lon="103.2955067"><ele>2161.03</ele><time>2026-01-31T18:54:52.000Z</time></trkpt>
        <trkpt lat="29.506802" lon="103.2955615"><ele>2161.65</ele><time>2026-01-31T18:54:59.000Z</time></trkpt>
        <trkpt lat="29.5067878" lon="103.2956206"><ele>2162.24</ele><time>2026-01-31T18:55:05.000Z</time></trkpt>
        <trkpt lat="29.5067831" lon="103.2956779"><ele>2163.2</ele><time>2026-01-31T18:55:11.000Z</time></trkpt>
        <trkpt lat="29.506774" lon="103.2957422"><ele>2164.04</ele><time>2026-01-31T18:55:19.000Z</time></trkpt>
        <trkpt lat="29.5067559" lon="103.2958001"><ele>2164.63</ele><time>2026-01-31T18:55:25.000Z</time></trkpt>
        <trkpt lat="29.5067307" lon="103.2958637"><ele>2165.19</ele><time>2026-01-31T18:55:33.000Z</time></trkpt>
        <trkpt lat="29.5067199" lon="103.2959243"><ele>2166.3</ele><time>2026-01-31T18:55:39.000Z</time></trkpt>
        <trkpt lat="29.506724" lon="103.2959809"><ele>2167.29</ele><time>2026-01-31T18:55:46.000Z</time></trkpt>
        <trkpt lat="29.5067103" lon="103.2960418"><ele>2168.05</ele><time>2026-01-31T18:55:51.000Z</time></trkpt>
        <trkpt lat="29.506699" lon="103.2961033"><ele>2168.4</ele><time>2026-01-31T18:55:59.000Z</time></trkpt>
        <trkpt lat="29.5066891" lon="103.2961583"><ele>2168.74</ele><time>2026-01-31T18:56:05.000Z</time></trkpt>
        <trkpt lat="29.5066916" lon="103.2962124"><ele>2168.55</ele><time>2026-01-31T18:56:13.000Z</time></trkpt>
        <trkpt lat="29.5067012" lon="103.2962635"><ele>2168.33</ele><time>2026-01-31T18:56:19.000Z</time></trkpt>
        <trkpt lat="29.5067047" lon="103.2963177"><ele>2167.83</ele><time>2026-01-31T18:56:23.000Z</time></trkpt>
        <trkpt lat="29.506707" lon="103.2963754"><ele>2167.67</ele><time>2026-01-31T18:56:27.000Z</time></trkpt>
        <trkpt lat="29.5067108" lon="103.2964369"><ele>2167.83</ele><time>2026-01-31T18:56:33.000Z</time></trkpt>
        <trkpt lat="29.5067113" lon="103.2965089"><ele>2168.11</ele><time>2026-01-31T18:56:40.000Z</time></trkpt>
        <trkpt lat="29.5067029" lon="103.2965928"><ele>2168.66</ele><time>2026-01-31T18:56:42.000Z</time></trkpt>
        <trkpt lat="29.5066862" lon="103.2966539"><ele>2175.24</ele><time>2026-01-31T18:56:46.000Z</time></trkpt>
        <trkpt lat="29.5066668" lon="103.296713"><ele>2179.46</ele><time>2026-01-31T18:56:52.000Z</time></trkpt>
        <trkpt lat="29.5066545" lon="103.296774"><ele>2182.24</ele><time>2026-01-31T18:56:59.000Z</time></trkpt>
        <trkpt lat="29.5066639" lon="103.2968412"><ele>2184.08</ele><time>2026-01-31T18:57:07.000Z</time></trkpt>
        <trkpt lat="29.5066704" lon="103.2969026"><ele>2184.09</ele><time>2026-01-31T18:57:13.000Z</time></trkpt>
        <trkpt lat="29.5066763" lon="103.2969707"><ele>2184.02</ele><time>2026-01-31T18:57:21.000Z</time></trkpt>
        <trkpt lat="29.5066697" lon="103.2970381"><ele>2183.62</ele><time>2026-01-31T18:57:29.000Z</time></trkpt>
        <trkpt lat="29.506655" lon="103.2970924"><ele>2183.5</ele><time>2026-01-31T18:57:35.000Z</time></trkpt>
        <trkpt lat="29.5066438" lon="103.2971447"><ele>2183.52</ele><time>2026-01-31T18:57:41.000Z</time></trkpt>
        <trkpt lat="29.5066213" lon="103.2972072"><ele>2184.24</ele><time>2026-01-31T18:57:49.000Z</time></trkpt>
        <trkpt lat="29.5065992" lon="103.2972663"><ele>2185</ele><time>2026-01-31T18:57:57.000Z</time></trkpt>
        <trkpt lat="29.5065747" lon="103.2973251"><ele>2185.64</ele><time>2026-01-31T18:58:05.000Z</time></trkpt>
        <trkpt lat="29.5065644" lon="103.2973813"><ele>2186.03</ele><time>2026-01-31T18:58:13.000Z</time></trkpt>
        <trkpt lat="29.506557" lon="103.2974384"><ele>2186.47</ele><time>2026-01-31T18:58:21.000Z</time></trkpt>
        <trkpt lat="29.5065666" lon="103.2974939"><ele>2186.53</ele><time>2026-01-31T18:58:28.000Z</time></trkpt>
        <trkpt lat="29.5065822" lon="103.2975475"><ele>2186.01</ele><time>2026-01-31T18:58:33.000Z</time></trkpt>
        <trkpt lat="29.5065997" lon="103.2976183"><ele>2185.48</ele><time>2026-01-31T18:58:37.000Z</time></trkpt>
        <trkpt lat="29.5066059" lon="103.2976829"><ele>2185.88</ele><time>2026-01-31T18:58:43.000Z</time></trkpt>
        <trkpt lat="29.5066056" lon="103.2977445"><ele>2186.87</ele><time>2026-01-31T18:58:49.000Z</time></trkpt>
        <trkpt lat="29.5065901" lon="103.2977973"><ele>2188.18</ele><time>2026-01-31T18:58:55.000Z</time></trkpt>
        <trkpt lat="29.5065599" lon="103.2978507"><ele>2189.55</ele><time>2026-01-31T18:59:01.000Z</time></trkpt>
        <trkpt lat="29.5065151" lon="103.2978691"><ele>2193.27</ele><time>2026-01-31T18:59:05.000Z</time></trkpt>
        <trkpt lat="29.506457" lon="103.2978644"><ele>2195.5</ele><time>2026-01-31T18:59:11.000Z</time></trkpt>
        <trkpt lat="29.5063988" lon="103.2978574"><ele>2196.72</ele><time>2026-01-31T18:59:15.000Z</time></trkpt>
        <trkpt lat="29.5063407" lon="103.2978534"><ele>2197.99</ele><time>2026-01-31T18:59:19.000Z</time></trkpt>
        <trkpt lat="29.5062909" lon="103.2978706"><ele>2198.64</ele><time>2026-01-31T18:59:28.000Z</time></trkpt>
        <trkpt lat="29.5062442" lon="103.2978925"><ele>2199.14</ele><time>2026-01-31T18:59:34.000Z</time></trkpt>
        <trkpt lat="29.5061906" lon="103.2979297"><ele>2199.99</ele><time>2026-01-31T18:59:42.000Z</time></trkpt>
        <trkpt lat="29.5061513" lon="103.2979768"><ele>2200.9</ele><time>2026-01-31T18:59:48.000Z</time></trkpt>
        <trkpt lat="29.5061279" lon="103.2980338"><ele>2201.81</ele><time>2026-01-31T18:59:56.000Z</time></trkpt>
        <trkpt lat="29.5061027" lon="103.2980881"><ele>2200.42</ele><time>2026-01-31T19:00:03.000Z</time></trkpt>
        <trkpt lat="29.5060734" lon="103.2981481"><ele>2200.27</ele><time>2026-01-31T19:00:11.000Z</time></trkpt>
        <trkpt lat="29.5060333" lon="103.2982046"><ele>2200.65</ele><time>2026-01-31T19:00:19.000Z</time></trkpt>
        <trkpt lat="29.5059913" lon="103.2982462"><ele>2201.25</ele><time>2026-01-31T19:00:25.000Z</time></trkpt>
        <trkpt lat="29.5059462" lon="103.2982734"><ele>2202.12</ele><time>2026-01-31T19:00:31.000Z</time></trkpt>
        <trkpt lat="29.5058898" lon="103.2982861"><ele>2202.86</ele><time>2026-01-31T19:00:39.000Z</time></trkpt>
        <trkpt lat="29.5058376" lon="103.2983003"><ele>2203.73</ele><time>2026-01-31T19:00:47.000Z</time></trkpt>
        <trkpt lat="29.5057869" lon="103.2983153"><ele>2204.37</ele><time>2026-01-31T19:00:55.000Z</time></trkpt>
        <trkpt lat="29.5057369" lon="103.2983421"><ele>2205.11</ele><time>2026-01-31T19:01:03.000Z</time></trkpt>
        <trkpt lat="29.505688" lon="103.2983632"><ele>2205.63</ele><time>2026-01-31T19:01:10.000Z</time></trkpt>
        <trkpt lat="29.5056414" lon="103.2983919"><ele>2206.02</ele><time>2026-01-31T19:01:17.000Z</time></trkpt>
        <trkpt lat="29.5056055" lon="103.2984314"><ele>2206.36</ele><time>2026-01-31T19:01:25.000Z</time></trkpt>
        <trkpt lat="29.5055762" lon="103.2984742"><ele>2206.63</ele><time>2026-01-31T19:01:31.000Z</time></trkpt>
        <trkpt lat="29.5055473" lon="103.2985181"><ele>2207.19</ele><time>2026-01-31T19:01:37.000Z</time></trkpt>
        <trkpt lat="29.5055217" lon="103.298566"><ele>2207.9</ele><time>2026-01-31T19:01:43.000Z</time></trkpt>
        <trkpt lat="29.5054971" lon="103.2986116"><ele>2208.67</ele><time>2026-01-31T19:01:49.000Z</time></trkpt>
        <trkpt lat="29.5054678" lon="103.2986538"><ele>2209.27</ele><time>2026-01-31T19:02:11.000Z</time></trkpt>
        <trkpt lat="29.5054496" lon="103.298702"><ele>2210.78</ele><time>2026-01-31T19:02:17.000Z</time></trkpt>
        <trkpt lat="29.5054317" lon="103.2987499"><ele>2212.16</ele><time>2026-01-31T19:02:23.000Z</time></trkpt>
        <trkpt lat="29.5054113" lon="103.2987975"><ele>2215.48</ele><time>2026-01-31T19:02:29.000Z</time></trkpt>
        <trkpt lat="29.5053861" lon="103.2988486"><ele>2216.8</ele><time>2026-01-31T19:02:35.000Z</time></trkpt>
        <trkpt lat="29.5053579" lon="103.2988966"><ele>2217.7</ele><time>2026-01-31T19:02:41.000Z</time></trkpt>
        <trkpt lat="29.5053408" lon="103.2989501"><ele>2218.09</ele><time>2026-01-31T19:02:47.000Z</time></trkpt>
        <trkpt lat="29.5053135" lon="103.2990098"><ele>2218.45</ele><time>2026-01-31T19:02:53.000Z</time></trkpt>
        <trkpt lat="29.5052942" lon="103.2990787"><ele>2218.77</ele><time>2026-01-31T19:02:59.000Z</time></trkpt>
        <trkpt lat="29.5052755" lon="103.2991439"><ele>2219.25</ele><time>2026-01-31T19:03:05.000Z</time></trkpt>
        <trkpt lat="29.5052534" lon="103.2992107"><ele>2219.73</ele><time>2026-01-31T19:03:11.000Z</time></trkpt>
        <trkpt lat="29.5052222" lon="103.2992575"><ele>2219.84</ele><time>2026-01-31T19:03:15.000Z</time></trkpt>
        <trkpt lat="29.5051734" lon="103.2992917"><ele>2219.98</ele><time>2026-01-31T19:03:21.000Z</time></trkpt>
        <trkpt lat="29.5051187" lon="103.2992719"><ele>2219.76</ele><time>2026-01-31T19:03:27.000Z</time></trkpt>
        <trkpt lat="29.5050731" lon="103.2992396"><ele>2219.32</ele><time>2026-01-31T19:03:31.000Z</time></trkpt>
        <trkpt lat="29.505034" lon="103.2992035"><ele>2218.98</ele><time>2026-01-31T19:03:35.000Z</time></trkpt>
        <trkpt lat="29.5049889" lon="103.299177"><ele>2218.78</ele><time>2026-01-31T19:03:41.000Z</time></trkpt>
        <trkpt lat="29.5049419" lon="103.2991589"><ele>2218.73</ele><time>2026-01-31T19:03:47.000Z</time></trkpt>
        <trkpt lat="29.5048879" lon="103.2991455"><ele>2218.72</ele><time>2026-01-31T19:03:53.000Z</time></trkpt>
        <trkpt lat="29.5048338" lon="103.2991363"><ele>2219.26</ele><time>2026-01-31T19:03:59.000Z</time></trkpt>
        <trkpt lat="29.5047789" lon="103.2991284"><ele>2219.82</ele><time>2026-01-31T19:04:05.000Z</time></trkpt>
        <trkpt lat="29.5047298" lon="103.299118"><ele>2220.59</ele><time>2026-01-31T19:04:11.000Z</time></trkpt>
        <trkpt lat="29.5046792" lon="103.2991089"><ele>2221.37</ele><time>2026-01-31T19:04:19.000Z</time></trkpt>
        <trkpt lat="29.5046255" lon="103.2991132"><ele>2222.45</ele><time>2026-01-31T19:05:41.000Z</time></trkpt>
        <trkpt lat="29.5045596" lon="103.2991117"><ele>2223.14</ele><time>2026-01-31T19:05:47.000Z</time></trkpt>
        <trkpt lat="29.504507" lon="103.2991217"><ele>2223.89</ele><time>2026-01-31T19:05:53.000Z</time></trkpt>
        <trkpt lat="29.5044532" lon="103.2991255"><ele>2225.2</ele><time>2026-01-31T19:06:01.000Z</time></trkpt>
        <trkpt lat="29.5043926" lon="103.2991362"><ele>2225.75</ele><time>2026-01-31T19:06:07.000Z</time></trkpt>
        <trkpt lat="29.5043386" lon="103.2991321"><ele>2226.08</ele><time>2026-01-31T19:06:13.000Z</time></trkpt>
        <trkpt lat="29.5042892" lon="103.2991136"><ele>2226.64</ele><time>2026-01-31T19:06:21.000Z</time></trkpt>
        <trkpt lat="29.5042532" lon="103.2990718"><ele>2226.87</ele><time>2026-01-31T19:06:29.000Z</time></trkpt>
        <trkpt lat="29.5042126" lon="103.2990175"><ele>2228.16</ele><time>2026-01-31T19:06:49.000Z</time></trkpt>
        <trkpt lat="29.5041788" lon="103.2989534"><ele>2229.02</ele><time>2026-01-31T19:06:55.000Z</time></trkpt>
        <trkpt lat="29.5041607" lon="103.2988858"><ele>2229.69</ele><time>2026-01-31T19:07:01.000Z</time></trkpt>
        <trkpt lat="29.5041466" lon="103.298824"><ele>2230.23</ele><time>2026-01-31T19:07:05.000Z</time></trkpt>
        <trkpt lat="29.5041284" lon="103.2987674"><ele>2230.5</ele><time>2026-01-31T19:07:11.000Z</time></trkpt>
        <trkpt lat="29.5040898" lon="103.2987284"><ele>2230.98</ele><time>2026-01-31T19:07:17.000Z</time></trkpt>
        <trkpt lat="29.5040351" lon="103.2987124"><ele>2231.04</ele><time>2026-01-31T19:07:23.000Z</time></trkpt>
        <trkpt lat="29.5039829" lon="103.2987144"><ele>2231.17</ele><time>2026-01-31T19:07:28.000Z</time></trkpt>
        <trkpt lat="29.5039227" lon="103.298727"><ele>2231.44</ele><time>2026-01-31T19:07:33.000Z</time></trkpt>
        <trkpt lat="29.503865" lon="103.298755"><ele>2231.75</ele><time>2026-01-31T19:07:39.000Z</time></trkpt>
        <trkpt lat="29.5038114" lon="103.2987898"><ele>2231.93</ele><time>2026-01-31T19:07:46.000Z</time></trkpt>
        <trkpt lat="29.5037541" lon="103.2988098"><ele>2232.03</ele><time>2026-01-31T19:07:51.000Z</time></trkpt>
        <trkpt lat="29.5037208" lon="103.2988219"><ele>2231.51</ele><time>2026-01-31T19:07:53.000Z</time></trkpt>
        <trkpt lat="29.5036795" lon="103.2988383"><ele>2231.09</ele><time>2026-01-31T19:07:59.000Z</time></trkpt>
        <trkpt lat="29.5036276" lon="103.2988495"><ele>2231.55</ele><time>2026-01-31T19:08:21.000Z</time></trkpt>
        <trkpt lat="29.5035837" lon="103.2988715"><ele>2234.11</ele><time>2026-01-31T19:08:27.000Z</time></trkpt>
        <trkpt lat="29.5035301" lon="103.2989039"><ele>2235.46</ele><time>2026-01-31T19:08:35.000Z</time></trkpt>
        <trkpt lat="29.5034837" lon="103.2989473"><ele>2235.16</ele><time>2026-01-31T19:08:41.000Z</time></trkpt>
        <trkpt lat="29.5034494" lon="103.2989892"><ele>2236.05</ele><time>2026-01-31T19:08:47.000Z</time></trkpt>
        <trkpt lat="29.5034263" lon="103.2990401"><ele>2236.84</ele><time>2026-01-31T19:08:53.000Z</time></trkpt>
        <trkpt lat="29.5034217" lon="103.2990936"><ele>2237.5</ele><time>2026-01-31T19:08:59.000Z</time></trkpt>
        <trkpt lat="29.5034272" lon="103.299156"><ele>2238.33</ele><time>2026-01-31T19:09:05.000Z</time></trkpt>
        <trkpt lat="29.5034408" lon="103.2992109"><ele>2237.69</ele><time>2026-01-31T19:09:17.000Z</time></trkpt>
        <trkpt lat="29.503463" lon="103.2992595"><ele>2238.86</ele><time>2026-01-31T19:09:23.000Z</time></trkpt>
        <trkpt lat="29.5034728" lon="103.2993099"><ele>2240</ele><time>2026-01-31T19:09:29.000Z</time></trkpt>
        <trkpt lat="29.5034955" lon="103.2993544"><ele>2239.03</ele><time>2026-01-31T19:09:35.000Z</time></trkpt>
        <trkpt lat="29.5035087" lon="103.2994053"><ele>2238.19</ele><time>2026-01-31T19:09:41.000Z</time></trkpt>
        <trkpt lat="29.5035242" lon="103.2994672"><ele>2237.68</ele><time>2026-01-31T19:09:55.000Z</time></trkpt>
        <trkpt lat="29.5035314" lon="103.2995403"><ele>2240.06</ele><time>2026-01-31T19:10:01.000Z</time></trkpt>
        <trkpt lat="29.5035278" lon="103.2996024"><ele>2241.66</ele><time>2026-01-31T19:10:05.000Z</time></trkpt>
        <trkpt lat="29.5035114" lon="103.2996603"><ele>2242.48</ele><time>2026-01-31T19:10:11.000Z</time></trkpt>
        <trkpt lat="29.5034987" lon="103.2997248"><ele>2242.55</ele><time>2026-01-31T19:10:19.000Z</time></trkpt>
        <trkpt lat="29.5034907" lon="103.2997879"><ele>2241.61</ele><time>2026-01-31T19:10:25.000Z</time></trkpt>
        <trkpt lat="29.5034799" lon="103.2998494"><ele>2241.36</ele><time>2026-01-31T19:10:31.000Z</time></trkpt>
        <trkpt lat="29.503471" lon="103.2999093"><ele>2241.25</ele><time>2026-01-31T19:10:37.000Z</time></trkpt>
        <trkpt lat="29.5034662" lon="103.2999687"><ele>2241.22</ele><time>2026-01-31T19:10:43.000Z</time></trkpt>
        <trkpt lat="29.5034562" lon="103.3000352"><ele>2241.24</ele><time>2026-01-31T19:10:49.000Z</time></trkpt>
        <trkpt lat="29.5034506" lon="103.3000992"><ele>2241.33</ele><time>2026-01-31T19:10:55.000Z</time></trkpt>
        <trkpt lat="29.5034686" lon="103.3001691"><ele>2241.32</ele><time>2026-01-31T19:11:03.000Z</time></trkpt>
        <trkpt lat="29.503483" lon="103.3002373"><ele>2241.75</ele><time>2026-01-31T19:11:09.000Z</time></trkpt>
        <trkpt lat="29.5035007" lon="103.3003038"><ele>2242.29</ele><time>2026-01-31T19:11:15.000Z</time></trkpt>
        <trkpt lat="29.5035225" lon="103.3003671"><ele>2242.9</ele><time>2026-01-31T19:11:21.000Z</time></trkpt>
        <trkpt lat="29.5035446" lon="103.3004171"><ele>2243.53</ele><time>2026-01-31T19:11:25.000Z</time></trkpt>
        <trkpt lat="29.5035741" lon="103.3004579"><ele>2244.05</ele><time>2026-01-31T19:11:29.000Z</time></trkpt>
        <trkpt lat="29.5035973" lon="103.3005086"><ele>2246.99</ele><time>2026-01-31T19:11:33.000Z</time></trkpt>
        <trkpt lat="29.5036193" lon="103.3005762"><ele>2248.79</ele><time>2026-01-31T19:11:40.000Z</time></trkpt>
        <trkpt lat="29.5036458" lon="103.3006371"><ele>2248.19</ele><time>2026-01-31T19:11:45.000Z</time></trkpt>
        <trkpt lat="29.5036754" lon="103.3006849"><ele>2248.02</ele><time>2026-01-31T19:11:49.000Z</time></trkpt>
        <trkpt lat="29.5036986" lon="103.3007333"><ele>2247.68</ele><time>2026-01-31T19:11:53.000Z</time></trkpt>
        <trkpt lat="29.5037247" lon="103.3007863"><ele>2250.14</ele><time>2026-01-31T19:11:58.000Z</time></trkpt>
        <trkpt lat="29.5037456" lon="103.3008431"><ele>2251.6</ele><time>2026-01-31T19:12:03.000Z</time></trkpt>
        <trkpt lat="29.5037798" lon="103.3008953"><ele>2252.67</ele><time>2026-01-31T19:12:11.000Z</time></trkpt>
        <trkpt lat="29.5038089" lon="103.3009657"><ele>2249.96</ele><time>2026-01-31T19:12:18.000Z</time></trkpt>
        <trkpt lat="29.5038317" lon="103.3010198"><ele>2252.33</ele><time>2026-01-31T19:12:22.000Z</time></trkpt>
        <trkpt lat="29.5038552" lon="103.3010746"><ele>2253.74</ele><time>2026-01-31T19:12:28.000Z</time></trkpt>
        <trkpt lat="29.5038861" lon="103.3011315"><ele>2254.75</ele><time>2026-01-31T19:12:36.000Z</time></trkpt>
        <trkpt lat="29.50391" lon="103.3011952"><ele>2255.74</ele><time>2026-01-31T19:12:42.000Z</time></trkpt>
        <trkpt lat="29.5039296" lon="103.3012188"><ele>2256.57</ele><time>2026-01-31T19:13:04.000Z</time></trkpt>
        <trkpt lat="29.5039565" lon="103.3012625"><ele>2257.08</ele><time>2026-01-31T19:13:17.000Z</time></trkpt>
        <trkpt lat="29.5039807" lon="103.3013153"><ele>2257.32</ele><time>2026-01-31T19:13:23.000Z</time></trkpt>
        <trkpt lat="29.5040154" lon="103.3013585"><ele>2257.7</ele><time>2026-01-31T19:13:31.000Z</time></trkpt>
        <trkpt lat="29.5040399" lon="103.3014218"><ele>2254.68</ele><time>2026-01-31T19:13:39.000Z</time></trkpt>
        <trkpt lat="29.5040733" lon="103.3014729"><ele>2253.22</ele><time>2026-01-31T19:14:07.000Z</time></trkpt>
        <trkpt lat="29.5040998" lon="103.3015185"><ele>2254.93</ele><time>2026-01-31T19:14:13.000Z</time></trkpt>
        <trkpt lat="29.5041236" lon="103.3015676"><ele>2255.48</ele><time>2026-01-31T19:14:19.000Z</time></trkpt>
        <trkpt lat="29.5041598" lon="103.3016129"><ele>2252.95</ele><time>2026-01-31T19:14:25.000Z</time></trkpt>
        <trkpt lat="29.5041888" lon="103.3016578"><ele>2251.46</ele><time>2026-01-31T19:14:31.000Z</time></trkpt>
        <trkpt lat="29.5042093" lon="103.3017043"><ele>2250.85</ele><time>2026-01-31T19:14:35.000Z</time></trkpt>
        <trkpt lat="29.5042387" lon="103.301746"><ele>2251.07</ele><time>2026-01-31T19:14:41.000Z</time></trkpt>
        <trkpt lat="29.5042768" lon="103.301794"><ele>2251.83</ele><time>2026-01-31T19:14:47.000Z</time></trkpt>
        <trkpt lat="29.5043214" lon="103.3018417"><ele>2252.31</ele><time>2026-01-31T19:14:53.000Z</time></trkpt>
        <trkpt lat="29.5043554" lon="103.3018916"><ele>2254.76</ele><time>2026-01-31T19:14:58.000Z</time></trkpt>
        <trkpt lat="29.5043881" lon="103.3019491"><ele>2256.3</ele><time>2026-01-31T19:15:03.000Z</time></trkpt>
        <trkpt lat="29.5044142" lon="103.3020063"><ele>2257.39</ele><time>2026-01-31T19:15:11.000Z</time></trkpt>
        <trkpt lat="29.5044247" lon="103.3020701"><ele>2256.31</ele><time>2026-01-31T19:15:17.000Z</time></trkpt>
        <trkpt lat="29.5044359" lon="103.3021317"><ele>2255.75</ele><time>2026-01-31T19:15:23.000Z</time></trkpt>
        <trkpt lat="29.5044568" lon="103.3021862"><ele>2255.47</ele><time>2026-01-31T19:15:29.000Z</time></trkpt>
        <trkpt lat="29.5044795" lon="103.3022376"><ele>2255.48</ele><time>2026-01-31T19:15:35.000Z</time></trkpt>
        <trkpt lat="29.504508" lon="103.3022789"><ele>2255.45</ele><time>2026-01-31T19:15:45.000Z</time></trkpt>
        <trkpt lat="29.5045482" lon="103.3023124"><ele>2255.42</ele><time>2026-01-31T19:16:15.000Z</time></trkpt>
        <trkpt lat="29.5045978" lon="103.3023359"><ele>2258.2</ele><time>2026-01-31T19:16:39.000Z</time></trkpt>
        <trkpt lat="29.5046366" lon="103.3023784"><ele>2259.92</ele><time>2026-01-31T19:16:47.000Z</time></trkpt>
        <trkpt lat="29.5046697" lon="103.3024223"><ele>2261.41</ele><time>2026-01-31T19:16:53.000Z</time></trkpt>
        <trkpt lat="29.5046932" lon="103.3024776"><ele>2262.56</ele><time>2026-01-31T19:17:04.000Z</time></trkpt>
        <trkpt lat="29.5047096" lon="103.3025303"><ele>2259.56</ele><time>2026-01-31T19:17:09.000Z</time></trkpt>
        <trkpt lat="29.5047133" lon="103.3025854"><ele>2257.72</ele><time>2026-01-31T19:17:15.000Z</time></trkpt>
        <trkpt lat="29.5047007" lon="103.3026463"><ele>2257</ele><time>2026-01-31T19:17:23.000Z</time></trkpt>
        <trkpt lat="29.5046787" lon="103.3026987"><ele>2256.74</ele><time>2026-01-31T19:17:29.000Z</time></trkpt>
        <trkpt lat="29.5046444" lon="103.3027505"><ele>2256.67</ele><time>2026-01-31T19:17:37.000Z</time></trkpt>
        <trkpt lat="29.5046145" lon="103.3028025"><ele>2256.91</ele><time>2026-01-31T19:17:43.000Z</time></trkpt>
        <trkpt lat="29.5045815" lon="103.3028566"><ele>2256.47</ele><time>2026-01-31T19:17:51.000Z</time></trkpt>
        <trkpt lat="29.5045417" lon="103.3029105"><ele>2256.61</ele><time>2026-01-31T19:17:59.000Z</time></trkpt>
        <trkpt lat="29.5045074" lon="103.3029589"><ele>2256.78</ele><time>2026-01-31T19:18:07.000Z</time></trkpt>
        <trkpt lat="29.5044848" lon="103.3030169"><ele>2257.07</ele><time>2026-01-31T19:18:16.000Z</time></trkpt>
        <trkpt lat="29.5044587" lon="103.303074"><ele>2257.75</ele><time>2026-01-31T19:18:23.000Z</time></trkpt>
        <trkpt lat="29.5044413" lon="103.3031314"><ele>2258.99</ele><time>2026-01-31T19:18:31.000Z</time></trkpt>
        <trkpt lat="29.5044272" lon="103.3031856"><ele>2260.38</ele><time>2026-01-31T19:18:39.000Z</time></trkpt>
        <trkpt lat="29.5044291" lon="103.3032432"><ele>2262.4</ele><time>2026-01-31T19:18:47.000Z</time></trkpt>
        <trkpt lat="29.5044559" lon="103.303292"><ele>2263.99</ele><time>2026-01-31T19:18:53.000Z</time></trkpt>
        <trkpt lat="29.5044971" lon="103.303324"><ele>2266.09</ele><time>2026-01-31T19:18:59.000Z</time></trkpt>
        <trkpt lat="29.5045533" lon="103.3033232"><ele>2268.02</ele><time>2026-01-31T19:19:09.000Z</time></trkpt>
        <trkpt lat="29.5046061" lon="103.3033047"><ele>2269.52</ele><time>2026-01-31T19:19:17.000Z</time></trkpt>
        <trkpt lat="29.5046557" lon="103.3032768"><ele>2271.14</ele><time>2026-01-31T19:19:23.000Z</time></trkpt>
        <trkpt lat="29.5047062" lon="103.3032467"><ele>2272.27</ele><time>2026-01-31T19:19:30.000Z</time></trkpt>
        <trkpt lat="29.5047566" lon="103.3032189"><ele>2272.94</ele><time>2026-01-31T19:19:44.000Z</time></trkpt>
        <trkpt lat="29.504806" lon="103.303193"><ele>2273.36</ele><time>2026-01-31T19:19:53.000Z</time></trkpt>
        <trkpt lat="29.5048556" lon="103.303167"><ele>2274.09</ele><time>2026-01-31T19:20:04.000Z</time></trkpt>
        <trkpt lat="29.5049067" lon="103.3031463"><ele>2274.94</ele><time>2026-01-31T19:20:11.000Z</time></trkpt>
        <trkpt lat="29.5049588" lon="103.3031301"><ele>2275.9</ele><time>2026-01-31T19:20:19.000Z</time></trkpt>
        <trkpt lat="29.5050083" lon="103.3031209"><ele>2276.91</ele><time>2026-01-31T19:20:25.000Z</time></trkpt>
        <trkpt lat="29.5050636" lon="103.3031179"><ele>2277.82</ele><time>2026-01-31T19:20:33.000Z</time></trkpt>
        <trkpt lat="29.5051115" lon="103.3031297"><ele>2278.5</ele><time>2026-01-31T19:20:41.000Z</time></trkpt>
        <trkpt lat="29.5051568" lon="103.3031644"><ele>2279.68</ele><time>2026-01-31T19:20:49.000Z</time></trkpt>
        <trkpt lat="29.5051917" lon="103.303213"><ele>2281.25</ele><time>2026-01-31T19:20:59.000Z</time></trkpt>
        <trkpt lat="29.5052006" lon="103.3032713"><ele>2282.6</ele><time>2026-01-31T19:21:11.000Z</time></trkpt>
        <trkpt lat="29.5052021" lon="103.3033422"><ele>2283.81</ele><time>2026-01-31T19:21:21.000Z</time></trkpt>
        <trkpt lat="29.5052035" lon="103.3034048"><ele>2285.35</ele><time>2026-01-31T19:21:37.000Z</time></trkpt>
        <trkpt lat="29.5052091" lon="103.3034655"><ele>2286.39</ele><time>2026-01-31T19:21:45.000Z</time></trkpt>
        <trkpt lat="29.5052238" lon="103.3035298"><ele>2287.82</ele><time>2026-01-31T19:21:55.000Z</time></trkpt>
        <trkpt lat="29.5052524" lon="103.3035842"><ele>2289.19</ele><time>2026-01-31T19:22:01.000Z</time></trkpt>
        <trkpt lat="29.5052946" lon="103.3036154"><ele>2290.26</ele><time>2026-01-31T19:22:10.000Z</time></trkpt>
        <trkpt lat="29.5053404" lon="103.3036351"><ele>2291.39</ele><time>2026-01-31T19:22:17.000Z</time></trkpt>
        <trkpt lat="29.5053846" lon="103.3036658"><ele>2292.54</ele><time>2026-01-31T19:22:37.000Z</time></trkpt>
        <trkpt lat="29.5054248" lon="103.3037008"><ele>2293.89</ele><time>2026-01-31T19:22:46.000Z</time></trkpt>
        <trkpt lat="29.5054597" lon="103.30375"><ele>2295.2</ele><time>2026-01-31T19:22:51.000Z</time></trkpt>
        <trkpt lat="29.5054691" lon="103.3038097"><ele>2296.38</ele><time>2026-01-31T19:23:01.000Z</time></trkpt>
        <trkpt lat="29.5054431" lon="103.3038659"><ele>2297.67</ele><time>2026-01-31T19:23:15.000Z</time></trkpt>
        <trkpt lat="29.505406" lon="103.3039173"><ele>2298.85</ele><time>2026-01-31T19:23:25.000Z</time></trkpt>
        <trkpt lat="29.5053702" lon="103.3039639"><ele>2300.27</ele><time>2026-01-31T19:23:33.000Z</time></trkpt>
        <trkpt lat="29.5053412" lon="103.3040213"><ele>2301.44</ele><time>2026-01-31T19:23:42.000Z</time></trkpt>
        <trkpt lat="29.5053259" lon="103.3040759"><ele>2302.26</ele><time>2026-01-31T19:23:50.000Z</time></trkpt>
        <trkpt lat="29.5053121" lon="103.3041303"><ele>2303.02</ele><time>2026-01-31T19:23:58.000Z</time></trkpt>
        <trkpt lat="29.5052992" lon="103.3041863"><ele>2303.69</ele><time>2026-01-31T19:24:07.000Z</time></trkpt>
        <trkpt lat="29.5052793" lon="103.3042369"><ele>2304.61</ele><time>2026-01-31T19:24:17.000Z</time></trkpt>
        <trkpt lat="29.5052532" lon="103.3042907"><ele>2305.46</ele><time>2026-01-31T19:24:25.000Z</time></trkpt>
        <trkpt lat="29.5052242" lon="103.3043353"><ele>2306.21</ele><time>2026-01-31T19:24:34.000Z</time></trkpt>
        <trkpt lat="29.5051913" lon="103.3043786"><ele>2307.27</ele><time>2026-01-31T19:24:43.000Z</time></trkpt>
        <trkpt lat="29.5051488" lon="103.3044148"><ele>2309.38</ele><time>2026-01-31T19:24:53.000Z</time></trkpt>
        <trkpt lat="29.5051057" lon="103.3044389"><ele>2311.34</ele><time>2026-01-31T19:25:05.000Z</time></trkpt>
        <trkpt lat="29.5050621" lon="103.3044641"><ele>2313.57</ele><time>2026-01-31T19:25:15.000Z</time></trkpt>
        <trkpt lat="29.5050224" lon="103.3044907"><ele>2315.68</ele><time>2026-01-31T19:25:25.000Z</time></trkpt>
        <trkpt lat="29.5050137" lon="103.3045362"><ele>2316.99</ele><time>2026-01-31T19:25:37.000Z</time></trkpt>
        <trkpt lat="29.5050121" lon="103.3045895"><ele>2318.19</ele><time>2026-01-31T19:26:05.000Z</time></trkpt>
        <trkpt lat="29.5050226" lon="103.3046487"><ele>2318.73</ele><time>2026-01-31T19:26:15.000Z</time></trkpt>
        <trkpt lat="29.505037" lon="103.3047055"><ele>2318.33</ele><time>2026-01-31T19:26:22.000Z</time></trkpt>
        <trkpt lat="29.5050377" lon="103.3047593"><ele>2318.01</ele><time>2026-01-31T19:26:27.000Z</time></trkpt>
        <trkpt lat="29.505039" lon="103.3048217"><ele>2317.83</ele><time>2026-01-31T19:26:40.000Z</time></trkpt>
        <trkpt lat="29.5050465" lon="103.3048773"><ele>2316.51</ele><time>2026-01-31T19:26:57.000Z</time></trkpt>
        <trkpt lat="29.5050749" lon="103.3049255"><ele>2317.69</ele><time>2026-01-31T19:27:09.000Z</time></trkpt>
        <trkpt lat="29.5050873" lon="103.3049773"><ele>2319.21</ele><time>2026-01-31T19:27:23.000Z</time></trkpt>
        <trkpt lat="29.5050824" lon="103.3050333"><ele>2320.83</ele><time>2026-01-31T19:29:03.000Z</time></trkpt>
        <trkpt lat="29.5050745" lon="103.3051017"><ele>2322.1</ele><time>2026-01-31T19:33:27.000Z</time></trkpt>
        <trkpt lat="29.5050521" lon="103.3051469"><ele>2323.36</ele><time>2026-01-31T19:33:31.000Z</time></trkpt>
        <trkpt lat="29.5050179" lon="103.3052005"><ele>2324.33</ele><time>2026-01-31T19:33:37.000Z</time></trkpt>
        <trkpt lat="29.5049768" lon="103.3052335"><ele>2325.09</ele><time>2026-01-31T19:33:43.000Z</time></trkpt>
        <trkpt lat="29.5049337" lon="103.3052549"><ele>2325.91</ele><time>2026-01-31T19:33:49.000Z</time></trkpt>
        <trkpt lat="29.5048871" lon="103.3052803"><ele>2326.16</ele><time>2026-01-31T19:33:57.000Z</time></trkpt>
        <trkpt lat="29.5048559" lon="103.3053208"><ele>2326.43</ele><time>2026-01-31T19:34:03.000Z</time></trkpt>
        <trkpt lat="29.5048437" lon="103.3053717"><ele>2326.83</ele><time>2026-01-31T19:34:11.000Z</time></trkpt>
        <trkpt lat="29.5048478" lon="103.3054271"><ele>2327.18</ele><time>2026-01-31T19:34:17.000Z</time></trkpt>
        <trkpt lat="29.5048536" lon="103.3054849"><ele>2327.79</ele><time>2026-01-31T19:34:23.000Z</time></trkpt>
        <trkpt lat="29.5048409" lon="103.3055412"><ele>2328.03</ele><time>2026-01-31T19:34:29.000Z</time></trkpt>
        <trkpt lat="29.5048133" lon="103.3055945"><ele>2328.26</ele><time>2026-01-31T19:34:37.000Z</time></trkpt>
        <trkpt lat="29.5047734" lon="103.3056351"><ele>2328.7</ele><time>2026-01-31T19:34:43.000Z</time></trkpt>
        <trkpt lat="29.504739" lon="103.3056772"><ele>2330.13</ele><time>2026-01-31T19:34:53.000Z</time></trkpt>
        <trkpt lat="29.5047106" lon="103.3057375"><ele>2330.05</ele><time>2026-01-31T19:35:04.000Z</time></trkpt>
        <trkpt lat="29.5047077" lon="103.3058067"><ele>2329.56</ele><time>2026-01-31T19:35:11.000Z</time></trkpt>
        <trkpt lat="29.5047271" lon="103.3059054"><ele>2329.42</ele><time>2026-01-31T19:47:01.000Z</time></trkpt>
        <trkpt lat="29.504724" lon="103.3059838"><ele>2328.85</ele><time>2026-01-31T19:47:05.000Z</time></trkpt>
        <trkpt lat="29.5047185" lon="103.3060413"><ele>2328.62</ele><time>2026-01-31T19:47:13.000Z</time></trkpt>
        <trkpt lat="29.504709" lon="103.3060958"><ele>2328.54</ele><time>2026-01-31T19:47:45.000Z</time></trkpt>
        <trkpt lat="29.5046882" lon="103.3061624"><ele>2329.27</ele><time>2026-01-31T19:47:53.000Z</time></trkpt>
        <trkpt lat="29.504674" lon="103.3062175"><ele>2330.01</ele><time>2026-01-31T19:48:17.000Z</time></trkpt>
        <trkpt lat="29.504651" lon="103.3062668"><ele>2330.91</ele><time>2026-01-31T19:48:35.000Z</time></trkpt>
        <trkpt lat="29.5046335" lon="103.3063194"><ele>2332.19</ele><time>2026-01-31T19:49:10.000Z</time></trkpt>
        <trkpt lat="29.5046061" lon="103.3063676"><ele>2333.11</ele><time>2026-01-31T19:49:15.000Z</time></trkpt>
        <trkpt lat="29.5045752" lon="103.3064219"><ele>2334.8</ele><time>2026-01-31T19:49:21.000Z</time></trkpt>
        <trkpt lat="29.5045432" lon="103.3064664"><ele>2336.65</ele><time>2026-01-31T19:49:33.000Z</time></trkpt>
        <trkpt lat="29.5045093" lon="103.3065042"><ele>2338.66</ele><time>2026-01-31T19:50:13.000Z</time></trkpt>
        <trkpt lat="29.5044704" lon="103.3065383"><ele>2341.46</ele><time>2026-01-31T19:50:27.000Z</time></trkpt>
        <trkpt lat="29.5044276" lon="103.3065716"><ele>2344.28</ele><time>2026-01-31T19:50:58.000Z</time></trkpt>
        <trkpt lat="29.5044006" lon="103.3066141"><ele>2347.04</ele><time>2026-01-31T19:51:21.000Z</time></trkpt>
        <trkpt lat="29.5043751" lon="103.3066578"><ele>2349.04</ele><time>2026-01-31T19:51:29.000Z</time></trkpt>
        <trkpt lat="29.5043547" lon="103.306705"><ele>2351.01</ele><time>2026-01-31T19:51:57.000Z</time></trkpt>
        <trkpt lat="29.5043211" lon="103.3067454"><ele>2353.27</ele><time>2026-01-31T19:52:15.000Z</time></trkpt>
        <trkpt lat="29.5042899" lon="103.306791"><ele>2355.67</ele><time>2026-01-31T19:52:23.000Z</time></trkpt>
        <trkpt lat="29.5042528" lon="103.3068332"><ele>2357.93</ele><time>2026-01-31T19:52:31.000Z</time></trkpt>
        <trkpt lat="29.5042248" lon="103.3068819"><ele>2360.01</ele><time>2026-01-31T19:53:04.000Z</time></trkpt>
        <trkpt lat="29.5042047" lon="103.3069401"><ele>2361.86</ele><time>2026-01-31T19:53:33.000Z</time></trkpt>
        <trkpt lat="29.5041779" lon="103.3069856"><ele>2363.13</ele><time>2026-01-31T19:53:51.000Z</time></trkpt>
        <trkpt lat="29.5041634" lon="103.3070404"><ele>2365.08</ele><time>2026-01-31T19:54:13.000Z</time></trkpt>
        <trkpt lat="29.5041386" lon="103.3070971"><ele>2366.69</ele><time>2026-01-31T19:54:37.000Z</time></trkpt>
        <trkpt lat="29.5041198" lon="103.3071517"><ele>2368.8</ele><time>2026-01-31T19:54:51.000Z</time></trkpt>
        <trkpt lat="29.504097" lon="103.3071992"><ele>2370.99</ele><time>2026-01-31T19:54:59.000Z</time></trkpt>
        <trkpt lat="29.5040801" lon="103.307248"><ele>2373.27</ele><time>2026-01-31T19:55:19.000Z</time></trkpt>
        <trkpt lat="29.5040715" lon="103.3073019"><ele>2375.56</ele><time>2026-01-31T19:55:51.000Z</time></trkpt>
        <trkpt lat="29.5040515" lon="103.307348"><ele>2378.68</ele><time>2026-01-31T19:56:47.000Z</time></trkpt>
        <trkpt lat="29.504021" lon="103.3073865"><ele>2381.62</ele><time>2026-01-31T19:56:59.000Z</time></trkpt>
        <trkpt lat="29.5039849" lon="103.3074246"><ele>2384.39</ele><time>2026-01-31T19:57:09.000Z</time></trkpt>
        <trkpt lat="29.5039432" lon="103.3074504"><ele>2387.35</ele><time>2026-01-31T19:57:21.000Z</time></trkpt>
        <trkpt lat="29.5039095" lon="103.3074872"><ele>2391.02</ele><time>2026-01-31T19:58:25.000Z</time></trkpt>
        <trkpt lat="29.5038767" lon="103.3075235"><ele>2394.69</ele><time>2026-01-31T19:59:43.000Z</time></trkpt>
        <trkpt lat="29.5038697" lon="103.3075792"><ele>2398.13</ele><time>2026-01-31T19:59:49.000Z</time></trkpt>
        <trkpt lat="29.5038674" lon="103.3076469"><ele>2400.81</ele><time>2026-01-31T20:00:55.000Z</time></trkpt>
        <trkpt lat="29.5038693" lon="103.3077055"><ele>2403.67</ele><time>2026-01-31T20:02:21.000Z</time></trkpt>
        <trkpt lat="29.5038515" lon="103.3077574"><ele>2406.51</ele><time>2026-01-31T20:02:37.000Z</time></trkpt>
        <trkpt lat="29.5038339" lon="103.3078159"><ele>2408.57</ele><time>2026-01-31T20:03:45.000Z</time></trkpt>
        <trkpt lat="29.5038193" lon="103.3078721"><ele>2409.34</ele><time>2026-01-31T20:04:53.000Z</time></trkpt>
        <trkpt lat="29.5037993" lon="103.3079271"><ele>2410.13</ele><time>2026-01-31T20:05:27.000Z</time></trkpt>
        <trkpt lat="29.5037575" lon="103.3080073"><ele>2411.03</ele><time>2026-01-31T20:05:33.000Z</time></trkpt>
        <trkpt lat="29.5037321" lon="103.308081"><ele>2412.69</ele><time>2026-01-31T20:06:17.000Z</time></trkpt>
        <trkpt lat="29.5037167" lon="103.3081419"><ele>2415.01</ele><time>2026-01-31T20:06:29.000Z</time></trkpt>
        <trkpt lat="29.5037148" lon="103.3081965"><ele>2416.7</ele><time>2026-01-31T20:06:34.000Z</time></trkpt>
        <trkpt lat="29.5037109" lon="103.3082507"><ele>2418.09</ele><time>2026-01-31T20:06:43.000Z</time></trkpt>
        <trkpt lat="29.5037164" lon="103.3083129"><ele>2419.92</ele><time>2026-01-31T20:06:47.000Z</time></trkpt>
        <trkpt lat="29.5037047" lon="103.3083716"><ele>2423.13</ele><time>2026-01-31T20:06:53.000Z</time></trkpt>
        <trkpt lat="29.503686" lon="103.3084274"><ele>2427.2</ele><time>2026-01-31T20:06:57.000Z</time></trkpt>
        <trkpt lat="29.5036661" lon="103.3084784"><ele>2431.7</ele><time>2026-01-31T20:07:09.000Z</time></trkpt>
        <trkpt lat="29.5036528" lon="103.3085328"><ele>2436.43</ele><time>2026-01-31T20:07:15.000Z</time></trkpt>
        <trkpt lat="29.5036468" lon="103.3085954"><ele>2440.35</ele><time>2026-01-31T20:07:19.000Z</time></trkpt>
        <trkpt lat="29.5036346" lon="103.3086576"><ele>2444.15</ele><time>2026-01-31T20:07:23.000Z</time></trkpt>
        <trkpt lat="29.5036246" lon="103.3087142"><ele>2447.79</ele><time>2026-01-31T20:07:41.000Z</time></trkpt>
        <trkpt lat="29.503626" lon="103.3087816"><ele>2453.01</ele><time>2026-01-31T20:07:51.000Z</time></trkpt>
        <trkpt lat="29.5036266" lon="103.3088405"><ele>2457.5</ele><time>2026-01-31T20:08:03.000Z</time></trkpt>
        <trkpt lat="29.5036262" lon="103.3088997"><ele>2461.74</ele><time>2026-01-31T20:09:45.000Z</time></trkpt>
        <trkpt lat="29.5036177" lon="103.3089572"><ele>2465.36</ele><time>2026-01-31T20:10:03.000Z</time></trkpt>
        <trkpt lat="29.5036089" lon="103.3090251"><ele>2467.97</ele><time>2026-01-31T20:10:13.000Z</time></trkpt>
        <trkpt lat="29.503601" lon="103.3090896"><ele>2469.86</ele><time>2026-01-31T20:11:11.000Z</time></trkpt>
        <trkpt lat="29.5036026" lon="103.3091461"><ele>2471.52</ele><time>2026-01-31T20:11:25.000Z</time></trkpt>
        <trkpt lat="29.503605" lon="103.3092226"><ele>2473.03</ele><time>2026-01-31T20:11:29.000Z</time></trkpt>
        <trkpt lat="29.5036046" lon="103.3093027"><ele>2474.67</ele><time>2026-01-31T20:11:57.000Z</time></trkpt>
        <trkpt lat="29.5035987" lon="103.3093655"><ele>2476.49</ele><time>2026-01-31T20:12:01.000Z</time></trkpt>
        <trkpt lat="29.5035922" lon="103.3094259"><ele>2478.08</ele><time>2026-01-31T20:12:17.000Z</time></trkpt>
        <trkpt lat="29.5035837" lon="103.3094828"><ele>2479.47</ele><time>2026-01-31T20:12:29.000Z</time></trkpt>
        <trkpt lat="29.5035877" lon="103.3095358"><ele>2480.7</ele><time>2026-01-31T20:12:41.000Z</time></trkpt>
        <trkpt lat="29.5035835" lon="103.3095875"><ele>2483.09</ele><time>2026-01-31T20:13:33.000Z</time></trkpt>
        <trkpt lat="29.5035654" lon="103.3096359"><ele>2486.48</ele><time>2026-01-31T20:13:47.000Z</time></trkpt>
        <trkpt lat="29.5035382" lon="103.3096842"><ele>2489.74</ele><time>2026-01-31T20:14:17.000Z</time></trkpt>
        <trkpt lat="29.5035089" lon="103.3097385"><ele>2492.58</ele><time>2026-01-31T20:14:29.000Z</time></trkpt>
        <trkpt lat="29.5034731" lon="103.3097982"><ele>2495.91</ele><time>2026-01-31T20:15:19.000Z</time></trkpt>
        <trkpt lat="29.5034367" lon="103.309848"><ele>2499.55</ele><time>2026-01-31T20:15:25.000Z</time></trkpt>
        <trkpt lat="29.5034426" lon="103.3099022"><ele>2502.89</ele><time>2026-01-31T20:17:01.000Z</time></trkpt>
        <trkpt lat="29.5034585" lon="103.3099588"><ele>2506.67</ele><time>2026-01-31T20:17:07.000Z</time></trkpt>
        <trkpt lat="29.5034702" lon="103.3100112"><ele>2509.5</ele><time>2026-01-31T20:17:15.000Z</time></trkpt>
        <trkpt lat="29.5034693" lon="103.3100688"><ele>2511.42</ele><time>2026-01-31T20:17:23.000Z</time></trkpt>
        <trkpt lat="29.5034533" lon="103.3101186"><ele>2512.73</ele><time>2026-01-31T20:18:15.000Z</time></trkpt>
        <trkpt lat="29.5034381" lon="103.310173"><ele>2513.47</ele><time>2026-01-31T20:18:27.000Z</time></trkpt>
        <trkpt lat="29.5034292" lon="103.3102394"><ele>2513.92</ele><time>2026-01-31T20:18:33.000Z</time></trkpt>
        <trkpt lat="29.5034305" lon="103.3102986"><ele>2515.05</ele><time>2026-01-31T20:18:45.000Z</time></trkpt>
        <trkpt lat="29.503463" lon="103.3103443"><ele>2516.71</ele><time>2026-01-31T20:20:01.000Z</time></trkpt>
        <trkpt lat="29.5034905" lon="103.3103869"><ele>2518.07</ele><time>2026-01-31T20:20:05.000Z</time></trkpt>
        <trkpt lat="29.5035096" lon="103.3104341"><ele>2518.69</ele><time>2026-01-31T20:20:29.000Z</time></trkpt>
        <trkpt lat="29.5035264" lon="103.310492"><ele>2518.37</ele><time>2026-01-31T20:20:45.000Z</time></trkpt>
        <trkpt lat="29.5035332" lon="103.3105554"><ele>2518.14</ele><time>2026-01-31T20:21:33.000Z</time></trkpt>
        <trkpt lat="29.5035326" lon="103.310624"><ele>2518.78</ele><time>2026-01-31T20:21:51.000Z</time></trkpt>
        <trkpt lat="29.5035242" lon="103.3106872"><ele>2519.71</ele><time>2026-01-31T20:22:01.000Z</time></trkpt>
        <trkpt lat="29.5034929" lon="103.3107398"><ele>2520.95</ele><time>2026-01-31T20:23:49.000Z</time></trkpt>
        <trkpt lat="29.5034603" lon="103.3107881"><ele>2523.35</ele><time>2026-01-31T20:23:53.000Z</time></trkpt>
        <trkpt lat="29.5034312" lon="103.3108367"><ele>2525.9</ele><time>2026-01-31T20:24:01.000Z</time></trkpt>
        <trkpt lat="29.5033971" lon="103.3108783"><ele>2528.75</ele><time>2026-01-31T20:24:19.000Z</time></trkpt>
        <trkpt lat="29.503355" lon="103.3109229"><ele>2531.6</ele><time>2026-01-31T20:24:49.000Z</time></trkpt>
        <trkpt lat="29.5033159" lon="103.3109627"><ele>2535.13</ele><time>2026-01-31T20:24:55.000Z</time></trkpt>
        <trkpt lat="29.5032784" lon="103.3110041"><ele>2538.32</ele><time>2026-01-31T20:25:59.000Z</time></trkpt>
        <trkpt lat="29.5032498" lon="103.3110555"><ele>2541.53</ele><time>2026-01-31T20:27:21.000Z</time></trkpt>
        <trkpt lat="29.5032316" lon="103.3111121"><ele>2544.2</ele><time>2026-01-31T20:28:07.000Z</time></trkpt>
        <trkpt lat="29.503202" lon="103.3111547"><ele>2546.97</ele><time>2026-01-31T20:29:25.000Z</time></trkpt>
        <trkpt lat="29.5031767" lon="103.3112052"><ele>2548.73</ele><time>2026-01-31T20:29:29.000Z</time></trkpt>
        <trkpt lat="29.5031609" lon="103.3112569"><ele>2550.59</ele><time>2026-01-31T20:30:17.000Z</time></trkpt>
        <trkpt lat="29.5031243" lon="103.3113118"><ele>2552.47</ele><time>2026-01-31T20:31:01.000Z</time></trkpt>
        <trkpt lat="29.5030901" lon="103.3113574"><ele>2554.04</ele><time>2026-01-31T20:31:11.000Z</time></trkpt>
        <trkpt lat="29.5030613" lon="103.3114146"><ele>2555.03</ele><time>2026-01-31T20:31:17.000Z</time></trkpt>
        <trkpt lat="29.5030352" lon="103.3114813"><ele>2555.57</ele><time>2026-01-31T20:31:23.000Z</time></trkpt>
        <trkpt lat="29.5030253" lon="103.3115389"><ele>2557.46</ele><time>2026-01-31T20:32:07.000Z</time></trkpt>
        <trkpt lat="29.5030212" lon="103.3115948"><ele>2559.55</ele><time>2026-01-31T20:32:51.000Z</time></trkpt>
        <trkpt lat="29.5030209" lon="103.3116541"><ele>2561.73</ele><time>2026-01-31T20:33:11.000Z</time></trkpt>
        <trkpt lat="29.5030044" lon="103.3117109"><ele>2563.3</ele><time>2026-01-31T20:33:19.000Z</time></trkpt>
        <trkpt lat="29.5029805" lon="103.3117637"><ele>2563.73</ele><time>2026-01-31T20:33:53.000Z</time></trkpt>
        <trkpt lat="29.5029446" lon="103.3118257"><ele>2563.51</ele><time>2026-01-31T20:34:49.000Z</time></trkpt>
        <trkpt lat="29.502912" lon="103.3118895"><ele>2563.81</ele><time>2026-01-31T20:34:53.000Z</time></trkpt>
        <trkpt lat="29.5028824" lon="103.3119381"><ele>2564.89</ele><time>2026-01-31T20:34:57.000Z</time></trkpt>
        <trkpt lat="29.5028516" lon="103.3119815"><ele>2566.43</ele><time>2026-01-31T20:35:01.000Z</time></trkpt>
        <trkpt lat="29.5028352" lon="103.3120472"><ele>2568.07</ele><time>2026-01-31T20:35:05.000Z</time></trkpt>
        <trkpt lat="29.5028193" lon="103.3121088"><ele>2570.14</ele><time>2026-01-31T20:35:37.000Z</time></trkpt>
        <trkpt lat="29.5028166" lon="103.3121694"><ele>2572.41</ele><time>2026-01-31T20:35:41.000Z</time></trkpt>
        <trkpt lat="29.5028284" lon="103.3122316"><ele>2574.63</ele><time>2026-01-31T20:35:45.000Z</time></trkpt>
        <trkpt lat="29.5028239" lon="103.3123027"><ele>2577.01</ele><time>2026-01-31T20:35:49.000Z</time></trkpt>
        <trkpt lat="29.5028198" lon="103.3123637"><ele>2580.69</ele><time>2026-01-31T20:35:57.000Z</time></trkpt>
        <trkpt lat="29.5028171" lon="103.3124227"><ele>2584.43</ele><time>2026-01-31T20:36:05.000Z</time></trkpt>
        <trkpt lat="29.5028108" lon="103.3124789"><ele>2587.36</ele><time>2026-01-31T20:36:23.000Z</time></trkpt>
        <trkpt lat="29.5028086" lon="103.312537"><ele>2589.22</ele><time>2026-01-31T20:36:31.000Z</time></trkpt>
        <trkpt lat="29.5027993" lon="103.3125976"><ele>2590.25</ele><time>2026-01-31T20:36:51.000Z</time></trkpt>
        <trkpt lat="29.5027901" lon="103.3126519"><ele>2591.81</ele><time>2026-01-31T20:37:07.000Z</time></trkpt>
        <trkpt lat="29.5027784" lon="103.3127044"><ele>2593.53</ele><time>2026-01-31T20:37:19.000Z</time></trkpt>
        <trkpt lat="29.5027783" lon="103.312757"><ele>2595.03</ele><time>2026-01-31T20:37:45.000Z</time></trkpt>
        <trkpt lat="29.5027987" lon="103.3128025"><ele>2597</ele><time>2026-01-31T20:37:49.000Z</time></trkpt>
        <trkpt lat="29.5028182" lon="103.3128545"><ele>2599.86</ele><time>2026-01-31T20:38:09.000Z</time></trkpt>
        <trkpt lat="29.5028268" lon="103.3129072"><ele>2602.34</ele><time>2026-01-31T20:38:17.000Z</time></trkpt>
        <trkpt lat="29.5028352" lon="103.3129665"><ele>2604.33</ele><time>2026-01-31T20:38:33.000Z</time></trkpt>
        <trkpt lat="29.5028566" lon="103.3130157"><ele>2608.23</ele><time>2026-01-31T20:38:47.000Z</time></trkpt>
        <trkpt lat="29.5029089" lon="103.3130404"><ele>2611.43</ele><time>2026-01-31T20:40:25.000Z</time></trkpt>
        <trkpt lat="29.502949" lon="103.3130835"><ele>2614.35</ele><time>2026-01-31T20:41:05.000Z</time></trkpt>
        <trkpt lat="29.5029918" lon="103.3131346"><ele>2616.58</ele><time>2026-01-31T20:41:09.000Z</time></trkpt>
        <trkpt lat="29.5030414" lon="103.313195"><ele>2618.42</ele><time>2026-01-31T20:41:15.000Z</time></trkpt>
        <trkpt lat="29.5030778" lon="103.3132474"><ele>2619.85</ele><time>2026-01-31T20:41:41.000Z</time></trkpt>
        <trkpt lat="29.5030985" lon="103.3133002"><ele>2620.51</ele><time>2026-01-31T20:41:53.000Z</time></trkpt>
        <trkpt lat="29.5031009" lon="103.3133564"><ele>2620.55</ele><time>2026-01-31T20:41:58.000Z</time></trkpt>
        <trkpt lat="29.5031308" lon="103.3134016"><ele>2620.53</ele><time>2026-01-31T20:42:05.000Z</time></trkpt>
        <trkpt lat="29.5031673" lon="103.3134373"><ele>2620.99</ele><time>2026-01-31T20:42:11.000Z</time></trkpt>
        <trkpt lat="29.5031934" lon="103.3134844"><ele>2621.29</ele><time>2026-01-31T20:42:21.000Z</time></trkpt>
        <trkpt lat="29.5031997" lon="103.3135418"><ele>2621.92</ele><time>2026-01-31T20:42:29.000Z</time></trkpt>
        <trkpt lat="29.5032083" lon="103.3136132"><ele>2622.76</ele><time>2026-01-31T20:42:41.000Z</time></trkpt>
        <trkpt lat="29.5032127" lon="103.3136823"><ele>2623.69</ele><time>2026-01-31T20:43:19.000Z</time></trkpt>
        <trkpt lat="29.5032236" lon="103.3137382"><ele>2625.46</ele><time>2026-01-31T20:43:41.000Z</time></trkpt>
        <trkpt lat="29.5032349" lon="103.3137953"><ele>2626.62</ele><time>2026-01-31T20:43:57.000Z</time></trkpt>
        <trkpt lat="29.5032393" lon="103.3138501"><ele>2627.4</ele><time>2026-01-31T20:44:17.000Z</time></trkpt>
        <trkpt lat="29.5032551" lon="103.3139174"><ele>2628.28</ele><time>2026-01-31T20:45:34.000Z</time></trkpt>
        <trkpt lat="29.5032726" lon="103.3139683"><ele>2628.5</ele><time>2026-01-31T20:45:45.000Z</time></trkpt>
        <trkpt lat="29.5033032" lon="103.3140317"><ele>2628.52</ele><time>2026-01-31T20:46:03.000Z</time></trkpt>
        <trkpt lat="29.5033466" lon="103.3140928"><ele>2628.35</ele><time>2026-01-31T20:46:07.000Z</time></trkpt>
        <trkpt lat="29.5033715" lon="103.3141643"><ele>2628.43</ele><time>2026-01-31T20:46:11.000Z</time></trkpt>
        <trkpt lat="29.5033758" lon="103.3142249"><ele>2629.51</ele><time>2026-01-31T20:46:19.000Z</time></trkpt>
        <trkpt lat="29.5033879" lon="103.3142888"><ele>2630.76</ele><time>2026-01-31T20:46:23.000Z</time></trkpt>
        <trkpt lat="29.5034157" lon="103.3143457"><ele>2632.66</ele><time>2026-01-31T20:46:28.000Z</time></trkpt>
        <trkpt lat="29.5034265" lon="103.3144076"><ele>2635.17</ele><time>2026-01-31T20:46:51.000Z</time></trkpt>
        <trkpt lat="29.5034476" lon="103.3144658"><ele>2637.72</ele><time>2026-01-31T20:46:57.000Z</time></trkpt>
        <trkpt lat="29.5034644" lon="103.3145245"><ele>2639.21</ele><time>2026-01-31T20:47:01.000Z</time></trkpt>
        <trkpt lat="29.5034807" lon="103.3145969"><ele>2640.96</ele><time>2026-01-31T20:47:07.000Z</time></trkpt>
        <trkpt lat="29.5034964" lon="103.3146578"><ele>2642.81</ele><time>2026-01-31T20:47:17.000Z</time></trkpt>
        <trkpt lat="29.5035166" lon="103.3147156"><ele>2645.81</ele><time>2026-01-31T20:47:35.000Z</time></trkpt>
        <trkpt lat="29.503554" lon="103.3147758"><ele>2649.78</ele><time>2026-01-31T20:47:41.000Z</time></trkpt>
        <trkpt lat="29.5035901" lon="103.3148172"><ele>2654.04</ele><time>2026-01-31T20:47:51.000Z</time></trkpt>
        <trkpt lat="29.5036329" lon="103.3148574"><ele>2658.12</ele><time>2026-01-31T20:48:07.000Z</time></trkpt>
        <trkpt lat="29.5036917" lon="103.3148872"><ele>2660.99</ele><time>2026-01-31T20:48:13.000Z</time></trkpt>
        <trkpt lat="29.503745" lon="103.3149127"><ele>2663.82</ele><time>2026-01-31T20:48:21.000Z</time></trkpt>
        <trkpt lat="29.5037994" lon="103.3149351"><ele>2667.98</ele><time>2026-01-31T20:48:31.000Z</time></trkpt>
        <trkpt lat="29.5038476" lon="103.314959"><ele>2672.03</ele><time>2026-01-31T20:48:39.000Z</time></trkpt>
        <trkpt lat="29.5038859" lon="103.3149968"><ele>2675.64</ele><time>2026-01-31T20:48:53.000Z</time></trkpt>
        <trkpt lat="29.5039215" lon="103.3150415"><ele>2678.37</ele><time>2026-01-31T20:49:01.000Z</time></trkpt>
        <trkpt lat="29.5039591" lon="103.3150731"><ele>2680.21</ele><time>2026-01-31T20:49:15.000Z</time></trkpt>
        <trkpt lat="29.5040073" lon="103.3151149"><ele>2681.36</ele><time>2026-01-31T20:49:19.000Z</time></trkpt>
        <trkpt lat="29.5040592" lon="103.3151465"><ele>2682.39</ele><time>2026-01-31T20:49:23.000Z</time></trkpt>
        <trkpt lat="29.5041006" lon="103.3151885"><ele>2683.62</ele><time>2026-01-31T20:49:35.000Z</time></trkpt>
        <trkpt lat="29.5041367" lon="103.3152354"><ele>2684.55</ele><time>2026-01-31T20:49:51.000Z</time></trkpt>
        <trkpt lat="29.5041679" lon="103.3153074"><ele>2684.93</ele><time>2026-01-31T20:49:57.000Z</time></trkpt>
        <trkpt lat="29.5041943" lon="103.3153619"><ele>2685.55</ele><time>2026-01-31T20:50:01.000Z</time></trkpt>
        <trkpt lat="29.5042277" lon="103.3154137"><ele>2686.37</ele><time>2026-01-31T20:50:07.000Z</time></trkpt>
        <trkpt lat="29.5042637" lon="103.3154578"><ele>2687.36</ele><time>2026-01-31T20:50:13.000Z</time></trkpt>
        <trkpt lat="29.5043114" lon="103.3154983"><ele>2688.32</ele><time>2026-01-31T20:50:19.000Z</time></trkpt>
        <trkpt lat="29.5043565" lon="103.3155392"><ele>2689.72</ele><time>2026-01-31T20:50:25.000Z</time></trkpt>
        <trkpt lat="29.5043734" lon="103.3155879"><ele>2690.58</ele><time>2026-01-31T20:50:31.000Z</time></trkpt>
        <trkpt lat="29.5043747" lon="103.3156452"><ele>2690.9</ele><time>2026-01-31T20:51:31.000Z</time></trkpt>
        <trkpt lat="29.5043876" lon="103.3157006"><ele>2690.76</ele><time>2026-01-31T20:52:05.000Z</time></trkpt>
        <trkpt lat="29.5044149" lon="103.3157717"><ele>2690.67</ele><time>2026-01-31T20:52:09.000Z</time></trkpt>
        <trkpt lat="29.5044437" lon="103.3158282"><ele>2689.61</ele><time>2026-01-31T20:52:13.000Z</time></trkpt>
        <trkpt lat="29.5044648" lon="103.31588"><ele>2687.61</ele><time>2026-01-31T20:52:17.000Z</time></trkpt>
        <trkpt lat="29.5044922" lon="103.3159315"><ele>2685.9</ele><time>2026-01-31T20:52:21.000Z</time></trkpt>
        <trkpt lat="29.5045112" lon="103.3159937"><ele>2684.26</ele><time>2026-01-31T20:52:27.000Z</time></trkpt>
        <trkpt lat="29.5045398" lon="103.3160435"><ele>2682.81</ele><time>2026-01-31T20:52:31.000Z</time></trkpt>
        <trkpt lat="29.5045792" lon="103.3160866"><ele>2682.16</ele><time>2026-01-31T20:52:37.000Z</time></trkpt>
        <trkpt lat="29.5046286" lon="103.3161249"><ele>2681.8</ele><time>2026-01-31T20:52:51.000Z</time></trkpt>
        <trkpt lat="29.5046767" lon="103.3161586"><ele>2681.39</ele><time>2026-01-31T20:53:01.000Z</time></trkpt>
        <trkpt lat="29.5047272" lon="103.3161843"><ele>2681.12</ele><time>2026-01-31T20:53:15.000Z</time></trkpt>
        <trkpt lat="29.5047742" lon="103.3162122"><ele>2681.13</ele><time>2026-01-31T20:53:40.000Z</time></trkpt>
        <trkpt lat="29.5048199" lon="103.3162423"><ele>2681.61</ele><time>2026-01-31T20:54:13.000Z</time></trkpt>
        <trkpt lat="29.5048674" lon="103.3162681"><ele>2682.44</ele><time>2026-01-31T20:55:46.000Z</time></trkpt>
        <trkpt lat="29.5049252" lon="103.3163027"><ele>2683.11</ele><time>2026-01-31T20:56:05.000Z</time></trkpt>
        <trkpt lat="29.5049978" lon="103.3163434"><ele>2683.91</ele><time>2026-01-31T20:56:09.000Z</time></trkpt>
        <trkpt lat="29.5050494" lon="103.3163642"><ele>2684.99</ele><time>2026-01-31T20:56:19.000Z</time></trkpt>
        <trkpt lat="29.5050937" lon="103.3163877"><ele>2686.03</ele><time>2026-01-31T20:56:23.000Z</time></trkpt>
        <trkpt lat="29.5051401" lon="103.3164193"><ele>2687.35</ele><time>2026-01-31T20:57:01.000Z</time></trkpt>
        <trkpt lat="29.5051869" lon="103.3164572"><ele>2688.42</ele><time>2026-01-31T20:57:47.000Z</time></trkpt>
        <trkpt lat="29.5052415" lon="103.3165076"><ele>2690.79</ele><time>2026-01-31T20:58:03.000Z</time></trkpt>
        <trkpt lat="29.5052788" lon="103.316552"><ele>2692.87</ele><time>2026-01-31T20:58:07.000Z</time></trkpt>
        <trkpt lat="29.5053098" lon="103.3166069"><ele>2694.93</ele><time>2026-01-31T20:58:31.000Z</time></trkpt>
        <trkpt lat="29.5053365" lon="103.316655"><ele>2696.39</ele><time>2026-01-31T20:58:35.000Z</time></trkpt>
        <trkpt lat="29.5053582" lon="103.3167047"><ele>2697.73</ele><time>2026-01-31T20:58:53.000Z</time></trkpt>
        <trkpt lat="29.5053536" lon="103.316761"><ele>2699.87</ele><time>2026-01-31T20:59:01.000Z</time></trkpt>
        <trkpt lat="29.5053503" lon="103.3168155"><ele>2703.05</ele><time>2026-01-31T20:59:22.000Z</time></trkpt>
        <trkpt lat="29.5053584" lon="103.3168663"><ele>2705.92</ele><time>2026-01-31T20:59:35.000Z</time></trkpt>
        <trkpt lat="29.5053759" lon="103.3169256"><ele>2708.36</ele><time>2026-01-31T21:00:05.000Z</time></trkpt>
        <trkpt lat="29.5053819" lon="103.3169804"><ele>2710.14</ele><time>2026-01-31T21:00:43.000Z</time></trkpt>
        <trkpt lat="29.5053776" lon="103.3170394"><ele>2711.52</ele><time>2026-01-31T21:01:39.000Z</time></trkpt>
        <trkpt lat="29.5053667" lon="103.3170946"><ele>2712.99</ele><time>2026-01-31T21:01:49.000Z</time></trkpt>
        <trkpt lat="29.5053531" lon="103.3171463"><ele>2714.79</ele><time>2026-01-31T21:02:19.000Z</time></trkpt>
        <trkpt lat="29.505334" lon="103.3171952"><ele>2716.77</ele><time>2026-01-31T21:02:49.000Z</time></trkpt>
        <trkpt lat="29.5053108" lon="103.3172406"><ele>2717.89</ele><time>2026-01-31T21:03:05.000Z</time></trkpt>
        <trkpt lat="29.5052968" lon="103.3172968"><ele>2718.57</ele><time>2026-01-31T21:03:52.000Z</time></trkpt>
        <trkpt lat="29.5052871" lon="103.3173605"><ele>2718.42</ele><time>2026-01-31T21:03:55.000Z</time></trkpt>
        <trkpt lat="29.5052749" lon="103.3174482"><ele>2718.11</ele><time>2026-01-31T21:04:15.000Z</time></trkpt>
        <trkpt lat="29.505262" lon="103.3175148"><ele>2717.51</ele><time>2026-01-31T21:04:21.000Z</time></trkpt>
        <trkpt lat="29.5052616" lon="103.3175772"><ele>2717.46</ele><time>2026-01-31T21:04:31.000Z</time></trkpt>
        <trkpt lat="29.5052665" lon="103.3176389"><ele>2717.42</ele><time>2026-01-31T21:04:39.000Z</time></trkpt>
        <trkpt lat="29.5052734" lon="103.3176935"><ele>2717.27</ele><time>2026-01-31T21:04:43.000Z</time></trkpt>
        <trkpt lat="29.5052638" lon="103.3177636"><ele>2717.52</ele><time>2026-01-31T21:05:29.000Z</time></trkpt>
        <trkpt lat="29.5052534" lon="103.3178273"><ele>2717.43</ele><time>2026-01-31T21:05:33.000Z</time></trkpt>
        <trkpt lat="29.505247" lon="103.317889"><ele>2717.04</ele><time>2026-01-31T21:05:43.000Z</time></trkpt>
        <trkpt lat="29.5052474" lon="103.3179579"><ele>2717.07</ele><time>2026-01-31T21:05:49.000Z</time></trkpt>
        <trkpt lat="29.5052562" lon="103.3180193"><ele>2718.14</ele><time>2026-01-31T21:05:59.000Z</time></trkpt>
        <trkpt lat="29.5052687" lon="103.3180882"><ele>2718.49</ele><time>2026-01-31T21:06:16.000Z</time></trkpt>
        <trkpt lat="29.5052775" lon="103.3181459"><ele>2718.63</ele><time>2026-01-31T21:06:31.000Z</time></trkpt>
        <trkpt lat="29.5052994" lon="103.3181979"><ele>2718.77</ele><time>2026-01-31T21:06:57.000Z</time></trkpt>
        <trkpt lat="29.5053446" lon="103.3182278"><ele>2718.63</ele><time>2026-01-31T21:07:31.000Z</time></trkpt>
        <trkpt lat="29.5053929" lon="103.3182663"><ele>2718.99</ele><time>2026-01-31T21:07:37.000Z</time></trkpt>
        <trkpt lat="29.5054268" lon="103.318318"><ele>2719.72</ele><time>2026-01-31T21:07:55.000Z</time></trkpt>
        <trkpt lat="29.5054587" lon="103.3183784"><ele>2721.46</ele><time>2026-01-31T21:08:03.000Z</time></trkpt>
        <trkpt lat="29.5054917" lon="103.3184321"><ele>2722.78</ele><time>2026-01-31T21:08:09.000Z</time></trkpt>
        <trkpt lat="29.5055241" lon="103.3184845"><ele>2723.61</ele><time>2026-01-31T21:08:17.000Z</time></trkpt>
        <trkpt lat="29.5055636" lon="103.3185262"><ele>2724.04</ele><time>2026-01-31T21:08:23.000Z</time></trkpt>
        <trkpt lat="29.5056027" lon="103.3185578"><ele>2724.99</ele><time>2026-01-31T21:08:29.000Z</time></trkpt>
        <trkpt lat="29.5056381" lon="103.3185981"><ele>2725.61</ele><time>2026-01-31T21:08:35.000Z</time></trkpt>
        <trkpt lat="29.5056594" lon="103.3186512"><ele>2726.05</ele><time>2026-01-31T21:08:45.000Z</time></trkpt>
        <trkpt lat="29.5056977" lon="103.3187236"><ele>2726.62</ele><time>2026-01-31T21:10:05.000Z</time></trkpt>
        <trkpt lat="29.505736" lon="103.3187676"><ele>2726.67</ele><time>2026-01-31T21:10:23.000Z</time></trkpt>
        <trkpt lat="29.5057631" lon="103.3188142"><ele>2726.51</ele><time>2026-01-31T21:10:33.000Z</time></trkpt>
        <trkpt lat="29.5057873" lon="103.318859"><ele>2726.92</ele><time>2026-01-31T21:10:55.000Z</time></trkpt>
        <trkpt lat="29.5058023" lon="103.3189082"><ele>2728.26</ele><time>2026-01-31T21:11:15.000Z</time></trkpt>
        <trkpt lat="29.5058325" lon="103.3189589"><ele>2729.26</ele><time>2026-01-31T21:11:29.000Z</time></trkpt>
        <trkpt lat="29.5058652" lon="103.3190126"><ele>2730.13</ele><time>2026-01-31T21:11:43.000Z</time></trkpt>
        <trkpt lat="29.5058769" lon="103.3190778"><ele>2730.99</ele><time>2026-01-31T21:11:51.000Z</time></trkpt>
        <trkpt lat="29.5059002" lon="103.3191684"><ele>2731.23</ele><time>2026-01-31T21:12:09.000Z</time></trkpt>
        <trkpt lat="29.5059131" lon="103.3192398"><ele>2731.01</ele><time>2026-01-31T21:12:13.000Z</time></trkpt>
        <trkpt lat="29.5059355" lon="103.3193043"><ele>2730.81</ele><time>2026-01-31T21:12:17.000Z</time></trkpt>
        <trkpt lat="29.5059561" lon="103.3193685"><ele>2731.53</ele><time>2026-01-31T21:12:21.000Z</time></trkpt>
        <trkpt lat="29.5059749" lon="103.3194398"><ele>2732.73</ele><time>2026-01-31T21:12:27.000Z</time></trkpt>
        <trkpt lat="29.5059931" lon="103.3195081"><ele>2734.9</ele><time>2026-01-31T21:12:35.000Z</time></trkpt>
        <trkpt lat="29.5060132" lon="103.3195613"><ele>2737.48</ele><time>2026-01-31T21:12:41.000Z</time></trkpt>
        <trkpt lat="29.5060303" lon="103.3196176"><ele>2739.37</ele><time>2026-01-31T21:12:47.000Z</time></trkpt>
        <trkpt lat="29.5060425" lon="103.3196812"><ele>2741.2</ele><time>2026-01-31T21:12:51.000Z</time></trkpt>
        <trkpt lat="29.5060575" lon="103.3197494"><ele>2742.92</ele><time>2026-01-31T21:12:57.000Z</time></trkpt>
        <trkpt lat="29.5060721" lon="103.3198112"><ele>2744.78</ele><time>2026-01-31T21:13:01.000Z</time></trkpt>
        <trkpt lat="29.5060829" lon="103.3198675"><ele>2746.7</ele><time>2026-01-31T21:13:07.000Z</time></trkpt>
        <trkpt lat="29.5060906" lon="103.3199224"><ele>2749.14</ele><time>2026-01-31T21:13:13.000Z</time></trkpt>
        <trkpt lat="29.5061035" lon="103.3199795"><ele>2752.1</ele><time>2026-01-31T21:13:15.000Z</time></trkpt>
        <trkpt lat="29.5061119" lon="103.3200576"><ele>2756.35</ele><time>2026-01-31T21:13:23.000Z</time></trkpt>
        <trkpt lat="29.5061256" lon="103.3201164"><ele>2762.08</ele><time>2026-01-31T21:13:29.000Z</time></trkpt>
        <trkpt lat="29.5061427" lon="103.3201702"><ele>2768.03</ele><time>2026-01-31T21:13:33.000Z</time></trkpt>
        <trkpt lat="29.5061408" lon="103.3202273"><ele>2772.37</ele><time>2026-01-31T21:13:47.000Z</time></trkpt>
        <trkpt lat="29.5061015" lon="103.3202667"><ele>2777.65</ele><time>2026-01-31T21:15:31.000Z</time></trkpt>
        <trkpt lat="29.5060742" lon="103.3203085"><ele>2783.46</ele><time>2026-01-31T21:15:45.000Z</time></trkpt>
        <trkpt lat="29.5060482" lon="103.3203533"><ele>2787.99</ele><time>2026-01-31T21:15:53.000Z</time></trkpt>
        <trkpt lat="29.5060183" lon="103.3204093"><ele>2790.4</ele><time>2026-01-31T21:15:59.000Z</time></trkpt>
        <trkpt lat="29.5059917" lon="103.3204579"><ele>2792.8</ele><time>2026-01-31T21:16:05.000Z</time></trkpt>
        <trkpt lat="29.5059638" lon="103.3205074"><ele>2795.12</ele><time>2026-01-31T21:16:13.000Z</time></trkpt>
        <trkpt lat="29.5059397" lon="103.3205652"><ele>2797.64</ele><time>2026-01-31T21:16:43.000Z</time></trkpt>
        <trkpt lat="29.5059308" lon="103.3206283"><ele>2800.33</ele><time>2026-01-31T21:17:01.000Z</time></trkpt>
        <trkpt lat="29.505924" lon="103.3206967"><ele>2802.39</ele><time>2026-01-31T21:17:07.000Z</time></trkpt>
        <trkpt lat="29.5059191" lon="103.3207612"><ele>2804.25</ele><time>2026-01-31T21:17:15.000Z</time></trkpt>
        <trkpt lat="29.5059286" lon="103.3208194"><ele>2806.24</ele><time>2026-01-31T21:17:27.000Z</time></trkpt>
        <trkpt lat="29.5059441" lon="103.320871"><ele>2808.22</ele><time>2026-01-31T21:17:33.000Z</time></trkpt>
        <trkpt lat="29.5059541" lon="103.320922"><ele>2810.04</ele><time>2026-01-31T21:18:07.000Z</time></trkpt>
        <trkpt lat="29.5059677" lon="103.3209708"><ele>2811.36</ele><time>2026-01-31T21:18:25.000Z</time></trkpt>
        <trkpt lat="29.5059712" lon="103.3210254"><ele>2812.07</ele><time>2026-01-31T21:19:13.000Z</time></trkpt>
        <trkpt lat="29.5059726" lon="103.3210816"><ele>2812.8</ele><time>2026-01-31T21:20:09.000Z</time></trkpt>
        <trkpt lat="29.5059832" lon="103.3211384"><ele>2812.95</ele><time>2026-01-31T21:21:16.000Z</time></trkpt>
        <trkpt lat="29.5060015" lon="103.3211876"><ele>2813.04</ele><time>2026-01-31T21:21:27.000Z</time></trkpt>
        <trkpt lat="29.5060177" lon="103.3212591"><ele>2813.45</ele><time>2026-01-31T21:21:55.000Z</time></trkpt>
        <trkpt lat="29.5060369" lon="103.3213191"><ele>2815.38</ele><time>2026-01-31T21:21:59.000Z</time></trkpt>
        <trkpt lat="29.5060489" lon="103.3213764"><ele>2818.17</ele><time>2026-01-31T21:22:03.000Z</time></trkpt>
        <trkpt lat="29.5060661" lon="103.3214405"><ele>2821.68</ele><time>2026-01-31T21:22:17.000Z</time></trkpt>
        <trkpt lat="29.5060781" lon="103.321497"><ele>2826</ele><time>2026-01-31T21:22:23.000Z</time></trkpt>
        <trkpt lat="29.5060638" lon="103.3215454"><ele>2830.09</ele><time>2026-01-31T21:23:01.000Z</time></trkpt>
        <trkpt lat="29.5060856" lon="103.3215811"><ele>2835.38</ele><time>2026-01-31T21:24:05.000Z</time></trkpt>
        <trkpt lat="29.5060954" lon="103.3216314"><ele>2839.43</ele><time>2026-01-31T21:24:21.000Z</time></trkpt>
        <trkpt lat="29.5061245" lon="103.3216712"><ele>2844.06</ele><time>2026-01-31T21:24:37.000Z</time></trkpt>
        <trkpt lat="29.506133" lon="103.3217274"><ele>2847.85</ele><time>2026-01-31T21:26:01.000Z</time></trkpt>
        <trkpt lat="29.5061397" lon="103.3217812"><ele>2851.12</ele><time>2026-01-31T21:31:53.000Z</time></trkpt>
        <trkpt lat="29.5061587" lon="103.321843"><ele>2852.99</ele><time>2026-01-31T21:32:03.000Z</time></trkpt>
        <trkpt lat="29.5061742" lon="103.3218927"><ele>2854.62</ele><time>2026-01-31T21:34:25.000Z</time></trkpt>
        <trkpt lat="29.5061945" lon="103.32194"><ele>2855.91</ele><time>2026-01-31T21:34:29.000Z</time></trkpt>
        <trkpt lat="29.5062276" lon="103.3220062"><ele>2856.64</ele><time>2026-01-31T21:34:35.000Z</time></trkpt>
        <trkpt lat="29.506256" lon="103.3220682"><ele>2857.66</ele><time>2026-01-31T21:34:39.000Z</time></trkpt>
        <trkpt lat="29.5062815" lon="103.322129"><ele>2859.28</ele><time>2026-01-31T21:34:47.000Z</time></trkpt>
        <trkpt lat="29.5063031" lon="103.3221836"><ele>2861.33</ele><time>2026-01-31T21:34:51.000Z</time></trkpt>
        <trkpt lat="29.5063165" lon="103.3222345"><ele>2863.98</ele><time>2026-01-31T21:34:57.000Z</time></trkpt>
        <trkpt lat="29.50632" lon="103.3222951"><ele>2867.33</ele><time>2026-01-31T21:35:11.000Z</time></trkpt>
        <trkpt lat="29.5063111" lon="103.322361"><ele>2870.24</ele><time>2026-01-31T21:35:23.000Z</time></trkpt>
        <trkpt lat="29.5063088" lon="103.3224195"><ele>2872.46</ele><time>2026-01-31T21:35:35.000Z</time></trkpt>
        <trkpt lat="29.5063234" lon="103.3224757"><ele>2874.57</ele><time>2026-01-31T21:35:40.000Z</time></trkpt>
        <trkpt lat="29.5063425" lon="103.3225268"><ele>2876.42</ele><time>2026-01-31T21:35:43.000Z</time></trkpt>
        <trkpt lat="29.50637" lon="103.3225847"><ele>2878.35</ele><time>2026-01-31T21:35:51.000Z</time></trkpt>
        <trkpt lat="29.5063892" lon="103.3226448"><ele>2881.1</ele><time>2026-01-31T21:35:58.000Z</time></trkpt>
        <trkpt lat="29.5064095" lon="103.3227061"><ele>2883.27</ele><time>2026-01-31T21:36:03.000Z</time></trkpt>
        <trkpt lat="29.5064266" lon="103.3227598"><ele>2884.98</ele><time>2026-01-31T21:36:09.000Z</time></trkpt>
        <trkpt lat="29.5064452" lon="103.3228113"><ele>2886.49</ele><time>2026-01-31T21:36:17.000Z</time></trkpt>
        <trkpt lat="29.5064584" lon="103.3228631"><ele>2888.1</ele><time>2026-01-31T21:36:29.000Z</time></trkpt>
        <trkpt lat="29.5064804" lon="103.3229126"><ele>2889.56</ele><time>2026-01-31T21:36:37.000Z</time></trkpt>
        <trkpt lat="29.5065022" lon="103.3229656"><ele>2890.54</ele><time>2026-01-31T21:36:43.000Z</time></trkpt>
        <trkpt lat="29.506531" lon="103.3230137"><ele>2891.75</ele><time>2026-01-31T21:36:49.000Z</time></trkpt>
        <trkpt lat="29.5065697" lon="103.3230474"><ele>2893.15</ele><time>2026-01-31T21:36:57.000Z</time></trkpt>
        <trkpt lat="29.5066152" lon="103.3230808"><ele>2893.87</ele><time>2026-01-31T21:37:07.000Z</time></trkpt>
        <trkpt lat="29.506664" lon="103.3231109"><ele>2894.39</ele><time>2026-01-31T21:37:17.000Z</time></trkpt>
        <trkpt lat="29.5067074" lon="103.3231435"><ele>2894.79</ele><time>2026-01-31T21:37:23.000Z</time></trkpt>
        <trkpt lat="29.5067411" lon="103.3231892"><ele>2895.47</ele><time>2026-01-31T21:37:31.000Z</time></trkpt>
        <trkpt lat="29.5067764" lon="103.3232283"><ele>2896.21</ele><time>2026-01-31T21:37:39.000Z</time></trkpt>
        <trkpt lat="29.506831" lon="103.323268"><ele>2896.47</ele><time>2026-01-31T21:37:51.000Z</time></trkpt>
        <trkpt lat="29.5068776" lon="103.3233094"><ele>2896.72</ele><time>2026-01-31T21:37:57.000Z</time></trkpt>
        <trkpt lat="29.5069021" lon="103.3233631"><ele>2897.51</ele><time>2026-01-31T21:38:03.000Z</time></trkpt>
        <trkpt lat="29.5069261" lon="103.3234093"><ele>2898.08</ele><time>2026-01-31T21:38:09.000Z</time></trkpt>
        <trkpt lat="29.5069584" lon="103.3234455"><ele>2898.56</ele><time>2026-01-31T21:38:23.000Z</time></trkpt>
        <trkpt lat="29.5069987" lon="103.3234715"><ele>2898.11</ele><time>2026-01-31T21:38:53.000Z</time></trkpt>
        <trkpt lat="29.5070346" lon="103.3235116"><ele>2897.43</ele><time>2026-01-31T21:38:57.000Z</time></trkpt>
        <trkpt lat="29.5070751" lon="103.3235434"><ele>2896.95</ele><time>2026-01-31T21:39:03.000Z</time></trkpt>
        <trkpt lat="29.5071245" lon="103.3235535"><ele>2896.39</ele><time>2026-01-31T21:39:09.000Z</time></trkpt>
        <trkpt lat="29.5071723" lon="103.3235569"><ele>2895.87</ele><time>2026-01-31T21:39:15.000Z</time></trkpt>
        <trkpt lat="29.5072281" lon="103.3235695"><ele>2895.26</ele><time>2026-01-31T21:39:21.000Z</time></trkpt>
        <trkpt lat="29.5072833" lon="103.3235871"><ele>2894.74</ele><time>2026-01-31T21:39:27.000Z</time></trkpt>
        <trkpt lat="29.5073266" lon="103.3236222"><ele>2894.5</ele><time>2026-01-31T21:39:33.000Z</time></trkpt>
        <trkpt lat="29.5073641" lon="103.3236731"><ele>2894.39</ele><time>2026-01-31T21:39:41.000Z</time></trkpt>
        <trkpt lat="29.5074028" lon="103.3237137"><ele>2894.33</ele><time>2026-01-31T21:39:49.000Z</time></trkpt>
        <trkpt lat="29.5074342" lon="103.323754"><ele>2894.57</ele><time>2026-01-31T21:39:55.000Z</time></trkpt>
        <trkpt lat="29.5074517" lon="103.3238088"><ele>2894.76</ele><time>2026-01-31T21:40:03.000Z</time></trkpt>
        <trkpt lat="29.5074577" lon="103.3238704"><ele>2894.62</ele><time>2026-01-31T21:40:09.000Z</time></trkpt>
        <trkpt lat="29.5074428" lon="103.3239251"><ele>2894.24</ele><time>2026-01-31T21:40:17.000Z</time></trkpt>
        <trkpt lat="29.5074233" lon="103.3239816"><ele>2894.01</ele><time>2026-01-31T21:40:41.000Z</time></trkpt>
        <trkpt lat="29.5073958" lon="103.3240443"><ele>2893.81</ele><time>2026-01-31T21:40:49.000Z</time></trkpt>
        <trkpt lat="29.5073773" lon="103.3241078"><ele>2893.22</ele><time>2026-01-31T21:40:55.000Z</time></trkpt>
        <trkpt lat="29.5073604" lon="103.324166"><ele>2892.78</ele><time>2026-01-31T21:41:01.000Z</time></trkpt>
        <trkpt lat="29.5073451" lon="103.3242218"><ele>2892.61</ele><time>2026-01-31T21:41:11.000Z</time></trkpt>
        <trkpt lat="29.5073248" lon="103.3242754"><ele>2892.77</ele><time>2026-01-31T21:41:17.000Z</time></trkpt>
        <trkpt lat="29.5072935" lon="103.3243217"><ele>2892.91</ele><time>2026-01-31T21:41:23.000Z</time></trkpt>
        <trkpt lat="29.5072737" lon="103.3243709"><ele>2892.7</ele><time>2026-01-31T21:41:29.000Z</time></trkpt>
        <trkpt lat="29.5072577" lon="103.324427"><ele>2893.14</ele><time>2026-01-31T21:41:39.000Z</time></trkpt>
        <trkpt lat="29.50723" lon="103.3244827"><ele>2893.87</ele><time>2026-01-31T21:41:45.000Z</time></trkpt>
        <trkpt lat="29.5072214" lon="103.3245434"><ele>2894.65</ele><time>2026-01-31T21:41:55.000Z</time></trkpt>
        <trkpt lat="29.5072247" lon="103.3246001"><ele>2895.4</ele><time>2026-01-31T21:42:01.000Z</time></trkpt>
        <trkpt lat="29.5072318" lon="103.3246531"><ele>2896.4</ele><time>2026-01-31T21:42:07.000Z</time></trkpt>
        <trkpt lat="29.5072313" lon="103.32471"><ele>2897.65</ele><time>2026-01-31T21:42:15.000Z</time></trkpt>
        <trkpt lat="29.5072185" lon="103.3247668"><ele>2898.96</ele><time>2026-01-31T21:42:21.000Z</time></trkpt>
        <trkpt lat="29.5072058" lon="103.3248258"><ele>2900.04</ele><time>2026-01-31T21:42:27.000Z</time></trkpt>
        <trkpt lat="29.507193" lon="103.3248881"><ele>2901.13</ele><time>2026-01-31T21:42:35.000Z</time></trkpt>
        <trkpt lat="29.507181" lon="103.3249549"><ele>2901.9</ele><time>2026-01-31T21:42:47.000Z</time></trkpt>
        <trkpt lat="29.5071838" lon="103.3250109"><ele>2902.32</ele><time>2026-01-31T21:43:09.000Z</time></trkpt>
        <trkpt lat="29.5071819" lon="103.3250688"><ele>2903.04</ele><time>2026-01-31T21:48:39.000Z</time></trkpt>
        <trkpt lat="29.5071698" lon="103.3251232"><ele>2904.07</ele><time>2026-01-31T21:49:11.000Z</time></trkpt>
        <trkpt lat="29.5071561" lon="103.3251788"><ele>2904.91</ele><time>2026-01-31T21:49:17.000Z</time></trkpt>
        <trkpt lat="29.5071504" lon="103.3252352"><ele>2906.1</ele><time>2026-01-31T21:49:23.000Z</time></trkpt>
        <trkpt lat="29.5071456" lon="103.32529"><ele>2908</ele><time>2026-01-31T21:49:31.000Z</time></trkpt>
        <trkpt lat="29.5071441" lon="103.3253456"><ele>2910.04</ele><time>2026-01-31T21:49:43.000Z</time></trkpt>
        <trkpt lat="29.5071479" lon="103.3254086"><ele>2911.77</ele><time>2026-01-31T21:49:51.000Z</time></trkpt>
        <trkpt lat="29.5071494" lon="103.325465"><ele>2913.64</ele><time>2026-01-31T21:49:57.000Z</time></trkpt>
        <trkpt lat="29.507172" lon="103.3255152"><ele>2915.1</ele><time>2026-01-31T21:50:05.000Z</time></trkpt>
        <trkpt lat="29.5072221" lon="103.325538"><ele>2916.17</ele><time>2026-01-31T21:50:13.000Z</time></trkpt>
        <trkpt lat="29.5072806" lon="103.3255462"><ele>2916.73</ele><time>2026-01-31T21:50:19.000Z</time></trkpt>
        <trkpt lat="29.5073366" lon="103.3255649"><ele>2917.2</ele><time>2026-01-31T21:50:27.000Z</time></trkpt>
        <trkpt lat="29.5073824" lon="103.3255956"><ele>2917.44</ele><time>2026-01-31T21:50:37.000Z</time></trkpt>
        <trkpt lat="29.5074214" lon="103.3256418"><ele>2917.59</ele><time>2026-01-31T21:50:53.000Z</time></trkpt>
        <trkpt lat="29.5074632" lon="103.3256915"><ele>2917.93</ele><time>2026-01-31T21:51:01.000Z</time></trkpt>
        <trkpt lat="29.5075004" lon="103.3257314"><ele>2918.61</ele><time>2026-01-31T21:51:27.000Z</time></trkpt>
        <trkpt lat="29.5075462" lon="103.3257649"><ele>2919.53</ele><time>2026-01-31T21:51:37.000Z</time></trkpt>
        <trkpt lat="29.5075903" lon="103.3258131"><ele>2921.57</ele><time>2026-01-31T21:51:59.000Z</time></trkpt>
        <trkpt lat="29.5076321" lon="103.3258478"><ele>2923.07</ele><time>2026-01-31T21:52:29.000Z</time></trkpt>
        <trkpt lat="29.5076759" lon="103.3258878"><ele>2924.33</ele><time>2026-01-31T21:52:41.000Z</time></trkpt>
        <trkpt lat="29.5077125" lon="103.325936"><ele>2925.83</ele><time>2026-01-31T21:53:31.000Z</time></trkpt>
        <trkpt lat="29.5077347" lon="103.3259902"><ele>2927.48</ele><time>2026-01-31T21:54:17.000Z</time></trkpt>
        <trkpt lat="29.5077346" lon="103.3260438"><ele>2928.91</ele><time>2026-01-31T21:54:29.000Z</time></trkpt>
        <trkpt lat="29.5077322" lon="103.3261028"><ele>2930.37</ele><time>2026-01-31T21:54:45.000Z</time></trkpt>
        <trkpt lat="29.5077062" lon="103.3261735"><ele>2932.59</ele><time>2026-01-31T21:55:05.000Z</time></trkpt>
        <trkpt lat="29.5076734" lon="103.3262245"><ele>2935.13</ele><time>2026-01-31T21:55:10.000Z</time></trkpt>
        <trkpt lat="29.5076403" lon="103.3262688"><ele>2937.18</ele><time>2026-01-31T21:55:21.000Z</time></trkpt>
        <trkpt lat="29.5076099" lon="103.3263303"><ele>2939.22</ele><time>2026-01-31T21:55:29.000Z</time></trkpt>
        <trkpt lat="29.5075797" lon="103.3263899"><ele>2942.15</ele><time>2026-01-31T21:55:53.000Z</time></trkpt>
        <trkpt lat="29.5075384" lon="103.3264307"><ele>2945.48</ele><time>2026-01-31T21:56:03.000Z</time></trkpt>
        <trkpt lat="29.5075106" lon="103.3264799"><ele>2948.27</ele><time>2026-01-31T21:57:31.000Z</time></trkpt>
        <trkpt lat="29.5074875" lon="103.3265255"><ele>2950.51</ele><time>2026-01-31T21:57:41.000Z</time></trkpt>
        <trkpt lat="29.5074618" lon="103.3265873"><ele>2952.85</ele><time>2026-01-31T21:58:15.000Z</time></trkpt>
        <trkpt lat="29.507435" lon="103.3266481"><ele>2955.51</ele><time>2026-01-31T21:58:25.000Z</time></trkpt>
        <trkpt lat="29.5073832" lon="103.3266723"><ele>2958.03</ele><time>2026-01-31T21:58:31.000Z</time></trkpt>
        <trkpt lat="29.5073217" lon="103.3266748"><ele>2960.44</ele><time>2026-01-31T21:58:37.000Z</time></trkpt>
        <trkpt lat="29.5072604" lon="103.3266753"><ele>2962.06</ele><time>2026-01-31T21:58:43.000Z</time></trkpt>
        <trkpt lat="29.5072123" lon="103.3266988"><ele>2963.41</ele><time>2026-01-31T21:58:53.000Z</time></trkpt>
        <trkpt lat="29.5071777" lon="103.3267383"><ele>2964.63</ele><time>2026-01-31T21:59:31.000Z</time></trkpt>
        <trkpt lat="29.5071557" lon="103.3267938"><ele>2966.04</ele><time>2026-01-31T21:59:39.000Z</time></trkpt>
        <trkpt lat="29.5071292" lon="103.326839"><ele>2967.18</ele><time>2026-01-31T21:59:45.000Z</time></trkpt>
        <trkpt lat="29.5071234" lon="103.3268954"><ele>2967.89</ele><time>2026-01-31T22:00:03.000Z</time></trkpt>
        <trkpt lat="29.5071307" lon="103.3269507"><ele>2968.74</ele><time>2026-01-31T22:00:11.000Z</time></trkpt>
        <trkpt lat="29.5071534" lon="103.3270023"><ele>2969.74</ele><time>2026-01-31T22:00:37.000Z</time></trkpt>
        <trkpt lat="29.5071911" lon="103.3270462"><ele>2970.44</ele><time>2026-01-31T22:00:51.000Z</time></trkpt>
        <trkpt lat="29.5072336" lon="103.3270869"><ele>2970.8</ele><time>2026-01-31T22:01:01.000Z</time></trkpt>
        <trkpt lat="29.5072814" lon="103.3271296"><ele>2971.03</ele><time>2026-01-31T22:01:09.000Z</time></trkpt>
        <trkpt lat="29.5073246" lon="103.3271607"><ele>2971.26</ele><time>2026-01-31T22:01:13.000Z</time></trkpt>
        <trkpt lat="29.5073672" lon="103.3271991"><ele>2971.36</ele><time>2026-01-31T22:01:17.000Z</time></trkpt>
        <trkpt lat="29.5074108" lon="103.3272458"><ele>2971.29</ele><time>2026-01-31T22:01:23.000Z</time></trkpt>
        <trkpt lat="29.5074418" lon="103.327294"><ele>2971.19</ele><time>2026-01-31T22:01:27.000Z</time></trkpt>
        <trkpt lat="29.5074784" lon="103.3273595"><ele>2970.96</ele><time>2026-01-31T22:01:37.000Z</time></trkpt>
        <trkpt lat="29.5075054" lon="103.3274213"><ele>2970.83</ele><time>2026-01-31T22:01:41.000Z</time></trkpt>
        <trkpt lat="29.5075259" lon="103.3274818"><ele>2971.74</ele><time>2026-01-31T22:01:47.000Z</time></trkpt>
        <trkpt lat="29.5075429" lon="103.3275413"><ele>2973.93</ele><time>2026-01-31T22:01:53.000Z</time></trkpt>
        <trkpt lat="29.5075592" lon="103.3276005"><ele>2976.83</ele><time>2026-01-31T22:01:59.000Z</time></trkpt>
        <trkpt lat="29.5075691" lon="103.3276558"><ele>2979.19</ele><time>2026-01-31T22:02:07.000Z</time></trkpt>
        <trkpt lat="29.5076013" lon="103.3277032"><ele>2981.46</ele><time>2026-01-31T22:02:15.000Z</time></trkpt>
        <trkpt lat="29.5076474" lon="103.3277332"><ele>2983.18</ele><time>2026-01-31T22:02:23.000Z</time></trkpt>
        <trkpt lat="29.5077014" lon="103.3277398"><ele>2984.87</ele><time>2026-01-31T22:02:39.000Z</time></trkpt>
        <trkpt lat="29.5077618" lon="103.3277325"><ele>2986.32</ele><time>2026-01-31T22:02:45.000Z</time></trkpt>
        <trkpt lat="29.5078112" lon="103.3276934"><ele>2987.87</ele><time>2026-01-31T22:02:51.000Z</time></trkpt>
        <trkpt lat="29.5078414" lon="103.3276443"><ele>2988.97</ele><time>2026-01-31T22:02:55.000Z</time></trkpt>
        <trkpt lat="29.5078792" lon="103.3276001"><ele>2989.55</ele><time>2026-01-31T22:03:03.000Z</time></trkpt>
        <trkpt lat="29.5079206" lon="103.3275744"><ele>2989.09</ele><time>2026-01-31T22:03:11.000Z</time></trkpt>
        <trkpt lat="29.5079682" lon="103.3275658"><ele>2988.27</ele><time>2026-01-31T22:03:17.000Z</time></trkpt>
        <trkpt lat="29.5080124" lon="103.3275972"><ele>2987.65</ele><time>2026-01-31T22:03:23.000Z</time></trkpt>
        <trkpt lat="29.5080461" lon="103.3276518"><ele>2986.83</ele><time>2026-01-31T22:03:29.000Z</time></trkpt>
        <trkpt lat="29.5080578" lon="103.3277219"><ele>2985.98</ele><time>2026-01-31T22:03:37.000Z</time></trkpt>
        <trkpt lat="29.5080725" lon="103.3277899"><ele>2985.08</ele><time>2026-01-31T22:03:43.000Z</time></trkpt>
        <trkpt lat="29.5080947" lon="103.3278514"><ele>2984.43</ele><time>2026-01-31T22:03:49.000Z</time></trkpt>
        <trkpt lat="29.5081174" lon="103.3279014"><ele>2984.02</ele><time>2026-01-31T22:04:03.000Z</time></trkpt>
        <trkpt lat="29.5081395" lon="103.3279562"><ele>2984.19</ele><time>2026-01-31T22:04:07.000Z</time></trkpt>
        <trkpt lat="29.5081538" lon="103.3280107"><ele>2984.95</ele><time>2026-01-31T22:04:13.000Z</time></trkpt>
        <trkpt lat="29.5081857" lon="103.328059"><ele>2985.65</ele><time>2026-01-31T22:04:19.000Z</time></trkpt>
        <trkpt lat="29.50823" lon="103.3281073"><ele>2986.2</ele><time>2026-01-31T22:04:25.000Z</time></trkpt>
        <trkpt lat="29.5082752" lon="103.3281317"><ele>2986.48</ele><time>2026-01-31T22:04:29.000Z</time></trkpt>
        <trkpt lat="29.508319" lon="103.3281636"><ele>2986.74</ele><time>2026-01-31T22:04:35.000Z</time></trkpt>
        <trkpt lat="29.508355" lon="103.3282101"><ele>2987</ele><time>2026-01-31T22:04:43.000Z</time></trkpt>
        <trkpt lat="29.5083855" lon="103.3282586"><ele>2986.85</ele><time>2026-01-31T22:04:51.000Z</time></trkpt>
        <trkpt lat="29.5084155" lon="103.3283125"><ele>2986.61</ele><time>2026-01-31T22:04:59.000Z</time></trkpt>
        <trkpt lat="29.5084522" lon="103.3283513"><ele>2986.78</ele><time>2026-01-31T22:05:05.000Z</time></trkpt>
        <trkpt lat="29.5085025" lon="103.3283449"><ele>2986.83</ele><time>2026-01-31T22:05:15.000Z</time></trkpt>
        <trkpt lat="29.5085651" lon="103.3283433"><ele>2986.8</ele><time>2026-01-31T22:05:23.000Z</time></trkpt>
        <trkpt lat="29.5086294" lon="103.3283395"><ele>2986.8</ele><time>2026-01-31T22:05:29.000Z</time></trkpt>
        <trkpt lat="29.5086864" lon="103.3283405"><ele>2986.9</ele><time>2026-01-31T22:05:35.000Z</time></trkpt>
        <trkpt lat="29.5087339" lon="103.3283509"><ele>2986.88</ele><time>2026-01-31T22:05:41.000Z</time></trkpt>
        <trkpt lat="29.5087877" lon="103.3283608"><ele>2987.12</ele><time>2026-01-31T22:05:47.000Z</time></trkpt>
        <trkpt lat="29.508838" lon="103.3283622"><ele>2986.96</ele><time>2026-01-31T22:05:53.000Z</time></trkpt>
        <trkpt lat="29.5088841" lon="103.3283522"><ele>2986.84</ele><time>2026-01-31T22:05:59.000Z</time></trkpt>
        <trkpt lat="29.5089366" lon="103.328346"><ele>2986.77</ele><time>2026-01-31T22:06:05.000Z</time></trkpt>
        <trkpt lat="29.5089844" lon="103.3283062"><ele>2986.77</ele><time>2026-01-31T22:06:13.000Z</time></trkpt>
        <trkpt lat="29.5090302" lon="103.3282692"><ele>2986.68</ele><time>2026-01-31T22:06:19.000Z</time></trkpt>
        <trkpt lat="29.5090755" lon="103.3282415"><ele>2986.77</ele><time>2026-01-31T22:06:25.000Z</time></trkpt>
        <trkpt lat="29.5091163" lon="103.3282117"><ele>2986.66</ele><time>2026-01-31T22:06:35.000Z</time></trkpt>
        <trkpt lat="29.5091524" lon="103.3281716"><ele>2986.25</ele><time>2026-01-31T22:06:41.000Z</time></trkpt>
        <trkpt lat="29.509192" lon="103.3281427"><ele>2985.71</ele><time>2026-01-31T22:06:59.000Z</time></trkpt>
        <trkpt lat="29.5092365" lon="103.3281416"><ele>2985.39</ele><time>2026-01-31T22:07:27.000Z</time></trkpt>
        <trkpt lat="29.5092909" lon="103.3281354"><ele>2984.94</ele><time>2026-01-31T22:07:37.000Z</time></trkpt>
        <trkpt lat="29.5093443" lon="103.328142"><ele>2984.27</ele><time>2026-01-31T22:07:43.000Z</time></trkpt>
        <trkpt lat="29.5093997" lon="103.3281443"><ele>2983.44</ele><time>2026-01-31T22:07:51.000Z</time></trkpt>
        <trkpt lat="29.5094589" lon="103.3281379"><ele>2982.31</ele><time>2026-01-31T22:07:59.000Z</time></trkpt>
        <trkpt lat="29.5095122" lon="103.3281288"><ele>2980.98</ele><time>2026-01-31T22:08:05.000Z</time></trkpt>
        <trkpt lat="29.5095663" lon="103.3281243"><ele>2980.31</ele><time>2026-01-31T22:08:19.000Z</time></trkpt>
        <trkpt lat="29.5096148" lon="103.3281305"><ele>2980.53</ele><time>2026-01-31T22:08:37.000Z</time></trkpt>
        <trkpt lat="29.5096699" lon="103.3281394"><ele>2980.58</ele><time>2026-01-31T22:08:45.000Z</time></trkpt>
        <trkpt lat="29.5097205" lon="103.3281617"><ele>2980.8</ele><time>2026-01-31T22:08:57.000Z</time></trkpt>
        <trkpt lat="29.5097735" lon="103.3281903"><ele>2980.7</ele><time>2026-01-31T22:09:09.000Z</time></trkpt>
        <trkpt lat="29.509809" lon="103.3282359"><ele>2980.26</ele><time>2026-01-31T22:09:17.000Z</time></trkpt>
        <trkpt lat="29.5098402" lon="103.3282804"><ele>2980.38</ele><time>2026-01-31T22:09:23.000Z</time></trkpt>
        <trkpt lat="29.5098739" lon="103.3283184"><ele>2980.55</ele><time>2026-01-31T22:09:43.000Z</time></trkpt>
        <trkpt lat="29.5098837" lon="103.3283749"><ele>2980.92</ele><time>2026-01-31T22:09:49.000Z</time></trkpt>
        <trkpt lat="29.5098789" lon="103.3284348"><ele>2981.57</ele><time>2026-01-31T22:10:09.000Z</time></trkpt>
        <trkpt lat="29.5098774" lon="103.3284944"><ele>2982.43</ele><time>2026-01-31T22:10:19.000Z</time></trkpt>
        <trkpt lat="29.5098725" lon="103.3285574"><ele>2984.1</ele><time>2026-01-31T22:10:27.000Z</time></trkpt>
        <trkpt lat="29.5098655" lon="103.328623"><ele>2985.55</ele><time>2026-01-31T22:10:43.000Z</time></trkpt>
        <trkpt lat="29.5098869" lon="103.3286752"><ele>2987.45</ele><time>2026-01-31T22:10:51.000Z</time></trkpt>
        <trkpt lat="29.5099183" lon="103.3287177"><ele>2988.25</ele><time>2026-01-31T22:10:59.000Z</time></trkpt>
        <trkpt lat="29.5099528" lon="103.3287654"><ele>2988.16</ele><time>2026-01-31T22:11:43.000Z</time></trkpt>
        <trkpt lat="29.5099816" lon="103.3288188"><ele>2988.27</ele><time>2026-01-31T22:11:55.000Z</time></trkpt>
        <trkpt lat="29.5100038" lon="103.3288694"><ele>2988.6</ele><time>2026-01-31T22:12:05.000Z</time></trkpt>
        <trkpt lat="29.5100202" lon="103.3289197"><ele>2989.12</ele><time>2026-01-31T22:12:15.000Z</time></trkpt>
        <trkpt lat="29.5100406" lon="103.3289719"><ele>2990.18</ele><time>2026-01-31T22:12:35.000Z</time></trkpt>
        <trkpt lat="29.5100684" lon="103.3290136"><ele>2992.61</ele><time>2026-01-31T22:12:49.000Z</time></trkpt>
        <trkpt lat="29.5101134" lon="103.3290661"><ele>2995.03</ele><time>2026-01-31T22:13:13.000Z</time></trkpt>
        <trkpt lat="29.5101583" lon="103.3291073"><ele>2996.72</ele><time>2026-01-31T22:13:31.000Z</time></trkpt>
        <trkpt lat="29.5102075" lon="103.3291435"><ele>2997.62</ele><time>2026-01-31T22:13:37.000Z</time></trkpt>
        <trkpt lat="29.5102454" lon="103.3291882"><ele>2998.38</ele><time>2026-01-31T22:13:43.000Z</time></trkpt>
        <trkpt lat="29.5102716" lon="103.3292341"><ele>2999.05</ele><time>2026-01-31T22:13:49.000Z</time></trkpt>
        <trkpt lat="29.5102871" lon="103.3292858"><ele>2999.53</ele><time>2026-01-31T22:13:57.000Z</time></trkpt>
        <trkpt lat="29.5103082" lon="103.3293368"><ele>3000.36</ele><time>2026-01-31T22:14:07.000Z</time></trkpt>
        <trkpt lat="29.5103385" lon="103.3293836"><ele>3001.74</ele><time>2026-01-31T22:14:15.000Z</time></trkpt>
        <trkpt lat="29.5103625" lon="103.3294339"><ele>3003</ele><time>2026-01-31T22:14:21.000Z</time></trkpt>
        <trkpt lat="29.5103831" lon="103.3294984"><ele>3003.73</ele><time>2026-01-31T22:14:27.000Z</time></trkpt>
        <trkpt lat="29.5104143" lon="103.3295657"><ele>3004.13</ele><time>2026-01-31T22:14:33.000Z</time></trkpt>
        <trkpt lat="29.5104402" lon="103.3296205"><ele>3004.21</ele><time>2026-01-31T22:14:37.000Z</time></trkpt>
        <trkpt lat="29.510478" lon="103.3296768"><ele>3004.03</ele><time>2026-01-31T22:14:43.000Z</time></trkpt>
        <trkpt lat="29.5105235" lon="103.3297213"><ele>3004.13</ele><time>2026-01-31T22:14:49.000Z</time></trkpt>
        <trkpt lat="29.5105732" lon="103.3297582"><ele>3004.21</ele><time>2026-01-31T22:14:55.000Z</time></trkpt>
        <trkpt lat="29.5106121" lon="103.3298092"><ele>3003.82</ele><time>2026-01-31T22:15:01.000Z</time></trkpt>
        <trkpt lat="29.5106449" lon="103.3298691"><ele>3003.33</ele><time>2026-01-31T22:15:07.000Z</time></trkpt>
        <trkpt lat="29.5106728" lon="103.3299338"><ele>3003.17</ele><time>2026-01-31T22:15:13.000Z</time></trkpt>
        <trkpt lat="29.5107042" lon="103.329987"><ele>3003.09</ele><time>2026-01-31T22:15:19.000Z</time></trkpt>
        <trkpt lat="29.5107303" lon="103.3300366"><ele>3002.91</ele><time>2026-01-31T22:15:25.000Z</time></trkpt>
        <trkpt lat="29.510748" lon="103.3300957"><ele>3002.62</ele><time>2026-01-31T22:15:33.000Z</time></trkpt>
        <trkpt lat="29.5107603" lon="103.3301636"><ele>3002.35</ele><time>2026-01-31T22:15:39.000Z</time></trkpt>
        <trkpt lat="29.5107683" lon="103.3302323"><ele>3002.29</ele><time>2026-01-31T22:15:45.000Z</time></trkpt>
        <trkpt lat="29.5107901" lon="103.3302848"><ele>3002.32</ele><time>2026-01-31T22:15:57.000Z</time></trkpt>
        <trkpt lat="29.510818" lon="103.3303325"><ele>3002.24</ele><time>2026-01-31T22:16:10.000Z</time></trkpt>
        <trkpt lat="29.5108246" lon="103.3303824"><ele>3003.05</ele><time>2026-01-31T22:16:19.000Z</time></trkpt>
        <trkpt lat="29.5108197" lon="103.3304386"><ele>3003.62</ele><time>2026-01-31T22:16:29.000Z</time></trkpt>
        <trkpt lat="29.510792" lon="103.3304899"><ele>3004.05</ele><time>2026-01-31T22:17:07.000Z</time></trkpt>
        <trkpt lat="29.5107667" lon="103.3305417"><ele>3004.61</ele><time>2026-01-31T22:17:19.000Z</time></trkpt>
        <trkpt lat="29.5107446" lon="103.3305989"><ele>3005.48</ele><time>2026-01-31T22:17:31.000Z</time></trkpt>
        <trkpt lat="29.5107212" lon="103.3306562"><ele>3006.59</ele><time>2026-01-31T22:18:45.000Z</time></trkpt>
        <trkpt lat="29.5107001" lon="103.3307132"><ele>3007.56</ele><time>2026-01-31T22:18:51.000Z</time></trkpt>
        <trkpt lat="29.5106613" lon="103.3307526"><ele>3009.25</ele><time>2026-01-31T22:19:27.000Z</time></trkpt>
        <trkpt lat="29.5106125" lon="103.3307796"><ele>3011.46</ele><time>2026-01-31T22:19:39.000Z</time></trkpt>
        <trkpt lat="29.5105725" lon="103.3308109"><ele>3013.53</ele><time>2026-01-31T22:19:55.000Z</time></trkpt>
        <trkpt lat="29.5105356" lon="103.3308418"><ele>3015.52</ele><time>2026-01-31T22:20:05.000Z</time></trkpt>
        <trkpt lat="29.5104944" lon="103.330862"><ele>3018.17</ele><time>2026-01-31T22:20:11.000Z</time></trkpt>
        <trkpt lat="29.5104469" lon="103.3308851"><ele>3020.64</ele><time>2026-01-31T22:20:19.000Z</time></trkpt>
        <trkpt lat="29.5103933" lon="103.3308937"><ele>3023.27</ele><time>2026-01-31T22:20:25.000Z</time></trkpt>
        <trkpt lat="29.510341" lon="103.3309109"><ele>3025.05</ele><time>2026-01-31T22:20:39.000Z</time></trkpt>
        <trkpt lat="29.5102855" lon="103.3309177"><ele>3026.63</ele><time>2026-01-31T22:20:47.000Z</time></trkpt>
        <trkpt lat="29.5102487" lon="103.3309488"><ele>3027.76</ele><time>2026-01-31T22:21:47.000Z</time></trkpt>
        <trkpt lat="29.5102114" lon="103.3309995"><ele>3028.51</ele><time>2026-01-31T22:22:13.000Z</time></trkpt>
        <trkpt lat="29.5101727" lon="103.3310524"><ele>3029.19</ele><time>2026-01-31T22:22:19.000Z</time></trkpt>
        <trkpt lat="29.5101449" lon="103.3311009"><ele>3030.61</ele><time>2026-01-31T22:22:27.000Z</time></trkpt>
        <trkpt lat="29.5101296" lon="103.3311555"><ele>3031.94</ele><time>2026-01-31T22:22:39.000Z</time></trkpt>
        <trkpt lat="29.5100982" lon="103.3312032"><ele>3033.84</ele><time>2026-01-31T22:23:27.000Z</time></trkpt>
        <trkpt lat="29.5100704" lon="103.3312507"><ele>3035.97</ele><time>2026-01-31T22:23:53.000Z</time></trkpt>
        <trkpt lat="29.5100622" lon="103.3313022"><ele>3037.98</ele><time>2026-01-31T22:23:58.000Z</time></trkpt>
        <trkpt lat="29.5100548" lon="103.3313636"><ele>3039.6</ele><time>2026-01-31T22:24:01.000Z</time></trkpt>
        <trkpt lat="29.5100492" lon="103.3314193"><ele>3041.42</ele><time>2026-01-31T22:24:07.000Z</time></trkpt>
        <trkpt lat="29.5100472" lon="103.3314778"><ele>3043.3</ele><time>2026-01-31T22:24:16.000Z</time></trkpt>
        <trkpt lat="29.510043" lon="103.3315387"><ele>3045.26</ele><time>2026-01-31T22:24:25.000Z</time></trkpt>
        <trkpt lat="29.5100532" lon="103.331605"><ele>3047.68</ele><time>2026-01-31T22:24:37.000Z</time></trkpt>
        <trkpt lat="29.5100625" lon="103.3316611"><ele>3050.43</ele><time>2026-01-31T22:24:45.000Z</time></trkpt>
        <trkpt lat="29.5100783" lon="103.3317196"><ele>3052.72</ele><time>2026-01-31T22:24:53.000Z</time></trkpt>
        <trkpt lat="29.5101025" lon="103.3317693"><ele>3055</ele><time>2026-01-31T22:25:01.000Z</time></trkpt>
        <trkpt lat="29.5101262" lon="103.3318179"><ele>3056.98</ele><time>2026-01-31T22:25:13.000Z</time></trkpt>
        <trkpt lat="29.5101394" lon="103.3318803"><ele>3058.57</ele><time>2026-01-31T22:25:21.000Z</time></trkpt>
        <trkpt lat="29.5101381" lon="103.3319373"><ele>3059.89</ele><time>2026-01-31T22:25:29.000Z</time></trkpt>
        <trkpt lat="29.5101233" lon="103.3319887"><ele>3060.77</ele><time>2026-01-31T22:25:41.000Z</time></trkpt>
        <trkpt lat="29.5101161" lon="103.3320458"><ele>3061.79</ele><time>2026-01-31T22:25:53.000Z</time></trkpt>
        <trkpt lat="29.5101504" lon="103.3320673"><ele>3062.62</ele><time>2026-01-31T22:26:07.000Z</time></trkpt>
        <trkpt lat="29.5101829" lon="103.3321076"><ele>3063.76</ele><time>2026-01-31T22:27:49.000Z</time></trkpt>
        <trkpt lat="29.5102089" lon="103.332173"><ele>3065.83</ele><time>2026-01-31T22:27:55.000Z</time></trkpt>
        <trkpt lat="29.5102252" lon="103.3322341"><ele>3067.18</ele><time>2026-01-31T22:27:59.000Z</time></trkpt>
        <trkpt lat="29.5101948" lon="103.3322735"><ele>3068.79</ele><time>2026-01-31T22:28:01.000Z</time></trkpt>
        <trkpt lat="29.5101442" lon="103.3323052"><ele>3069.89</ele><time>2026-01-31T22:28:05.000Z</time></trkpt>
        <trkpt lat="29.5100917" lon="103.3323167"><ele>3070.32</ele><time>2026-01-31T22:28:17.000Z</time></trkpt>
        <trkpt lat="29.5100366" lon="103.3323146"><ele>3070.31</ele><time>2026-01-31T22:28:31.000Z</time></trkpt>
        <trkpt lat="29.5100306" lon="103.3323659"><ele>3070.16</ele><time>2026-01-31T22:40:49.000Z</time></trkpt>
        <trkpt lat="29.5100834" lon="103.3323667"><ele>3068.82</ele><time>2026-01-31T22:40:57.000Z</time></trkpt>
        <trkpt lat="29.510143" lon="103.332373"><ele>3067.56</ele><time>2026-01-31T22:41:05.000Z</time></trkpt>
        <trkpt lat="29.5101873" lon="103.3323955"><ele>3065.82</ele><time>2026-01-31T22:41:13.000Z</time></trkpt>
        <trkpt lat="29.5102306" lon="103.3324124"><ele>3064.03</ele><time>2026-01-31T22:41:51.000Z</time></trkpt>
        <trkpt lat="29.5102708" lon="103.3324398"><ele>3062.01</ele><time>2026-01-31T22:42:23.000Z</time></trkpt>
        <trkpt lat="29.5103142" lon="103.3324612"><ele>3060.42</ele><time>2026-01-31T22:42:31.000Z</time></trkpt>
        <trkpt lat="29.5103624" lon="103.3324743"><ele>3059.32</ele><time>2026-01-31T22:43:01.000Z</time></trkpt>
        <trkpt lat="29.5104146" lon="103.3324854"><ele>3058.3</ele><time>2026-01-31T22:43:13.000Z</time></trkpt>
        <trkpt lat="29.5104635" lon="103.3324992"><ele>3056.71</ele><time>2026-01-31T22:43:33.000Z</time></trkpt>
        <trkpt lat="29.5105138" lon="103.3325116"><ele>3054.59</ele><time>2026-01-31T22:43:41.000Z</time></trkpt>
        <trkpt lat="29.5105705" lon="103.3325202"><ele>3052.99</ele><time>2026-01-31T22:43:49.000Z</time></trkpt>
        <trkpt lat="29.510622" lon="103.3325379"><ele>3051.09</ele><time>2026-01-31T22:43:55.000Z</time></trkpt>
        <trkpt lat="29.5106679" lon="103.3325557"><ele>3049.87</ele><time>2026-01-31T22:44:01.000Z</time></trkpt>
        <trkpt lat="29.5107244" lon="103.3325598"><ele>3048.99</ele><time>2026-01-31T22:44:07.000Z</time></trkpt>
        <trkpt lat="29.5107737" lon="103.3325391"><ele>3048.47</ele><time>2026-01-31T22:44:13.000Z</time></trkpt>
        <trkpt lat="29.5108199" lon="103.3325156"><ele>3048.46</ele><time>2026-01-31T22:44:17.000Z</time></trkpt>
        <trkpt lat="29.5108771" lon="103.332506"><ele>3048.28</ele><time>2026-01-31T22:44:23.000Z</time></trkpt>
        <trkpt lat="29.5109262" lon="103.332511"><ele>3048.34</ele><time>2026-01-31T22:44:27.000Z</time></trkpt>
        <trkpt lat="29.5109785" lon="103.3325119"><ele>3048.15</ele><time>2026-01-31T22:44:33.000Z</time></trkpt>
        <trkpt lat="29.511035" lon="103.3324972"><ele>3048.05</ele><time>2026-01-31T22:44:39.000Z</time></trkpt>
        <trkpt lat="29.5110931" lon="103.3324826"><ele>3048.18</ele><time>2026-01-31T22:44:45.000Z</time></trkpt>
        <trkpt lat="29.5111457" lon="103.33248"><ele>3048.34</ele><time>2026-01-31T22:44:51.000Z</time></trkpt>
        <trkpt lat="29.5111934" lon="103.3324761"><ele>3049.41</ele><time>2026-01-31T22:44:59.000Z</time></trkpt>
        <trkpt lat="29.511245" lon="103.3324711"><ele>3050.39</ele><time>2026-01-31T22:45:05.000Z</time></trkpt>
        <trkpt lat="29.5112963" lon="103.3324483"><ele>3051.02</ele><time>2026-01-31T22:45:11.000Z</time></trkpt>
        <trkpt lat="29.5113542" lon="103.3324402"><ele>3051.61</ele><time>2026-01-31T22:45:17.000Z</time></trkpt>
        <trkpt lat="29.5114183" lon="103.3324367"><ele>3052.15</ele><time>2026-01-31T22:45:23.000Z</time></trkpt>
        <trkpt lat="29.5114813" lon="103.3324281"><ele>3052.63</ele><time>2026-01-31T22:45:29.000Z</time></trkpt>
        <trkpt lat="29.511543" lon="103.3324253"><ele>3052.93</ele><time>2026-01-31T22:45:35.000Z</time></trkpt>
        <trkpt lat="29.5116007" lon="103.3324473"><ele>3053.45</ele><time>2026-01-31T22:45:41.000Z</time></trkpt>
        <trkpt lat="29.5116611" lon="103.3324701"><ele>3053.64</ele><time>2026-01-31T22:45:47.000Z</time></trkpt>
        <trkpt lat="29.5117248" lon="103.332479"><ele>3053.69</ele><time>2026-01-31T22:45:53.000Z</time></trkpt>
        <trkpt lat="29.5117844" lon="103.3324884"><ele>3053.68</ele><time>2026-01-31T22:45:59.000Z</time></trkpt>
        <trkpt lat="29.5118418" lon="103.3325039"><ele>3053.61</ele><time>2026-01-31T22:46:05.000Z</time></trkpt>
        <trkpt lat="29.511896" lon="103.3325166"><ele>3052.92</ele><time>2026-01-31T22:46:11.000Z</time></trkpt>
        <trkpt lat="29.5119431" lon="103.3325252"><ele>3052.05</ele><time>2026-01-31T22:46:41.000Z</time></trkpt>
        <trkpt lat="29.5119917" lon="103.3325625"><ele>3050.92</ele><time>2026-01-31T22:46:47.000Z</time></trkpt>
        <trkpt lat="29.5120301" lon="103.3326019"><ele>3050.07</ele><time>2026-01-31T22:46:53.000Z</time></trkpt>
        <trkpt lat="29.5120639" lon="103.3326426"><ele>3049.44</ele><time>2026-01-31T22:46:59.000Z</time></trkpt>
        <trkpt lat="29.5121057" lon="103.3326825"><ele>3048.78</ele><time>2026-01-31T22:47:07.000Z</time></trkpt>
        <trkpt lat="29.5121351" lon="103.3327355"><ele>3048.25</ele><time>2026-01-31T22:47:23.000Z</time></trkpt>
        <trkpt lat="29.5121764" lon="103.3327418"><ele>3047.6</ele><time>2026-01-31T22:47:49.000Z</time></trkpt>
        <trkpt lat="29.5122252" lon="103.3327264"><ele>3046.82</ele><time>2026-01-31T22:47:59.000Z</time></trkpt>
        <trkpt lat="29.5122796" lon="103.3327146"><ele>3045.66</ele><time>2026-01-31T22:48:05.000Z</time></trkpt>
        <trkpt lat="29.5123385" lon="103.3327019"><ele>3044.83</ele><time>2026-01-31T22:48:13.000Z</time></trkpt>
        <trkpt lat="29.5123961" lon="103.3326933"><ele>3044.01</ele><time>2026-01-31T22:48:19.000Z</time></trkpt>
        <trkpt lat="29.5124448" lon="103.3326887"><ele>3043.14</ele><time>2026-01-31T22:48:25.000Z</time></trkpt>
        <trkpt lat="29.5124937" lon="103.3326822"><ele>3042.5</ele><time>2026-01-31T22:48:33.000Z</time></trkpt>
        <trkpt lat="29.5125387" lon="103.3326735"><ele>3041.65</ele><time>2026-01-31T22:48:41.000Z</time></trkpt>
        <trkpt lat="29.5125767" lon="103.3326441"><ele>3040.21</ele><time>2026-01-31T22:48:47.000Z</time></trkpt>
        <trkpt lat="29.5126183" lon="103.3326209"><ele>3038.79</ele><time>2026-01-31T22:48:55.000Z</time></trkpt>
        <trkpt lat="29.5126623" lon="103.3326239"><ele>3037.36</ele><time>2026-01-31T22:49:07.000Z</time></trkpt>
        <trkpt lat="29.512712" lon="103.3326324"><ele>3035.7</ele><time>2026-01-31T22:49:13.000Z</time></trkpt>
        <trkpt lat="29.5127617" lon="103.3326391"><ele>3033.66</ele><time>2026-01-31T22:49:21.000Z</time></trkpt>
        <trkpt lat="29.5128115" lon="103.3326344"><ele>3031.17</ele><time>2026-01-31T22:49:29.000Z</time></trkpt>
        <trkpt lat="29.5128601" lon="103.3326125"><ele>3028.52</ele><time>2026-01-31T22:49:39.000Z</time></trkpt>
        <trkpt lat="29.5129068" lon="103.3325896"><ele>3025.61</ele><time>2026-01-31T22:49:49.000Z</time></trkpt>
        <trkpt lat="29.5129387" lon="103.3325487"><ele>3022.68</ele><time>2026-01-31T22:49:59.000Z</time></trkpt>
        <trkpt lat="29.5129484" lon="103.3324923"><ele>3019.47</ele><time>2026-01-31T22:50:07.000Z</time></trkpt>
        <trkpt lat="29.5129687" lon="103.332442"><ele>3016.82</ele><time>2026-01-31T22:50:15.000Z</time></trkpt>
        <trkpt lat="29.5129997" lon="103.332404"><ele>3014.71</ele><time>2026-01-31T22:50:31.000Z</time></trkpt>
        <trkpt lat="29.5130396" lon="103.3323662"><ele>3012.79</ele><time>2026-01-31T22:50:41.000Z</time></trkpt>
        <trkpt lat="29.5130857" lon="103.3323294"><ele>3011.06</ele><time>2026-01-31T22:50:49.000Z</time></trkpt>
        <trkpt lat="29.5131366" lon="103.3323039"><ele>3009.26</ele><time>2026-01-31T22:50:59.000Z</time></trkpt>
        <trkpt lat="29.5131552" lon="103.332257"><ele>3007.04</ele><time>2026-01-31T22:51:09.000Z</time></trkpt>
        <trkpt lat="29.5131337" lon="103.332204"><ele>3004.81</ele><time>2026-01-31T22:51:15.000Z</time></trkpt>
        <trkpt lat="29.5131009" lon="103.3321587"><ele>3002.95</ele><time>2026-01-31T22:51:21.000Z</time></trkpt>
        <trkpt lat="29.5130819" lon="103.3321032"><ele>3001.41</ele><time>2026-01-31T22:51:31.000Z</time></trkpt>
        <trkpt lat="29.5130702" lon="103.3320437"><ele>2999.82</ele><time>2026-01-31T22:51:41.000Z</time></trkpt>
        <trkpt lat="29.5130936" lon="103.3320007"><ele>2998.31</ele><time>2026-01-31T22:51:47.000Z</time></trkpt>
        <trkpt lat="29.5131296" lon="103.3319652"><ele>2996.9</ele><time>2026-01-31T22:51:55.000Z</time></trkpt>
        <trkpt lat="29.5131749" lon="103.3319294"><ele>2995.17</ele><time>2026-01-31T22:52:07.000Z</time></trkpt>
        <trkpt lat="29.5132058" lon="103.3318832"><ele>2993.27</ele><time>2026-01-31T22:52:17.000Z</time></trkpt>
        <trkpt lat="29.513233" lon="103.3318373"><ele>2992.44</ele><time>2026-01-31T22:52:43.000Z</time></trkpt>
        <trkpt lat="29.5132638" lon="103.3317939"><ele>2992.11</ele><time>2026-01-31T22:52:49.000Z</time></trkpt>
        <trkpt lat="29.5133078" lon="103.3317523"><ele>2991.52</ele><time>2026-01-31T22:52:55.000Z</time></trkpt>
        <trkpt lat="29.513354" lon="103.331734"><ele>2991.35</ele><time>2026-01-31T22:53:01.000Z</time></trkpt>
        <trkpt lat="29.5134023" lon="103.3317403"><ele>2991.51</ele><time>2026-01-31T22:53:13.000Z</time></trkpt>
        <trkpt lat="29.5134525" lon="103.3317467"><ele>2992.09</ele><time>2026-01-31T22:53:35.000Z</time></trkpt>
        <trkpt lat="29.5135014" lon="103.3317386"><ele>2992.86</ele><time>2026-01-31T22:53:49.000Z</time></trkpt>
        <trkpt lat="29.5135434" lon="103.3317005"><ele>2993.9</ele><time>2026-01-31T22:53:59.000Z</time></trkpt>
        <trkpt lat="29.5135855" lon="103.3316504"><ele>2995.25</ele><time>2026-01-31T22:54:05.000Z</time></trkpt>
        <trkpt lat="29.5136228" lon="103.3315911"><ele>2996.3</ele><time>2026-01-31T22:54:13.000Z</time></trkpt>
        <trkpt lat="29.5136543" lon="103.3315416"><ele>2997.35</ele><time>2026-01-31T22:54:21.000Z</time></trkpt>
        <trkpt lat="29.5136857" lon="103.3314869"><ele>2998.16</ele><time>2026-01-31T22:54:27.000Z</time></trkpt>
        <trkpt lat="29.5137099" lon="103.3314371"><ele>2998.7</ele><time>2026-01-31T22:54:35.000Z</time></trkpt>
        <trkpt lat="29.5137322" lon="103.3313806"><ele>2999.1</ele><time>2026-01-31T22:54:41.000Z</time></trkpt>
        <trkpt lat="29.5137553" lon="103.3313299"><ele>2999.34</ele><time>2026-01-31T22:54:45.000Z</time></trkpt>
        <trkpt lat="29.5137714" lon="103.3312714"><ele>2999.29</ele><time>2026-01-31T22:54:51.000Z</time></trkpt>
        <trkpt lat="29.5137921" lon="103.3312195"><ele>2999.75</ele><time>2026-01-31T22:54:59.000Z</time></trkpt>
        <trkpt lat="29.5138256" lon="103.3311824"><ele>3000.31</ele><time>2026-01-31T22:55:03.000Z</time></trkpt>
        <trkpt lat="29.5138694" lon="103.3311509"><ele>3000.78</ele><time>2026-01-31T22:55:10.000Z</time></trkpt>
        <trkpt lat="29.5139221" lon="103.3311308"><ele>3001.35</ele><time>2026-01-31T22:55:17.000Z</time></trkpt>
        <trkpt lat="29.5139741" lon="103.3311162"><ele>3001.47</ele><time>2026-01-31T22:55:23.000Z</time></trkpt>
        <trkpt lat="29.5140265" lon="103.3311066"><ele>3001.54</ele><time>2026-01-31T22:55:29.000Z</time></trkpt>
        <trkpt lat="29.514084" lon="103.3311056"><ele>3001.78</ele><time>2026-01-31T22:55:35.000Z</time></trkpt>
        <trkpt lat="29.5141357" lon="103.3311041"><ele>3002.36</ele><time>2026-01-31T22:55:41.000Z</time></trkpt>
        <trkpt lat="29.5141925" lon="103.3311102"><ele>3002.72</ele><time>2026-01-31T22:55:47.000Z</time></trkpt>
        <trkpt lat="29.5142501" lon="103.3311271"><ele>3002.99</ele><time>2026-01-31T22:55:53.000Z</time></trkpt>
        <trkpt lat="29.5143119" lon="103.33114"><ele>3002.78</ele><time>2026-01-31T22:55:59.000Z</time></trkpt>
        <trkpt lat="29.514368" lon="103.3311511"><ele>3002.66</ele><time>2026-01-31T22:56:07.000Z</time></trkpt>
        <trkpt lat="29.5144163" lon="103.331166"><ele>3002.43</ele><time>2026-01-31T22:56:13.000Z</time></trkpt>
        <trkpt lat="29.514464" lon="103.3311701"><ele>3001.96</ele><time>2026-01-31T22:56:19.000Z</time></trkpt>
        <trkpt lat="29.5145177" lon="103.3311781"><ele>3001.47</ele><time>2026-01-31T22:56:25.000Z</time></trkpt>
        <trkpt lat="29.5145707" lon="103.3311892"><ele>3000.78</ele><time>2026-01-31T22:56:31.000Z</time></trkpt>
        <trkpt lat="29.5146286" lon="103.3312011"><ele>3000.09</ele><time>2026-01-31T22:56:37.000Z</time></trkpt>
        <trkpt lat="29.514689" lon="103.3312134"><ele>2999.87</ele><time>2026-01-31T22:56:43.000Z</time></trkpt>
        <trkpt lat="29.5147516" lon="103.3312401"><ele>2999.59</ele><time>2026-01-31T22:56:49.000Z</time></trkpt>
        <trkpt lat="29.5148022" lon="103.3312763"><ele>2999.5</ele><time>2026-01-31T22:56:55.000Z</time></trkpt>
        <trkpt lat="29.5148396" lon="103.3313146"><ele>2999.5</ele><time>2026-01-31T22:57:01.000Z</time></trkpt>
        <trkpt lat="29.5148816" lon="103.3313597"><ele>2999.38</ele><time>2026-01-31T22:57:07.000Z</time></trkpt>
        <trkpt lat="29.514933" lon="103.3313987"><ele>2998.94</ele><time>2026-01-31T22:57:13.000Z</time></trkpt>
        <trkpt lat="29.5149922" lon="103.3314179"><ele>2998.53</ele><time>2026-01-31T22:57:19.000Z</time></trkpt>
        <trkpt lat="29.5150488" lon="103.3314299"><ele>2998.01</ele><time>2026-01-31T22:57:23.000Z</time></trkpt>
        <trkpt lat="29.5150974" lon="103.331425"><ele>2997.93</ele><time>2026-01-31T22:57:51.000Z</time></trkpt>
        <trkpt lat="29.5151444" lon="103.3314115"><ele>2998.15</ele><time>2026-01-31T22:57:59.000Z</time></trkpt>
        <trkpt lat="29.5151938" lon="103.3313833"><ele>2998.44</ele><time>2026-01-31T23:00:59.000Z</time></trkpt>
        <trkpt lat="29.5152404" lon="103.3313781"><ele>2998.43</ele><time>2026-01-31T23:01:05.000Z</time></trkpt>
        <trkpt lat="29.5152852" lon="103.3313665"><ele>2998.23</ele><time>2026-01-31T23:01:11.000Z</time></trkpt>
        <trkpt lat="29.5153381" lon="103.3313591"><ele>2997.83</ele><time>2026-01-31T23:01:17.000Z</time></trkpt>
        <trkpt lat="29.5153869" lon="103.3313531"><ele>2997.69</ele><time>2026-01-31T23:01:23.000Z</time></trkpt>
        <trkpt lat="29.5154475" lon="103.3313583"><ele>2997.38</ele><time>2026-01-31T23:01:37.000Z</time></trkpt>
        <trkpt lat="29.5155072" lon="103.3313665"><ele>2996.67</ele><time>2026-01-31T23:01:41.000Z</time></trkpt>
        <trkpt lat="29.5155714" lon="103.3313798"><ele>2995.76</ele><time>2026-01-31T23:01:45.000Z</time></trkpt>
        <trkpt lat="29.515621" lon="103.3313948"><ele>2995.47</ele><time>2026-01-31T23:01:49.000Z</time></trkpt>
        <trkpt lat="29.5156768" lon="103.3314154"><ele>2995.45</ele><time>2026-01-31T23:01:55.000Z</time></trkpt>
        <trkpt lat="29.515735" lon="103.3314395"><ele>2995.35</ele><time>2026-01-31T23:02:01.000Z</time></trkpt>
        <trkpt lat="29.5157848" lon="103.331466"><ele>2995.01</ele><time>2026-01-31T23:02:05.000Z</time></trkpt>
        <trkpt lat="29.5158262" lon="103.3314952"><ele>2994.83</ele><time>2026-01-31T23:02:09.000Z</time></trkpt>
        <trkpt lat="29.5158613" lon="103.3315304"><ele>2994.35</ele><time>2026-01-31T23:02:13.000Z</time></trkpt>
        <trkpt lat="29.5158943" lon="103.331568"><ele>2993.9</ele><time>2026-01-31T23:02:17.000Z</time></trkpt>
        <trkpt lat="29.5159335" lon="103.3316087"><ele>2993.4</ele><time>2026-01-31T23:02:23.000Z</time></trkpt>
        <trkpt lat="29.515968" lon="103.3316588"><ele>2992.78</ele><time>2026-01-31T23:02:29.000Z</time></trkpt>
        <trkpt lat="29.5159939" lon="103.3317176"><ele>2992.35</ele><time>2026-01-31T23:02:33.000Z</time></trkpt>
        <trkpt lat="29.5160166" lon="103.331774"><ele>2991.92</ele><time>2026-01-31T23:02:39.000Z</time></trkpt>
        <trkpt lat="29.5160404" lon="103.3318275"><ele>2990.83</ele><time>2026-01-31T23:02:43.000Z</time></trkpt>
        <trkpt lat="29.516068" lon="103.3318708"><ele>2989.9</ele><time>2026-01-31T23:02:47.000Z</time></trkpt>
        <trkpt lat="29.5160983" lon="103.3319305"><ele>2989.18</ele><time>2026-01-31T23:02:53.000Z</time></trkpt>
        <trkpt lat="29.5161253" lon="103.3319951"><ele>2988.26</ele><time>2026-01-31T23:02:59.000Z</time></trkpt>
        <trkpt lat="29.5161464" lon="103.3320489"><ele>2987.53</ele><time>2026-01-31T23:03:03.000Z</time></trkpt>
        <trkpt lat="29.5161692" lon="103.3320958"><ele>2986.85</ele><time>2026-01-31T23:03:07.000Z</time></trkpt>
        <trkpt lat="29.5162109" lon="103.3321486"><ele>2986.57</ele><time>2026-01-31T23:03:13.000Z</time></trkpt>
        <trkpt lat="29.5162599" lon="103.3321993"><ele>2986.18</ele><time>2026-01-31T23:03:19.000Z</time></trkpt>
        <trkpt lat="29.5162985" lon="103.3322564"><ele>2986.03</ele><time>2026-01-31T23:03:25.000Z</time></trkpt>
        <trkpt lat="29.5163304" lon="103.3323108"><ele>2985.64</ele><time>2026-01-31T23:03:31.000Z</time></trkpt>
        <trkpt lat="29.5163553" lon="103.3323706"><ele>2984.82</ele><time>2026-01-31T23:03:37.000Z</time></trkpt>
        <trkpt lat="29.5163805" lon="103.3324174"><ele>2984.09</ele><time>2026-01-31T23:03:41.000Z</time></trkpt>
        <trkpt lat="29.5164071" lon="103.3324709"><ele>2983.65</ele><time>2026-01-31T23:03:47.000Z</time></trkpt>
        <trkpt lat="29.5164317" lon="103.3325224"><ele>2982.76</ele><time>2026-01-31T23:03:51.000Z</time></trkpt>
        <trkpt lat="29.5164549" lon="103.3325783"><ele>2982.21</ele><time>2026-01-31T23:03:57.000Z</time></trkpt>
        <trkpt lat="29.516487" lon="103.3326298"><ele>2981.85</ele><time>2026-01-31T23:04:03.000Z</time></trkpt>
        <trkpt lat="29.5165244" lon="103.33268"><ele>2981.34</ele><time>2026-01-31T23:04:09.000Z</time></trkpt>
        <trkpt lat="29.5165603" lon="103.3327316"><ele>2980.91</ele><time>2026-01-31T23:04:15.000Z</time></trkpt>
        <trkpt lat="29.5165903" lon="103.3327761"><ele>2980.3</ele><time>2026-01-31T23:04:19.000Z</time></trkpt>
        <trkpt lat="29.5166307" lon="103.3328248"><ele>2979.87</ele><time>2026-01-31T23:04:25.000Z</time></trkpt>
        <trkpt lat="29.5166688" lon="103.3328735"><ele>2979.52</ele><time>2026-01-31T23:04:31.000Z</time></trkpt>
        <trkpt lat="29.5167115" lon="103.332925"><ele>2979.22</ele><time>2026-01-31T23:04:37.000Z</time></trkpt>
        <trkpt lat="29.5167459" lon="103.3329683"><ele>2978.7</ele><time>2026-01-31T23:04:41.000Z</time></trkpt>
        <trkpt lat="29.5167881" lon="103.3330127"><ele>2978.06</ele><time>2026-01-31T23:04:47.000Z</time></trkpt>
        <trkpt lat="29.5168276" lon="103.3330458"><ele>2977.19</ele><time>2026-01-31T23:04:51.000Z</time></trkpt>
        <trkpt lat="29.5168742" lon="103.3330733"><ele>2976.47</ele><time>2026-01-31T23:04:57.000Z</time></trkpt>
        <trkpt lat="29.5169323" lon="103.333087"><ele>2975.51</ele><time>2026-01-31T23:05:04.000Z</time></trkpt>
        <trkpt lat="29.5169828" lon="103.3330981"><ele>2975.06</ele><time>2026-01-31T23:05:07.000Z</time></trkpt>
        <trkpt lat="29.5170357" lon="103.3331195"><ele>2974.64</ele><time>2026-01-31T23:05:13.000Z</time></trkpt>
        <trkpt lat="29.517082" lon="103.3331382"><ele>2974.07</ele><time>2026-01-31T23:05:17.000Z</time></trkpt>
        <trkpt lat="29.5171411" lon="103.3331477"><ele>2973.82</ele><time>2026-01-31T23:05:23.000Z</time></trkpt>
        <trkpt lat="29.5172006" lon="103.3331454"><ele>2973.69</ele><time>2026-01-31T23:05:29.000Z</time></trkpt>
        <trkpt lat="29.5172363" lon="103.3331339"><ele>2973.71</ele><time>2026-01-31T23:05:35.000Z</time></trkpt>
        <trkpt lat="29.5172839" lon="103.3331075"><ele>2973.86</ele><time>2026-01-31T23:05:49.000Z</time></trkpt>
        <trkpt lat="29.5173411" lon="103.3330871"><ele>2974.55</ele><time>2026-01-31T23:05:55.000Z</time></trkpt>
        <trkpt lat="29.5173854" lon="103.3330536"><ele>2974.92</ele><time>2026-01-31T23:06:01.000Z</time></trkpt>
        <trkpt lat="29.5174255" lon="103.3330157"><ele>2975.28</ele><time>2026-01-31T23:06:05.000Z</time></trkpt>
        <trkpt lat="29.5174693" lon="103.3329802"><ele>2975.65</ele><time>2026-01-31T23:06:11.000Z</time></trkpt>
        <trkpt lat="29.5175081" lon="103.3329433"><ele>2976.24</ele><time>2026-01-31T23:06:15.000Z</time></trkpt>
        <trkpt lat="29.5175492" lon="103.3329075"><ele>2976.76</ele><time>2026-01-31T23:06:21.000Z</time></trkpt>
        <trkpt lat="29.5175968" lon="103.3328672"><ele>2977.47</ele><time>2026-01-31T23:06:27.000Z</time></trkpt>
        <trkpt lat="29.5176385" lon="103.332835"><ele>2977.84</ele><time>2026-01-31T23:06:31.000Z</time></trkpt>
        <trkpt lat="29.517672" lon="103.332794"><ele>2978.23</ele><time>2026-01-31T23:06:37.000Z</time></trkpt>
        <trkpt lat="29.5177062" lon="103.3327414"><ele>2978.58</ele><time>2026-01-31T23:06:43.000Z</time></trkpt>
        <trkpt lat="29.5177434" lon="103.3326895"><ele>2978.93</ele><time>2026-01-31T23:06:49.000Z</time></trkpt>
        <trkpt lat="29.5177905" lon="103.3326405"><ele>2979.46</ele><time>2026-01-31T23:06:55.000Z</time></trkpt>
        <trkpt lat="29.5178412" lon="103.3325926"><ele>2979.94</ele><time>2026-01-31T23:07:01.000Z</time></trkpt>
        <trkpt lat="29.5178818" lon="103.3325504"><ele>2980.33</ele><time>2026-01-31T23:07:05.000Z</time></trkpt>
        <trkpt lat="29.5179186" lon="103.3325178"><ele>2980.66</ele><time>2026-01-31T23:07:10.000Z</time></trkpt>
        <trkpt lat="29.5179654" lon="103.3324937"><ele>2981.11</ele><time>2026-01-31T23:07:13.000Z</time></trkpt>
        <trkpt lat="29.5180185" lon="103.3324699"><ele>2981.62</ele><time>2026-01-31T23:07:19.000Z</time></trkpt>
        <trkpt lat="29.5180735" lon="103.3324446"><ele>2982.01</ele><time>2026-01-31T23:07:25.000Z</time></trkpt>
        <trkpt lat="29.5181286" lon="103.3324229"><ele>2981.98</ele><time>2026-01-31T23:07:31.000Z</time></trkpt>
        <trkpt lat="29.5181838" lon="103.3324176"><ele>2981.93</ele><time>2026-01-31T23:07:37.000Z</time></trkpt>
        <trkpt lat="29.5182385" lon="103.3324232"><ele>2981.57</ele><time>2026-01-31T23:07:41.000Z</time></trkpt>
        <trkpt lat="29.5182881" lon="103.332436"><ele>2981.39</ele><time>2026-01-31T23:07:46.000Z</time></trkpt>
        <trkpt lat="29.5183392" lon="103.3324691"><ele>2981.39</ele><time>2026-01-31T23:07:51.000Z</time></trkpt>
        <trkpt lat="29.5183691" lon="103.3325147"><ele>2980.89</ele><time>2026-01-31T23:07:55.000Z</time></trkpt>
        <trkpt lat="29.5184072" lon="103.3325687"><ele>2980.29</ele><time>2026-01-31T23:08:01.000Z</time></trkpt>
        <trkpt lat="29.5184425" lon="103.3326172"><ele>2979.44</ele><time>2026-01-31T23:08:05.000Z</time></trkpt>
        <trkpt lat="29.5184756" lon="103.3326567"><ele>2978.36</ele><time>2026-01-31T23:08:09.000Z</time></trkpt>
        <trkpt lat="29.5185083" lon="103.3327003"><ele>2977.22</ele><time>2026-01-31T23:08:13.000Z</time></trkpt>
        <trkpt lat="29.5185433" lon="103.3327375"><ele>2976.03</ele><time>2026-01-31T23:08:17.000Z</time></trkpt>
        <trkpt lat="29.5185865" lon="103.3327651"><ele>2974.84</ele><time>2026-01-31T23:08:21.000Z</time></trkpt>
        <trkpt lat="29.5186285" lon="103.3328102"><ele>2973.96</ele><time>2026-01-31T23:08:27.000Z</time></trkpt>
        <trkpt lat="29.5186696" lon="103.332845"><ele>2973.1</ele><time>2026-01-31T23:08:31.000Z</time></trkpt>
        <trkpt lat="29.5187223" lon="103.3328715"><ele>2972.67</ele><time>2026-01-31T23:08:37.000Z</time></trkpt>
        <trkpt lat="29.5187743" lon="103.3328952"><ele>2971.97</ele><time>2026-01-31T23:08:41.000Z</time></trkpt>
        <trkpt lat="29.518827" lon="103.3329058"><ele>2971.34</ele><time>2026-01-31T23:08:47.000Z</time></trkpt>
        <trkpt lat="29.5188876" lon="103.3329052"><ele>2970.6</ele><time>2026-01-31T23:08:53.000Z</time></trkpt>
        <trkpt lat="29.5189342" lon="103.3329267"><ele>2969.96</ele><time>2026-01-31T23:08:59.000Z</time></trkpt>
        <trkpt lat="29.5189769" lon="103.3329531"><ele>2969.28</ele><time>2026-01-31T23:09:05.000Z</time></trkpt>
        <trkpt lat="29.5190208" lon="103.3329802"><ele>2968.19</ele><time>2026-01-31T23:09:11.000Z</time></trkpt>
        <trkpt lat="29.5190752" lon="103.3329966"><ele>2967.06</ele><time>2026-01-31T23:09:19.000Z</time></trkpt>
        <trkpt lat="29.5191284" lon="103.3330194"><ele>2965.98</ele><time>2026-01-31T23:09:31.000Z</time></trkpt>
        <trkpt lat="29.5191862" lon="103.3330356"><ele>2965.22</ele><time>2026-01-31T23:09:37.000Z</time></trkpt>
        <trkpt lat="29.5192148" lon="103.3330758"><ele>2965.19</ele><time>2026-01-31T23:09:45.000Z</time></trkpt>
        <trkpt lat="29.5192286" lon="103.3331271"><ele>2965.61</ele><time>2026-01-31T23:09:53.000Z</time></trkpt>
        <trkpt lat="29.5192388" lon="103.3331849"><ele>2966.16</ele><time>2026-01-31T23:10:01.000Z</time></trkpt>
        <trkpt lat="29.5192342" lon="103.3332409"><ele>2967.16</ele><time>2026-01-31T23:10:13.000Z</time></trkpt>
        <trkpt lat="29.5192397" lon="103.3332974"><ele>2968.69</ele><time>2026-01-31T23:10:31.000Z</time></trkpt>
        <trkpt lat="29.5192494" lon="103.3333566"><ele>2969.94</ele><time>2026-01-31T23:10:41.000Z</time></trkpt>
        <trkpt lat="29.5192663" lon="103.333408"><ele>2971.34</ele><time>2026-01-31T23:10:59.000Z</time></trkpt>
        <trkpt lat="29.5192995" lon="103.3334507"><ele>2972.85</ele><time>2026-01-31T23:11:27.000Z</time></trkpt>
        <trkpt lat="29.5193435" lon="103.3334871"><ele>2973.87</ele><time>2026-01-31T23:11:35.000Z</time></trkpt>
        <trkpt lat="29.5193915" lon="103.3335031"><ele>2974</ele><time>2026-01-31T23:11:43.000Z</time></trkpt>
        <trkpt lat="29.519441" lon="103.3335246"><ele>2973.55</ele><time>2026-01-31T23:11:51.000Z</time></trkpt>
        <trkpt lat="29.5194934" lon="103.3335355"><ele>2972.75</ele><time>2026-01-31T23:11:57.000Z</time></trkpt>
        <trkpt lat="29.5195473" lon="103.3335595"><ele>2971.73</ele><time>2026-01-31T23:12:03.000Z</time></trkpt>
        <trkpt lat="29.5195857" lon="103.3335932"><ele>2970.59</ele><time>2026-01-31T23:12:09.000Z</time></trkpt>
        <trkpt lat="29.5196115" lon="103.3336387"><ele>2969.59</ele><time>2026-01-31T23:12:19.000Z</time></trkpt>
        <trkpt lat="29.5196411" lon="103.333689"><ele>2968.02</ele><time>2026-01-31T23:12:27.000Z</time></trkpt>
        <trkpt lat="29.5196775" lon="103.3337335"><ele>2966.6</ele><time>2026-01-31T23:12:35.000Z</time></trkpt>
        <trkpt lat="29.5197142" lon="103.3337764"><ele>2965.56</ele><time>2026-01-31T23:12:41.000Z</time></trkpt>
        <trkpt lat="29.5197504" lon="103.3338263"><ele>2964.56</ele><time>2026-01-31T23:12:47.000Z</time></trkpt>
        <trkpt lat="29.5197806" lon="103.3338759"><ele>2963.56</ele><time>2026-01-31T23:12:53.000Z</time></trkpt>
        <trkpt lat="29.5198092" lon="103.3339275"><ele>2962.81</ele><time>2026-01-31T23:12:59.000Z</time></trkpt>
        <trkpt lat="29.5198448" lon="103.3339689"><ele>2962.12</ele><time>2026-01-31T23:13:05.000Z</time></trkpt>
        <trkpt lat="29.5198786" lon="103.3340109"><ele>2961.13</ele><time>2026-01-31T23:13:11.000Z</time></trkpt>
        <trkpt lat="29.5199116" lon="103.3340502"><ele>2959.98</ele><time>2026-01-31T23:13:17.000Z</time></trkpt>
        <trkpt lat="29.5199373" lon="103.3341031"><ele>2959.03</ele><time>2026-01-31T23:13:23.000Z</time></trkpt>
        <trkpt lat="29.5199645" lon="103.3341508"><ele>2958.35</ele><time>2026-01-31T23:13:29.000Z</time></trkpt>
        <trkpt lat="29.520002" lon="103.3341979"><ele>2957.67</ele><time>2026-01-31T23:13:37.000Z</time></trkpt>
        <trkpt lat="29.5200582" lon="103.334222"><ele>2957.06</ele><time>2026-01-31T23:13:47.000Z</time></trkpt>
        <trkpt lat="29.5201113" lon="103.3342424"><ele>2957.65</ele><time>2026-01-31T23:13:55.000Z</time></trkpt>
        <trkpt lat="29.5201594" lon="103.3342634"><ele>2958.54</ele><time>2026-01-31T23:14:03.000Z</time></trkpt>
        <trkpt lat="29.5202024" lon="103.3342936"><ele>2959.59</ele><time>2026-01-31T23:14:13.000Z</time></trkpt>
        <trkpt lat="29.5202473" lon="103.3343153"><ele>2961.02</ele><time>2026-01-31T23:14:22.000Z</time></trkpt>
        <trkpt lat="29.5202962" lon="103.3343448"><ele>2962.6</ele><time>2026-01-31T23:14:41.000Z</time></trkpt>
        <trkpt lat="29.520337" lon="103.3343743"><ele>2964.1</ele><time>2026-01-31T23:14:51.000Z</time></trkpt>
        <trkpt lat="29.5203869" lon="103.3343954"><ele>2965.24</ele><time>2026-01-31T23:15:03.000Z</time></trkpt>
        <trkpt lat="29.5204357" lon="103.334425"><ele>2966.19</ele><time>2026-01-31T23:15:16.000Z</time></trkpt>
        <trkpt lat="29.5205064" lon="103.3344417"><ele>2966.84</ele><time>2026-01-31T23:16:25.000Z</time></trkpt>
        <trkpt lat="29.5205552" lon="103.3344401"><ele>2968.15</ele><time>2026-01-31T23:16:29.000Z</time></trkpt>
        <trkpt lat="29.5206168" lon="103.3344428"><ele>2969.29</ele><time>2026-01-31T23:16:41.000Z</time></trkpt>
        <trkpt lat="29.520674" lon="103.3344373"><ele>2971.42</ele><time>2026-01-31T23:16:49.000Z</time></trkpt>
        <trkpt lat="29.5207292" lon="103.3344436"><ele>2973.22</ele><time>2026-01-31T23:16:57.000Z</time></trkpt>
        <trkpt lat="29.5207796" lon="103.3344642"><ele>2975.79</ele><time>2026-01-31T23:18:15.000Z</time></trkpt>
        <trkpt lat="29.5208281" lon="103.3344565"><ele>2978.12</ele><time>2026-01-31T23:18:25.000Z</time></trkpt>
        <trkpt lat="29.5208795" lon="103.3344418"><ele>2980.33</ele><time>2026-01-31T23:18:35.000Z</time></trkpt>
        <trkpt lat="29.5209288" lon="103.3344344"><ele>2982.72</ele><time>2026-01-31T23:18:45.000Z</time></trkpt>
        <trkpt lat="29.5209863" lon="103.3344229"><ele>2983.88</ele><time>2026-01-31T23:18:55.000Z</time></trkpt>
        <trkpt lat="29.5210424" lon="103.3344199"><ele>2984.41</ele><time>2026-01-31T23:19:01.000Z</time></trkpt>
        <trkpt lat="29.5211094" lon="103.3344035"><ele>2984.83</ele><time>2026-01-31T23:19:11.000Z</time></trkpt>
        <trkpt lat="29.5211694" lon="103.3343847"><ele>2985.27</ele><time>2026-01-31T23:19:17.000Z</time></trkpt>
        <trkpt lat="29.5212188" lon="103.3343672"><ele>2986.26</ele><time>2026-01-31T23:19:25.000Z</time></trkpt>
        <trkpt lat="29.5212585" lon="103.3343406"><ele>2987.87</ele><time>2026-01-31T23:19:31.000Z</time></trkpt>
        <trkpt lat="29.5213068" lon="103.3343156"><ele>2989.18</ele><time>2026-01-31T23:19:39.000Z</time></trkpt>
        <trkpt lat="29.5213575" lon="103.334287"><ele>2990.14</ele><time>2026-01-31T23:19:49.000Z</time></trkpt>
        <trkpt lat="29.5214189" lon="103.3342511"><ele>2991.02</ele><time>2026-01-31T23:20:11.000Z</time></trkpt>
        <trkpt lat="29.5214705" lon="103.3342255"><ele>2992.18</ele><time>2026-01-31T23:20:15.000Z</time></trkpt>
        <trkpt lat="29.5215316" lon="103.3341854"><ele>2993.1</ele><time>2026-01-31T23:20:25.000Z</time></trkpt>
        <trkpt lat="29.5215865" lon="103.3341618"><ele>2994.34</ele><time>2026-01-31T23:20:31.000Z</time></trkpt>
        <trkpt lat="29.5216395" lon="103.3341698"><ele>2995.77</ele><time>2026-01-31T23:21:05.000Z</time></trkpt>
        <trkpt lat="29.5216941" lon="103.3342075"><ele>2996.67</ele><time>2026-01-31T23:21:15.000Z</time></trkpt>
        <trkpt lat="29.5217376" lon="103.3342479"><ele>2997.17</ele><time>2026-01-31T23:21:21.000Z</time></trkpt>
        <trkpt lat="29.5217702" lon="103.3342947"><ele>2997.91</ele><time>2026-01-31T23:21:27.000Z</time></trkpt>
        <trkpt lat="29.5218092" lon="103.3343434"><ele>2998.42</ele><time>2026-01-31T23:21:35.000Z</time></trkpt>
        <trkpt lat="29.5218562" lon="103.3343716"><ele>2998.63</ele><time>2026-01-31T23:21:41.000Z</time></trkpt>
        <trkpt lat="29.5219192" lon="103.3343924"><ele>2998.8</ele><time>2026-01-31T23:21:47.000Z</time></trkpt>
        <trkpt lat="29.5219676" lon="103.3344266"><ele>3000</ele><time>2026-01-31T23:21:55.000Z</time></trkpt>
        <trkpt lat="29.5220122" lon="103.3344552"><ele>3000.83</ele><time>2026-01-31T23:22:05.000Z</time></trkpt>
        <trkpt lat="29.5220637" lon="103.3344822"><ele>3001.63</ele><time>2026-01-31T23:22:11.000Z</time></trkpt>
        <trkpt lat="29.5221088" lon="103.334516"><ele>3002.28</ele><time>2026-01-31T23:22:19.000Z</time></trkpt>
        <trkpt lat="29.5221402" lon="103.3345634"><ele>3003.12</ele><time>2026-01-31T23:22:28.000Z</time></trkpt>
        <trkpt lat="29.5221757" lon="103.3345967"><ele>3003.96</ele><time>2026-01-31T23:22:33.000Z</time></trkpt>
        <trkpt lat="29.5222222" lon="103.334616"><ele>3004.85</ele><time>2026-01-31T23:22:39.000Z</time></trkpt>
        <trkpt lat="29.5222702" lon="103.33464"><ele>3005.77</ele><time>2026-01-31T23:22:47.000Z</time></trkpt>
        <trkpt lat="29.5223179" lon="103.3346602"><ele>3006.98</ele><time>2026-01-31T23:22:57.000Z</time></trkpt>
        <trkpt lat="29.5223647" lon="103.3346702"><ele>3007.88</ele><time>2026-01-31T23:23:59.000Z</time></trkpt>
        <trkpt lat="29.5224026" lon="103.3347022"><ele>3008.36</ele><time>2026-01-31T23:24:03.000Z</time></trkpt>
        <trkpt lat="29.5224498" lon="103.334723"><ele>3008.55</ele><time>2026-01-31T23:24:07.000Z</time></trkpt>
        <trkpt lat="29.5224948" lon="103.3347407"><ele>3008.5</ele><time>2026-01-31T23:24:11.000Z</time></trkpt>
        <trkpt lat="29.5225415" lon="103.3347435"><ele>3008.57</ele><time>2026-01-31T23:24:15.000Z</time></trkpt>
        <trkpt lat="29.5225912" lon="103.3347444"><ele>3008.7</ele><time>2026-01-31T23:24:19.000Z</time></trkpt>
        <trkpt lat="29.5226443" lon="103.3347301"><ele>3008.69</ele><time>2026-01-31T23:24:23.000Z</time></trkpt>
        <trkpt lat="29.522687" lon="103.3347169"><ele>3008.83</ele><time>2026-01-31T23:24:35.000Z</time></trkpt>
        <trkpt lat="29.5227321" lon="103.3347216"><ele>3008.88</ele><time>2026-01-31T23:24:43.000Z</time></trkpt>
        <trkpt lat="29.5227808" lon="103.3347286"><ele>3008.6</ele><time>2026-01-31T23:24:47.000Z</time></trkpt>
        <trkpt lat="29.5228306" lon="103.334728"><ele>3008.3</ele><time>2026-01-31T23:24:51.000Z</time></trkpt>
        <trkpt lat="29.5228789" lon="103.3347298"><ele>3008.21</ele><time>2026-01-31T23:24:57.000Z</time></trkpt>
        <trkpt lat="29.5229344" lon="103.3347097"><ele>3008.35</ele><time>2026-01-31T23:25:03.000Z</time></trkpt>
        <trkpt lat="29.5229954" lon="103.3347106"><ele>3007.32</ele><time>2026-01-31T23:25:09.000Z</time></trkpt>
        <trkpt lat="29.5230455" lon="103.3347175"><ele>3006.63</ele><time>2026-01-31T23:25:13.000Z</time></trkpt>
        <trkpt lat="29.5230116" lon="103.3347294"><ele>3006.63</ele><time>2026-01-31T23:25:27.000Z</time></trkpt>
        <trkpt lat="29.5229589" lon="103.3347444"><ele>3006.74</ele><time>2026-01-31T23:25:31.000Z</time></trkpt>
        <trkpt lat="29.5229061" lon="103.334771"><ele>3006.7</ele><time>2026-01-31T23:25:37.000Z</time></trkpt>
        <trkpt lat="29.522847" lon="103.3347959"><ele>3006.48</ele><time>2026-01-31T23:25:45.000Z</time></trkpt>
        <trkpt lat="29.5228921" lon="103.3347789"><ele>3006.52</ele><time>2026-01-31T23:27:07.000Z</time></trkpt>
        <trkpt lat="29.5229381" lon="103.3347695"><ele>3007.69</ele><time>2026-01-31T23:27:13.000Z</time></trkpt>
        <trkpt lat="29.5229841" lon="103.3347607"><ele>3008.55</ele><time>2026-01-31T23:27:19.000Z</time></trkpt>
        <trkpt lat="29.5230283" lon="103.334747"><ele>3008.87</ele><time>2026-01-31T23:27:29.000Z</time></trkpt>
        <trkpt lat="29.5230825" lon="103.3347489"><ele>3007.88</ele><time>2026-01-31T23:28:57.000Z</time></trkpt>
        <trkpt lat="29.5231312" lon="103.3347677"><ele>3007.17</ele><time>2026-01-31T23:29:05.000Z</time></trkpt>
        <trkpt lat="29.5231787" lon="103.3347785"><ele>3006.22</ele><time>2026-01-31T23:29:09.000Z</time></trkpt>
        <trkpt lat="29.5232357" lon="103.3347952"><ele>3005.44</ele><time>2026-01-31T23:29:15.000Z</time></trkpt>
        <trkpt lat="29.5232839" lon="103.3348197"><ele>3005.05</ele><time>2026-01-31T23:29:19.000Z</time></trkpt>
        <trkpt lat="29.5233312" lon="103.3348392"><ele>3004.67</ele><time>2026-01-31T23:29:23.000Z</time></trkpt>
        <trkpt lat="29.523383" lon="103.3348655"><ele>3004.28</ele><time>2026-01-31T23:29:29.000Z</time></trkpt>
        <trkpt lat="29.5234382" lon="103.3348796"><ele>3003.73</ele><time>2026-01-31T23:29:35.000Z</time></trkpt>
        <trkpt lat="29.5234977" lon="103.3348998"><ele>3002.75</ele><time>2026-01-31T23:29:41.000Z</time></trkpt>
        <trkpt lat="29.5235466" lon="103.3349117"><ele>3001.7</ele><time>2026-01-31T23:29:45.000Z</time></trkpt>
        <trkpt lat="29.523594" lon="103.3349138"><ele>3000.74</ele><time>2026-01-31T23:29:51.000Z</time></trkpt>
        <trkpt lat="29.5236421" lon="103.3349222"><ele>3000</ele><time>2026-01-31T23:29:57.000Z</time></trkpt>
        <trkpt lat="29.5236903" lon="103.3349144"><ele>2999.24</ele><time>2026-01-31T23:30:05.000Z</time></trkpt>
        <trkpt lat="29.5237497" lon="103.3349127"><ele>2998.46</ele><time>2026-01-31T23:30:11.000Z</time></trkpt>
        <trkpt lat="29.5238048" lon="103.3348942"><ele>2997.73</ele><time>2026-01-31T23:30:17.000Z</time></trkpt>
        <trkpt lat="29.5238437" lon="103.3349261"><ele>2997.45</ele><time>2026-01-31T23:33:31.000Z</time></trkpt>
        <trkpt lat="29.5237937" lon="103.3349223"><ele>2996.42</ele><time>2026-01-31T23:44:04.000Z</time></trkpt>
        <trkpt lat="29.5237397" lon="103.3349177"><ele>2995.66</ele><time>2026-01-31T23:44:22.000Z</time></trkpt>
        <trkpt lat="29.5236911" lon="103.3349271"><ele>2996.23</ele><time>2026-01-31T23:44:25.000Z</time></trkpt>
        <trkpt lat="29.5236438" lon="103.3349395"><ele>2996.86</ele><time>2026-01-31T23:44:35.000Z</time></trkpt>
        <trkpt lat="29.5235946" lon="103.3349384"><ele>2997.05</ele><time>2026-01-31T23:44:39.000Z</time></trkpt>
        <trkpt lat="29.5235371" lon="103.3349181"><ele>2996.92</ele><time>2026-01-31T23:44:47.000Z</time></trkpt>
        <trkpt lat="29.5234866" lon="103.3349019"><ele>2996.87</ele><time>2026-01-31T23:44:51.000Z</time></trkpt>
        <trkpt lat="29.5234382" lon="103.3348898"><ele>2996.87</ele><time>2026-01-31T23:44:55.000Z</time></trkpt>
        <trkpt lat="29.5233856" lon="103.3348603"><ele>2996.97</ele><time>2026-01-31T23:45:01.000Z</time></trkpt>
        <trkpt lat="29.5233221" lon="103.3348411"><ele>2997.17</ele><time>2026-01-31T23:45:07.000Z</time></trkpt>
        <trkpt lat="29.5232651" lon="103.334824"><ele>2997.44</ele><time>2026-01-31T23:45:11.000Z</time></trkpt>
        <trkpt lat="29.5232106" lon="103.3348031"><ele>2997.7</ele><time>2026-01-31T23:45:17.000Z</time></trkpt>
        <trkpt lat="29.5231636" lon="103.3347827"><ele>2998.16</ele><time>2026-01-31T23:45:25.000Z</time></trkpt>
        <trkpt lat="29.5231177" lon="103.3347761"><ele>2998.56</ele><time>2026-01-31T23:45:29.000Z</time></trkpt>
        <trkpt lat="29.5230607" lon="103.3347689"><ele>2998.43</ele><time>2026-01-31T23:45:35.000Z</time></trkpt>
        <trkpt lat="29.5230056" lon="103.334759"><ele>2998.2</ele><time>2026-01-31T23:45:39.000Z</time></trkpt>
        <trkpt lat="29.5229466" lon="103.3347517"><ele>2998.06</ele><time>2026-01-31T23:45:43.000Z</time></trkpt>
        <trkpt lat="29.5228946" lon="103.3347494"><ele>2997.86</ele><time>2026-01-31T23:45:47.000Z</time></trkpt>
        <trkpt lat="29.5228397" lon="103.3347517"><ele>2997.91</ele><time>2026-01-31T23:45:53.000Z</time></trkpt>
        <trkpt lat="29.5227759" lon="103.3347569"><ele>2998.44</ele><time>2026-01-31T23:45:59.000Z</time></trkpt>
        <trkpt lat="29.5227211" lon="103.3347646"><ele>2999.01</ele><time>2026-01-31T23:46:03.000Z</time></trkpt>
        <trkpt lat="29.5226738" lon="103.3347648"><ele>2999.85</ele><time>2026-01-31T23:46:07.000Z</time></trkpt>
        <trkpt lat="29.5226275" lon="103.3347643"><ele>3000.97</ele><time>2026-01-31T23:46:11.000Z</time></trkpt>
        <trkpt lat="29.5225823" lon="103.3347711"><ele>3002.07</ele><time>2026-01-31T23:46:15.000Z</time></trkpt>
        <trkpt lat="29.5225268" lon="103.3347793"><ele>3002.99</ele><time>2026-01-31T23:46:19.000Z</time></trkpt>
        <trkpt lat="29.5224661" lon="103.3347793"><ele>3003.93</ele><time>2026-01-31T23:46:23.000Z</time></trkpt>
        <trkpt lat="29.5224128" lon="103.3347712"><ele>3005</ele><time>2026-01-31T23:46:28.000Z</time></trkpt>
        <trkpt lat="29.5223631" lon="103.3347509"><ele>3006.04</ele><time>2026-01-31T23:46:31.000Z</time></trkpt>
        <trkpt lat="29.522328" lon="103.3347297"><ele>3006.89</ele><time>2026-01-31T23:46:41.000Z</time></trkpt>
        <trkpt lat="29.5222733" lon="103.3346962"><ele>3007.67</ele><time>2026-01-31T23:46:49.000Z</time></trkpt>
        <trkpt lat="29.5222256" lon="103.3346664"><ele>3008.08</ele><time>2026-01-31T23:46:51.000Z</time></trkpt>
        <trkpt lat="29.5221644" lon="103.3346194"><ele>3008.28</ele><time>2026-01-31T23:46:55.000Z</time></trkpt>
        <trkpt lat="29.5221018" lon="103.3345595"><ele>3008.35</ele><time>2026-01-31T23:46:59.000Z</time></trkpt>
        <trkpt lat="29.5220586" lon="103.3345171"><ele>3008.14</ele><time>2026-01-31T23:47:01.000Z</time></trkpt>
        <trkpt lat="29.5219971" lon="103.3344711"><ele>3008.03</ele><time>2026-01-31T23:47:05.000Z</time></trkpt>
        <trkpt lat="29.5219399" lon="103.3344247"><ele>3007.56</ele><time>2026-01-31T23:47:09.000Z</time></trkpt>
        <trkpt lat="29.5218881" lon="103.3343922"><ele>3007.19</ele><time>2026-01-31T23:47:11.000Z</time></trkpt>
        <trkpt lat="29.5218384" lon="103.3343601"><ele>3006.72</ele><time>2026-01-31T23:47:13.000Z</time></trkpt>
        <trkpt lat="29.5217809" lon="103.3343068"><ele>3006.15</ele><time>2026-01-31T23:47:17.000Z</time></trkpt>
        <trkpt lat="29.5217439" lon="103.3342532"><ele>3005.55</ele><time>2026-01-31T23:47:23.000Z</time></trkpt>
        <trkpt lat="29.5217157" lon="103.3341963"><ele>3004.67</ele><time>2026-01-31T23:49:05.000Z</time></trkpt>
        <trkpt lat="29.5216589" lon="103.3341864"><ele>3003.34</ele><time>2026-01-31T23:49:10.000Z</time></trkpt>
        <trkpt lat="29.5215901" lon="103.3341992"><ele>3002.15</ele><time>2026-01-31T23:49:13.000Z</time></trkpt>
        <trkpt lat="29.5215208" lon="103.3342358"><ele>3001.14</ele><time>2026-01-31T23:49:17.000Z</time></trkpt>
        <trkpt lat="29.5214412" lon="103.3342591"><ele>3000.3</ele><time>2026-01-31T23:49:21.000Z</time></trkpt>
        <trkpt lat="29.5213589" lon="103.3342971"><ele>2999.29</ele><time>2026-01-31T23:49:25.000Z</time></trkpt>
        <trkpt lat="29.5212751" lon="103.3343332"><ele>2998.01</ele><time>2026-01-31T23:49:29.000Z</time></trkpt>
        <trkpt lat="29.521197" lon="103.3343665"><ele>2996.26</ele><time>2026-01-31T23:49:33.000Z</time></trkpt>
        <trkpt lat="29.5211363" lon="103.3344004"><ele>2994.81</ele><time>2026-01-31T23:49:37.000Z</time></trkpt>
        <trkpt lat="29.5210781" lon="103.3344275"><ele>2993.68</ele><time>2026-01-31T23:49:41.000Z</time></trkpt>
        <trkpt lat="29.5210113" lon="103.3344351"><ele>2992.42</ele><time>2026-01-31T23:49:46.000Z</time></trkpt>
        <trkpt lat="29.5209415" lon="103.3344401"><ele>2990.87</ele><time>2026-01-31T23:50:07.000Z</time></trkpt>
        <trkpt lat="29.5208768" lon="103.3344561"><ele>2989.29</ele><time>2026-01-31T23:50:17.000Z</time></trkpt>
        <trkpt lat="29.5208295" lon="103.3344773"><ele>2987.83</ele><time>2026-01-31T23:50:21.000Z</time></trkpt>
        <trkpt lat="29.5207733" lon="103.3344845"><ele>2986.65</ele><time>2026-01-31T23:50:25.000Z</time></trkpt>
        <trkpt lat="29.5207271" lon="103.3344699"><ele>2985.37</ele><time>2026-01-31T23:50:27.000Z</time></trkpt>
        <trkpt lat="29.5206754" lon="103.3344572"><ele>2984.09</ele><time>2026-01-31T23:50:31.000Z</time></trkpt>
        <trkpt lat="29.520621" lon="103.3344579"><ele>2982.9</ele><time>2026-01-31T23:50:35.000Z</time></trkpt>
        <trkpt lat="29.5205737" lon="103.334452"><ele>2981.85</ele><time>2026-01-31T23:50:41.000Z</time></trkpt>
        <trkpt lat="29.5205249" lon="103.3344464"><ele>2980.51</ele><time>2026-01-31T23:50:45.000Z</time></trkpt>
        <trkpt lat="29.5204654" lon="103.3344367"><ele>2979.17</ele><time>2026-01-31T23:50:49.000Z</time></trkpt>
        <trkpt lat="29.5204029" lon="103.3344164"><ele>2977.64</ele><time>2026-01-31T23:50:53.000Z</time></trkpt>
        <trkpt lat="29.5203463" lon="103.3343916"><ele>2976.3</ele><time>2026-01-31T23:50:59.000Z</time></trkpt>
        <trkpt lat="29.5202847" lon="103.3343634"><ele>2974.69</ele><time>2026-01-31T23:51:05.000Z</time></trkpt>
        <trkpt lat="29.5202287" lon="103.3343375"><ele>2972.91</ele><time>2026-01-31T23:51:09.000Z</time></trkpt>
        <trkpt lat="29.5201812" lon="103.3343015"><ele>2971.04</ele><time>2026-01-31T23:51:13.000Z</time></trkpt>
        <trkpt lat="29.5201345" lon="103.3342714"><ele>2969.32</ele><time>2026-01-31T23:51:17.000Z</time></trkpt>
        <trkpt lat="29.5200709" lon="103.3342481"><ele>2967.54</ele><time>2026-01-31T23:51:21.000Z</time></trkpt>
        <trkpt lat="29.5200094" lon="103.3342192"><ele>2965.72</ele><time>2026-01-31T23:51:25.000Z</time></trkpt>
        <trkpt lat="29.5199593" lon="103.3341659"><ele>2963.73</ele><time>2026-01-31T23:51:29.000Z</time></trkpt>
        <trkpt lat="29.5199091" lon="103.334085"><ele>2961.9</ele><time>2026-01-31T23:51:33.000Z</time></trkpt>
        <trkpt lat="29.5198578" lon="103.3340039"><ele>2960.24</ele><time>2026-01-31T23:51:37.000Z</time></trkpt>
        <trkpt lat="29.5198122" lon="103.3339287"><ele>2958.65</ele><time>2026-01-31T23:51:41.000Z</time></trkpt>
        <trkpt lat="29.5197687" lon="103.3338471"><ele>2957.17</ele><time>2026-01-31T23:51:45.000Z</time></trkpt>
        <trkpt lat="29.5197398" lon="103.3337927"><ele>2955.69</ele><time>2026-01-31T23:51:47.000Z</time></trkpt>
        <trkpt lat="29.5196981" lon="103.3337329"><ele>2954.57</ele><time>2026-01-31T23:51:52.000Z</time></trkpt>
        <trkpt lat="29.5196561" lon="103.3336869"><ele>2953.58</ele><time>2026-01-31T23:51:57.000Z</time></trkpt>
        <trkpt lat="29.5196234" lon="103.3336362"><ele>2952.54</ele><time>2026-01-31T23:52:05.000Z</time></trkpt>
        <trkpt lat="29.5195858" lon="103.333586"><ele>2951.83</ele><time>2026-01-31T23:52:13.000Z</time></trkpt>
        <trkpt lat="29.5195398" lon="103.3335544"><ele>2952.05</ele><time>2026-01-31T23:52:21.000Z</time></trkpt>
        <trkpt lat="29.5194913" lon="103.3335381"><ele>2953.13</ele><time>2026-01-31T23:52:29.000Z</time></trkpt>
        <trkpt lat="29.5194445" lon="103.3335224"><ele>2954.76</ele><time>2026-01-31T23:52:53.000Z</time></trkpt>
        <trkpt lat="29.5193973" lon="103.333502"><ele>2956.9</ele><time>2026-01-31T23:53:05.000Z</time></trkpt>
        <trkpt lat="29.519348" lon="103.3334839"><ele>2958.61</ele><time>2026-01-31T23:53:11.000Z</time></trkpt>
        <trkpt lat="29.5193085" lon="103.3334512"><ele>2960.28</ele><time>2026-01-31T23:53:17.000Z</time></trkpt>
        <trkpt lat="29.5192869" lon="103.3333946"><ele>2962.4</ele><time>2026-01-31T23:54:19.000Z</time></trkpt>
        <trkpt lat="29.5192709" lon="103.3333335"><ele>2964.81</ele><time>2026-01-31T23:54:23.000Z</time></trkpt>
        <trkpt lat="29.5192604" lon="103.3332775"><ele>2966.09</ele><time>2026-01-31T23:54:27.000Z</time></trkpt>
        <trkpt lat="29.5192401" lon="103.333229"><ele>2966.98</ele><time>2026-01-31T23:54:31.000Z</time></trkpt>
        <trkpt lat="29.5192238" lon="103.3331743"><ele>2967.41</ele><time>2026-01-31T23:54:35.000Z</time></trkpt>
        <trkpt lat="29.5192261" lon="103.3331047"><ele>2967.37</ele><time>2026-01-31T23:54:41.000Z</time></trkpt>
        <trkpt lat="29.5191974" lon="103.3330517"><ele>2967.25</ele><time>2026-01-31T23:54:47.000Z</time></trkpt>
        <trkpt lat="29.5191357" lon="103.3330197"><ele>2966.81</ele><time>2026-01-31T23:54:52.000Z</time></trkpt>
        <trkpt lat="29.5190761" lon="103.3330029"><ele>2966.37</ele><time>2026-01-31T23:54:55.000Z</time></trkpt>
        <trkpt lat="29.5190211" lon="103.332979"><ele>2965.98</ele><time>2026-01-31T23:55:01.000Z</time></trkpt>
        <trkpt lat="29.5189764" lon="103.3329546"><ele>2965.87</ele><time>2026-01-31T23:55:05.000Z</time></trkpt>
        <trkpt lat="29.5189324" lon="103.3329349"><ele>2965.98</ele><time>2026-01-31T23:55:10.000Z</time></trkpt>
        <trkpt lat="29.5188798" lon="103.3329199"><ele>2966.14</ele><time>2026-01-31T23:55:15.000Z</time></trkpt>
        <trkpt lat="29.518819" lon="103.3329046"><ele>2966.47</ele><time>2026-01-31T23:55:21.000Z</time></trkpt>
        <trkpt lat="29.5187576" lon="103.3328786"><ele>2966.97</ele><time>2026-01-31T23:55:28.000Z</time></trkpt>
        <trkpt lat="29.5187032" lon="103.3328606"><ele>2967.69</ele><time>2026-01-31T23:55:31.000Z</time></trkpt>
        <trkpt lat="29.5186605" lon="103.3328185"><ele>2968.39</ele><time>2026-01-31T23:55:35.000Z</time></trkpt>
        <trkpt lat="29.5186229" lon="103.3327727"><ele>2969.02</ele><time>2026-01-31T23:55:39.000Z</time></trkpt>
        <trkpt lat="29.5185865" lon="103.3327248"><ele>2969.65</ele><time>2026-01-31T23:55:43.000Z</time></trkpt>
        <trkpt lat="29.5185452" lon="103.3326771"><ele>2970.47</ele><time>2026-01-31T23:55:47.000Z</time></trkpt>
        <trkpt lat="29.5184948" lon="103.3326373"><ele>2971.1</ele><time>2026-01-31T23:55:53.000Z</time></trkpt>
        <trkpt lat="29.5184539" lon="103.3326046"><ele>2971.99</ele><time>2026-01-31T23:55:57.000Z</time></trkpt>
        <trkpt lat="29.5184178" lon="103.3325704"><ele>2972.87</ele><time>2026-01-31T23:56:01.000Z</time></trkpt>
        <trkpt lat="29.5183879" lon="103.3325266"><ele>2973.66</ele><time>2026-01-31T23:56:05.000Z</time></trkpt>
        <trkpt lat="29.5183612" lon="103.3324715"><ele>2974.38</ele><time>2026-01-31T23:56:09.000Z</time></trkpt>
        <trkpt lat="29.5183228" lon="103.3324362"><ele>2975.16</ele><time>2026-01-31T23:56:13.000Z</time></trkpt>
        <trkpt lat="29.5182734" lon="103.3324206"><ele>2975.72</ele><time>2026-01-31T23:56:17.000Z</time></trkpt>
        <trkpt lat="29.5182245" lon="103.3324126"><ele>2976.25</ele><time>2026-01-31T23:56:22.000Z</time></trkpt>
        <trkpt lat="29.5181761" lon="103.3324121"><ele>2976.59</ele><time>2026-01-31T23:56:25.000Z</time></trkpt>
        <trkpt lat="29.5181266" lon="103.3324234"><ele>2976.98</ele><time>2026-01-31T23:56:29.000Z</time></trkpt>
        <trkpt lat="29.5180748" lon="103.3324506"><ele>2977.36</ele><time>2026-01-31T23:56:33.000Z</time></trkpt>
        <trkpt lat="29.5180236" lon="103.3324722"><ele>2977.76</ele><time>2026-01-31T23:56:37.000Z</time></trkpt>
        <trkpt lat="29.517979" lon="103.3324976"><ele>2977.9</ele><time>2026-01-31T23:56:41.000Z</time></trkpt>
        <trkpt lat="29.5179382" lon="103.3325271"><ele>2978.22</ele><time>2026-01-31T23:56:45.000Z</time></trkpt>
        <trkpt lat="29.5178928" lon="103.3325634"><ele>2978.58</ele><time>2026-01-31T23:56:49.000Z</time></trkpt>
        <trkpt lat="29.5178426" lon="103.3325973"><ele>2978.82</ele><time>2026-01-31T23:56:53.000Z</time></trkpt>
        <trkpt lat="29.5177936" lon="103.3326499"><ele>2978.47</ele><time>2026-01-31T23:56:58.000Z</time></trkpt>
        <trkpt lat="29.5177461" lon="103.3326958"><ele>2978.43</ele><time>2026-01-31T23:57:01.000Z</time></trkpt>
        <trkpt lat="29.5177076" lon="103.3327367"><ele>2978.55</ele><time>2026-01-31T23:57:05.000Z</time></trkpt>
        <trkpt lat="29.5176856" lon="103.3327921"><ele>2978.55</ele><time>2026-01-31T23:57:09.000Z</time></trkpt>
        <trkpt lat="29.5176448" lon="103.3328488"><ele>2978.47</ele><time>2026-01-31T23:57:16.000Z</time></trkpt>
        <trkpt lat="29.5175956" lon="103.3329002"><ele>2978.57</ele><time>2026-01-31T23:57:19.000Z</time></trkpt>
        <trkpt lat="29.5175447" lon="103.3329361"><ele>2978.31</ele><time>2026-01-31T23:57:23.000Z</time></trkpt>
        <trkpt lat="29.5174957" lon="103.3329684"><ele>2977.84</ele><time>2026-01-31T23:57:27.000Z</time></trkpt>
        <trkpt lat="29.5174496" lon="103.3329974"><ele>2977.35</ele><time>2026-01-31T23:57:31.000Z</time></trkpt>
        <trkpt lat="29.5174014" lon="103.3330415"><ele>2976.84</ele><time>2026-01-31T23:57:35.000Z</time></trkpt>
        <trkpt lat="29.5173583" lon="103.3330894"><ele>2976.34</ele><time>2026-01-31T23:57:39.000Z</time></trkpt>
        <trkpt lat="29.5173144" lon="103.3331159"><ele>2975.99</ele><time>2026-01-31T23:57:43.000Z</time></trkpt>
        <trkpt lat="29.5172668" lon="103.3331378"><ele>2975.97</ele><time>2026-01-31T23:57:47.000Z</time></trkpt>
        <trkpt lat="29.5172153" lon="103.333162"><ele>2975.79</ele><time>2026-01-31T23:57:51.000Z</time></trkpt>
        <trkpt lat="29.5171524" lon="103.3331699"><ele>2975.46</ele><time>2026-01-31T23:57:55.000Z</time></trkpt>
        <trkpt lat="29.5170885" lon="103.333161"><ele>2975.2</ele><time>2026-01-31T23:57:59.000Z</time></trkpt>
        <trkpt lat="29.517027" lon="103.3331323"><ele>2974.79</ele><time>2026-01-31T23:58:03.000Z</time></trkpt>
        <trkpt lat="29.5169767" lon="103.3331042"><ele>2974.44</ele><time>2026-01-31T23:58:07.000Z</time></trkpt>
        <trkpt lat="29.5169177" lon="103.3330806"><ele>2974.2</ele><time>2026-01-31T23:58:13.000Z</time></trkpt>
        <trkpt lat="29.516872" lon="103.3330556"><ele>2974.3</ele><time>2026-01-31T23:58:17.000Z</time></trkpt>
        <trkpt lat="29.5168203" lon="103.3330195"><ele>2974.51</ele><time>2026-01-31T23:58:23.000Z</time></trkpt>
        <trkpt lat="29.5167757" lon="103.3329656"><ele>2974.66</ele><time>2026-01-31T23:58:29.000Z</time></trkpt>
        <trkpt lat="29.5167326" lon="103.332915"><ele>2975.03</ele><time>2026-01-31T23:58:35.000Z</time></trkpt>
        <trkpt lat="29.51669" lon="103.3328692"><ele>2975.62</ele><time>2026-01-31T23:58:41.000Z</time></trkpt>
        <trkpt lat="29.5166604" lon="103.3328153"><ele>2976.08</ele><time>2026-01-31T23:58:47.000Z</time></trkpt>
        <trkpt lat="29.5166294" lon="103.3327605"><ele>2976.76</ele><time>2026-01-31T23:58:53.000Z</time></trkpt>
        <trkpt lat="29.5165908" lon="103.3327031"><ele>2977.55</ele><time>2026-01-31T23:58:59.000Z</time></trkpt>
        <trkpt lat="29.5165546" lon="103.3326457"><ele>2978.71</ele><time>2026-01-31T23:59:05.000Z</time></trkpt>
        <trkpt lat="29.5165197" lon="103.332602"><ele>2980.05</ele><time>2026-01-31T23:59:11.000Z</time></trkpt>
        <trkpt lat="29.5164857" lon="103.3325553"><ele>2981.5</ele><time>2026-01-31T23:59:19.000Z</time></trkpt>
        <trkpt lat="29.5164607" lon="103.3325065"><ele>2983.13</ele><time>2026-01-31T23:59:25.000Z</time></trkpt>
        <trkpt lat="29.5164257" lon="103.3324557"><ele>2984.57</ele><time>2026-01-31T23:59:31.000Z</time></trkpt>
        <trkpt lat="29.5163893" lon="103.3323997"><ele>2986.17</ele><time>2026-01-31T23:59:39.000Z</time></trkpt>
        <trkpt lat="29.5163651" lon="103.332349"><ele>2987.75</ele><time>2026-01-31T23:59:45.000Z</time></trkpt>
        <trkpt lat="29.5163325" lon="103.3322976"><ele>2989.05</ele><time>2026-01-31T23:59:53.000Z</time></trkpt>
        <trkpt lat="29.5162936" lon="103.3322396"><ele>2990.02</ele><time>2026-01-31T23:59:59.000Z</time></trkpt>
        <trkpt lat="29.5162615" lon="103.3321917"><ele>2990.4</ele><time>2026-02-01T00:00:03.000Z</time></trkpt>
        <trkpt lat="29.516229" lon="103.3321359"><ele>2990.2</ele><time>2026-02-01T00:00:09.000Z</time></trkpt>
        <trkpt lat="29.5161955" lon="103.3320796"><ele>2989.37</ele><time>2026-02-01T00:00:15.000Z</time></trkpt>
        <trkpt lat="29.5161603" lon="103.3320272"><ele>2989.98</ele><time>2026-02-01T00:00:21.000Z</time></trkpt>
        <trkpt lat="29.5161265" lon="103.3319662"><ele>2990.4</ele><time>2026-02-01T00:00:27.000Z</time></trkpt>
        <trkpt lat="29.5160927" lon="103.3319112"><ele>2990.77</ele><time>2026-02-01T00:00:31.000Z</time></trkpt>
        <trkpt lat="29.5160675" lon="103.3318568"><ele>2991.06</ele><time>2026-02-01T00:00:35.000Z</time></trkpt>
        <trkpt lat="29.516046" lon="103.3318024"><ele>2991.4</ele><time>2026-02-01T00:00:39.000Z</time></trkpt>
        <trkpt lat="29.5160227" lon="103.3317532"><ele>2991.53</ele><time>2026-02-01T00:00:43.000Z</time></trkpt>
        <trkpt lat="29.5159917" lon="103.3317081"><ele>2991.7</ele><time>2026-02-01T00:00:47.000Z</time></trkpt>
        <trkpt lat="29.5159539" lon="103.3316652"><ele>2991.86</ele><time>2026-02-01T00:00:52.000Z</time></trkpt>
        <trkpt lat="29.515913" lon="103.3316223"><ele>2992</ele><time>2026-02-01T00:00:55.000Z</time></trkpt>
        <trkpt lat="29.5158752" lon="103.331565"><ele>2992.08</ele><time>2026-02-01T00:00:59.000Z</time></trkpt>
        <trkpt lat="29.515841" lon="103.3315055"><ele>2992.12</ele><time>2026-02-01T00:01:03.000Z</time></trkpt>
        <trkpt lat="29.5158064" lon="103.3314515"><ele>2992.17</ele><time>2026-02-01T00:01:07.000Z</time></trkpt>
        <trkpt lat="29.5157603" lon="103.3314172"><ele>2992.51</ele><time>2026-02-01T00:01:11.000Z</time></trkpt>
        <trkpt lat="29.5157026" lon="103.3313965"><ele>2992.85</ele><time>2026-02-01T00:01:15.000Z</time></trkpt>
        <trkpt lat="29.515646" lon="103.3313742"><ele>2993.33</ele><time>2026-02-01T00:01:19.000Z</time></trkpt>
        <trkpt lat="29.5155939" lon="103.3313511"><ele>2993.8</ele><time>2026-02-01T00:01:23.000Z</time></trkpt>
        <trkpt lat="29.5155396" lon="103.3313366"><ele>2994.27</ele><time>2026-02-01T00:01:27.000Z</time></trkpt>
        <trkpt lat="29.5154854" lon="103.3313357"><ele>2994.65</ele><time>2026-02-01T00:01:31.000Z</time></trkpt>
        <trkpt lat="29.5154294" lon="103.3313446"><ele>2994.97</ele><time>2026-02-01T00:01:35.000Z</time></trkpt>
        <trkpt lat="29.515376" lon="103.3313586"><ele>2995.23</ele><time>2026-02-01T00:01:39.000Z</time></trkpt>
        <trkpt lat="29.5153101" lon="103.3313736"><ele>2995.49</ele><time>2026-02-01T00:01:43.000Z</time></trkpt>
        <trkpt lat="29.5152473" lon="103.3313854"><ele>2995.54</ele><time>2026-02-01T00:01:47.000Z</time></trkpt>
        <trkpt lat="29.5151884" lon="103.3313947"><ele>2995.48</ele><time>2026-02-01T00:01:51.000Z</time></trkpt>
        <trkpt lat="29.5151299" lon="103.3314062"><ele>2995.23</ele><time>2026-02-01T00:01:55.000Z</time></trkpt>
        <trkpt lat="29.5150645" lon="103.3314105"><ele>2995.13</ele><time>2026-02-01T00:01:59.000Z</time></trkpt>
        <trkpt lat="29.5150047" lon="103.3313957"><ele>2995.06</ele><time>2026-02-01T00:02:04.000Z</time></trkpt>
        <trkpt lat="29.5149535" lon="103.3313784"><ele>2995.05</ele><time>2026-02-01T00:02:07.000Z</time></trkpt>
        <trkpt lat="29.5149044" lon="103.3313571"><ele>2995.24</ele><time>2026-02-01T00:02:11.000Z</time></trkpt>
        <trkpt lat="29.5148617" lon="103.3313265"><ele>2995.44</ele><time>2026-02-01T00:02:15.000Z</time></trkpt>
        <trkpt lat="29.5148278" lon="103.331272"><ele>2995.49</ele><time>2026-02-01T00:02:22.000Z</time></trkpt>
        <trkpt lat="29.5147939" lon="103.3312208"><ele>2993.2</ele><time>2026-02-01T00:02:25.000Z</time></trkpt>
        <trkpt lat="29.5147429" lon="103.3312133"><ele>2992.24</ele><time>2026-02-01T00:02:27.000Z</time></trkpt>
        <trkpt lat="29.5146917" lon="103.3312072"><ele>2992.25</ele><time>2026-02-01T00:02:31.000Z</time></trkpt>
        <trkpt lat="29.5146419" lon="103.331206"><ele>2992.17</ele><time>2026-02-01T00:02:35.000Z</time></trkpt>
        <trkpt lat="29.5145824" lon="103.3312067"><ele>2992.22</ele><time>2026-02-01T00:02:41.000Z</time></trkpt>
        <trkpt lat="29.5145323" lon="103.3312162"><ele>2992.25</ele><time>2026-02-01T00:02:47.000Z</time></trkpt>
        <trkpt lat="29.5144836" lon="103.3312203"><ele>2992.27</ele><time>2026-02-01T00:02:55.000Z</time></trkpt>
        <trkpt lat="29.5144257" lon="103.3312083"><ele>2992.28</ele><time>2026-02-01T00:03:01.000Z</time></trkpt>
        <trkpt lat="29.514363" lon="103.3311973"><ele>2992.29</ele><time>2026-02-01T00:03:07.000Z</time></trkpt>
        <trkpt lat="29.5143115" lon="103.3311896"><ele>2992.29</ele><time>2026-02-01T00:03:11.000Z</time></trkpt>
        <trkpt lat="29.5142522" lon="103.3311822"><ele>2992.29</ele><time>2026-02-01T00:03:17.000Z</time></trkpt>
        <trkpt lat="29.5141668" lon="103.3311722"><ele>2992.29</ele><time>2026-02-01T00:03:19.000Z</time></trkpt>
        <trkpt lat="29.5140948" lon="103.3311659"><ele>2992.38</ele><time>2026-02-01T00:03:22.000Z</time></trkpt>
        <trkpt lat="29.5140501" lon="103.3311608"><ele>2992.21</ele><time>2026-02-01T00:03:24.000Z</time></trkpt>
        <trkpt lat="29.5139949" lon="103.3311589"><ele>2992.33</ele><time>2026-02-01T00:03:27.000Z</time></trkpt>
        <trkpt lat="29.5139451" lon="103.3311696"><ele>2992.34</ele><time>2026-02-01T00:03:32.000Z</time></trkpt>
        <trkpt lat="29.5138966" lon="103.3311925"><ele>2992.45</ele><time>2026-02-01T00:03:35.000Z</time></trkpt>
        <trkpt lat="29.5138569" lon="103.3312245"><ele>2992.63</ele><time>2026-02-01T00:03:39.000Z</time></trkpt>
        <trkpt lat="29.5138125" lon="103.3312536"><ele>2992.61</ele><time>2026-02-01T00:03:49.000Z</time></trkpt>
        <trkpt lat="29.5137752" lon="103.3313206"><ele>2992.6</ele><time>2026-02-01T00:03:52.000Z</time></trkpt>
        <trkpt lat="29.5137475" lon="103.3314006"><ele>2991.56</ele><time>2026-02-01T00:03:55.000Z</time></trkpt>
        <trkpt lat="29.5137187" lon="103.3314774"><ele>2990.69</ele><time>2026-02-01T00:03:59.000Z</time></trkpt>
        <trkpt lat="29.5136924" lon="103.3315433"><ele>2990.49</ele><time>2026-02-01T00:04:03.000Z</time></trkpt>
        <trkpt lat="29.5136662" lon="103.331601"><ele>2990.55</ele><time>2026-02-01T00:04:07.000Z</time></trkpt>
        <trkpt lat="29.5136374" lon="103.3316629"><ele>2990.79</ele><time>2026-02-01T00:04:11.000Z</time></trkpt>
        <trkpt lat="29.5135913" lon="103.3317213"><ele>2991.13</ele><time>2026-02-01T00:04:15.000Z</time></trkpt>
        <trkpt lat="29.5135513" lon="103.3317642"><ele>2991.59</ele><time>2026-02-01T00:04:19.000Z</time></trkpt>
        <trkpt lat="29.5135026" lon="103.3317839"><ele>2991.99</ele><time>2026-02-01T00:04:25.000Z</time></trkpt>
        <trkpt lat="29.5134504" lon="103.3317894"><ele>2992.29</ele><time>2026-02-01T00:04:29.000Z</time></trkpt>
        <trkpt lat="29.5133991" lon="103.331784"><ele>2992.1</ele><time>2026-02-01T00:04:37.000Z</time></trkpt>
        <trkpt lat="29.5133489" lon="103.3317799"><ele>2991.58</ele><time>2026-02-01T00:04:46.000Z</time></trkpt>
        <trkpt lat="29.5133003" lon="103.3318034"><ele>2991.02</ele><time>2026-02-01T00:04:49.000Z</time></trkpt>
        <trkpt lat="29.5132522" lon="103.3318389"><ele>2990.3</ele><time>2026-02-01T00:04:56.000Z</time></trkpt>
        <trkpt lat="29.5131964" lon="103.3318322"><ele>2989.5</ele><time>2026-02-01T00:05:11.000Z</time></trkpt>
        <trkpt lat="29.5131456" lon="103.3318078"><ele>2990.19</ele><time>2026-02-01T00:05:15.000Z</time></trkpt>
        <trkpt lat="29.5131026" lon="103.3317689"><ele>2990.44</ele><time>2026-02-01T00:05:19.000Z</time></trkpt>
        <trkpt lat="29.5130629" lon="103.3317334"><ele>2990.41</ele><time>2026-02-01T00:05:23.000Z</time></trkpt>
        <trkpt lat="29.5130451" lon="103.3317161"><ele>2988.53</ele><time>2026-02-01T00:05:26.000Z</time></trkpt>
        <trkpt lat="29.5129783" lon="103.3316901"><ele>2987.37</ele><time>2026-02-01T00:05:34.000Z</time></trkpt>
        <trkpt lat="29.5129349" lon="103.3316476"><ele>2987.3</ele><time>2026-02-01T00:05:37.000Z</time></trkpt>
        <trkpt lat="29.5129046" lon="103.3316035"><ele>2987.64</ele><time>2026-02-01T00:05:41.000Z</time></trkpt>
        <trkpt lat="29.512876" lon="103.3315562"><ele>2987.89</ele><time>2026-02-01T00:05:45.000Z</time></trkpt>
        <trkpt lat="29.5128453" lon="103.3315126"><ele>2988.11</ele><time>2026-02-01T00:05:49.000Z</time></trkpt>
        <trkpt lat="29.5128225" lon="103.3314638"><ele>2988.02</ele><time>2026-02-01T00:05:53.000Z</time></trkpt>
        <trkpt lat="29.5127859" lon="103.3314162"><ele>2987.99</ele><time>2026-02-01T00:05:59.000Z</time></trkpt>
        <trkpt lat="29.5127417" lon="103.3313787"><ele>2988.16</ele><time>2026-02-01T00:06:05.000Z</time></trkpt>
        <trkpt lat="29.5126915" lon="103.3313467"><ele>2988.26</ele><time>2026-02-01T00:06:11.000Z</time></trkpt>
        <trkpt lat="29.5126456" lon="103.3313097"><ele>2988.33</ele><time>2026-02-01T00:06:17.000Z</time></trkpt>
        <trkpt lat="29.5125913" lon="103.3312888"><ele>2989.06</ele><time>2026-02-01T00:06:25.000Z</time></trkpt>
        <trkpt lat="29.5125394" lon="103.3312676"><ele>2989.93</ele><time>2026-02-01T00:06:34.000Z</time></trkpt>
        <trkpt lat="29.5124904" lon="103.3312399"><ele>2990.57</ele><time>2026-02-01T00:06:39.000Z</time></trkpt>
        <trkpt lat="29.5124431" lon="103.3312274"><ele>2991.45</ele><time>2026-02-01T00:06:45.000Z</time></trkpt>
        <trkpt lat="29.5123998" lon="103.3312393"><ele>2992.17</ele><time>2026-02-01T00:06:51.000Z</time></trkpt>
        <trkpt lat="29.5123537" lon="103.3312729"><ele>2992.59</ele><time>2026-02-01T00:06:57.000Z</time></trkpt>
        <trkpt lat="29.5123107" lon="103.3313152"><ele>2992.63</ele><time>2026-02-01T00:07:03.000Z</time></trkpt>
        <trkpt lat="29.5122665" lon="103.3313541"><ele>2993.38</ele><time>2026-02-01T00:07:11.000Z</time></trkpt>
        <trkpt lat="29.512219" lon="103.3313872"><ele>2993.9</ele><time>2026-02-01T00:07:17.000Z</time></trkpt>
        <trkpt lat="29.5121722" lon="103.3314146"><ele>2994.82</ele><time>2026-02-01T00:07:28.000Z</time></trkpt>
        <trkpt lat="29.5121115" lon="103.3314152"><ele>2995.28</ele><time>2026-02-01T00:07:31.000Z</time></trkpt>
        <trkpt lat="29.512096" lon="103.3314565"><ele>2995.74</ele><time>2026-02-01T00:07:35.000Z</time></trkpt>
        <trkpt lat="29.5120658" lon="103.3314946"><ele>2996.13</ele><time>2026-02-01T00:07:41.000Z</time></trkpt>
        <trkpt lat="29.5120227" lon="103.3315077"><ele>2996.94</ele><time>2026-02-01T00:07:47.000Z</time></trkpt>
        <trkpt lat="29.5119744" lon="103.3315314"><ele>2997.8</ele><time>2026-02-01T00:07:53.000Z</time></trkpt>
        <trkpt lat="29.5119282" lon="103.3315567"><ele>2999.05</ele><time>2026-02-01T00:08:01.000Z</time></trkpt>
        <trkpt lat="29.5118789" lon="103.3315825"><ele>3000.24</ele><time>2026-02-01T00:08:08.000Z</time></trkpt>
        <trkpt lat="29.5118322" lon="103.3316066"><ele>3000.97</ele><time>2026-02-01T00:08:11.000Z</time></trkpt>
        <trkpt lat="29.5117801" lon="103.331622"><ele>3001.95</ele><time>2026-02-01T00:08:15.000Z</time></trkpt>
        <trkpt lat="29.5117328" lon="103.331628"><ele>3003.2</ele><time>2026-02-01T00:08:19.000Z</time></trkpt>
        <trkpt lat="29.5116785" lon="103.3316374"><ele>3003.93</ele><time>2026-02-01T00:08:25.000Z</time></trkpt>
        <trkpt lat="29.5116268" lon="103.3316537"><ele>3004.56</ele><time>2026-02-01T00:08:31.000Z</time></trkpt>
        <trkpt lat="29.5115743" lon="103.3316448"><ele>3005.16</ele><time>2026-02-01T00:08:35.000Z</time></trkpt>
        <trkpt lat="29.5115263" lon="103.3316533"><ele>3006.15</ele><time>2026-02-01T00:08:41.000Z</time></trkpt>
        <trkpt lat="29.5114803" lon="103.3316828"><ele>3009.94</ele><time>2026-02-01T00:08:49.000Z</time></trkpt>
        <trkpt lat="29.5115258" lon="103.331677"><ele>3012.58</ele><time>2026-02-01T00:10:31.000Z</time></trkpt>
        <trkpt lat="29.5115873" lon="103.3316599"><ele>3013.9</ele><time>2026-02-01T00:10:35.000Z</time></trkpt>
        <trkpt lat="29.5116404" lon="103.3316444"><ele>3014.48</ele><time>2026-02-01T00:10:39.000Z</time></trkpt>
        <trkpt lat="29.5116919" lon="103.3316303"><ele>3014.49</ele><time>2026-02-01T00:10:43.000Z</time></trkpt>
        <trkpt lat="29.5117507" lon="103.3316065"><ele>3013.23</ele><time>2026-02-01T00:10:49.000Z</time></trkpt>
        <trkpt lat="29.5117986" lon="103.3315885"><ele>3012.48</ele><time>2026-02-01T00:10:53.000Z</time></trkpt>
        <trkpt lat="29.5118395" lon="103.3315657"><ele>3011.71</ele><time>2026-02-01T00:10:58.000Z</time></trkpt>
        <trkpt lat="29.5118916" lon="103.3315362"><ele>3011.14</ele><time>2026-02-01T00:11:04.000Z</time></trkpt>
        <trkpt lat="29.5119502" lon="103.3315135"><ele>3010.57</ele><time>2026-02-01T00:11:09.000Z</time></trkpt>
        <trkpt lat="29.5119951" lon="103.3314845"><ele>3010.16</ele><time>2026-02-01T00:11:15.000Z</time></trkpt>
        <trkpt lat="29.5120432" lon="103.3314496"><ele>3009.92</ele><time>2026-02-01T00:11:22.000Z</time></trkpt>
        <trkpt lat="29.5121124" lon="103.3314087"><ele>3009.79</ele><time>2026-02-01T00:11:27.000Z</time></trkpt>
        <trkpt lat="29.5121806" lon="103.3313694"><ele>3018.54</ele><time>2026-02-01T00:11:29.000Z</time></trkpt>
        <trkpt lat="29.5122056" lon="103.3313372"><ele>3023.54</ele><time>2026-02-01T00:11:31.000Z</time></trkpt>
        <trkpt lat="29.5122395" lon="103.3313014"><ele>3026.03</ele><time>2026-02-01T00:11:37.000Z</time></trkpt>
        <trkpt lat="29.5122761" lon="103.3312628"><ele>3023.37</ele><time>2026-02-01T00:11:45.000Z</time></trkpt>
        <trkpt lat="29.5123248" lon="103.3312151"><ele>3020.11</ele><time>2026-02-01T00:11:51.000Z</time></trkpt>
        <trkpt lat="29.5122893" lon="103.331197"><ele>3016.93</ele><time>2026-02-01T00:12:07.000Z</time></trkpt>
        <trkpt lat="29.5122361" lon="103.3311759"><ele>3008.21</ele><time>2026-02-01T00:12:11.000Z</time></trkpt>
        <trkpt lat="29.5121806" lon="103.3311624"><ele>3003.06</ele><time>2026-02-01T00:12:15.000Z</time></trkpt>
        <trkpt lat="29.5121277" lon="103.3311733"><ele>3000.08</ele><time>2026-02-01T00:12:19.000Z</time></trkpt>
        <trkpt lat="29.5120754" lon="103.3311877"><ele>2998.5</ele><time>2026-02-01T00:12:23.000Z</time></trkpt>
        <trkpt lat="29.5120248" lon="103.3311869"><ele>2997.33</ele><time>2026-02-01T00:12:27.000Z</time></trkpt>
        <trkpt lat="29.5119757" lon="103.3311891"><ele>2996.88</ele><time>2026-02-01T00:12:31.000Z</time></trkpt>
        <trkpt lat="29.5119127" lon="103.3311927"><ele>2996.51</ele><time>2026-02-01T00:12:35.000Z</time></trkpt>
        <trkpt lat="29.5118569" lon="103.3311817"><ele>2996.4</ele><time>2026-02-01T00:12:39.000Z</time></trkpt>
        <trkpt lat="29.5118108" lon="103.3311473"><ele>2996.19</ele><time>2026-02-01T00:13:05.000Z</time></trkpt>
        <trkpt lat="29.5117598" lon="103.3311289"><ele>2995.66</ele><time>2026-02-01T00:13:09.000Z</time></trkpt>
        <trkpt lat="29.5117029" lon="103.3311386"><ele>2995.38</ele><time>2026-02-01T00:13:13.000Z</time></trkpt>
        <trkpt lat="29.5116408" lon="103.3311503"><ele>2995.12</ele><time>2026-02-01T00:13:17.000Z</time></trkpt>
        <trkpt lat="29.5115786" lon="103.3311585"><ele>2995.88</ele><time>2026-02-01T00:13:21.000Z</time></trkpt>
        <trkpt lat="29.5115265" lon="103.3311558"><ele>2996.26</ele><time>2026-02-01T00:13:25.000Z</time></trkpt>
        <trkpt lat="29.5114804" lon="103.3311468"><ele>2996.37</ele><time>2026-02-01T00:13:29.000Z</time></trkpt>
        <trkpt lat="29.5114344" lon="103.3311296"><ele>2996.43</ele><time>2026-02-01T00:13:33.000Z</time></trkpt>
        <trkpt lat="29.511387" lon="103.3310701"><ele>2996.18</ele><time>2026-02-01T00:13:39.000Z</time></trkpt>
        <trkpt lat="29.5113487" lon="103.3310076"><ele>2995.68</ele><time>2026-02-01T00:13:43.000Z</time></trkpt>
        <trkpt lat="29.5113152" lon="103.3309491"><ele>2995.29</ele><time>2026-02-01T00:13:55.000Z</time></trkpt>
        <trkpt lat="29.5112819" lon="103.330894"><ele>2994.79</ele><time>2026-02-01T00:14:01.000Z</time></trkpt>
        <trkpt lat="29.5112568" lon="103.3308292"><ele>2994.69</ele><time>2026-02-01T00:14:07.000Z</time></trkpt>
        <trkpt lat="29.511237" lon="103.3307494"><ele>2994.95</ele><time>2026-02-01T00:14:15.000Z</time></trkpt>
        <trkpt lat="29.5112262" lon="103.3306857"><ele>2994.99</ele><time>2026-02-01T00:14:19.000Z</time></trkpt>
        <trkpt lat="29.5112045" lon="103.3306379"><ele>2995.06</ele><time>2026-02-01T00:14:27.000Z</time></trkpt>
        <trkpt lat="29.511181" lon="103.3305937"><ele>2995.65</ele><time>2026-02-01T00:14:31.000Z</time></trkpt>
        <trkpt lat="29.5111534" lon="103.3305479"><ele>2996.17</ele><time>2026-02-01T00:14:35.000Z</time></trkpt>
        <trkpt lat="29.51114" lon="103.330485"><ele>2996.78</ele><time>2026-02-01T00:14:41.000Z</time></trkpt>
        <trkpt lat="29.5111129" lon="103.3304251"><ele>2997.96</ele><time>2026-02-01T00:14:49.000Z</time></trkpt>
        <trkpt lat="29.5110762" lon="103.3303654"><ele>2999.66</ele><time>2026-02-01T00:14:55.000Z</time></trkpt>
        <trkpt lat="29.5110762" lon="103.3303654"><ele>2999.66</ele><time>2026-02-01T00:14:55.000Z</time></trkpt>
        <trkpt lat="29.5109785" lon="103.3303166"><ele>3002.84</ele><time>2026-02-01T00:15:01.000Z</time></trkpt>
        <trkpt lat="29.5109785" lon="103.3303166"><ele>3002.84</ele><time>2026-02-01T00:15:11.000Z</time></trkpt>
        <trkpt lat="29.5109414" lon="103.3302812"><ele>3002.84</ele><time>2026-02-01T00:15:19.000Z</time></trkpt>
        <trkpt lat="29.5108958" lon="103.3302445"><ele>3002.58</ele><time>2026-02-01T00:15:25.000Z</time></trkpt>
        <trkpt lat="29.5108515" lon="103.3301913"><ele>3002.22</ele><time>2026-02-01T00:15:29.000Z</time></trkpt>
        <trkpt lat="29.5108106" lon="103.3301307"><ele>3000.56</ele><time>2026-02-01T00:15:33.000Z</time></trkpt>
        <trkpt lat="29.5107797" lon="103.3300563"><ele>2999.2</ele><time>2026-02-01T00:15:39.000Z</time></trkpt>
        <trkpt lat="29.5107597" lon="103.3299969"><ele>2997.46</ele><time>2026-02-01T00:15:43.000Z</time></trkpt>
        <trkpt lat="29.5107239" lon="103.329964"><ele>2995.7</ele><time>2026-02-01T00:15:47.000Z</time></trkpt>
        <trkpt lat="29.5106869" lon="103.3299123"><ele>2994.09</ele><time>2026-02-01T00:15:55.000Z</time></trkpt>
        <trkpt lat="29.5106475" lon="103.3298571"><ele>2993.02</ele><time>2026-02-01T00:16:01.000Z</time></trkpt>
        <trkpt lat="29.5106139" lon="103.3298013"><ele>2992.45</ele><time>2026-02-01T00:16:07.000Z</time></trkpt>
        <trkpt lat="29.510583" lon="103.3297448"><ele>2991.91</ele><time>2026-02-01T00:16:13.000Z</time></trkpt>
        <trkpt lat="29.510538" lon="103.3296964"><ele>2991.57</ele><time>2026-02-01T00:16:19.000Z</time></trkpt>
        <trkpt lat="29.5104978" lon="103.3296561"><ele>2991.75</ele><time>2026-02-01T00:16:23.000Z</time></trkpt>
        <trkpt lat="29.5104607" lon="103.3296078"><ele>2991.91</ele><time>2026-02-01T00:16:28.000Z</time></trkpt>
        <trkpt lat="29.5104232" lon="103.3295543"><ele>2992.27</ele><time>2026-02-01T00:16:31.000Z</time></trkpt>
        <trkpt lat="29.5103861" lon="103.3295169"><ele>2992.72</ele><time>2026-02-01T00:16:35.000Z</time></trkpt>
        <trkpt lat="29.5103604" lon="103.3294683"><ele>2993.35</ele><time>2026-02-01T00:16:41.000Z</time></trkpt>
        <trkpt lat="29.5103521" lon="103.3293998"><ele>2994.18</ele><time>2026-02-01T00:16:47.000Z</time></trkpt>
        <trkpt lat="29.5103245" lon="103.3293419"><ele>2995.1</ele><time>2026-02-01T00:16:53.000Z</time></trkpt>
        <trkpt lat="29.5103027" lon="103.3292716"><ele>2996.09</ele><time>2026-02-01T00:16:59.000Z</time></trkpt>
        <trkpt lat="29.5102842" lon="103.3292101"><ele>2996.73</ele><time>2026-02-01T00:17:04.000Z</time></trkpt>
        <trkpt lat="29.5102612" lon="103.3291544"><ele>2997.09</ele><time>2026-02-01T00:17:09.000Z</time></trkpt>
        <trkpt lat="29.5102267" lon="103.3291173"><ele>2997.2</ele><time>2026-02-01T00:17:15.000Z</time></trkpt>
        <trkpt lat="29.5101922" lon="103.329081"><ele>2997.43</ele><time>2026-02-01T00:17:19.000Z</time></trkpt>
        <trkpt lat="29.5101519" lon="103.3290497"><ele>2997.47</ele><time>2026-02-01T00:17:24.000Z</time></trkpt>
        <trkpt lat="29.5101129" lon="103.32902"><ele>2997.64</ele><time>2026-02-01T00:17:27.000Z</time></trkpt>
        <trkpt lat="29.5100705" lon="103.3289885"><ele>2998.52</ele><time>2026-02-01T00:17:35.000Z</time></trkpt>
        <trkpt lat="29.5100428" lon="103.3289357"><ele>2997.94</ele><time>2026-02-01T00:17:41.000Z</time></trkpt>
        <trkpt lat="29.5100254" lon="103.328882"><ele>2997.17</ele><time>2026-02-01T00:17:48.000Z</time></trkpt>
        <trkpt lat="29.5100148" lon="103.3288177"><ele>2996.47</ele><time>2026-02-01T00:17:53.000Z</time></trkpt>
        <trkpt lat="29.5099846" lon="103.328758"><ele>2995.91</ele><time>2026-02-01T00:18:01.000Z</time></trkpt>
        <trkpt lat="29.5099483" lon="103.3287041"><ele>2995.01</ele><time>2026-02-01T00:18:07.000Z</time></trkpt>
        <trkpt lat="29.5099186" lon="103.3286591"><ele>2994.5</ele><time>2026-02-01T00:18:11.000Z</time></trkpt>
        <trkpt lat="29.5098944" lon="103.328605"><ele>2994.21</ele><time>2026-02-01T00:18:18.000Z</time></trkpt>
        <trkpt lat="29.5098689" lon="103.3285539"><ele>2994.05</ele><time>2026-02-01T00:18:22.000Z</time></trkpt>
        <trkpt lat="29.5098696" lon="103.3285213"><ele>2993.37</ele><time>2026-02-01T00:18:26.000Z</time></trkpt>
        <trkpt lat="29.5098726" lon="103.3284666"><ele>2992.25</ele><time>2026-02-01T00:18:31.000Z</time></trkpt>
        <trkpt lat="29.5098817" lon="103.3284113"><ele>2990.39</ele><time>2026-02-01T00:18:39.000Z</time></trkpt>
        <trkpt lat="29.5098681" lon="103.3283565"><ele>2988.65</ele><time>2026-02-01T00:18:45.000Z</time></trkpt>
        <trkpt lat="29.5098272" lon="103.3283118"><ele>2987.67</ele><time>2026-02-01T00:18:52.000Z</time></trkpt>
        <trkpt lat="29.509775" lon="103.3282686"><ele>2987.1</ele><time>2026-02-01T00:18:58.000Z</time></trkpt>
        <trkpt lat="29.5097312" lon="103.328205"><ele>2986.78</ele><time>2026-02-01T00:19:01.000Z</time></trkpt>
        <trkpt lat="29.5097035" lon="103.3281726"><ele>2986.06</ele><time>2026-02-01T00:19:03.000Z</time></trkpt>
        <trkpt lat="29.5096673" lon="103.3281365"><ele>2985.04</ele><time>2026-02-01T00:19:07.000Z</time></trkpt>
        <trkpt lat="29.5096154" lon="103.3281137"><ele>2983.59</ele><time>2026-02-01T00:19:14.000Z</time></trkpt>
        <trkpt lat="29.5095661" lon="103.3281045"><ele>2982.48</ele><time>2026-02-01T00:19:17.000Z</time></trkpt>
        <trkpt lat="29.5095182" lon="103.3281128"><ele>2981.93</ele><time>2026-02-01T00:19:21.000Z</time></trkpt>
        <trkpt lat="29.5094699" lon="103.3281353"><ele>2981.64</ele><time>2026-02-01T00:19:25.000Z</time></trkpt>
        <trkpt lat="29.5094174" lon="103.3281455"><ele>2981.06</ele><time>2026-02-01T00:19:31.000Z</time></trkpt>
        <trkpt lat="29.5093598" lon="103.3281382"><ele>2980.81</ele><time>2026-02-01T00:19:37.000Z</time></trkpt>
        <trkpt lat="29.5093078" lon="103.3281273"><ele>2980.53</ele><time>2026-02-01T00:19:41.000Z</time></trkpt>
        <trkpt lat="29.5092611" lon="103.328114"><ele>2979.47</ele><time>2026-02-01T00:19:46.000Z</time></trkpt>
        <trkpt lat="29.5092108" lon="103.3281146"><ele>2979.19</ele><time>2026-02-01T00:19:51.000Z</time></trkpt>
        <trkpt lat="29.5091669" lon="103.3281421"><ele>2980.05</ele><time>2026-02-01T00:19:55.000Z</time></trkpt>
        <trkpt lat="29.5091307" lon="103.3281839"><ele>2980.91</ele><time>2026-02-01T00:20:01.000Z</time></trkpt>
        <trkpt lat="29.5090844" lon="103.3282275"><ele>2981.34</ele><time>2026-02-01T00:20:08.000Z</time></trkpt>
        <trkpt lat="29.5090416" lon="103.3282681"><ele>2981.1</ele><time>2026-02-01T00:20:13.000Z</time></trkpt>
        <trkpt lat="29.5090097" lon="103.3283113"><ele>2980.87</ele><time>2026-02-01T00:20:17.000Z</time></trkpt>
        <trkpt lat="29.5089642" lon="103.3283423"><ele>2980.9</ele><time>2026-02-01T00:20:25.000Z</time></trkpt>
        <trkpt lat="29.508906" lon="103.3283571"><ele>2980.93</ele><time>2026-02-01T00:20:35.000Z</time></trkpt>
        <trkpt lat="29.5088514" lon="103.3283632"><ele>2982.1</ele><time>2026-02-01T00:20:41.000Z</time></trkpt>
        <trkpt lat="29.5088028" lon="103.3283646"><ele>2983.2</ele><time>2026-02-01T00:20:47.000Z</time></trkpt>
        <trkpt lat="29.508756" lon="103.3283583"><ele>2984.01</ele><time>2026-02-01T00:20:54.000Z</time></trkpt>
        <trkpt lat="29.5087087" lon="103.3283351"><ele>2984.84</ele><time>2026-02-01T00:21:00.000Z</time></trkpt>
        <trkpt lat="29.5086576" lon="103.3283358"><ele>2985.5</ele><time>2026-02-01T00:21:07.000Z</time></trkpt>
        <trkpt lat="29.5086037" lon="103.3283356"><ele>2985.73</ele><time>2026-02-01T00:21:14.000Z</time></trkpt>
        <trkpt lat="29.5085461" lon="103.3283241"><ele>2986.61</ele><time>2026-02-01T00:21:19.000Z</time></trkpt>
        <trkpt lat="29.5084906" lon="103.3283408"><ele>2987.31</ele><time>2026-02-01T00:21:26.000Z</time></trkpt>
        <trkpt lat="29.5084346" lon="103.3283214"><ele>2987.79</ele><time>2026-02-01T00:21:31.000Z</time></trkpt>
        <trkpt lat="29.508396" lon="103.3282731"><ele>2988.16</ele><time>2026-02-01T00:21:35.000Z</time></trkpt>
        <trkpt lat="29.5083701" lon="103.3282155"><ele>2988.17</ele><time>2026-02-01T00:21:42.000Z</time></trkpt>
        <trkpt lat="29.5083412" lon="103.3281676"><ele>2988.41</ele><time>2026-02-01T00:21:47.000Z</time></trkpt>
        <trkpt lat="29.5083104" lon="103.3281254"><ele>2988.46</ele><time>2026-02-01T00:21:53.000Z</time></trkpt>
        <trkpt lat="29.5082578" lon="103.328082"><ele>2988.42</ele><time>2026-02-01T00:21:59.000Z</time></trkpt>
        <trkpt lat="29.5082109" lon="103.3280338"><ele>2988.29</ele><time>2026-02-01T00:22:04.000Z</time></trkpt>
        <trkpt lat="29.5081801" lon="103.3279614"><ele>2988.14</ele><time>2026-02-01T00:22:10.000Z</time></trkpt>
        <trkpt lat="29.5081448" lon="103.3278776"><ele>2987.4</ele><time>2026-02-01T00:22:15.000Z</time></trkpt>
        <trkpt lat="29.5080696" lon="103.3276779"><ele>2986.38</ele><time>2026-02-01T00:22:37.000Z</time></trkpt>
        <trkpt lat="29.5080316" lon="103.3275731"><ele>2985.71</ele><time>2026-02-01T00:22:39.000Z</time></trkpt>
        <trkpt lat="29.5079861" lon="103.327526"><ele>2982.96</ele><time>2026-02-01T00:22:43.000Z</time></trkpt>
        <trkpt lat="29.507939" lon="103.3275241"><ele>2981.12</ele><time>2026-02-01T00:22:47.000Z</time></trkpt>
        <trkpt lat="29.507891" lon="103.3275482"><ele>2983.7</ele><time>2026-02-01T00:22:52.000Z</time></trkpt>
        <trkpt lat="29.5078497" lon="103.3276003"><ele>2984.38</ele><time>2026-02-01T00:22:57.000Z</time></trkpt>
        <trkpt lat="29.5078158" lon="103.3276552"><ele>2984.59</ele><time>2026-02-01T00:23:04.000Z</time></trkpt>
        <trkpt lat="29.5077744" lon="103.3277009"><ele>2984.11</ele><time>2026-02-01T00:23:07.000Z</time></trkpt>
        <trkpt lat="29.5077185" lon="103.3277137"><ele>2984.05</ele><time>2026-02-01T00:23:13.000Z</time></trkpt>
        <trkpt lat="29.5076629" lon="103.327697"><ele>2984.34</ele><time>2026-02-01T00:23:17.000Z</time></trkpt>
        <trkpt lat="29.5076113" lon="103.3276627"><ele>2984.59</ele><time>2026-02-01T00:23:22.000Z</time></trkpt>
        <trkpt lat="29.507571" lon="103.327614"><ele>2985.34</ele><time>2026-02-01T00:23:26.000Z</time></trkpt>
        <trkpt lat="29.5075508" lon="103.3275456"><ele>2985.83</ele><time>2026-02-01T00:23:32.000Z</time></trkpt>
        <trkpt lat="29.5075387" lon="103.3274862"><ele>2985.57</ele><time>2026-02-01T00:23:35.000Z</time></trkpt>
        <trkpt lat="29.507517" lon="103.3274209"><ele>2985.5</ele><time>2026-02-01T00:23:40.000Z</time></trkpt>
        <trkpt lat="29.507487" lon="103.3273763"><ele>2984.89</ele><time>2026-02-01T00:23:43.000Z</time></trkpt>
        <trkpt lat="29.5074576" lon="103.3273353"><ele>2984.44</ele><time>2026-02-01T00:23:47.000Z</time></trkpt>
        <trkpt lat="29.5074322" lon="103.3272911"><ele>2984.24</ele><time>2026-02-01T00:23:51.000Z</time></trkpt>
        <trkpt lat="29.507388" lon="103.3272496"><ele>2984.45</ele><time>2026-02-01T00:23:55.000Z</time></trkpt>
        <trkpt lat="29.507332" lon="103.3272119"><ele>2984.39</ele><time>2026-02-01T00:23:59.000Z</time></trkpt>
        <trkpt lat="29.5072834" lon="103.3271704"><ele>2984.25</ele><time>2026-02-01T00:24:05.000Z</time></trkpt>
        <trkpt lat="29.5072319" lon="103.3271245"><ele>2984.35</ele><time>2026-02-01T00:24:13.000Z</time></trkpt>
        <trkpt lat="29.5071934" lon="103.327077"><ele>2984.46</ele><time>2026-02-01T00:24:17.000Z</time></trkpt>
        <trkpt lat="29.5071673" lon="103.3270293"><ele>2984.01</ele><time>2026-02-01T00:24:23.000Z</time></trkpt>
        <trkpt lat="29.5071489" lon="103.3269775"><ele>2983.16</ele><time>2026-02-01T00:24:27.000Z</time></trkpt>
        <trkpt lat="29.5071314" lon="103.3268839"><ele>2982.35</ele><time>2026-02-01T00:24:34.000Z</time></trkpt>
        <trkpt lat="29.5071552" lon="103.3268134"><ele>2981.1</ele><time>2026-02-01T00:24:45.000Z</time></trkpt>
        <trkpt lat="29.5071813" lon="103.3267595"><ele>2977.77</ele><time>2026-02-01T00:24:53.000Z</time></trkpt>
        <trkpt lat="29.5072197" lon="103.3267128"><ele>2974.54</ele><time>2026-02-01T00:25:03.000Z</time></trkpt>
        <trkpt lat="29.5072661" lon="103.3266853"><ele>2971.33</ele><time>2026-02-01T00:25:10.000Z</time></trkpt>
        <trkpt lat="29.5073306" lon="103.3266826"><ele>2968.92</ele><time>2026-02-01T00:25:15.000Z</time></trkpt>
        <trkpt lat="29.5073982" lon="103.326705"><ele>2968.86</ele><time>2026-02-01T00:25:21.000Z</time></trkpt>
        <trkpt lat="29.5074403" lon="103.3266668"><ele>2968.85</ele><time>2026-02-01T00:25:23.000Z</time></trkpt>
        <trkpt lat="29.5074632" lon="103.3266074"><ele>2968.25</ele><time>2026-02-01T00:25:35.000Z</time></trkpt>
        <trkpt lat="29.5074919" lon="103.3265498"><ele>2965.26</ele><time>2026-02-01T00:25:43.000Z</time></trkpt>
        <trkpt lat="29.5075166" lon="103.3264971"><ele>2963.03</ele><time>2026-02-01T00:25:49.000Z</time></trkpt>
        <trkpt lat="29.5075476" lon="103.3264536"><ele>2960.78</ele><time>2026-02-01T00:25:55.000Z</time></trkpt>
        <trkpt lat="29.5075843" lon="103.3264218"><ele>2958.8</ele><time>2026-02-01T00:26:01.000Z</time></trkpt>
        <trkpt lat="29.5076279" lon="103.3263871"><ele>2957.13</ele><time>2026-02-01T00:26:07.000Z</time></trkpt>
        <trkpt lat="29.5076887" lon="103.3263601"><ele>2955.78</ele><time>2026-02-01T00:26:13.000Z</time></trkpt>
        <trkpt lat="29.5077252" lon="103.3263012"><ele>2954.5</ele><time>2026-02-01T00:26:19.000Z</time></trkpt>
        <trkpt lat="29.5077588" lon="103.3262532"><ele>2954.54</ele><time>2026-02-01T00:26:25.000Z</time></trkpt>
        <trkpt lat="29.5077936" lon="103.3262103"><ele>2952.99</ele><time>2026-02-01T00:26:35.000Z</time></trkpt>
        <trkpt lat="29.5078228" lon="103.3261592"><ele>2951.65</ele><time>2026-02-01T00:26:43.000Z</time></trkpt>
        <trkpt lat="29.5078309" lon="103.3260986"><ele>2950.78</ele><time>2026-02-01T00:26:49.000Z</time></trkpt>
        <trkpt lat="29.5078298" lon="103.3260422"><ele>2948.81</ele><time>2026-02-01T00:26:58.000Z</time></trkpt>
        <trkpt lat="29.507805" lon="103.325979"><ele>2955.53</ele><time>2026-02-01T00:27:03.000Z</time></trkpt>
        <trkpt lat="29.5077715" lon="103.3259266"><ele>2957.75</ele><time>2026-02-01T00:27:08.000Z</time></trkpt>
        <trkpt lat="29.5077241" lon="103.3259031"><ele>2958.12</ele><time>2026-02-01T00:27:11.000Z</time></trkpt>
        <trkpt lat="29.5076728" lon="103.3258772"><ele>2956.27</ele><time>2026-02-01T00:27:17.000Z</time></trkpt>
        <trkpt lat="29.507628" lon="103.3258509"><ele>2952.88</ele><time>2026-02-01T00:27:23.000Z</time></trkpt>
        <trkpt lat="29.5076084" lon="103.3258017"><ele>2949.61</ele><time>2026-02-01T00:27:31.000Z</time></trkpt>
        <trkpt lat="29.5075787" lon="103.3257437"><ele>2946.11</ele><time>2026-02-01T00:27:39.000Z</time></trkpt>
        <trkpt lat="29.5075393" lon="103.3257125"><ele>2942.47</ele><time>2026-02-01T00:27:48.000Z</time></trkpt>
        <trkpt lat="29.5074933" lon="103.3256805"><ele>2938.92</ele><time>2026-02-01T00:27:54.000Z</time></trkpt>
        <trkpt lat="29.5074518" lon="103.3256291"><ele>2935.31</ele><time>2026-02-01T00:28:01.000Z</time></trkpt>
        <trkpt lat="29.5074158" lon="103.3255755"><ele>2930.12</ele><time>2026-02-01T00:28:10.000Z</time></trkpt>
        <trkpt lat="29.5073682" lon="103.3255399"><ele>2926.02</ele><time>2026-02-01T00:28:17.000Z</time></trkpt>
        <trkpt lat="29.5073083" lon="103.3255221"><ele>2923.08</ele><time>2026-02-01T00:28:24.000Z</time></trkpt>
        <trkpt lat="29.5072572" lon="103.325516"><ele>2921.14</ele><time>2026-02-01T00:28:28.000Z</time></trkpt>
        <trkpt lat="29.5072055" lon="103.3255177"><ele>2919.6</ele><time>2026-02-01T00:28:33.000Z</time></trkpt>
        <trkpt lat="29.5071622" lon="103.3254924"><ele>2918.43</ele><time>2026-02-01T00:28:39.000Z</time></trkpt>
        <trkpt lat="29.5071502" lon="103.3254384"><ele>2917.62</ele><time>2026-02-01T00:28:49.000Z</time></trkpt>
        <trkpt lat="29.5071591" lon="103.3253785"><ele>2916.34</ele><time>2026-02-01T00:28:57.000Z</time></trkpt>
        <trkpt lat="29.5071681" lon="103.3253185"><ele>2915.42</ele><time>2026-02-01T00:29:07.000Z</time></trkpt>
        <trkpt lat="29.5071654" lon="103.3252636"><ele>2914.14</ele><time>2026-02-01T00:29:11.000Z</time></trkpt>
        <trkpt lat="29.5071598" lon="103.3252111"><ele>2913.08</ele><time>2026-02-01T00:29:19.000Z</time></trkpt>
        <trkpt lat="29.5071577" lon="103.3251468"><ele>2912</ele><time>2026-02-01T00:29:28.000Z</time></trkpt>
        <trkpt lat="29.5071667" lon="103.3250714"><ele>2911.14</ele><time>2026-02-01T00:29:35.000Z</time></trkpt>
        <trkpt lat="29.5071658" lon="103.3250078"><ele>2910.13</ele><time>2026-02-01T00:29:39.000Z</time></trkpt>
        <trkpt lat="29.5071639" lon="103.3249523"><ele>2909.34</ele><time>2026-02-01T00:29:47.000Z</time></trkpt>
        <trkpt lat="29.5071719" lon="103.324902"><ele>2907.74</ele><time>2026-02-01T00:29:53.000Z</time></trkpt>
        <trkpt lat="29.5071781" lon="103.3248472"><ele>2905.07</ele><time>2026-02-01T00:29:57.000Z</time></trkpt>
        <trkpt lat="29.5071897" lon="103.3247737"><ele>2902.93</ele><time>2026-02-01T00:30:04.000Z</time></trkpt>
        <trkpt lat="29.5072023" lon="103.3247064"><ele>2901.21</ele><time>2026-02-01T00:30:08.000Z</time></trkpt>
        <trkpt lat="29.5072282" lon="103.324631"><ele>2901.42</ele><time>2026-02-01T00:30:13.000Z</time></trkpt>
        <trkpt lat="29.5072446" lon="103.3245676"><ele>2898.51</ele><time>2026-02-01T00:30:17.000Z</time></trkpt>
        <trkpt lat="29.5072352" lon="103.3245115"><ele>2896.83</ele><time>2026-02-01T00:30:21.000Z</time></trkpt>
        <trkpt lat="29.5072284" lon="103.3244579"><ele>2896.07</ele><time>2026-02-01T00:30:25.000Z</time></trkpt>
        <trkpt lat="29.5072547" lon="103.324407"><ele>2895.76</ele><time>2026-02-01T00:30:31.000Z</time></trkpt>
        <trkpt lat="29.5072476" lon="103.3243453"><ele>2895.41</ele><time>2026-02-01T00:30:39.000Z</time></trkpt>
        <trkpt lat="29.5072648" lon="103.324293"><ele>2896.25</ele><time>2026-02-01T00:30:46.000Z</time></trkpt>
        <trkpt lat="29.5072967" lon="103.3242338"><ele>2896.66</ele><time>2026-02-01T00:30:52.000Z</time></trkpt>
        <trkpt lat="29.5073548" lon="103.3241564"><ele>2896.45</ele><time>2026-02-01T00:30:59.000Z</time></trkpt>
        <trkpt lat="29.5073889" lon="103.3240948"><ele>2895.88</ele><time>2026-02-01T00:31:01.000Z</time></trkpt>
        <trkpt lat="29.5074118" lon="103.3240388"><ele>2905.24</ele><time>2026-02-01T00:31:05.000Z</time></trkpt>
        <trkpt lat="29.5074323" lon="103.3239641"><ele>2909.55</ele><time>2026-02-01T00:31:10.000Z</time></trkpt>
        <trkpt lat="29.5074453" lon="103.3239031"><ele>2910.76</ele><time>2026-02-01T00:31:13.000Z</time></trkpt>
        <trkpt lat="29.5074706" lon="103.3238464"><ele>2911.46</ele><time>2026-02-01T00:31:17.000Z</time></trkpt>
        <trkpt lat="29.5074646" lon="103.3237826"><ele>2911.27</ele><time>2026-02-01T00:31:21.000Z</time></trkpt>
        <trkpt lat="29.5074421" lon="103.3237221"><ele>2909.66</ele><time>2026-02-01T00:31:25.000Z</time></trkpt>
        <trkpt lat="29.507404" lon="103.3236749"><ele>2907.07</ele><time>2026-02-01T00:31:31.000Z</time></trkpt>
        <trkpt lat="29.5073618" lon="103.3236431"><ele>2904.24</ele><time>2026-02-01T00:31:35.000Z</time></trkpt>
        <trkpt lat="29.507326" lon="103.3236091"><ele>2901.72</ele><time>2026-02-01T00:31:40.000Z</time></trkpt>
        <trkpt lat="29.5072907" lon="103.323571"><ele>2899.61</ele><time>2026-02-01T00:31:46.000Z</time></trkpt>
        <trkpt lat="29.5072469" lon="103.3235373"><ele>2894.68</ele><time>2026-02-01T00:31:49.000Z</time></trkpt>
        <trkpt lat="29.507201" lon="103.3235201"><ele>2891.86</ele><time>2026-02-01T00:31:53.000Z</time></trkpt>
        <trkpt lat="29.5071497" lon="103.3235044"><ele>2891.42</ele><time>2026-02-01T00:31:57.000Z</time></trkpt>
        <trkpt lat="29.5070845" lon="103.3234952"><ele>2889.96</ele><time>2026-02-01T00:32:04.000Z</time></trkpt>
        <trkpt lat="29.5070351" lon="103.3234663"><ele>2891.75</ele><time>2026-02-01T00:32:09.000Z</time></trkpt>
        <trkpt lat="29.50702" lon="103.323451"><ele>2892.41</ele><time>2026-02-01T00:32:15.000Z</time></trkpt>
        <trkpt lat="29.5069759" lon="103.3234252"><ele>2891.53</ele><time>2026-02-01T00:33:11.000Z</time></trkpt>
        <trkpt lat="29.5069442" lon="103.323373"><ele>2891.76</ele><time>2026-02-01T00:33:19.000Z</time></trkpt>
        <trkpt lat="29.506914" lon="103.3233105"><ele>2892.15</ele><time>2026-02-01T00:33:35.000Z</time></trkpt>
        <trkpt lat="29.5068758" lon="103.3232652"><ele>2892.76</ele><time>2026-02-01T00:33:41.000Z</time></trkpt>
        <trkpt lat="29.5068352" lon="103.3232317"><ele>2893.83</ele><time>2026-02-01T00:33:45.000Z</time></trkpt>
        <trkpt lat="29.5067876" lon="103.323194"><ele>2894.93</ele><time>2026-02-01T00:33:49.000Z</time></trkpt>
        <trkpt lat="29.5067536" lon="103.3231485"><ele>2897.83</ele><time>2026-02-01T00:33:53.000Z</time></trkpt>
        <trkpt lat="29.5067272" lon="103.3231012"><ele>2898.94</ele><time>2026-02-01T00:33:59.000Z</time></trkpt>
        <trkpt lat="29.5066787" lon="103.3230559"><ele>2899.83</ele><time>2026-02-01T00:34:05.000Z</time></trkpt>
        <trkpt lat="29.5066168" lon="103.3230273"><ele>2899.97</ele><time>2026-02-01T00:34:12.000Z</time></trkpt>
        <trkpt lat="29.5065624" lon="103.3230014"><ele>2899.87</ele><time>2026-02-01T00:34:16.000Z</time></trkpt>
        <trkpt lat="29.5065209" lon="103.3229719"><ele>2900.07</ele><time>2026-02-01T00:34:20.000Z</time></trkpt>
        <trkpt lat="29.5064921" lon="103.3229209"><ele>2900.42</ele><time>2026-02-01T00:34:25.000Z</time></trkpt>
        <trkpt lat="29.5064674" lon="103.3228669"><ele>2900.24</ele><time>2026-02-01T00:34:30.000Z</time></trkpt>
        <trkpt lat="29.5064449" lon="103.3228191"><ele>2900.75</ele><time>2026-02-01T00:34:32.000Z</time></trkpt>
        <trkpt lat="29.5064267" lon="103.3227593"><ele>2900.95</ele><time>2026-02-01T00:34:35.000Z</time></trkpt>
        <trkpt lat="29.5064123" lon="103.3227054"><ele>2898.58</ele><time>2026-02-01T00:34:37.000Z</time></trkpt>
        <trkpt lat="29.5063947" lon="103.3226405"><ele>2896.95</ele><time>2026-02-01T00:34:41.000Z</time></trkpt>
        <trkpt lat="29.5063764" lon="103.3225746"><ele>2895.65</ele><time>2026-02-01T00:34:48.000Z</time></trkpt>
        <trkpt lat="29.5063505" lon="103.3225229"><ele>2894.8</ele><time>2026-02-01T00:34:51.000Z</time></trkpt>
        <trkpt lat="29.5063106" lon="103.3224629"><ele>2894.3</ele><time>2026-02-01T00:34:57.000Z</time></trkpt>
        <trkpt lat="29.5062734" lon="103.3224127"><ele>2894.19</ele><time>2026-02-01T00:35:04.000Z</time></trkpt>
        <trkpt lat="29.5062654" lon="103.3223581"><ele>2889.95</ele><time>2026-02-01T00:35:09.000Z</time></trkpt>
        <trkpt lat="29.5062696" lon="103.3222952"><ele>2891.23</ele><time>2026-02-01T00:35:19.000Z</time></trkpt>
        <trkpt lat="29.5062947" lon="103.3222327"><ele>2890.43</ele><time>2026-02-01T00:35:25.000Z</time></trkpt>
        <trkpt lat="29.5063027" lon="103.3221602"><ele>2889.44</ele><time>2026-02-01T00:35:29.000Z</time></trkpt>
        <trkpt lat="29.5062931" lon="103.3220796"><ele>2890.69</ele><time>2026-02-01T00:35:33.000Z</time></trkpt>
        <trkpt lat="29.5062789" lon="103.3220093"><ele>2891.08</ele><time>2026-02-01T00:35:43.000Z</time></trkpt>
        <trkpt lat="29.5062582" lon="103.3219464"><ele>2889.75</ele><time>2026-02-01T00:35:53.000Z</time></trkpt>
        <trkpt lat="29.506234" lon="103.3218891"><ele>2886.82</ele><time>2026-02-01T00:35:59.000Z</time></trkpt>
        <trkpt lat="29.5062079" lon="103.3218356"><ele>2881.67</ele><time>2026-02-01T00:36:07.000Z</time></trkpt>
        <trkpt lat="29.5061749" lon="103.3217957"><ele>2877.46</ele><time>2026-02-01T00:36:11.000Z</time></trkpt>
        <trkpt lat="29.5061591" lon="103.3217482"><ele>2874.62</ele><time>2026-02-01T00:36:17.000Z</time></trkpt>
        <trkpt lat="29.5061509" lon="103.3216979"><ele>2871.96</ele><time>2026-02-01T00:36:27.000Z</time></trkpt>
        <trkpt lat="29.506135" lon="103.3216474"><ele>2868.93</ele><time>2026-02-01T00:36:34.000Z</time></trkpt>
        <trkpt lat="29.5060931" lon="103.3216194"><ele>2866.41</ele><time>2026-02-01T00:36:37.000Z</time></trkpt>
        <trkpt lat="29.5061114" lon="103.3215807"><ele>2864.55</ele><time>2026-02-01T00:36:47.000Z</time></trkpt>
        <trkpt lat="29.5061043" lon="103.321525"><ele>2862.19</ele><time>2026-02-01T00:36:54.000Z</time></trkpt>
        <trkpt lat="29.506107" lon="103.3214645"><ele>2859.74</ele><time>2026-02-01T00:36:58.000Z</time></trkpt>
        <trkpt lat="29.5060808" lon="103.3214061"><ele>2857.3</ele><time>2026-02-01T00:37:06.000Z</time></trkpt>
        <trkpt lat="29.5060465" lon="103.321362"><ele>2854.06</ele><time>2026-02-01T00:37:11.000Z</time></trkpt>
        <trkpt lat="29.506015" lon="103.3213169"><ele>2850.86</ele><time>2026-02-01T00:37:17.000Z</time></trkpt>
        <trkpt lat="29.505999" lon="103.3212665"><ele>2848.81</ele><time>2026-02-01T00:37:23.000Z</time></trkpt>
        <trkpt lat="29.5059926" lon="103.3212044"><ele>2847.17</ele><time>2026-02-01T00:37:35.000Z</time></trkpt>
        <trkpt lat="29.5060065" lon="103.3211423"><ele>2844.22</ele><time>2026-02-01T00:37:47.000Z</time></trkpt>
        <trkpt lat="29.5060168" lon="103.3210818"><ele>2838.34</ele><time>2026-02-01T00:37:57.000Z</time></trkpt>
        <trkpt lat="29.5060131" lon="103.3210206"><ele>2835.04</ele><time>2026-02-01T00:38:04.000Z</time></trkpt>
        <trkpt lat="29.5060013" lon="103.3209622"><ele>2833.35</ele><time>2026-02-01T00:38:09.000Z</time></trkpt>
        <trkpt lat="29.5059786" lon="103.3209122"><ele>2832.02</ele><time>2026-02-01T00:38:17.000Z</time></trkpt>
        <trkpt lat="29.5059572" lon="103.3208635"><ele>2830.63</ele><time>2026-02-01T00:38:23.000Z</time></trkpt>
        <trkpt lat="29.5059358" lon="103.3208138"><ele>2829.17</ele><time>2026-02-01T00:38:29.000Z</time></trkpt>
        <trkpt lat="29.5059234" lon="103.320758"><ele>2827.05</ele><time>2026-02-01T00:38:35.000Z</time></trkpt>
        <trkpt lat="29.5059151" lon="103.3206932"><ele>2824.96</ele><time>2026-02-01T00:38:42.000Z</time></trkpt>
        <trkpt lat="29.5059121" lon="103.3206361"><ele>2823.25</ele><time>2026-02-01T00:38:47.000Z</time></trkpt>
        <trkpt lat="29.5059214" lon="103.3205719"><ele>2821.69</ele><time>2026-02-01T00:38:54.000Z</time></trkpt>
        <trkpt lat="29.50596" lon="103.3205162"><ele>2820.61</ele><time>2026-02-01T00:38:59.000Z</time></trkpt>
        <trkpt lat="29.5059774" lon="103.3204959"><ele>2820</ele><time>2026-02-01T00:39:02.000Z</time></trkpt>
        <trkpt lat="29.5060076" lon="103.320466"><ele>2819.27</ele><time>2026-02-01T00:39:07.000Z</time></trkpt>
        <trkpt lat="29.5060251" lon="103.3204313"><ele>2813.55</ele><time>2026-02-01T00:39:09.000Z</time></trkpt>
        <trkpt lat="29.5060359" lon="103.3203665"><ele>2809.96</ele><time>2026-02-01T00:39:13.000Z</time></trkpt>
        <trkpt lat="29.5060647" lon="103.3203173"><ele>2808.1</ele><time>2026-02-01T00:39:21.000Z</time></trkpt>
        <trkpt lat="29.5061125" lon="103.3202848"><ele>2806.57</ele><time>2026-02-01T00:39:29.000Z</time></trkpt>
        <trkpt lat="29.5061616" lon="103.3202495"><ele>2805.58</ele><time>2026-02-01T00:39:35.000Z</time></trkpt>
        <trkpt lat="29.5061906" lon="103.3202034"><ele>2804.78</ele><time>2026-02-01T00:39:41.000Z</time></trkpt>
        <trkpt lat="29.5062134" lon="103.3201532"><ele>2803</ele><time>2026-02-01T00:39:53.000Z</time></trkpt>
        <trkpt lat="29.5062409" lon="103.320088"><ele>2800.6</ele><time>2026-02-01T00:39:59.000Z</time></trkpt>
        <trkpt lat="29.5062335" lon="103.3199931"><ele>2799.2</ele><time>2026-02-01T00:40:04.000Z</time></trkpt>
        <trkpt lat="29.5061986" lon="103.3199228"><ele>2798.23</ele><time>2026-02-01T00:40:06.000Z</time></trkpt>
        <trkpt lat="29.5061713" lon="103.3198786"><ele>2797.59</ele><time>2026-02-01T00:40:07.000Z</time></trkpt>
        <trkpt lat="29.5061442" lon="103.3198231"><ele>2796.74</ele><time>2026-02-01T00:40:11.000Z</time></trkpt>
        <trkpt lat="29.5061258" lon="103.3197726"><ele>2795.14</ele><time>2026-02-01T00:40:15.000Z</time></trkpt>
        <trkpt lat="29.506107" lon="103.3197055"><ele>2793.53</ele><time>2026-02-01T00:40:21.000Z</time></trkpt>
        <trkpt lat="29.5060904" lon="103.3196257"><ele>2791.76</ele><time>2026-02-01T00:40:28.000Z</time></trkpt>
        <trkpt lat="29.5060838" lon="103.3195509"><ele>2790.08</ele><time>2026-02-01T00:40:31.000Z</time></trkpt>
        <trkpt lat="29.5060515" lon="103.3195063"><ele>2788.84</ele><time>2026-02-01T00:40:41.000Z</time></trkpt>
        <trkpt lat="29.5060055" lon="103.3194759"><ele>2788.2</ele><time>2026-02-01T00:40:47.000Z</time></trkpt>
        <trkpt lat="29.5059579" lon="103.319438"><ele>2787.83</ele><time>2026-02-01T00:40:53.000Z</time></trkpt>
        <trkpt lat="29.5059068" lon="103.3194023"><ele>2787.62</ele><time>2026-02-01T00:40:59.000Z</time></trkpt>
        <trkpt lat="29.505877" lon="103.3193455"><ele>2787.5</ele><time>2026-02-01T00:41:05.000Z</time></trkpt>
        <trkpt lat="29.5058585" lon="103.3192745"><ele>2787.44</ele><time>2026-02-01T00:41:12.000Z</time></trkpt>
        <trkpt lat="29.5058543" lon="103.3191978"><ele>2787.4</ele><time>2026-02-01T00:41:17.000Z</time></trkpt>
        <trkpt lat="29.5058524" lon="103.3191591"><ele>2787.38</ele><time>2026-02-01T00:41:19.000Z</time></trkpt>
        <trkpt lat="29.505827" lon="103.3191141"><ele>2787.36</ele><time>2026-02-01T00:41:25.000Z</time></trkpt>
        <trkpt lat="29.5058473" lon="103.3189629"><ele>2787.36</ele><time>2026-02-01T00:41:30.000Z</time></trkpt>
        <trkpt lat="29.5058527" lon="103.3189067"><ele>2785.9</ele><time>2026-02-01T00:41:31.000Z</time></trkpt>
        <trkpt lat="29.5058359" lon="103.3188588"><ele>2784.84</ele><time>2026-02-01T00:41:35.000Z</time></trkpt>
        <trkpt lat="29.5058197" lon="103.3187981"><ele>2784.02</ele><time>2026-02-01T00:41:41.000Z</time></trkpt>
        <trkpt lat="29.5057822" lon="103.3187437"><ele>2783.22</ele><time>2026-02-01T00:41:47.000Z</time></trkpt>
        <trkpt lat="29.5057299" lon="103.3186943"><ele>2782.17</ele><time>2026-02-01T00:41:53.000Z</time></trkpt>
        <trkpt lat="29.5056882" lon="103.3186482"><ele>2781.6</ele><time>2026-02-01T00:41:59.000Z</time></trkpt>
        <trkpt lat="29.5056477" lon="103.3185802"><ele>2781.06</ele><time>2026-02-01T00:42:05.000Z</time></trkpt>
        <trkpt lat="29.505624" lon="103.3185217"><ele>2781.02</ele><time>2026-02-01T00:42:09.000Z</time></trkpt>
        <trkpt lat="29.505602" lon="103.3184647"><ele>2781.13</ele><time>2026-02-01T00:42:13.000Z</time></trkpt>
        <trkpt lat="29.5055627" lon="103.3184441"><ele>2780.85</ele><time>2026-02-01T00:42:21.000Z</time></trkpt>
        <trkpt lat="29.5054951" lon="103.318424"><ele>2780.07</ele><time>2026-02-01T00:42:27.000Z</time></trkpt>
        <trkpt lat="29.505431" lon="103.3183974"><ele>2779.47</ele><time>2026-02-01T00:42:33.000Z</time></trkpt>
        <trkpt lat="29.5053901" lon="103.3183412"><ele>2777.31</ele><time>2026-02-01T00:42:39.000Z</time></trkpt>
        <trkpt lat="29.5053553" lon="103.3182759"><ele>2776.85</ele><time>2026-02-01T00:42:45.000Z</time></trkpt>
        <trkpt lat="29.5053362" lon="103.3182116"><ele>2770.85</ele><time>2026-02-01T00:42:52.000Z</time></trkpt>
        <trkpt lat="29.5053207" lon="103.3181557"><ele>2766.37</ele><time>2026-02-01T00:42:57.000Z</time></trkpt>
        <trkpt lat="29.5053086" lon="103.3180999"><ele>2763.39</ele><time>2026-02-01T00:43:03.000Z</time></trkpt>
        <trkpt lat="29.5053038" lon="103.318044"><ele>2761.52</ele><time>2026-02-01T00:43:10.000Z</time></trkpt>
        <trkpt lat="29.5053048" lon="103.3179856"><ele>2760.16</ele><time>2026-02-01T00:43:13.000Z</time></trkpt>
        <trkpt lat="29.505323" lon="103.3179137"><ele>2759.17</ele><time>2026-02-01T00:43:23.000Z</time></trkpt>
        <trkpt lat="29.5053254" lon="103.317849"><ele>2758.25</ele><time>2026-02-01T00:43:29.000Z</time></trkpt>
        <trkpt lat="29.5053085" lon="103.3177978"><ele>2757.7</ele><time>2026-02-01T00:43:33.000Z</time></trkpt>
        <trkpt lat="29.5053015" lon="103.3177471"><ele>2757.5</ele><time>2026-02-01T00:43:39.000Z</time></trkpt>
        <trkpt lat="29.5052918" lon="103.3176961"><ele>2758.42</ele><time>2026-02-01T00:43:44.000Z</time></trkpt>
        <trkpt lat="29.5052631" lon="103.3176498"><ele>2757.74</ele><time>2026-02-01T00:43:49.000Z</time></trkpt>
        <trkpt lat="29.505242" lon="103.3175916"><ele>2755.9</ele><time>2026-02-01T00:43:57.000Z</time></trkpt>
        <trkpt lat="29.5052297" lon="103.3175355"><ele>2754.87</ele><time>2026-02-01T00:44:04.000Z</time></trkpt>
        <trkpt lat="29.5052335" lon="103.3174814"><ele>2754.29</ele><time>2026-02-01T00:44:09.000Z</time></trkpt>
        <trkpt lat="29.5052583" lon="103.3174302"><ele>2753.95</ele><time>2026-02-01T00:44:15.000Z</time></trkpt>
        <trkpt lat="29.505263" lon="103.3173723"><ele>2750.64</ele><time>2026-02-01T00:44:26.000Z</time></trkpt>
        <trkpt lat="29.5052879" lon="103.3173191"><ele>2746.95</ele><time>2026-02-01T00:44:33.000Z</time></trkpt>
        <trkpt lat="29.5053157" lon="103.3172602"><ele>2744.83</ele><time>2026-02-01T00:44:43.000Z</time></trkpt>
        <trkpt lat="29.5053541" lon="103.3172166"><ele>2742.7</ele><time>2026-02-01T00:44:52.000Z</time></trkpt>
        <trkpt lat="29.5053806" lon="103.317172"><ele>2740.39</ele><time>2026-02-01T00:44:59.000Z</time></trkpt>
        <trkpt lat="29.5054078" lon="103.3171241"><ele>2738.81</ele><time>2026-02-01T00:45:11.000Z</time></trkpt>
        <trkpt lat="29.5054319" lon="103.3170674"><ele>2736.5</ele><time>2026-02-01T00:45:19.000Z</time></trkpt>
        <trkpt lat="29.5054343" lon="103.3169999"><ele>2733.67</ele><time>2026-02-01T00:45:25.000Z</time></trkpt>
        <trkpt lat="29.5054188" lon="103.3169368"><ele>2731.38</ele><time>2026-02-01T00:45:32.000Z</time></trkpt>
        <trkpt lat="29.5053993" lon="103.3168813"><ele>2729.62</ele><time>2026-02-01T00:45:40.000Z</time></trkpt>
        <trkpt lat="29.5053848" lon="103.3168255"><ele>2730.01</ele><time>2026-02-01T00:45:47.000Z</time></trkpt>
        <trkpt lat="29.5054012" lon="103.316781"><ele>2729.83</ele><time>2026-02-01T00:45:58.000Z</time></trkpt>
        <trkpt lat="29.5053792" lon="103.3167214"><ele>2725.71</ele><time>2026-02-01T00:46:03.000Z</time></trkpt>
        <trkpt lat="29.5053499" lon="103.316673"><ele>2731.34</ele><time>2026-02-01T00:46:08.000Z</time></trkpt>
        <trkpt lat="29.5053104" lon="103.3166063"><ele>2733.35</ele><time>2026-02-01T00:46:19.000Z</time></trkpt>
        <trkpt lat="29.5053006" lon="103.3165682"><ele>2732.77</ele><time>2026-02-01T00:46:21.000Z</time></trkpt>
        <trkpt lat="29.5052934" lon="103.3165214"><ele>2731.65</ele><time>2026-02-01T00:46:29.000Z</time></trkpt>
        <trkpt lat="29.5052833" lon="103.316481"><ele>2730.15</ele><time>2026-02-01T00:46:37.000Z</time></trkpt>
        <trkpt lat="29.5052536" lon="103.3164414"><ele>2723.17</ele><time>2026-02-01T00:46:51.000Z</time></trkpt>
        <trkpt lat="29.5052101" lon="103.316403"><ele>2718.93</ele><time>2026-02-01T00:46:57.000Z</time></trkpt>
        <trkpt lat="29.505152" lon="103.3163784"><ele>2715.17</ele><time>2026-02-01T00:47:01.000Z</time></trkpt>
        <trkpt lat="29.5050983" lon="103.3163561"><ele>2714.52</ele><time>2026-02-01T00:47:10.000Z</time></trkpt>
        <trkpt lat="29.5050476" lon="103.3163405"><ele>2713.45</ele><time>2026-02-01T00:47:16.000Z</time></trkpt>
        <trkpt lat="29.5049927" lon="103.3163284"><ele>2712.5</ele><time>2026-02-01T00:47:25.000Z</time></trkpt>
        <trkpt lat="29.5049426" lon="103.3163205"><ele>2710.53</ele><time>2026-02-01T00:47:32.000Z</time></trkpt>
        <trkpt lat="29.5048974" lon="103.3163005"><ele>2708.64</ele><time>2026-02-01T00:47:40.000Z</time></trkpt>
        <trkpt lat="29.504857" lon="103.3162712"><ele>2706.6</ele><time>2026-02-01T00:47:46.000Z</time></trkpt>
        <trkpt lat="29.5048217" lon="103.3162192"><ele>2704.26</ele><time>2026-02-01T00:47:51.000Z</time></trkpt>
        <trkpt lat="29.5047819" lon="103.3161825"><ele>2701.81</ele><time>2026-02-01T00:47:55.000Z</time></trkpt>
        <trkpt lat="29.5047376" lon="103.3161488"><ele>2699.7</ele><time>2026-02-01T00:48:01.000Z</time></trkpt>
        <trkpt lat="29.5046985" lon="103.3161136"><ele>2697.77</ele><time>2026-02-01T00:48:06.000Z</time></trkpt>
        <trkpt lat="29.5046478" lon="103.3160823"><ele>2696.19</ele><time>2026-02-01T00:48:09.000Z</time></trkpt>
        <trkpt lat="29.5045921" lon="103.3160301"><ele>2694.63</ele><time>2026-02-01T00:48:16.000Z</time></trkpt>
        <trkpt lat="29.5045577" lon="103.3159788"><ele>2692.82</ele><time>2026-02-01T00:48:20.000Z</time></trkpt>
        <trkpt lat="29.5045569" lon="103.3159565"><ele>2691.69</ele><time>2026-02-01T00:48:29.000Z</time></trkpt>
        <trkpt lat="29.5045265" lon="103.3159546"><ele>2687.54</ele><time>2026-02-01T00:49:03.000Z</time></trkpt>
        <trkpt lat="29.5045097" lon="103.3159114"><ele>2684.5</ele><time>2026-02-01T00:49:17.000Z</time></trkpt>
        <trkpt lat="29.5044843" lon="103.3158579"><ele>2683.02</ele><time>2026-02-01T00:49:23.000Z</time></trkpt>
        <trkpt lat="29.5044601" lon="103.3157974"><ele>2682.05</ele><time>2026-02-01T00:49:33.000Z</time></trkpt>
        <trkpt lat="29.5044344" lon="103.3157423"><ele>2681.96</ele><time>2026-02-01T00:49:47.000Z</time></trkpt>
        <trkpt lat="29.50441" lon="103.3156858"><ele>2682.08</ele><time>2026-02-01T00:50:27.000Z</time></trkpt>
        <trkpt lat="29.5043892" lon="103.3156311"><ele>2682.65</ele><time>2026-02-01T00:50:39.000Z</time></trkpt>
        <trkpt lat="29.5043624" lon="103.3155695"><ele>2683.33</ele><time>2026-02-01T00:50:55.000Z</time></trkpt>
        <trkpt lat="29.504341" lon="103.3155153"><ele>2684.61</ele><time>2026-02-01T00:50:59.000Z</time></trkpt>
        <trkpt lat="29.5043145" lon="103.3154634"><ele>2685.73</ele><time>2026-02-01T00:51:07.000Z</time></trkpt>
        <trkpt lat="29.5042857" lon="103.3154118"><ele>2686.17</ele><time>2026-02-01T00:51:13.000Z</time></trkpt>
        <trkpt lat="29.5042575" lon="103.3153599"><ele>2686.79</ele><time>2026-02-01T00:51:21.000Z</time></trkpt>
        <trkpt lat="29.5042377" lon="103.3153066"><ele>2688.22</ele><time>2026-02-01T00:51:53.000Z</time></trkpt>
        <trkpt lat="29.5042099" lon="103.3152553"><ele>2689.47</ele><time>2026-02-01T00:52:01.000Z</time></trkpt>
        <trkpt lat="29.5041801" lon="103.3152091"><ele>2689.91</ele><time>2026-02-01T00:52:05.000Z</time></trkpt>
        <trkpt lat="29.5041397" lon="103.3151734"><ele>2690.28</ele><time>2026-02-01T00:52:10.000Z</time></trkpt>
        <trkpt lat="29.5040896" lon="103.3151489"><ele>2690.91</ele><time>2026-02-01T00:52:16.000Z</time></trkpt>
        <trkpt lat="29.5040172" lon="103.3151084"><ele>2691.82</ele><time>2026-02-01T00:52:22.000Z</time></trkpt>
        <trkpt lat="29.5039589" lon="103.3150456"><ele>2693.02</ele><time>2026-02-01T00:52:35.000Z</time></trkpt>
        <trkpt lat="29.5039103" lon="103.3149931"><ele>2693.67</ele><time>2026-02-01T00:52:40.000Z</time></trkpt>
        <trkpt lat="29.5038729" lon="103.3149479"><ele>2694.46</ele><time>2026-02-01T00:52:44.000Z</time></trkpt>
        <trkpt lat="29.5038204" lon="103.3149162"><ele>2694.6</ele><time>2026-02-01T00:52:48.000Z</time></trkpt>
        <trkpt lat="29.5037572" lon="103.3148985"><ele>2693.98</ele><time>2026-02-01T00:52:53.000Z</time></trkpt>
        <trkpt lat="29.5036942" lon="103.3148848"><ele>2693.53</ele><time>2026-02-01T00:52:59.000Z</time></trkpt>
        <trkpt lat="29.5036484" lon="103.3148597"><ele>2691.08</ele><time>2026-02-01T00:53:04.000Z</time></trkpt>
        <trkpt lat="29.5036129" lon="103.3147871"><ele>2689.86</ele><time>2026-02-01T00:53:10.000Z</time></trkpt>
        <trkpt lat="29.5035991" lon="103.3147499"><ele>2688.12</ele><time>2026-02-01T00:53:12.000Z</time></trkpt>
        <trkpt lat="29.5035949" lon="103.3146909"><ele>2686.75</ele><time>2026-02-01T00:53:19.000Z</time></trkpt>
        <trkpt lat="29.5035816" lon="103.3146722"><ele>2689.09</ele><time>2026-02-01T00:53:25.000Z</time></trkpt>
        <trkpt lat="29.5035637" lon="103.3146324"><ele>2685.86</ele><time>2026-02-01T00:53:49.000Z</time></trkpt>
        <trkpt lat="29.5035493" lon="103.3145801"><ele>2683.42</ele><time>2026-02-01T00:53:54.000Z</time></trkpt>
        <trkpt lat="29.5035338" lon="103.3145176"><ele>2681.63</ele><time>2026-02-01T00:54:00.000Z</time></trkpt>
        <trkpt lat="29.5035137" lon="103.3144415"><ele>2675.62</ele><time>2026-02-01T00:54:04.000Z</time></trkpt>
        <trkpt lat="29.5034973" lon="103.3143823"><ele>2671.65</ele><time>2026-02-01T00:54:07.000Z</time></trkpt>
        <trkpt lat="29.5034667" lon="103.3143339"><ele>2670.99</ele><time>2026-02-01T00:54:13.000Z</time></trkpt>
        <trkpt lat="29.5034594" lon="103.3142777"><ele>2671.31</ele><time>2026-02-01T00:54:24.000Z</time></trkpt>
        <trkpt lat="29.5034136" lon="103.3142455"><ele>2671.49</ele><time>2026-02-01T00:54:27.000Z</time></trkpt>
        <trkpt lat="29.5033889" lon="103.3141671"><ele>2671.18</ele><time>2026-02-01T00:54:32.000Z</time></trkpt>
        <trkpt lat="29.503369" lon="103.3141033"><ele>2670.01</ele><time>2026-02-01T00:54:36.000Z</time></trkpt>
        <trkpt lat="29.5033478" lon="103.3140313"><ele>2668.67</ele><time>2026-02-01T00:54:42.000Z</time></trkpt>
        <trkpt lat="29.5033424" lon="103.313965"><ele>2667.06</ele><time>2026-02-01T00:54:46.000Z</time></trkpt>
        <trkpt lat="29.5033286" lon="103.3138981"><ele>2665.85</ele><time>2026-02-01T00:54:49.000Z</time></trkpt>
        <trkpt lat="29.5033087" lon="103.3138273"><ele>2664.91</ele><time>2026-02-01T00:54:53.000Z</time></trkpt>
        <trkpt lat="29.503296" lon="103.313767"><ele>2664.21</ele><time>2026-02-01T00:55:00.000Z</time></trkpt>
        <trkpt lat="29.5033041" lon="103.3137052"><ele>2663.38</ele><time>2026-02-01T00:55:04.000Z</time></trkpt>
        <trkpt lat="29.5033029" lon="103.3136442"><ele>2662.46</ele><time>2026-02-01T00:55:08.000Z</time></trkpt>
        <trkpt lat="29.5032932" lon="103.3135775"><ele>2661.61</ele><time>2026-02-01T00:55:13.000Z</time></trkpt>
        <trkpt lat="29.5032805" lon="103.3135161"><ele>2660.31</ele><time>2026-02-01T00:55:17.000Z</time></trkpt>
        <trkpt lat="29.5032693" lon="103.3134484"><ele>2659.47</ele><time>2026-02-01T00:55:22.000Z</time></trkpt>
        <trkpt lat="29.5032599" lon="103.313375"><ele>2658.46</ele><time>2026-02-01T00:55:28.000Z</time></trkpt>
        <trkpt lat="29.5032513" lon="103.3133384"><ele>2657.07</ele><time>2026-02-01T00:55:33.000Z</time></trkpt>
        <trkpt lat="29.5032609" lon="103.3132813"><ele>2652.47</ele><time>2026-02-01T00:55:43.000Z</time></trkpt>
        <trkpt lat="29.503262" lon="103.3132227"><ele>2650.03</ele><time>2026-02-01T00:55:47.000Z</time></trkpt>
        <trkpt lat="29.5032478" lon="103.3131697"><ele>2648.27</ele><time>2026-02-01T00:55:52.000Z</time></trkpt>
        <trkpt lat="29.5031987" lon="103.313127"><ele>2647.07</ele><time>2026-02-01T00:55:58.000Z</time></trkpt>
        <trkpt lat="29.5031386" lon="103.3130968"><ele>2649.16</ele><time>2026-02-01T00:56:02.000Z</time></trkpt>
        <trkpt lat="29.503079" lon="103.313087"><ele>2649.58</ele><time>2026-02-01T00:56:08.000Z</time></trkpt>
        <trkpt lat="29.5030195" lon="103.3130817"><ele>2648.97</ele><time>2026-02-01T00:56:16.000Z</time></trkpt>
        <trkpt lat="29.5029674" lon="103.3130761"><ele>2648.19</ele><time>2026-02-01T00:56:19.000Z</time></trkpt>
        <trkpt lat="29.5029192" lon="103.3130487"><ele>2647.39</ele><time>2026-02-01T00:56:26.000Z</time></trkpt>
        <trkpt lat="29.502888" lon="103.3129988"><ele>2646.28</ele><time>2026-02-01T00:56:31.000Z</time></trkpt>
        <trkpt lat="29.5028766" lon="103.3129253"><ele>2644.55</ele><time>2026-02-01T00:56:38.000Z</time></trkpt>
        <trkpt lat="29.5028668" lon="103.3128615"><ele>2642.31</ele><time>2026-02-01T00:56:41.000Z</time></trkpt>
        <trkpt lat="29.5028546" lon="103.3128076"><ele>2640.36</ele><time>2026-02-01T00:56:45.000Z</time></trkpt>
        <trkpt lat="29.5028381" lon="103.3127531"><ele>2638.62</ele><time>2026-02-01T00:56:52.000Z</time></trkpt>
        <trkpt lat="29.5028268" lon="103.3126924"><ele>2636.52</ele><time>2026-02-01T00:57:04.000Z</time></trkpt>
        <trkpt lat="29.5028262" lon="103.3126309"><ele>2634.04</ele><time>2026-02-01T00:57:08.000Z</time></trkpt>
        <trkpt lat="29.5028274" lon="103.3125693"><ele>2632.44</ele><time>2026-02-01T00:57:13.000Z</time></trkpt>
        <trkpt lat="29.5028273" lon="103.3125062"><ele>2630.84</ele><time>2026-02-01T00:57:19.000Z</time></trkpt>
        <trkpt lat="29.5028268" lon="103.3124508"><ele>2629.72</ele><time>2026-02-01T00:57:37.000Z</time></trkpt>
        <trkpt lat="29.5028141" lon="103.3123936"><ele>2622.89</ele><time>2026-02-01T00:57:41.000Z</time></trkpt>
        <trkpt lat="29.5028056" lon="103.3123401"><ele>2618.29</ele><time>2026-02-01T00:57:46.000Z</time></trkpt>
        <trkpt lat="29.5028099" lon="103.3123055"><ele>2616.36</ele><time>2026-02-01T00:57:48.000Z</time></trkpt>
        <trkpt lat="29.5028425" lon="103.3122648"><ele>2614.48</ele><time>2026-02-01T00:57:52.000Z</time></trkpt>
        <trkpt lat="29.5028745" lon="103.3122108"><ele>2614.06</ele><time>2026-02-01T00:57:57.000Z</time></trkpt>
        <trkpt lat="29.5029137" lon="103.3121747"><ele>2612.65</ele><time>2026-02-01T00:58:15.000Z</time></trkpt>
        <trkpt lat="29.5029377" lon="103.3120932"><ele>2611.37</ele><time>2026-02-01T00:58:23.000Z</time></trkpt>
        <trkpt lat="29.5029343" lon="103.3120077"><ele>2610.07</ele><time>2026-02-01T00:58:28.000Z</time></trkpt>
        <trkpt lat="29.5029234" lon="103.3119312"><ele>2608.15</ele><time>2026-02-01T00:58:31.000Z</time></trkpt>
        <trkpt lat="29.5029088" lon="103.3118642"><ele>2606.87</ele><time>2026-02-01T00:58:37.000Z</time></trkpt>
        <trkpt lat="29.5029066" lon="103.3118087"><ele>2606.17</ele><time>2026-02-01T00:58:46.000Z</time></trkpt>
        <trkpt lat="29.502914" lon="103.3117585"><ele>2605.13</ele><time>2026-02-01T00:58:55.000Z</time></trkpt>
        <trkpt lat="29.5029251" lon="103.311707"><ele>2603.74</ele><time>2026-02-01T00:58:59.000Z</time></trkpt>
        <trkpt lat="29.5029375" lon="103.3116522"><ele>2602.5</ele><time>2026-02-01T00:59:06.000Z</time></trkpt>
        <trkpt lat="29.5029538" lon="103.3115979"><ele>2601.01</ele><time>2026-02-01T00:59:16.000Z</time></trkpt>
        <trkpt lat="29.5029678" lon="103.3115352"><ele>2596.43</ele><time>2026-02-01T00:59:22.000Z</time></trkpt>
        <trkpt lat="29.5029904" lon="103.3114738"><ele>2595.07</ele><time>2026-02-01T00:59:25.000Z</time></trkpt>
        <trkpt lat="29.5030221" lon="103.3114264"><ele>2593.31</ele><time>2026-02-01T00:59:33.000Z</time></trkpt>
        <trkpt lat="29.5030462" lon="103.3113742"><ele>2590.63</ele><time>2026-02-01T00:59:40.000Z</time></trkpt>
        <trkpt lat="29.5030827" lon="103.3113264"><ele>2588.23</ele><time>2026-02-01T00:59:45.000Z</time></trkpt>
        <trkpt lat="29.5031023" lon="103.3112642"><ele>2586.26</ele><time>2026-02-01T01:00:01.000Z</time></trkpt>
        <trkpt lat="29.5031295" lon="103.3112064"><ele>2585.17</ele><time>2026-02-01T01:00:09.000Z</time></trkpt>
        <trkpt lat="29.5031418" lon="103.3111417"><ele>2584.11</ele><time>2026-02-01T01:00:18.000Z</time></trkpt>
        <trkpt lat="29.5031738" lon="103.311095"><ele>2582.66</ele><time>2026-02-01T01:00:23.000Z</time></trkpt>
        <trkpt lat="29.5032208" lon="103.3110528"><ele>2581.24</ele><time>2026-02-01T01:00:30.000Z</time></trkpt>
        <trkpt lat="29.5032624" lon="103.3110204"><ele>2579.78</ele><time>2026-02-01T01:00:36.000Z</time></trkpt>
        <trkpt lat="29.5033039" lon="103.310977"><ele>2578.19</ele><time>2026-02-01T01:00:43.000Z</time></trkpt>
        <trkpt lat="29.5033435" lon="103.3109244"><ele>2576.04</ele><time>2026-02-01T01:00:52.000Z</time></trkpt>
        <trkpt lat="29.5033806" lon="103.3108853"><ele>2572.94</ele><time>2026-02-01T01:01:03.000Z</time></trkpt>
        <trkpt lat="29.5034359" lon="103.3108577"><ele>2569.21</ele><time>2026-02-01T01:01:10.000Z</time></trkpt>
        <trkpt lat="29.5034899" lon="103.3108451"><ele>2565.64</ele><time>2026-02-01T01:01:21.000Z</time></trkpt>
        <trkpt lat="29.5035303" lon="103.3108127"><ele>2562.53</ele><time>2026-02-01T01:01:38.000Z</time></trkpt>
        <trkpt lat="29.5035523" lon="103.3107583"><ele>2559.71</ele><time>2026-02-01T01:01:52.000Z</time></trkpt>
        <trkpt lat="29.5035598" lon="103.3106904"><ele>2558.11</ele><time>2026-02-01T01:01:57.000Z</time></trkpt>
        <trkpt lat="29.5035755" lon="103.3106177"><ele>2556.11</ele><time>2026-02-01T01:02:02.000Z</time></trkpt>
        <trkpt lat="29.5035845" lon="103.3105567"><ele>2553.46</ele><time>2026-02-01T01:02:07.000Z</time></trkpt>
        <trkpt lat="29.5035855" lon="103.3104984"><ele>2550.5</ele><time>2026-02-01T01:02:11.000Z</time></trkpt>
        <trkpt lat="29.5035755" lon="103.3104467"><ele>2548.25</ele><time>2026-02-01T01:02:16.000Z</time></trkpt>
        <trkpt lat="29.503545" lon="103.3104086"><ele>2546.53</ele><time>2026-02-01T01:02:22.000Z</time></trkpt>
        <trkpt lat="29.5035056" lon="103.3103672"><ele>2544.92</ele><time>2026-02-01T01:02:30.000Z</time></trkpt>
        <trkpt lat="29.5034569" lon="103.3103148"><ele>2543.17</ele><time>2026-02-01T01:02:35.000Z</time></trkpt>
        <trkpt lat="29.5034186" lon="103.3102558"><ele>2541.56</ele><time>2026-02-01T01:02:41.000Z</time></trkpt>
        <trkpt lat="29.5034046" lon="103.3101976"><ele>2539.85</ele><time>2026-02-01T01:02:45.000Z</time></trkpt>
        <trkpt lat="29.5034266" lon="103.310137"><ele>2538.27</ele><time>2026-02-01T01:02:51.000Z</time></trkpt>
        <trkpt lat="29.5034479" lon="103.3100783"><ele>2536.46</ele><time>2026-02-01T01:02:55.000Z</time></trkpt>
        <trkpt lat="29.5034473" lon="103.3100204"><ele>2534.57</ele><time>2026-02-01T01:03:02.000Z</time></trkpt>
        <trkpt lat="29.5034299" lon="103.30996"><ele>2532.81</ele><time>2026-02-01T01:03:06.000Z</time></trkpt>
        <trkpt lat="29.5034058" lon="103.3099057"><ele>2531.37</ele><time>2026-02-01T01:03:11.000Z</time></trkpt>
        <trkpt lat="29.5034108" lon="103.3098459"><ele>2530.53</ele><time>2026-02-01T01:03:19.000Z</time></trkpt>
        <trkpt lat="29.5034411" lon="103.309805"><ele>2523.55</ele><time>2026-02-01T01:03:25.000Z</time></trkpt>
        <trkpt lat="29.5034794" lon="103.3097587"><ele>2518.64</ele><time>2026-02-01T01:03:36.000Z</time></trkpt>
        <trkpt lat="29.503504" lon="103.3097113"><ele>2515.84</ele><time>2026-02-01T01:03:43.000Z</time></trkpt>
        <trkpt lat="29.5035438" lon="103.3096668"><ele>2514.24</ele><time>2026-02-01T01:03:52.000Z</time></trkpt>
        <trkpt lat="29.503556" lon="103.3096135"><ele>2513.34</ele><time>2026-02-01T01:03:58.000Z</time></trkpt>
        <trkpt lat="29.5035456" lon="103.3095605"><ele>2512.82</ele><time>2026-02-01T01:04:05.000Z</time></trkpt>
        <trkpt lat="29.5035294" lon="103.309507"><ele>2512.52</ele><time>2026-02-01T01:04:11.000Z</time></trkpt>
        <trkpt lat="29.503524" lon="103.3094542"><ele>2512.35</ele><time>2026-02-01T01:04:17.000Z</time></trkpt>
        <trkpt lat="29.50355" lon="103.3093864"><ele>2512.26</ele><time>2026-02-01T01:04:22.000Z</time></trkpt>
        <trkpt lat="29.5035659" lon="103.3093208"><ele>2521.91</ele><time>2026-02-01T01:04:25.000Z</time></trkpt>
        <trkpt lat="29.5035694" lon="103.3092509"><ele>2525.21</ele><time>2026-02-01T01:04:31.000Z</time></trkpt>
        <trkpt lat="29.5035708" lon="103.3091897"><ele>2523.89</ele><time>2026-02-01T01:04:37.000Z</time></trkpt>
        <trkpt lat="29.5036032" lon="103.3091448"><ele>2520.54</ele><time>2026-02-01T01:04:43.000Z</time></trkpt>
        <trkpt lat="29.5036141" lon="103.3090934"><ele>2508.18</ele><time>2026-02-01T01:04:51.000Z</time></trkpt>
        <trkpt lat="29.5036141" lon="103.3090363"><ele>2502.64</ele><time>2026-02-01T01:05:02.000Z</time></trkpt>
        <trkpt lat="29.5036083" lon="103.3089822"><ele>2499.5</ele><time>2026-02-01T01:05:09.000Z</time></trkpt>
        <trkpt lat="29.5036178" lon="103.3089212"><ele>2497.86</ele><time>2026-02-01T01:05:17.000Z</time></trkpt>
        <trkpt lat="29.5036118" lon="103.3088599"><ele>2496.81</ele><time>2026-02-01T01:05:25.000Z</time></trkpt>
        <trkpt lat="29.5036237" lon="103.3088072"><ele>2496.13</ele><time>2026-02-01T01:05:29.000Z</time></trkpt>
        <trkpt lat="29.5035943" lon="103.3087631"><ele>2489.59</ele><time>2026-02-01T01:05:35.000Z</time></trkpt>
        <trkpt lat="29.50358" lon="103.3087146"><ele>2498.35</ele><time>2026-02-01T01:05:43.000Z</time></trkpt>
        <trkpt lat="29.5035751" lon="103.3086633"><ele>2499.79</ele><time>2026-02-01T01:05:51.000Z</time></trkpt>
        <trkpt lat="29.5035571" lon="103.308606"><ele>2497.76</ele><time>2026-02-01T01:06:02.000Z</time></trkpt>
        <trkpt lat="29.5035435" lon="103.3085743"><ele>2495.97</ele><time>2026-02-01T01:06:12.000Z</time></trkpt>
        <trkpt lat="29.5035283" lon="103.3085182"><ele>2485.6</ele><time>2026-02-01T01:06:16.000Z</time></trkpt>
        <trkpt lat="29.5035298" lon="103.3084557"><ele>2479.49</ele><time>2026-02-01T01:06:39.000Z</time></trkpt>
        <trkpt lat="29.5035332" lon="103.3083982"><ele>2475.39</ele><time>2026-02-01T01:06:49.000Z</time></trkpt>
        <trkpt lat="29.5035575" lon="103.3083466"><ele>2472.8</ele><time>2026-02-01T01:06:57.000Z</time></trkpt>
        <trkpt lat="29.5036052" lon="103.3083215"><ele>2470.12</ele><time>2026-02-01T01:07:05.000Z</time></trkpt>
        <trkpt lat="29.5036584" lon="103.3083063"><ele>2468</ele><time>2026-02-01T01:07:11.000Z</time></trkpt>
        <trkpt lat="29.5037069" lon="103.3082907"><ele>2466.06</ele><time>2026-02-01T01:07:15.000Z</time></trkpt>
        <trkpt lat="29.5037451" lon="103.3082521"><ele>2464.51</ele><time>2026-02-01T01:07:23.000Z</time></trkpt>
        <trkpt lat="29.5037601" lon="103.3081924"><ele>2462.38</ele><time>2026-02-01T01:07:37.000Z</time></trkpt>
        <trkpt lat="29.5037653" lon="103.3081314"><ele>2460.41</ele><time>2026-02-01T01:07:46.000Z</time></trkpt>
        <trkpt lat="29.5037924" lon="103.3080759"><ele>2458.57</ele><time>2026-02-01T01:07:51.000Z</time></trkpt>
        <trkpt lat="29.5038201" lon="103.3080253"><ele>2456.35</ele><time>2026-02-01T01:07:57.000Z</time></trkpt>
        <trkpt lat="29.5038399" lon="103.3079696"><ele>2453.62</ele><time>2026-02-01T01:08:04.000Z</time></trkpt>
        <trkpt lat="29.5038503" lon="103.307908"><ele>2451.09</ele><time>2026-02-01T01:08:15.000Z</time></trkpt>
        <trkpt lat="29.503855" lon="103.3078503"><ele>2448.69</ele><time>2026-02-01T01:08:22.000Z</time></trkpt>
        <trkpt lat="29.5038577" lon="103.3077933"><ele>2446.77</ele><time>2026-02-01T01:08:27.000Z</time></trkpt>
        <trkpt lat="29.5038628" lon="103.307734"><ele>2444.56</ele><time>2026-02-01T01:08:37.000Z</time></trkpt>
        <trkpt lat="29.5038603" lon="103.3076788"><ele>2441.75</ele><time>2026-02-01T01:08:45.000Z</time></trkpt>
        <trkpt lat="29.5038414" lon="103.3076256"><ele>2439.45</ele><time>2026-02-01T01:08:53.000Z</time></trkpt>
        <trkpt lat="29.5038718" lon="103.3075864"><ele>2436.52</ele><time>2026-02-01T01:09:04.000Z</time></trkpt>
        <trkpt lat="29.5039027" lon="103.3075381"><ele>2432.99</ele><time>2026-02-01T01:09:16.000Z</time></trkpt>
        <trkpt lat="29.5039449" lon="103.3075052"><ele>2429.15</ele><time>2026-02-01T01:09:25.000Z</time></trkpt>
        <trkpt lat="29.5039853" lon="103.3074743"><ele>2425.63</ele><time>2026-02-01T01:10:03.000Z</time></trkpt>
        <trkpt lat="29.5040226" lon="103.3074383"><ele>2422.52</ele><time>2026-02-01T01:10:10.000Z</time></trkpt>
        <trkpt lat="29.5040456" lon="103.3073881"><ele>2418.69</ele><time>2026-02-01T01:10:19.000Z</time></trkpt>
        <trkpt lat="29.5040647" lon="103.3073336"><ele>2413.93</ele><time>2026-02-01T01:10:29.000Z</time></trkpt>
        <trkpt lat="29.5040892" lon="103.3072863"><ele>2409.46</ele><time>2026-02-01T01:10:37.000Z</time></trkpt>
        <trkpt lat="29.5041092" lon="103.3072366"><ele>2406.19</ele><time>2026-02-01T01:10:53.000Z</time></trkpt>
        <trkpt lat="29.5041313" lon="103.3071905"><ele>2403.24</ele><time>2026-02-01T01:13:49.000Z</time></trkpt>
        <trkpt lat="29.5041292" lon="103.3071202"><ele>2400.74</ele><time>2026-02-01T01:13:57.000Z</time></trkpt>
        <trkpt lat="29.5041428" lon="103.3070609"><ele>2399.42</ele><time>2026-02-01T01:14:19.000Z</time></trkpt>
        <trkpt lat="29.5041636" lon="103.3069939"><ele>2397.64</ele><time>2026-02-01T01:14:27.000Z</time></trkpt>
        <trkpt lat="29.5041852" lon="103.3069411"><ele>2395.65</ele><time>2026-02-01T01:14:32.000Z</time></trkpt>
        <trkpt lat="29.5042207" lon="103.3068907"><ele>2393.32</ele><time>2026-02-01T01:14:37.000Z</time></trkpt>
        <trkpt lat="29.5042638" lon="103.3068352"><ele>2390.7</ele><time>2026-02-01T01:14:44.000Z</time></trkpt>
        <trkpt lat="29.5043051" lon="103.3067947"><ele>2381.6</ele><time>2026-02-01T01:14:52.000Z</time></trkpt>
        <trkpt lat="29.5043438" lon="103.3067478"><ele>2377.57</ele><time>2026-02-01T01:14:57.000Z</time></trkpt>
        <trkpt lat="29.5043713" lon="103.3066979"><ele>2374.13</ele><time>2026-02-01T01:15:09.000Z</time></trkpt>
        <trkpt lat="29.5043957" lon="103.3066467"><ele>2373.02</ele><time>2026-02-01T01:15:37.000Z</time></trkpt>
        <trkpt lat="29.5044175" lon="103.3065922"><ele>2371.64</ele><time>2026-02-01T01:15:43.000Z</time></trkpt>
        <trkpt lat="29.5044563" lon="103.3065681"><ele>2370.06</ele><time>2026-02-01T01:15:50.000Z</time></trkpt>
        <trkpt lat="29.5045045" lon="103.3065401"><ele>2368</ele><time>2026-02-01T01:15:55.000Z</time></trkpt>
        <trkpt lat="29.5045569" lon="103.3065085"><ele>2363.49</ele><time>2026-02-01T01:16:04.000Z</time></trkpt>
        <trkpt lat="29.5045899" lon="103.3064684"><ele>2361.03</ele><time>2026-02-01T01:16:10.000Z</time></trkpt>
        <trkpt lat="29.504616" lon="103.3064124"><ele>2359.62</ele><time>2026-02-01T01:16:15.000Z</time></trkpt>
        <trkpt lat="29.5046456" lon="103.3063571"><ele>2358.82</ele><time>2026-02-01T01:16:22.000Z</time></trkpt>
        <trkpt lat="29.50466" lon="103.3062979"><ele>2358.36</ele><time>2026-02-01T01:16:28.000Z</time></trkpt>
        <trkpt lat="29.5046904" lon="103.3062395"><ele>2358.1</ele><time>2026-02-01T01:16:32.000Z</time></trkpt>
        <trkpt lat="29.5046955" lon="103.306176"><ele>2357.95</ele><time>2026-02-01T01:16:36.000Z</time></trkpt>
        <trkpt lat="29.5046937" lon="103.3061384"><ele>2357.87</ele><time>2026-02-01T01:16:40.000Z</time></trkpt>
        <trkpt lat="29.5047172" lon="103.3060938"><ele>2357.82</ele><time>2026-02-01T01:16:43.000Z</time></trkpt>
        <trkpt lat="29.5047395" lon="103.3060482"><ele>2350.05</ele><time>2026-02-01T01:16:49.000Z</time></trkpt>
        <trkpt lat="29.5047369" lon="103.305975"><ele>2345.4</ele><time>2026-02-01T01:16:55.000Z</time></trkpt>
        <trkpt lat="29.5047234" lon="103.3058993"><ele>2342.27</ele><time>2026-02-01T01:17:01.000Z</time></trkpt>
        <trkpt lat="29.504718" lon="103.3058516"><ele>2334.82</ele><time>2026-02-01T01:17:04.000Z</time></trkpt>
        <trkpt lat="29.5047145" lon="103.3057886"><ele>2333.92</ele><time>2026-02-01T01:17:15.000Z</time></trkpt>
        <trkpt lat="29.5047171" lon="103.3057474"><ele>2333.53</ele><time>2026-02-01T01:17:26.000Z</time></trkpt>
        <trkpt lat="29.5047413" lon="103.3056998"><ele>2332.44</ele><time>2026-02-01T01:17:49.000Z</time></trkpt>
        <trkpt lat="29.5047754" lon="103.3056459"><ele>2331.18</ele><time>2026-02-01T01:17:58.000Z</time></trkpt>
        <trkpt lat="29.5048172" lon="103.3055905"><ele>2330.06</ele><time>2026-02-01T01:18:03.000Z</time></trkpt>
        <trkpt lat="29.5048483" lon="103.3055345"><ele>2328.8</ele><time>2026-02-01T01:18:11.000Z</time></trkpt>
        <trkpt lat="29.5048514" lon="103.3054804"><ele>2323.99</ele><time>2026-02-01T01:18:18.000Z</time></trkpt>
        <trkpt lat="29.5048294" lon="103.3054209"><ele>2325.38</ele><time>2026-02-01T01:18:52.000Z</time></trkpt>
        <trkpt lat="29.5048333" lon="103.3053568"><ele>2327.34</ele><time>2026-02-01T01:18:58.000Z</time></trkpt>
        <trkpt lat="29.504862" lon="103.3053089"><ele>2328.63</ele><time>2026-02-01T01:19:02.000Z</time></trkpt>
        <trkpt lat="29.5048988" lon="103.305267"><ele>2326.63</ele><time>2026-02-01T01:19:10.000Z</time></trkpt>
        <trkpt lat="29.5049514" lon="103.3052483"><ele>2324.12</ele><time>2026-02-01T01:19:14.000Z</time></trkpt>
        <trkpt lat="29.5049938" lon="103.3052138"><ele>2322.08</ele><time>2026-02-01T01:19:19.000Z</time></trkpt>
        <trkpt lat="29.5050344" lon="103.3051816"><ele>2320.35</ele><time>2026-02-01T01:19:26.000Z</time></trkpt>
        <trkpt lat="29.5050786" lon="103.3051565"><ele>2319.08</ele><time>2026-02-01T01:19:37.000Z</time></trkpt>
        <trkpt lat="29.5051045" lon="103.3051077"><ele>2318.39</ele><time>2026-02-01T01:20:25.000Z</time></trkpt>
        <trkpt lat="29.5051081" lon="103.3050438"><ele>2320.62</ele><time>2026-02-01T01:20:37.000Z</time></trkpt>
        <trkpt lat="29.5051112" lon="103.3049784"><ele>2321.94</ele><time>2026-02-01T01:20:47.000Z</time></trkpt>
        <trkpt lat="29.505107" lon="103.304918"><ele>2322.53</ele><time>2026-02-01T01:20:55.000Z</time></trkpt>
        <trkpt lat="29.5050845" lon="103.3048644"><ele>2323.02</ele><time>2026-02-01T01:21:01.000Z</time></trkpt>
        <trkpt lat="29.5050611" lon="103.3048123"><ele>2323.47</ele><time>2026-02-01T01:21:07.000Z</time></trkpt>
        <trkpt lat="29.5050498" lon="103.3047488"><ele>2323.8</ele><time>2026-02-01T01:21:12.000Z</time></trkpt>
        <trkpt lat="29.5050372" lon="103.3046733"><ele>2323.99</ele><time>2026-02-01T01:21:20.000Z</time></trkpt>
        <trkpt lat="29.5050299" lon="103.304606"><ele>2322.86</ele><time>2026-02-01T01:21:24.000Z</time></trkpt>
        <trkpt lat="29.5050317" lon="103.3045396"><ele>2321.49</ele><time>2026-02-01T01:21:29.000Z</time></trkpt>
        <trkpt lat="29.5050669" lon="103.3044942"><ele>2320.54</ele><time>2026-02-01T01:23:59.000Z</time></trkpt>
        <trkpt lat="29.5051098" lon="103.3044749"><ele>2319.87</ele><time>2026-02-01T01:24:03.000Z</time></trkpt>
        <trkpt lat="29.5051663" lon="103.3044555"><ele>2318.99</ele><time>2026-02-01T01:24:08.000Z</time></trkpt>
        <trkpt lat="29.5052096" lon="103.3044246"><ele>2318.24</ele><time>2026-02-01T01:24:12.000Z</time></trkpt>
        <trkpt lat="29.5052564" lon="103.3044343"><ele>2315.33</ele><time>2026-02-01T01:24:17.000Z</time></trkpt>
        <trkpt lat="29.5052999" lon="103.3043812"><ele>2313.64</ele><time>2026-02-01T01:24:20.000Z</time></trkpt>
        <trkpt lat="29.5053294" lon="103.3042656"><ele>2313.28</ele><time>2026-02-01T01:24:23.000Z</time></trkpt>
        <trkpt lat="29.5053456" lon="103.3041876"><ele>2312.86</ele><time>2026-02-01T01:24:26.000Z</time></trkpt>
        <trkpt lat="29.5053577" lon="103.3041201"><ele>2312.12</ele><time>2026-02-01T01:24:28.000Z</time></trkpt>
        <trkpt lat="29.5053649" lon="103.3040545"><ele>2311.28</ele><time>2026-02-01T01:24:29.000Z</time></trkpt>
        <trkpt lat="29.5053811" lon="103.3039907"><ele>2310.37</ele><time>2026-02-01T01:24:32.000Z</time></trkpt>
        <trkpt lat="29.5053964" lon="103.3039382"><ele>2309.22</ele><time>2026-02-01T01:24:34.000Z</time></trkpt>
        <trkpt lat="29.505426" lon="103.3038923"><ele>2308.28</ele><time>2026-02-01T01:24:36.000Z</time></trkpt>
        <trkpt lat="29.5054666" lon="103.3038353"><ele>2307.94</ele><time>2026-02-01T01:24:38.000Z</time></trkpt>
        <trkpt lat="29.5054927" lon="103.3037845"><ele>2307.08</ele><time>2026-02-01T01:24:40.000Z</time></trkpt>
        <trkpt lat="29.5055037" lon="103.303732"><ele>2305.91</ele><time>2026-02-01T01:24:42.000Z</time></trkpt>
        <trkpt lat="29.5054841" lon="103.3036795"><ele>2304.6</ele><time>2026-02-01T01:24:44.000Z</time></trkpt>
        <trkpt lat="29.5054389" lon="103.3036276"><ele>2304.11</ele><time>2026-02-01T01:24:47.000Z</time></trkpt>
        <trkpt lat="29.5053849" lon="103.303587"><ele>2304.4</ele><time>2026-02-01T01:24:49.000Z</time></trkpt>
        <trkpt lat="29.5053268" lon="103.3035598"><ele>2303.57</ele><time>2026-02-01T01:24:51.000Z</time></trkpt>
        <trkpt lat="29.5052534" lon="103.3035259"><ele>2302.73</ele><time>2026-02-01T01:24:54.000Z</time></trkpt>
        <trkpt lat="29.5052175" lon="103.3034613"><ele>2301.29</ele><time>2026-02-01T01:24:56.000Z</time></trkpt>
        <trkpt lat="29.5051987" lon="103.3034013"><ele>2300.02</ele><time>2026-02-01T01:24:57.000Z</time></trkpt>
        <trkpt lat="29.5051897" lon="103.3033463"><ele>2299.04</ele><time>2026-02-01T01:25:00.000Z</time></trkpt>
        <trkpt lat="29.5051919" lon="103.3032937"><ele>2298.21</ele><time>2026-02-01T01:25:02.000Z</time></trkpt>
        <trkpt lat="29.5051959" lon="103.3032401"><ele>2297.38</ele><time>2026-02-01T01:25:03.000Z</time></trkpt>
        <trkpt lat="29.505182" lon="103.3031821"><ele>2296.68</ele><time>2026-02-01T01:25:06.000Z</time></trkpt>
        <trkpt lat="29.5051456" lon="103.303131"><ele>2295.84</ele><time>2026-02-01T01:25:08.000Z</time></trkpt>
        <trkpt lat="29.5050879" lon="103.3030972"><ele>2294.95</ele><time>2026-02-01T01:25:10.000Z</time></trkpt>
        <trkpt lat="29.5050197" lon="103.3030868"><ele>2294.43</ele><time>2026-02-01T01:25:12.000Z</time></trkpt>
        <trkpt lat="29.5049508" lon="103.3030956"><ele>2294.08</ele><time>2026-02-01T01:25:14.000Z</time></trkpt>
        <trkpt lat="29.5048879" lon="103.3031152"><ele>2293.79</ele><time>2026-02-01T01:25:16.000Z</time></trkpt>
        <trkpt lat="29.5048285" lon="103.3031447"><ele>2293.4</ele><time>2026-02-01T01:25:18.000Z</time></trkpt>
        <trkpt lat="29.504769" lon="103.3031687"><ele>2293.09</ele><time>2026-02-01T01:25:20.000Z</time></trkpt>
        <trkpt lat="29.5047124" lon="103.3031937"><ele>2292.9</ele><time>2026-02-01T01:25:22.000Z</time></trkpt>
        <trkpt lat="29.5046594" lon="103.3032153"><ele>2292.77</ele><time>2026-02-01T01:25:24.000Z</time></trkpt>
        <trkpt lat="29.5046086" lon="103.3032399"><ele>2292.57</ele><time>2026-02-01T01:25:26.000Z</time></trkpt>
        <trkpt lat="29.5045595" lon="103.3032608"><ele>2292.21</ele><time>2026-02-01T01:25:28.000Z</time></trkpt>
        <trkpt lat="29.5045081" lon="103.3032789"><ele>2291.69</ele><time>2026-02-01T01:25:30.000Z</time></trkpt>
        <trkpt lat="29.5044553" lon="103.3032852"><ele>2291.21</ele><time>2026-02-01T01:25:32.000Z</time></trkpt>
        <trkpt lat="29.5044095" lon="103.3032528"><ele>2290.8</ele><time>2026-02-01T01:25:33.000Z</time></trkpt>
        <trkpt lat="29.5043893" lon="103.3032"><ele>2290.3</ele><time>2026-02-01T01:25:36.000Z</time></trkpt>
        <trkpt lat="29.5044188" lon="103.3031638"><ele>2289.45</ele><time>2026-02-01T01:25:44.000Z</time></trkpt>
        <trkpt lat="29.5044516" lon="103.3031113"><ele>2281.65</ele><time>2026-02-01T01:26:23.000Z</time></trkpt>
        <trkpt lat="29.5044813" lon="103.3030423"><ele>2276.83</ele><time>2026-02-01T01:26:27.000Z</time></trkpt>
        <trkpt lat="29.5045275" lon="103.3029554"><ele>2273.82</ele><time>2026-02-01T01:26:32.000Z</time></trkpt>
        <trkpt lat="29.5045647" lon="103.3028949"><ele>2271.59</ele><time>2026-02-01T01:26:34.000Z</time></trkpt>
        <trkpt lat="29.504598" lon="103.3028479"><ele>2270.13</ele><time>2026-02-01T01:26:36.000Z</time></trkpt>
        <trkpt lat="29.5046258" lon="103.3028044"><ele>2269.02</ele><time>2026-02-01T01:26:38.000Z</time></trkpt>
        <trkpt lat="29.5046506" lon="103.3027586"><ele>2267.94</ele><time>2026-02-01T01:26:40.000Z</time></trkpt>
        <trkpt lat="29.5046895" lon="103.302676"><ele>2266.62</ele><time>2026-02-01T01:26:44.000Z</time></trkpt>
        <trkpt lat="29.504718" lon="103.3026047"><ele>2265.86</ele><time>2026-02-01T01:26:46.000Z</time></trkpt>
        <trkpt lat="29.5047245" lon="103.3025298"><ele>2265.34</ele><time>2026-02-01T01:26:48.000Z</time></trkpt>
        <trkpt lat="29.5047173" lon="103.3024558"><ele>2265.13</ele><time>2026-02-01T01:26:49.000Z</time></trkpt>
        <trkpt lat="29.504695" lon="103.3023922"><ele>2264.7</ele><time>2026-02-01T01:26:52.000Z</time></trkpt>
        <trkpt lat="29.50466" lon="103.3023475"><ele>2264.58</ele><time>2026-02-01T01:26:56.000Z</time></trkpt>
        <trkpt lat="29.5045942" lon="103.3022991"><ele>2264.72</ele><time>2026-02-01T01:27:02.000Z</time></trkpt>
        <trkpt lat="29.5045348" lon="103.3022827"><ele>2265.02</ele><time>2026-02-01T01:27:06.000Z</time></trkpt>
        <trkpt lat="29.5044987" lon="103.3022412"><ele>2265.22</ele><time>2026-02-01T01:27:24.000Z</time></trkpt>
        <trkpt lat="29.504472" lon="103.3021951"><ele>2265.24</ele><time>2026-02-01T01:27:28.000Z</time></trkpt>
        <trkpt lat="29.5044566" lon="103.3021424"><ele>2265.22</ele><time>2026-02-01T01:27:32.000Z</time></trkpt>
        <trkpt lat="29.5044311" lon="103.3020679"><ele>2264.98</ele><time>2026-02-01T01:27:36.000Z</time></trkpt>
        <trkpt lat="29.5044081" lon="103.3019891"><ele>2264.53</ele><time>2026-02-01T01:27:40.000Z</time></trkpt>
        <trkpt lat="29.5043897" lon="103.3019242"><ele>2263.79</ele><time>2026-02-01T01:27:44.000Z</time></trkpt>
        <trkpt lat="29.5043696" lon="103.3018648"><ele>2263.32</ele><time>2026-02-01T01:27:48.000Z</time></trkpt>
        <trkpt lat="29.5043321" lon="103.3018145"><ele>2262.84</ele><time>2026-02-01T01:27:52.000Z</time></trkpt>
        <trkpt lat="29.5042955" lon="103.3017735"><ele>2262.58</ele><time>2026-02-01T01:27:56.000Z</time></trkpt>
        <trkpt lat="29.5042577" lon="103.3017155"><ele>2262.14</ele><time>2026-02-01T01:28:02.000Z</time></trkpt>
        <trkpt lat="29.5042231" lon="103.3016674"><ele>2261.65</ele><time>2026-02-01T01:28:06.000Z</time></trkpt>
        <trkpt lat="29.5041858" lon="103.301624"><ele>2261.36</ele><time>2026-02-01T01:28:10.000Z</time></trkpt>
        <trkpt lat="29.5041514" lon="103.3015822"><ele>2260.98</ele><time>2026-02-01T01:28:16.000Z</time></trkpt>
        <trkpt lat="29.5041131" lon="103.3015395"><ele>2260.69</ele><time>2026-02-01T01:28:24.000Z</time></trkpt>
        <trkpt lat="29.5040489" lon="103.3014242"><ele>2260.53</ele><time>2026-02-01T01:28:30.000Z</time></trkpt>
        <trkpt lat="29.5040141" lon="103.3013457"><ele>2259.89</ele><time>2026-02-01T01:28:32.000Z</time></trkpt>
        <trkpt lat="29.5039852" lon="103.3012836"><ele>2259.28</ele><time>2026-02-01T01:28:33.000Z</time></trkpt>
        <trkpt lat="29.5039584" lon="103.3012246"><ele>2259.06</ele><time>2026-02-01T01:28:36.000Z</time></trkpt>
        <trkpt lat="29.5039329" lon="103.3011582"><ele>2258.8</ele><time>2026-02-01T01:28:38.000Z</time></trkpt>
        <trkpt lat="29.5039048" lon="103.3010886"><ele>2258.49</ele><time>2026-02-01T01:28:39.000Z</time></trkpt>
        <trkpt lat="29.5038727" lon="103.3010231"><ele>2258.41</ele><time>2026-02-01T01:28:42.000Z</time></trkpt>
        <trkpt lat="29.503834" lon="103.3009627"><ele>2258.36</ele><time>2026-02-01T01:28:44.000Z</time></trkpt>
        <trkpt lat="29.5037962" lon="103.3009052"><ele>2258.32</ele><time>2026-02-01T01:28:46.000Z</time></trkpt>
        <trkpt lat="29.5037632" lon="103.3008494"><ele>2258.21</ele><time>2026-02-01T01:28:48.000Z</time></trkpt>
        <trkpt lat="29.5037303" lon="103.3007893"><ele>2257.9</ele><time>2026-02-01T01:28:49.000Z</time></trkpt>
        <trkpt lat="29.5037001" lon="103.300725"><ele>2257.41</ele><time>2026-02-01T01:28:52.000Z</time></trkpt>
        <trkpt lat="29.5036685" lon="103.3006665"><ele>2257.06</ele><time>2026-02-01T01:28:54.000Z</time></trkpt>
        <trkpt lat="29.5036318" lon="103.3005775"><ele>2256.85</ele><time>2026-02-01T01:28:58.000Z</time></trkpt>
        <trkpt lat="29.5036073" lon="103.3005149"><ele>2256.7</ele><time>2026-02-01T01:28:59.000Z</time></trkpt>
        <trkpt lat="29.5035833" lon="103.3004596"><ele>2256.52</ele><time>2026-02-01T01:29:02.000Z</time></trkpt>
        <trkpt lat="29.5035601" lon="103.3004042"><ele>2256.21</ele><time>2026-02-01T01:29:04.000Z</time></trkpt>
        <trkpt lat="29.5035301" lon="103.3002939"><ele>2256.02</ele><time>2026-02-01T01:29:08.000Z</time></trkpt>
        <trkpt lat="29.5035065" lon="103.3002186"><ele>2255.75</ele><time>2026-02-01T01:29:11.000Z</time></trkpt>
        <trkpt lat="29.5034855" lon="103.3001549"><ele>2255.41</ele><time>2026-02-01T01:29:12.000Z</time></trkpt>
        <trkpt lat="29.5034684" lon="103.3000907"><ele>2254.93</ele><time>2026-02-01T01:29:15.000Z</time></trkpt>
        <trkpt lat="29.5034619" lon="103.3000271"><ele>2254.44</ele><time>2026-02-01T01:29:17.000Z</time></trkpt>
        <trkpt lat="29.5034649" lon="103.2999672"><ele>2250.9</ele><time>2026-02-01T01:29:18.000Z</time></trkpt>
        <trkpt lat="29.5034703" lon="103.2999086"><ele>2248.57</ele><time>2026-02-01T01:29:21.000Z</time></trkpt>
        <trkpt lat="29.5034913" lon="103.2998251"><ele>2247.15</ele><time>2026-02-01T01:29:24.000Z</time></trkpt>
        <trkpt lat="29.5035088" lon="103.2997507"><ele>2248.74</ele><time>2026-02-01T01:29:29.000Z</time></trkpt>
        <trkpt lat="29.5035209" lon="103.2996938"><ele>2249.13</ele><time>2026-02-01T01:29:33.000Z</time></trkpt>
        <trkpt lat="29.5035307" lon="103.2996375"><ele>2246.7</ele><time>2026-02-01T01:29:36.000Z</time></trkpt>
        <trkpt lat="29.5035261" lon="103.2995641"><ele>2244.26</ele><time>2026-02-01T01:29:42.000Z</time></trkpt>
        <trkpt lat="29.503508" lon="103.2994924"><ele>2243.43</ele><time>2026-02-01T01:29:46.000Z</time></trkpt>
        <trkpt lat="29.5035048" lon="103.2994244"><ele>2243.35</ele><time>2026-02-01T01:29:52.000Z</time></trkpt>
        <trkpt lat="29.5034974" lon="103.2993468"><ele>2243.43</ele><time>2026-02-01T01:29:56.000Z</time></trkpt>
        <trkpt lat="29.5034813" lon="103.2992819"><ele>2243.04</ele><time>2026-02-01T01:29:58.000Z</time></trkpt>
        <trkpt lat="29.5034563" lon="103.2992236"><ele>2242.92</ele><time>2026-02-01T01:30:00.000Z</time></trkpt>
        <trkpt lat="29.5034332" lon="103.2991679"><ele>2242.79</ele><time>2026-02-01T01:30:02.000Z</time></trkpt>
        <trkpt lat="29.5034201" lon="103.2991093"><ele>2242.66</ele><time>2026-02-01T01:30:04.000Z</time></trkpt>
        <trkpt lat="29.5034219" lon="103.2990479"><ele>2242.51</ele><time>2026-02-01T01:30:06.000Z</time></trkpt>
        <trkpt lat="29.5034386" lon="103.298988"><ele>2242.3</ele><time>2026-02-01T01:30:08.000Z</time></trkpt>
        <trkpt lat="29.5034674" lon="103.2989421"><ele>2242.09</ele><time>2026-02-01T01:30:10.000Z</time></trkpt>
        <trkpt lat="29.5035032" lon="103.2989003"><ele>2241.84</ele><time>2026-02-01T01:30:12.000Z</time></trkpt>
        <trkpt lat="29.5035446" lon="103.2988634"><ele>2241.33</ele><time>2026-02-01T01:30:14.000Z</time></trkpt>
        <trkpt lat="29.5035906" lon="103.2988314"><ele>2240.71</ele><time>2026-02-01T01:30:16.000Z</time></trkpt>
        <trkpt lat="29.503647" lon="103.2988079"><ele>2240.02</ele><time>2026-02-01T01:30:17.000Z</time></trkpt>
        <trkpt lat="29.5037023" lon="103.2987888"><ele>2239.32</ele><time>2026-02-01T01:30:20.000Z</time></trkpt>
        <trkpt lat="29.503756" lon="103.2987681"><ele>2238.81</ele><time>2026-02-01T01:30:22.000Z</time></trkpt>
        <trkpt lat="29.5038166" lon="103.2987511"><ele>2238.35</ele><time>2026-02-01T01:30:24.000Z</time></trkpt>
        <trkpt lat="29.503875" lon="103.2987366"><ele>2237.96</ele><time>2026-02-01T01:30:25.000Z</time></trkpt>
        <trkpt lat="29.5039308" lon="103.2987248"><ele>2237.44</ele><time>2026-02-01T01:30:28.000Z</time></trkpt>
        <trkpt lat="29.5039865" lon="103.2987218"><ele>2236.97</ele><time>2026-02-01T01:30:30.000Z</time></trkpt>
        <trkpt lat="29.504039" lon="103.2987293"><ele>2236.47</ele><time>2026-02-01T01:30:32.000Z</time></trkpt>
        <trkpt lat="29.5040949" lon="103.298762"><ele>2236.07</ele><time>2026-02-01T01:30:34.000Z</time></trkpt>
        <trkpt lat="29.5041325" lon="103.2988099"><ele>2235.55</ele><time>2026-02-01T01:30:36.000Z</time></trkpt>
        <trkpt lat="29.5041608" lon="103.2988674"><ele>2233.96</ele><time>2026-02-01T01:30:38.000Z</time></trkpt>
        <trkpt lat="29.5041817" lon="103.2989264"><ele>2233</ele><time>2026-02-01T01:30:43.000Z</time></trkpt>
        <trkpt lat="29.5041924" lon="103.2990128"><ele>2232.17</ele><time>2026-02-01T01:30:47.000Z</time></trkpt>
        <trkpt lat="29.5042101" lon="103.299094"><ele>2230.77</ele><time>2026-02-01T01:30:51.000Z</time></trkpt>
        <trkpt lat="29.5042579" lon="103.2991338"><ele>2228.77</ele><time>2026-02-01T01:30:56.000Z</time></trkpt>
        <trkpt lat="29.50431" lon="103.2991656"><ele>2227.95</ele><time>2026-02-01T01:31:01.000Z</time></trkpt>
        <trkpt lat="29.5043707" lon="103.2991813"><ele>2228.44</ele><time>2026-02-01T01:31:12.000Z</time></trkpt>
        <trkpt lat="29.5044291" lon="103.2991782"><ele>2228.73</ele><time>2026-02-01T01:31:20.000Z</time></trkpt>
        <trkpt lat="29.5044817" lon="103.2991628"><ele>2228.89</ele><time>2026-02-01T01:31:26.000Z</time></trkpt>
        <trkpt lat="29.5045302" lon="103.2991544"><ele>2228.98</ele><time>2026-02-01T01:31:31.000Z</time></trkpt>
        <trkpt lat="29.5045758" lon="103.2991507"><ele>2229.03</ele><time>2026-02-01T01:31:36.000Z</time></trkpt>
        <trkpt lat="29.5046537" lon="103.2991673"><ele>2229.06</ele><time>2026-02-01T01:31:46.000Z</time></trkpt>
        <trkpt lat="29.5049069" lon="103.2991826"><ele>2229.08</ele><time>2026-02-01T01:31:50.000Z</time></trkpt>
        <trkpt lat="29.5050298" lon="103.2992113"><ele>2226.92</ele><time>2026-02-01T01:31:52.000Z</time></trkpt>
        <trkpt lat="29.5051037" lon="103.2992743"><ele>2225.43</ele><time>2026-02-01T01:31:56.000Z</time></trkpt>
        <trkpt lat="29.5051511" lon="103.2993138"><ele>2224.11</ele><time>2026-02-01T01:31:58.000Z</time></trkpt>
        <trkpt lat="29.5052146" lon="103.2993049"><ele>2223.27</ele><time>2026-02-01T01:32:02.000Z</time></trkpt>
        <trkpt lat="29.5052503" lon="103.2992605"><ele>2222.67</ele><time>2026-02-01T01:32:04.000Z</time></trkpt>
        <trkpt lat="29.5052689" lon="103.2992014"><ele>2222.21</ele><time>2026-02-01T01:32:06.000Z</time></trkpt>
        <trkpt lat="29.5052868" lon="103.2991344"><ele>2221.81</ele><time>2026-02-01T01:32:10.000Z</time></trkpt>
        <trkpt lat="29.5053111" lon="103.2990656"><ele>2221.14</ele><time>2026-02-01T01:32:16.000Z</time></trkpt>
        <trkpt lat="29.5053338" lon="103.2990078"><ele>2220.08</ele><time>2026-02-01T01:32:20.000Z</time></trkpt>
        <trkpt lat="29.5053538" lon="103.2989496"><ele>2219.18</ele><time>2026-02-01T01:32:26.000Z</time></trkpt>
        <trkpt lat="29.5053827" lon="103.2988763"><ele>2218.7</ele><time>2026-02-01T01:32:31.000Z</time></trkpt>
        <trkpt lat="29.5054167" lon="103.2987953"><ele>2217.91</ele><time>2026-02-01T01:32:35.000Z</time></trkpt>
        <trkpt lat="29.5054404" lon="103.2987368"><ele>2217.31</ele><time>2026-02-01T01:32:37.000Z</time></trkpt>
        <trkpt lat="29.5054634" lon="103.2986853"><ele>2216.54</ele><time>2026-02-01T01:32:40.000Z</time></trkpt>
        <trkpt lat="29.5054852" lon="103.2986355"><ele>2215.71</ele><time>2026-02-01T01:32:42.000Z</time></trkpt>
        <trkpt lat="29.5055042" lon="103.2985877"><ele>2215.06</ele><time>2026-02-01T01:32:44.000Z</time></trkpt>
        <trkpt lat="29.5055244" lon="103.2985411"><ele>2214.54</ele><time>2026-02-01T01:32:46.000Z</time></trkpt>
        <trkpt lat="29.5055501" lon="103.2984919"><ele>2214.14</ele><time>2026-02-01T01:32:48.000Z</time></trkpt>
        <trkpt lat="29.5055771" lon="103.2984398"><ele>2213.66</ele><time>2026-02-01T01:32:49.000Z</time></trkpt>
        <trkpt lat="29.5056013" lon="103.2983931"><ele>2213</ele><time>2026-02-01T01:32:51.000Z</time></trkpt>
        <trkpt lat="29.5056576" lon="103.2983304"><ele>2212.46</ele><time>2026-02-01T01:32:55.000Z</time></trkpt>
        <trkpt lat="29.5057131" lon="103.2982971"><ele>2211.79</ele><time>2026-02-01T01:32:58.000Z</time></trkpt>
        <trkpt lat="29.5057695" lon="103.2982784"><ele>2211.27</ele><time>2026-02-01T01:33:00.000Z</time></trkpt>
        <trkpt lat="29.5058295" lon="103.2982708"><ele>2210.93</ele><time>2026-02-01T01:33:02.000Z</time></trkpt>
        <trkpt lat="29.5058845" lon="103.2982644"><ele>2210.57</ele><time>2026-02-01T01:33:04.000Z</time></trkpt>
        <trkpt lat="29.5059328" lon="103.2982463"><ele>2210.27</ele><time>2026-02-01T01:33:05.000Z</time></trkpt>
        <trkpt lat="29.505976" lon="103.2982151"><ele>2210</ele><time>2026-02-01T01:33:08.000Z</time></trkpt>
        <trkpt lat="29.5060166" lon="103.2981703"><ele>2209.49</ele><time>2026-02-01T01:33:10.000Z</time></trkpt>
        <trkpt lat="29.506057" lon="103.2981215"><ele>2208.71</ele><time>2026-02-01T01:33:12.000Z</time></trkpt>
        <trkpt lat="29.5060897" lon="103.2980708"><ele>2207.88</ele><time>2026-02-01T01:33:14.000Z</time></trkpt>
        <trkpt lat="29.5061218" lon="103.2980173"><ele>2207.37</ele><time>2026-02-01T01:33:16.000Z</time></trkpt>
        <trkpt lat="29.5061551" lon="103.2979638"><ele>2206.94</ele><time>2026-02-01T01:33:18.000Z</time></trkpt>
        <trkpt lat="29.5061941" lon="103.2979156"><ele>2206.45</ele><time>2026-02-01T01:33:19.000Z</time></trkpt>
        <trkpt lat="29.5062392" lon="103.297877"><ele>2205.97</ele><time>2026-02-01T01:33:22.000Z</time></trkpt>
        <trkpt lat="29.5062883" lon="103.297844"><ele>2205.49</ele><time>2026-02-01T01:33:25.000Z</time></trkpt>
        <trkpt lat="29.506335" lon="103.2978317"><ele>2204.8</ele><time>2026-02-01T01:33:30.000Z</time></trkpt>
        <trkpt lat="29.5063881" lon="103.2978348"><ele>2204.29</ele><time>2026-02-01T01:33:34.000Z</time></trkpt>
        <trkpt lat="29.5064399" lon="103.2978473"><ele>2203.98</ele><time>2026-02-01T01:33:38.000Z</time></trkpt>
        <trkpt lat="29.5064888" lon="103.2978605"><ele>2203.91</ele><time>2026-02-01T01:33:41.000Z</time></trkpt>
        <trkpt lat="29.5065367" lon="103.2978542"><ele>2204.06</ele><time>2026-02-01T01:33:46.000Z</time></trkpt>
        <trkpt lat="29.506581" lon="103.2978272"><ele>2203.93</ele><time>2026-02-01T01:33:51.000Z</time></trkpt>
        <trkpt lat="29.5066108" lon="103.2977711"><ele>2203.4</ele><time>2026-02-01T01:33:57.000Z</time></trkpt>
        <trkpt lat="29.5066108" lon="103.297708"><ele>2202.98</ele><time>2026-02-01T01:34:01.000Z</time></trkpt>
        <trkpt lat="29.5066023" lon="103.2976487"><ele>2199.05</ele><time>2026-02-01T01:34:05.000Z</time></trkpt>
        <trkpt lat="29.5065866" lon="103.2975799"><ele>2196.72</ele><time>2026-02-01T01:34:12.000Z</time></trkpt>
        <trkpt lat="29.5065681" lon="103.2975145"><ele>2195.29</ele><time>2026-02-01T01:34:16.000Z</time></trkpt>
        <trkpt lat="29.5065557" lon="103.2974508"><ele>2197.16</ele><time>2026-02-01T01:34:19.000Z</time></trkpt>
        <trkpt lat="29.5065631" lon="103.2973881"><ele>2195.22</ele><time>2026-02-01T01:34:24.000Z</time></trkpt>
        <trkpt lat="29.5065707" lon="103.2973292"><ele>2194.12</ele><time>2026-02-01T01:34:28.000Z</time></trkpt>
        <trkpt lat="29.5065841" lon="103.2972627"><ele>2193.05</ele><time>2026-02-01T01:34:33.000Z</time></trkpt>
        <trkpt lat="29.5065988" lon="103.2971957"><ele>2192.41</ele><time>2026-02-01T01:34:39.000Z</time></trkpt>
        <trkpt lat="29.5066054" lon="103.2971568"><ele>2192.04</ele><time>2026-02-01T01:34:44.000Z</time></trkpt>
        <trkpt lat="29.5066307" lon="103.2971185"><ele>2191.83</ele><time>2026-02-01T01:44:25.000Z</time></trkpt>
        <trkpt lat="29.5066348" lon="103.2970619"><ele>2191.65</ele><time>2026-02-01T01:44:33.000Z</time></trkpt>
        <trkpt lat="29.5066569" lon="103.2969991"><ele>2191.28</ele><time>2026-02-01T01:44:39.000Z</time></trkpt>
        <trkpt lat="29.5066717" lon="103.2969448"><ele>2190.71</ele><time>2026-02-01T01:44:43.000Z</time></trkpt>
        <trkpt lat="29.5066755" lon="103.2968753"><ele>2190.77</ele><time>2026-02-01T01:44:49.000Z</time></trkpt>
        <trkpt lat="29.5066664" lon="103.2968094"><ele>2190.52</ele><time>2026-02-01T01:44:53.000Z</time></trkpt>
        <trkpt lat="29.5066585" lon="103.2967482"><ele>2190.34</ele><time>2026-02-01T01:44:56.000Z</time></trkpt>
        <trkpt lat="29.5066629" lon="103.2966804"><ele>2190.13</ele><time>2026-02-01T01:44:58.000Z</time></trkpt>
        <trkpt lat="29.5066718" lon="103.296618"><ele>2187.63</ele><time>2026-02-01T01:45:00.000Z</time></trkpt>
        <trkpt lat="29.5066864" lon="103.2965292"><ele>2186.5</ele><time>2026-02-01T01:45:04.000Z</time></trkpt>
        <trkpt lat="29.5066655" lon="103.2964624"><ele>2185.61</ele><time>2026-02-01T01:45:05.000Z</time></trkpt>
        <trkpt lat="29.5066571" lon="103.2964007"><ele>2185.41</ele><time>2026-02-01T01:45:07.000Z</time></trkpt>
        <trkpt lat="29.5066438" lon="103.2963469"><ele>2184.77</ele><time>2026-02-01T01:45:09.000Z</time></trkpt>
        <trkpt lat="29.5066456" lon="103.2962905"><ele>2184.17</ele><time>2026-02-01T01:45:11.000Z</time></trkpt>
        <trkpt lat="29.5066381" lon="103.2962094"><ele>2181.81</ele><time>2026-02-01T01:45:15.000Z</time></trkpt>
        <trkpt lat="29.5066428" lon="103.2961405"><ele>2180.13</ele><time>2026-02-01T01:45:17.000Z</time></trkpt>
        <trkpt lat="29.5066533" lon="103.2960665"><ele>2178.71</ele><time>2026-02-01T01:45:19.000Z</time></trkpt>
        <trkpt lat="29.5066676" lon="103.2959899"><ele>2176.39</ele><time>2026-02-01T01:45:21.000Z</time></trkpt>
        <trkpt lat="29.506684" lon="103.2959051"><ele>2174.75</ele><time>2026-02-01T01:45:23.000Z</time></trkpt>
        <trkpt lat="29.5066955" lon="103.2958362"><ele>2173.69</ele><time>2026-02-01T01:45:25.000Z</time></trkpt>
        <trkpt lat="29.5067013" lon="103.2957808"><ele>2172.93</ele><time>2026-02-01T01:45:27.000Z</time></trkpt>
        <trkpt lat="29.5067054" lon="103.2957233"><ele>2172.56</ele><time>2026-02-01T01:45:29.000Z</time></trkpt>
        <trkpt lat="29.5067194" lon="103.2956458"><ele>2172.18</ele><time>2026-02-01T01:45:31.000Z</time></trkpt>
        <trkpt lat="29.5067386" lon="103.2955835"><ele>2172</ele><time>2026-02-01T01:45:33.000Z</time></trkpt>
        <trkpt lat="29.5067688" lon="103.2955033"><ele>2174.22</ele><time>2026-02-01T01:45:35.000Z</time></trkpt>
        <trkpt lat="29.5068016" lon="103.295402"><ele>2175.37</ele><time>2026-02-01T01:45:37.000Z</time></trkpt>
        <trkpt lat="29.5068163" lon="103.2953193"><ele>2175.46</ele><time>2026-02-01T01:45:39.000Z</time></trkpt>
        <trkpt lat="29.5068163" lon="103.2952462"><ele>2174.98</ele><time>2026-02-01T01:45:41.000Z</time></trkpt>
        <trkpt lat="29.5068106" lon="103.2951716"><ele>2174.3</ele><time>2026-02-01T01:45:43.000Z</time></trkpt>
        <trkpt lat="29.5067993" lon="103.2950944"><ele>2173.61</ele><time>2026-02-01T01:45:45.000Z</time></trkpt>
        <trkpt lat="29.5067844" lon="103.2950154"><ele>2166.53</ele><time>2026-02-01T01:45:47.000Z</time></trkpt>
        <trkpt lat="29.5067666" lon="103.2949524"><ele>2163.44</ele><time>2026-02-01T01:45:49.000Z</time></trkpt>
        <trkpt lat="29.5067487" lon="103.2948934"><ele>2161.42</ele><time>2026-02-01T01:45:51.000Z</time></trkpt>
        <trkpt lat="29.5067306" lon="103.2948396"><ele>2159.85</ele><time>2026-02-01T01:45:53.000Z</time></trkpt>
        <trkpt lat="29.5067404" lon="103.2947579"><ele>2159.52</ele><time>2026-02-01T01:45:55.000Z</time></trkpt>
        <trkpt lat="29.5067564" lon="103.2946819"><ele>2159.37</ele><time>2026-02-01T01:45:57.000Z</time></trkpt>
        <trkpt lat="29.5067731" lon="103.2946154"><ele>2159.2</ele><time>2026-02-01T01:45:59.000Z</time></trkpt>
        <trkpt lat="29.5067915" lon="103.2945522"><ele>2159.04</ele><time>2026-02-01T01:46:01.000Z</time></trkpt>
        <trkpt lat="29.506799" lon="103.2944984"><ele>2158.88</ele><time>2026-02-01T01:46:03.000Z</time></trkpt>
        <trkpt lat="29.5067923" lon="103.2944453"><ele>2158.72</ele><time>2026-02-01T01:46:05.000Z</time></trkpt>
        <trkpt lat="29.5067803" lon="103.2943876"><ele>2158.7</ele><time>2026-02-01T01:46:07.000Z</time></trkpt>
        <trkpt lat="29.5067651" lon="103.2943278"><ele>2158.62</ele><time>2026-02-01T01:46:09.000Z</time></trkpt>
        <trkpt lat="29.5067313" lon="103.2942837"><ele>2158.3</ele><time>2026-02-01T01:46:13.000Z</time></trkpt>
        <trkpt lat="29.5066697" lon="103.2942564"><ele>2157.62</ele><time>2026-02-01T01:46:15.000Z</time></trkpt>
        <trkpt lat="29.5066068" lon="103.2942465"><ele>2156.6</ele><time>2026-02-01T01:46:17.000Z</time></trkpt>
        <trkpt lat="29.506545" lon="103.2942399"><ele>2155.65</ele><time>2026-02-01T01:46:19.000Z</time></trkpt>
        <trkpt lat="29.5064917" lon="103.2942327"><ele>2154.75</ele><time>2026-02-01T01:46:21.000Z</time></trkpt>
        <trkpt lat="29.5064404" lon="103.2942216"><ele>2153.56</ele><time>2026-02-01T01:46:23.000Z</time></trkpt>
        <trkpt lat="29.506372" lon="103.2942113"><ele>2152.41</ele><time>2026-02-01T01:46:25.000Z</time></trkpt>
        <trkpt lat="29.5062847" lon="103.2941956"><ele>2153.3</ele><time>2026-02-01T01:46:27.000Z</time></trkpt>
        <trkpt lat="29.5062057" lon="103.2941729"><ele>2154.8</ele><time>2026-02-01T01:46:29.000Z</time></trkpt>
        <trkpt lat="29.5061532" lon="103.2941429"><ele>2156.03</ele><time>2026-02-01T01:46:31.000Z</time></trkpt>
        <trkpt lat="29.5061163" lon="103.2940863"><ele>2157.17</ele><time>2026-02-01T01:46:35.000Z</time></trkpt>
        <trkpt lat="29.506089" lon="103.2940334"><ele>2157.12</ele><time>2026-02-01T01:46:46.000Z</time></trkpt>
        <trkpt lat="29.5060671" lon="103.2939761"><ele>2151.13</ele><time>2026-02-01T01:46:53.000Z</time></trkpt>
        <trkpt lat="29.5060335" lon="103.2939314"><ele>2147.06</ele><time>2026-02-01T01:47:00.000Z</time></trkpt>
        <trkpt lat="29.5059753" lon="103.293876"><ele>2144.42</ele><time>2026-02-01T01:47:06.000Z</time></trkpt>
        <trkpt lat="29.5059106" lon="103.2938653"><ele>2148.03</ele><time>2026-02-01T01:47:09.000Z</time></trkpt>
        <trkpt lat="29.5058972" lon="103.2938256"><ele>2150.82</ele><time>2026-02-01T01:47:13.000Z</time></trkpt>
        <trkpt lat="29.505896" lon="103.2937749"><ele>2152.54</ele><time>2026-02-01T01:47:20.000Z</time></trkpt>
        <trkpt lat="29.5058956" lon="103.2937138"><ele>2153.53</ele><time>2026-02-01T01:47:26.000Z</time></trkpt>
        <trkpt lat="29.5059037" lon="103.2936844"><ele>2154.09</ele><time>2026-02-01T01:47:29.000Z</time></trkpt>
        <trkpt lat="29.505911" lon="103.2936355"><ele>2154.41</ele><time>2026-02-01T01:47:37.000Z</time></trkpt>
        <trkpt lat="29.5059122" lon="103.2935795"><ele>2154.59</ele><time>2026-02-01T01:47:44.000Z</time></trkpt>
        <trkpt lat="29.5059123" lon="103.2935179"><ele>2154.69</ele><time>2026-02-01T01:47:49.000Z</time></trkpt>
        <trkpt lat="29.5059213" lon="103.2934534"><ele>2154.75</ele><time>2026-02-01T01:47:56.000Z</time></trkpt>
        <trkpt lat="29.5059271" lon="103.2934273"><ele>2154.78</ele><time>2026-02-01T01:47:58.000Z</time></trkpt>
        <trkpt lat="29.5059328" lon="103.2933848"><ele>2154.8</ele><time>2026-02-01T01:48:04.000Z</time></trkpt>
        <trkpt lat="29.5059544" lon="103.2933423"><ele>2154.81</ele><time>2026-02-01T01:48:07.000Z</time></trkpt>
        <trkpt lat="29.5059946" lon="103.2932977"><ele>2154.82</ele><time>2026-02-01T01:48:14.000Z</time></trkpt>
        <trkpt lat="29.5060451" lon="103.2932605"><ele>2154.82</ele><time>2026-02-01T01:48:20.000Z</time></trkpt>
        <trkpt lat="29.506085" lon="103.2932163"><ele>2154.83</ele><time>2026-02-01T01:48:26.000Z</time></trkpt>
        <trkpt lat="29.5060933" lon="103.293165"><ele>2154.83</ele><time>2026-02-01T01:48:29.000Z</time></trkpt>
        <trkpt lat="29.5060777" lon="103.2931149"><ele>2154.83</ele><time>2026-02-01T01:48:34.000Z</time></trkpt>
        <trkpt lat="29.5060455" lon="103.2930736"><ele>2154.83</ele><time>2026-02-01T01:48:37.000Z</time></trkpt>
        <trkpt lat="29.5060904" lon="103.2929695"><ele>2154.83</ele><time>2026-02-01T01:48:41.000Z</time></trkpt>
        <trkpt lat="29.5060964" lon="103.2928869"><ele>2152.47</ele><time>2026-02-01T01:48:43.000Z</time></trkpt>
        <trkpt lat="29.5060688" lon="103.29281"><ele>2150.2</ele><time>2026-02-01T01:48:48.000Z</time></trkpt>
        <trkpt lat="29.5060327" lon="103.2927455"><ele>2147.26</ele><time>2026-02-01T01:48:52.000Z</time></trkpt>
        <trkpt lat="29.5059976" lon="103.2926969"><ele>2144.64</ele><time>2026-02-01T01:48:56.000Z</time></trkpt>
        <trkpt lat="29.5059673" lon="103.2926501"><ele>2142.53</ele><time>2026-02-01T01:48:59.000Z</time></trkpt>
        <trkpt lat="29.5059329" lon="103.292604"><ele>2140.58</ele><time>2026-02-01T01:49:03.000Z</time></trkpt>
        <trkpt lat="29.5059" lon="103.29255"><ele>2139</ele><time>2026-02-01T01:49:08.000Z</time></trkpt>
        <trkpt lat="29.5058614" lon="103.2924985"><ele>2137.52</ele><time>2026-02-01T01:49:12.000Z</time></trkpt>
        <trkpt lat="29.5058224" lon="103.2924464"><ele>2136.21</ele><time>2026-02-01T01:49:16.000Z</time></trkpt>
        <trkpt lat="29.5057942" lon="103.2923938"><ele>2135.13</ele><time>2026-02-01T01:49:19.000Z</time></trkpt>
        <trkpt lat="29.5057677" lon="103.292343"><ele>2133.79</ele><time>2026-02-01T01:49:24.000Z</time></trkpt>
        <trkpt lat="29.5057438" lon="103.2922848"><ele>2132.16</ele><time>2026-02-01T01:49:28.000Z</time></trkpt>
        <trkpt lat="29.5057293" lon="103.2922281"><ele>2130.6</ele><time>2026-02-01T01:49:32.000Z</time></trkpt>
        <trkpt lat="29.5056976" lon="103.2921771"><ele>2129.29</ele><time>2026-02-01T01:49:37.000Z</time></trkpt>
        <trkpt lat="29.5056389" lon="103.2921593"><ele>2128.54</ele><time>2026-02-01T01:49:44.000Z</time></trkpt>
        <trkpt lat="29.5055853" lon="103.2921637"><ele>2128.12</ele><time>2026-02-01T01:49:47.000Z</time></trkpt>
        <trkpt lat="29.5055347" lon="103.2921767"><ele>2127.88</ele><time>2026-02-01T01:49:52.000Z</time></trkpt>
        <trkpt lat="29.5054846" lon="103.2921772"><ele>2127.74</ele><time>2026-02-01T01:49:55.000Z</time></trkpt>
        <trkpt lat="29.5054378" lon="103.2921607"><ele>2127.66</ele><time>2026-02-01T01:50:00.000Z</time></trkpt>
        <trkpt lat="29.5053944" lon="103.2921067"><ele>2127.62</ele><time>2026-02-01T01:50:01.000Z</time></trkpt>
        <trkpt lat="29.5053372" lon="103.2920487"><ele>2126.91</ele><time>2026-02-01T01:50:05.000Z</time></trkpt>
        <trkpt lat="29.5052723" lon="103.2919906"><ele>2125.78</ele><time>2026-02-01T01:50:09.000Z</time></trkpt>
        <trkpt lat="29.5052149" lon="103.2919282"><ele>2124.17</ele><time>2026-02-01T01:50:13.000Z</time></trkpt>
        <trkpt lat="29.5051719" lon="103.2918648"><ele>2122.16</ele><time>2026-02-01T01:50:17.000Z</time></trkpt>
        <trkpt lat="29.5051298" lon="103.291804"><ele>2119.76</ele><time>2026-02-01T01:50:22.000Z</time></trkpt>
        <trkpt lat="29.5050979" lon="103.2917537"><ele>2117.64</ele><time>2026-02-01T01:50:25.000Z</time></trkpt>
        <trkpt lat="29.5050615" lon="103.2917066"><ele>2116.44</ele><time>2026-02-01T01:50:30.000Z</time></trkpt>
        <trkpt lat="29.5050333" lon="103.2916812"><ele>2115.27</ele><time>2026-02-01T01:50:32.000Z</time></trkpt>
        <trkpt lat="29.5049869" lon="103.2916482"><ele>2114.35</ele><time>2026-02-01T01:50:36.000Z</time></trkpt>
        <trkpt lat="29.5049401" lon="103.2916154"><ele>2113.42</ele><time>2026-02-01T01:50:40.000Z</time></trkpt>
        <trkpt lat="29.5048908" lon="103.2915739"><ele>2112.36</ele><time>2026-02-01T01:50:43.000Z</time></trkpt>
        <trkpt lat="29.5048404" lon="103.2915073"><ele>2111.23</ele><time>2026-02-01T01:50:48.000Z</time></trkpt>
        <trkpt lat="29.5047992" lon="103.2914423"><ele>2109.95</ele><time>2026-02-01T01:50:50.000Z</time></trkpt>
        <trkpt lat="29.5047612" lon="103.2913759"><ele>2108.79</ele><time>2026-02-01T01:50:52.000Z</time></trkpt>
        <trkpt lat="29.5047242" lon="103.2913197"><ele>2107.76</ele><time>2026-02-01T01:50:54.000Z</time></trkpt>
        <trkpt lat="29.5046882" lon="103.2912743"><ele>2106.8</ele><time>2026-02-01T01:50:56.000Z</time></trkpt>
        <trkpt lat="29.5046456" lon="103.2912301"><ele>2105.84</ele><time>2026-02-01T01:50:57.000Z</time></trkpt>
        <trkpt lat="29.5046017" lon="103.2911926"><ele>2105.21</ele><time>2026-02-01T01:50:59.000Z</time></trkpt>
        <trkpt lat="29.5045591" lon="103.2911587"><ele>2104.83</ele><time>2026-02-01T01:51:01.000Z</time></trkpt>
        <trkpt lat="29.5045177" lon="103.2911281"><ele>2104.45</ele><time>2026-02-01T01:51:03.000Z</time></trkpt>
        <trkpt lat="29.5044755" lon="103.2910917"><ele>2103.89</ele><time>2026-02-01T01:51:05.000Z</time></trkpt>
        <trkpt lat="29.5044319" lon="103.2910511"><ele>2102.86</ele><time>2026-02-01T01:51:07.000Z</time></trkpt>
        <trkpt lat="29.5043921" lon="103.2910052"><ele>2102.04</ele><time>2026-02-01T01:51:09.000Z</time></trkpt>
        <trkpt lat="29.5043527" lon="103.2909494"><ele>2101.35</ele><time>2026-02-01T01:51:11.000Z</time></trkpt>
        <trkpt lat="29.5043292" lon="103.290886"><ele>2100.76</ele><time>2026-02-01T01:51:13.000Z</time></trkpt>
        <trkpt lat="29.5043156" lon="103.2908186"><ele>2100.12</ele><time>2026-02-01T01:51:15.000Z</time></trkpt>
        <trkpt lat="29.504314" lon="103.2907541"><ele>2099.49</ele><time>2026-02-01T01:51:17.000Z</time></trkpt>
        <trkpt lat="29.5043235" lon="103.2906942"><ele>2098.76</ele><time>2026-02-01T01:51:19.000Z</time></trkpt>
        <trkpt lat="29.50434" lon="103.2906343"><ele>2097.91</ele><time>2026-02-01T01:51:21.000Z</time></trkpt>
        <trkpt lat="29.5043619" lon="103.2905834"><ele>2096.92</ele><time>2026-02-01T01:51:23.000Z</time></trkpt>
        <trkpt lat="29.5043905" lon="103.2904978"><ele>2096.19</ele><time>2026-02-01T01:51:27.000Z</time></trkpt>
        <trkpt lat="29.5044136" lon="103.2904353"><ele>2094.65</ele><time>2026-02-01T01:51:29.000Z</time></trkpt>
        <trkpt lat="29.5044437" lon="103.2903495"><ele>2093.4</ele><time>2026-02-01T01:51:33.000Z</time></trkpt>
        <trkpt lat="29.5044592" lon="103.2902792"><ele>2092.29</ele><time>2026-02-01T01:51:35.000Z</time></trkpt>
        <trkpt lat="29.5044514" lon="103.2902145"><ele>2091.17</ele><time>2026-02-01T01:51:37.000Z</time></trkpt>
        <trkpt lat="29.5043902" lon="103.2901693"><ele>2090.23</ele><time>2026-02-01T01:51:41.000Z</time></trkpt>
        <trkpt lat="29.5043344" lon="103.290148"><ele>2088.87</ele><time>2026-02-01T01:51:43.000Z</time></trkpt>
        <trkpt lat="29.5042565" lon="103.2901405"><ele>2087.57</ele><time>2026-02-01T01:51:47.000Z</time></trkpt>
        <trkpt lat="29.504165" lon="103.290124"><ele>2086.51</ele><time>2026-02-01T01:51:51.000Z</time></trkpt>
        <trkpt lat="29.5041063" lon="103.2901071"><ele>2085.13</ele><time>2026-02-01T01:51:53.000Z</time></trkpt>
        <trkpt lat="29.5040373" lon="103.2900749"><ele>2084.03</ele><time>2026-02-01T01:51:57.000Z</time></trkpt>
        <trkpt lat="29.5039744" lon="103.2900255"><ele>2082.94</ele><time>2026-02-01T01:52:01.000Z</time></trkpt>
        <trkpt lat="29.503907" lon="103.2899562"><ele>2082</ele><time>2026-02-01T01:52:05.000Z</time></trkpt>
        <trkpt lat="29.5038817" lon="103.2898648"><ele>2080.84</ele><time>2026-02-01T01:52:09.000Z</time></trkpt>
        <trkpt lat="29.5038572" lon="103.2898068"><ele>2079.42</ele><time>2026-02-01T01:52:11.000Z</time></trkpt>
        <trkpt lat="29.5038114" lon="103.289778"><ele>2078.49</ele><time>2026-02-01T01:52:15.000Z</time></trkpt>
        <trkpt lat="29.5037589" lon="103.2897834"><ele>2077.8</ele><time>2026-02-01T01:52:19.000Z</time></trkpt>
        <trkpt lat="29.5037055" lon="103.2898105"><ele>2077.08</ele><time>2026-02-01T01:52:23.000Z</time></trkpt>
        <trkpt lat="29.503649" lon="103.2898227"><ele>2075.86</ele><time>2026-02-01T01:52:27.000Z</time></trkpt>
        <trkpt lat="29.5035915" lon="103.2898319"><ele>2075.05</ele><time>2026-02-01T01:52:31.000Z</time></trkpt>
        <trkpt lat="29.5035328" lon="103.2898464"><ele>2073.96</ele><time>2026-02-01T01:52:35.000Z</time></trkpt>
        <trkpt lat="29.5034755" lon="103.2898548"><ele>2073.28</ele><time>2026-02-01T01:52:39.000Z</time></trkpt>
        <trkpt lat="29.5034195" lon="103.2898604"><ele>2072.9</ele><time>2026-02-01T01:52:43.000Z</time></trkpt>
        <trkpt lat="29.5033656" lon="103.2898586"><ele>2072.68</ele><time>2026-02-01T01:52:47.000Z</time></trkpt>
        <trkpt lat="29.5033099" lon="103.2898483"><ele>2072.56</ele><time>2026-02-01T01:52:51.000Z</time></trkpt>
        <trkpt lat="29.5032583" lon="103.2898159"><ele>2072.48</ele><time>2026-02-01T01:52:55.000Z</time></trkpt>
        <trkpt lat="29.5032171" lon="103.2897738"><ele>2072.44</ele><time>2026-02-01T01:52:59.000Z</time></trkpt>
        <trkpt lat="29.5031898" lon="103.2897157"><ele>2072.42</ele><time>2026-02-01T01:53:03.000Z</time></trkpt>
        <trkpt lat="29.503171" lon="103.2896506"><ele>2072.41</ele><time>2026-02-01T01:53:07.000Z</time></trkpt>
        <trkpt lat="29.5031564" lon="103.2895841"><ele>2072.4</ele><time>2026-02-01T01:53:11.000Z</time></trkpt>
        <trkpt lat="29.5031618" lon="103.2895338"><ele>2072.4</ele><time>2026-02-01T01:53:13.000Z</time></trkpt>
        <trkpt lat="29.5031691" lon="103.2894712"><ele>2064.71</ele><time>2026-02-01T01:53:15.000Z</time></trkpt>
        <trkpt lat="29.5031647" lon="103.289398"><ele>2060.32</ele><time>2026-02-01T01:53:20.000Z</time></trkpt>
        <trkpt lat="29.5031504" lon="103.2893301"><ele>2057.63</ele><time>2026-02-01T01:53:23.000Z</time></trkpt>
        <trkpt lat="29.5031122" lon="103.2892565"><ele>2055.99</ele><time>2026-02-01T01:53:28.000Z</time></trkpt>
        <trkpt lat="29.5030714" lon="103.2891843"><ele>2058.7</ele><time>2026-02-01T01:53:32.000Z</time></trkpt>
        <trkpt lat="29.5030375" lon="103.2891186"><ele>2060.4</ele><time>2026-02-01T01:53:35.000Z</time></trkpt>
        <trkpt lat="29.5030082" lon="103.2890624"><ele>2061.19</ele><time>2026-02-01T01:53:39.000Z</time></trkpt>
        <trkpt lat="29.5029755" lon="103.2890086"><ele>2061.61</ele><time>2026-02-01T01:53:43.000Z</time></trkpt>
        <trkpt lat="29.5029423" lon="103.2889593"><ele>2061.85</ele><time>2026-02-01T01:53:47.000Z</time></trkpt>
        <trkpt lat="29.5029073" lon="103.2889126"><ele>2061.77</ele><time>2026-02-01T01:53:52.000Z</time></trkpt>
        <trkpt lat="29.5028691" lon="103.2888647"><ele>2061.67</ele><time>2026-02-01T01:53:56.000Z</time></trkpt>
        <trkpt lat="29.5028249" lon="103.2888227"><ele>2061.5</ele><time>2026-02-01T01:53:59.000Z</time></trkpt>
        <trkpt lat="29.5027821" lon="103.2887863"><ele>2061.36</ele><time>2026-02-01T01:54:04.000Z</time></trkpt>
        <trkpt lat="29.5027445" lon="103.2887474"><ele>2061.27</ele><time>2026-02-01T01:54:07.000Z</time></trkpt>
        <trkpt lat="29.5027149" lon="103.2887029"><ele>2061.23</ele><time>2026-02-01T01:54:11.000Z</time></trkpt>
        <trkpt lat="29.5026887" lon="103.2886554"><ele>2061.2</ele><time>2026-02-01T01:54:16.000Z</time></trkpt>
        <trkpt lat="29.5026692" lon="103.2886037"><ele>2061.19</ele><time>2026-02-01T01:54:20.000Z</time></trkpt>
        <trkpt lat="29.5026525" lon="103.288551"><ele>2061.18</ele><time>2026-02-01T01:54:24.000Z</time></trkpt>
        <trkpt lat="29.5026367" lon="103.2884984"><ele>2061.17</ele><time>2026-02-01T01:54:28.000Z</time></trkpt>
        <trkpt lat="29.5026181" lon="103.2884474"><ele>2061.17</ele><time>2026-02-01T01:54:32.000Z</time></trkpt>
        <trkpt lat="29.5025878" lon="103.2883842"><ele>2061.17</ele><time>2026-02-01T01:54:38.000Z</time></trkpt>
        <trkpt lat="29.5025446" lon="103.2883267"><ele>2061.17</ele><time>2026-02-01T01:54:44.000Z</time></trkpt>
        <trkpt lat="29.5024904" lon="103.2883124"><ele>2061.17</ele><time>2026-02-01T01:54:48.000Z</time></trkpt>
        <trkpt lat="29.5024366" lon="103.2883144"><ele>2061.17</ele><time>2026-02-01T01:54:52.000Z</time></trkpt>
        <trkpt lat="29.5023833" lon="103.2882666"><ele>2061.17</ele><time>2026-02-01T01:54:56.000Z</time></trkpt>
        <trkpt lat="29.5023427" lon="103.2882273"><ele>2060.38</ele><time>2026-02-01T01:54:57.000Z</time></trkpt>
        <trkpt lat="29.5023156" lon="103.288214"><ele>2059.06</ele><time>2026-02-01T01:55:00.000Z</time></trkpt>
        <trkpt lat="29.5022732" lon="103.2882156"><ele>2057.78</ele><time>2026-02-01T01:55:03.000Z</time></trkpt>
        <trkpt lat="29.5022184" lon="103.2882252"><ele>2055.5</ele><time>2026-02-01T01:55:08.000Z</time></trkpt>
        <trkpt lat="29.5021609" lon="103.2882381"><ele>2053.24</ele><time>2026-02-01T01:55:12.000Z</time></trkpt>
        <trkpt lat="29.502109" lon="103.2882582"><ele>2051.03</ele><time>2026-02-01T01:55:16.000Z</time></trkpt>
        <trkpt lat="29.5020607" lon="103.2882861"><ele>2048.83</ele><time>2026-02-01T01:55:20.000Z</time></trkpt>
        <trkpt lat="29.5020144" lon="103.2883231"><ele>2046.82</ele><time>2026-02-01T01:55:24.000Z</time></trkpt>
        <trkpt lat="29.5019731" lon="103.2883622"><ele>2045.19</ele><time>2026-02-01T01:55:28.000Z</time></trkpt>
        <trkpt lat="29.50193" lon="103.2883982"><ele>2043.67</ele><time>2026-02-01T01:55:32.000Z</time></trkpt>
        <trkpt lat="29.5018854" lon="103.2884033"><ele>2041.94</ele><time>2026-02-01T01:55:39.000Z</time></trkpt>
        <trkpt lat="29.5018273" lon="103.2884317"><ele>2036.42</ele><time>2026-02-01T01:55:43.000Z</time></trkpt>
        <trkpt lat="29.5017674" lon="103.2884482"><ele>2032.54</ele><time>2026-02-01T01:55:49.000Z</time></trkpt>
        <trkpt lat="29.5017174" lon="103.2884539"><ele>2030.33</ele><time>2026-02-01T01:55:53.000Z</time></trkpt>
        <trkpt lat="29.5016505" lon="103.2884717"><ele>2029.75</ele><time>2026-02-01T01:55:55.000Z</time></trkpt>
        <trkpt lat="29.5015862" lon="103.2884874"><ele>2029.31</ele><time>2026-02-01T01:55:57.000Z</time></trkpt>
        <trkpt lat="29.501523" lon="103.2885059"><ele>2029.12</ele><time>2026-02-01T01:56:01.000Z</time></trkpt>
        <trkpt lat="29.5014571" lon="103.2885276"><ele>2029.01</ele><time>2026-02-01T01:56:06.000Z</time></trkpt>
        <trkpt lat="29.501393" lon="103.2885674"><ele>2023.71</ele><time>2026-02-01T01:56:10.000Z</time></trkpt>
        <trkpt lat="29.5013418" lon="103.2886042"><ele>2021.85</ele><time>2026-02-01T01:56:13.000Z</time></trkpt>
        <trkpt lat="29.5012912" lon="103.2886393"><ele>2021.14</ele><time>2026-02-01T01:56:18.000Z</time></trkpt>
        <trkpt lat="29.5012457" lon="103.2886809"><ele>2021.39</ele><time>2026-02-01T01:56:21.000Z</time></trkpt>
        <trkpt lat="29.5012006" lon="103.2887024"><ele>2021.83</ele><time>2026-02-01T01:56:25.000Z</time></trkpt>
        <trkpt lat="29.5011506" lon="103.2886967"><ele>2022.25</ele><time>2026-02-01T01:56:29.000Z</time></trkpt>
        <trkpt lat="29.501101" lon="103.2886647"><ele>2022.25</ele><time>2026-02-01T01:56:33.000Z</time></trkpt>
        <trkpt lat="29.5010596" lon="103.2885985"><ele>2021.71</ele><time>2026-02-01T01:56:37.000Z</time></trkpt>
        <trkpt lat="29.5010187" lon="103.2885271"><ele>2023.63</ele><time>2026-02-01T01:56:42.000Z</time></trkpt>
        <trkpt lat="29.5009871" lon="103.2884612"><ele>2024.85</ele><time>2026-02-01T01:56:45.000Z</time></trkpt>
        <trkpt lat="29.5009625" lon="103.288407"><ele>2024.85</ele><time>2026-02-01T01:56:48.000Z</time></trkpt>
        <trkpt lat="29.5009353" lon="103.2883493"><ele>2025.37</ele><time>2026-02-01T01:56:52.000Z</time></trkpt>
        <trkpt lat="29.5009245" lon="103.288288"><ele>2025.57</ele><time>2026-02-01T01:56:56.000Z</time></trkpt>
        <trkpt lat="29.5009391" lon="103.2882282"><ele>2025.73</ele><time>2026-02-01T01:57:02.000Z</time></trkpt>
        <trkpt lat="29.5009584" lon="103.2881694"><ele>2025.82</ele><time>2026-02-01T01:57:08.000Z</time></trkpt>
        <trkpt lat="29.5009785" lon="103.2881069"><ele>2025.87</ele><time>2026-02-01T01:57:14.000Z</time></trkpt>
        <trkpt lat="29.5010004" lon="103.2880534"><ele>2025.9</ele><time>2026-02-01T01:57:17.000Z</time></trkpt>
        <trkpt lat="29.5010207" lon="103.2880034"><ele>2025.92</ele><time>2026-02-01T01:57:22.000Z</time></trkpt>
        <trkpt lat="29.5010584" lon="103.287978"><ele>2025.93</ele><time>2026-02-01T01:57:26.000Z</time></trkpt>
        <trkpt lat="29.5011078" lon="103.2879548"><ele>2025.94</ele><time>2026-02-01T01:57:32.000Z</time></trkpt>
        <trkpt lat="29.5011514" lon="103.2879265"><ele>2025.94</ele><time>2026-02-01T01:57:36.000Z</time></trkpt>
        <trkpt lat="29.5011792" lon="103.2878837"><ele>2025.94</ele><time>2026-02-01T01:57:40.000Z</time></trkpt>
        <trkpt lat="29.5011958" lon="103.2878348"><ele>2025.94</ele><time>2026-02-01T01:57:43.000Z</time></trkpt>
        <trkpt lat="29.5012001" lon="103.2877814"><ele>2025.94</ele><time>2026-02-01T01:57:48.000Z</time></trkpt>
        <trkpt lat="29.5011897" lon="103.2877286"><ele>2025.94</ele><time>2026-02-01T01:57:52.000Z</time></trkpt>
        <trkpt lat="29.5011788" lon="103.2876742"><ele>2025.94</ele><time>2026-02-01T01:57:56.000Z</time></trkpt>
        <trkpt lat="29.5011676" lon="103.2876188"><ele>2025.94</ele><time>2026-02-01T01:58:00.000Z</time></trkpt>
        <trkpt lat="29.5012243" lon="103.2875394"><ele>2025.94</ele><time>2026-02-01T01:58:03.000Z</time></trkpt>
        <trkpt lat="29.5012988" lon="103.287453"><ele>2020.97</ele><time>2026-02-01T01:58:05.000Z</time></trkpt>
        <trkpt lat="29.5013229" lon="103.2874091"><ele>2016.83</ele><time>2026-02-01T01:58:07.000Z</time></trkpt>
        <trkpt lat="29.501316" lon="103.2873492"><ele>2014.54</ele><time>2026-02-01T01:58:13.000Z</time></trkpt>
        <trkpt lat="29.5012948" lon="103.2872976"><ele>2012.74</ele><time>2026-02-01T01:58:17.000Z</time></trkpt>
        <trkpt lat="29.5012758" lon="103.2872462"><ele>2011.17</ele><time>2026-02-01T01:58:21.000Z</time></trkpt>
        <trkpt lat="29.5012822" lon="103.2871761"><ele>2010.24</ele><time>2026-02-01T01:58:27.000Z</time></trkpt>
        <trkpt lat="29.5013241" lon="103.287112"><ele>2009.62</ele><time>2026-02-01T01:58:33.000Z</time></trkpt>
        <trkpt lat="29.5013797" lon="103.2870623"><ele>2008.26</ele><time>2026-02-01T01:58:37.000Z</time></trkpt>
        <trkpt lat="29.5014357" lon="103.2870049"><ele>2007.17</ele><time>2026-02-01T01:58:42.000Z</time></trkpt>
        <trkpt lat="29.5014771" lon="103.2869382"><ele>2005.54</ele><time>2026-02-01T01:58:46.000Z</time></trkpt>
        <trkpt lat="29.5014913" lon="103.2868708"><ele>2004.28</ele><time>2026-02-01T01:58:50.000Z</time></trkpt>
        <trkpt lat="29.5014401" lon="103.2868299"><ele>2003.94</ele><time>2026-02-01T01:58:53.000Z</time></trkpt>
        <trkpt lat="29.501355" lon="103.2868131"><ele>2004.8</ele><time>2026-02-01T01:58:58.000Z</time></trkpt>
        <trkpt lat="29.5012742" lon="103.2867945"><ele>2005.43</ele><time>2026-02-01T01:59:01.000Z</time></trkpt>
        <trkpt lat="29.5012023" lon="103.2867854"><ele>2006.05</ele><time>2026-02-01T01:59:05.000Z</time></trkpt>
        <trkpt lat="29.50114" lon="103.286768"><ele>2006.35</ele><time>2026-02-01T01:59:10.000Z</time></trkpt>
        <trkpt lat="29.5010901" lon="103.286763"><ele>2006.7</ele><time>2026-02-01T01:59:14.000Z</time></trkpt>
        <trkpt lat="29.5010306" lon="103.2867544"><ele>2006.37</ele><time>2026-02-01T01:59:20.000Z</time></trkpt>
        <trkpt lat="29.500983" lon="103.2867385"><ele>2005.9</ele><time>2026-02-01T01:59:24.000Z</time></trkpt>
        <trkpt lat="29.5009394" lon="103.2867212"><ele>2005.27</ele><time>2026-02-01T01:59:28.000Z</time></trkpt>
        <trkpt lat="29.5008809" lon="103.2867053"><ele>2004.79</ele><time>2026-02-01T01:59:34.000Z</time></trkpt>
        <trkpt lat="29.5008222" lon="103.286687"><ele>2004.52</ele><time>2026-02-01T01:59:40.000Z</time></trkpt>
        <trkpt lat="29.5007765" lon="103.2866522"><ele>2004.36</ele><time>2026-02-01T01:59:46.000Z</time></trkpt>
        <trkpt lat="29.5007466" lon="103.2866007"><ele>2004.27</ele><time>2026-02-01T01:59:52.000Z</time></trkpt>
        <trkpt lat="29.5007162" lon="103.286556"><ele>2004.22</ele><time>2026-02-01T01:59:58.000Z</time></trkpt>
        <trkpt lat="29.500673" lon="103.2865146"><ele>2004.19</ele><time>2026-02-01T02:00:03.000Z</time></trkpt>
        <trkpt lat="29.5006266" lon="103.2864726"><ele>2004.18</ele><time>2026-02-01T02:00:10.000Z</time></trkpt>
        <trkpt lat="29.5005851" lon="103.2864205"><ele>2004.17</ele><time>2026-02-01T02:00:16.000Z</time></trkpt>
        <trkpt lat="29.5005698" lon="103.2863962"><ele>2004.16</ele><time>2026-02-01T02:00:18.000Z</time></trkpt>
        <trkpt lat="29.5004792" lon="103.2863632"><ele>2004.16</ele><time>2026-02-01T02:00:24.000Z</time></trkpt>
        <trkpt lat="29.500411" lon="103.2863378"><ele>2004.16</ele><time>2026-02-01T02:02:19.000Z</time></trkpt>
        <trkpt lat="29.5003613" lon="103.2863029"><ele>1998.2</ele><time>2026-02-01T02:02:25.000Z</time></trkpt>
        <trkpt lat="29.5003116" lon="103.2862815"><ele>1994.12</ele><time>2026-02-01T02:02:29.000Z</time></trkpt>
        <trkpt lat="29.5002573" lon="103.2862651"><ele>1991.57</ele><time>2026-02-01T02:02:34.000Z</time></trkpt>
        <trkpt lat="29.5002053" lon="103.2862585"><ele>1990.38</ele><time>2026-02-01T02:02:38.000Z</time></trkpt>
        <trkpt lat="29.5001733" lon="103.2862143"><ele>1991.54</ele><time>2026-02-01T02:02:42.000Z</time></trkpt>
        <trkpt lat="29.5001481" lon="103.2861526"><ele>1992.02</ele><time>2026-02-01T02:02:46.000Z</time></trkpt>
        <trkpt lat="29.5001043" lon="103.2861851"><ele>1992.01</ele><time>2026-02-01T02:02:50.000Z</time></trkpt>
        <trkpt lat="29.5000537" lon="103.2861867"><ele>1991.88</ele><time>2026-02-01T02:03:01.000Z</time></trkpt>
        <trkpt lat="29.5000044" lon="103.2861708"><ele>1989.08</ele><time>2026-02-01T02:03:08.000Z</time></trkpt>
        <trkpt lat="29.499956" lon="103.2861603"><ele>1987.55</ele><time>2026-02-01T02:03:11.000Z</time></trkpt>
        <trkpt lat="29.4999019" lon="103.2861442"><ele>1989.05</ele><time>2026-02-01T02:03:16.000Z</time></trkpt>
        <trkpt lat="29.4998598" lon="103.2861064"><ele>1989.07</ele><time>2026-02-01T02:03:19.000Z</time></trkpt>
        <trkpt lat="29.4998099" lon="103.2860616"><ele>1990.03</ele><time>2026-02-01T02:03:26.000Z</time></trkpt>
        <trkpt lat="29.4997851" lon="103.2860079"><ele>1990.18</ele><time>2026-02-01T02:03:30.000Z</time></trkpt>
        <trkpt lat="29.4997611" lon="103.2859605"><ele>1989.63</ele><time>2026-02-01T02:03:34.000Z</time></trkpt>
        <trkpt lat="29.4997219" lon="103.2859097"><ele>1989.32</ele><time>2026-02-01T02:03:40.000Z</time></trkpt>
        <trkpt lat="29.4996739" lon="103.2858701"><ele>1989.15</ele><time>2026-02-01T02:03:45.000Z</time></trkpt>
        <trkpt lat="29.4996154" lon="103.2858459"><ele>1989.05</ele><time>2026-02-01T02:03:52.000Z</time></trkpt>
        <trkpt lat="29.4995582" lon="103.2858032"><ele>1988.99</ele><time>2026-02-01T02:03:58.000Z</time></trkpt>
        <trkpt lat="29.4994689" lon="103.2857724"><ele>1988.96</ele><time>2026-02-01T02:04:02.000Z</time></trkpt>
        <trkpt lat="29.4993796" lon="103.2857508"><ele>1992.88</ele><time>2026-02-01T02:04:04.000Z</time></trkpt>
        <trkpt lat="29.4993481" lon="103.2857197"><ele>1995.11</ele><time>2026-02-01T02:04:06.000Z</time></trkpt>
        <trkpt lat="29.4993339" lon="103.2856525"><ele>1996.33</ele><time>2026-02-01T02:04:10.000Z</time></trkpt>
        <trkpt lat="29.4993021" lon="103.2855897"><ele>1996.93</ele><time>2026-02-01T02:04:11.000Z</time></trkpt>
        <trkpt lat="29.4992255" lon="103.285519"><ele>1997.06</ele><time>2026-02-01T02:04:14.000Z</time></trkpt>
        <trkpt lat="29.4991582" lon="103.2854782"><ele>1996.79</ele><time>2026-02-01T02:04:16.000Z</time></trkpt>
        <trkpt lat="29.4990997" lon="103.2854482"><ele>1996.29</ele><time>2026-02-01T02:04:18.000Z</time></trkpt>
        <trkpt lat="29.4990538" lon="103.2854218"><ele>1995.68</ele><time>2026-02-01T02:04:20.000Z</time></trkpt>
        <trkpt lat="29.4990039" lon="103.2853659"><ele>1995.32</ele><time>2026-02-01T02:04:24.000Z</time></trkpt>
        <trkpt lat="29.4989701" lon="103.2852912"><ele>1994.94</ele><time>2026-02-01T02:04:28.000Z</time></trkpt>
        <trkpt lat="29.4989677" lon="103.2852098"><ele>1993.9</ele><time>2026-02-01T02:04:32.000Z</time></trkpt>
        <trkpt lat="29.498987" lon="103.285134"><ele>1992.7</ele><time>2026-02-01T02:04:35.000Z</time></trkpt>
        <trkpt lat="29.4990084" lon="103.2850668"><ele>1991.49</ele><time>2026-02-01T02:04:40.000Z</time></trkpt>
        <trkpt lat="29.4990488" lon="103.2850279"><ele>1990.18</ele><time>2026-02-01T02:04:42.000Z</time></trkpt>
        <trkpt lat="29.4990859" lon="103.28499"><ele>1988.97</ele><time>2026-02-01T02:04:43.000Z</time></trkpt>
        <trkpt lat="29.4990742" lon="103.2849506"><ele>1986.87</ele><time>2026-02-01T02:04:46.000Z</time></trkpt>
        <trkpt lat="29.498992" lon="103.2849127"><ele>1985.09</ele><time>2026-02-01T02:04:49.000Z</time></trkpt>
        <trkpt lat="29.4989151" lon="103.2848876"><ele>1982.62</ele><time>2026-02-01T02:04:52.000Z</time></trkpt>
        <trkpt lat="29.4988558" lon="103.2848756"><ele>1981.08</ele><time>2026-02-01T02:04:54.000Z</time></trkpt>
        <trkpt lat="29.4988051" lon="103.2848628"><ele>1979.96</ele><time>2026-02-01T02:04:56.000Z</time></trkpt>
        <trkpt lat="29.4987509" lon="103.2848435"><ele>1979.02</ele><time>2026-02-01T02:04:58.000Z</time></trkpt>
        <trkpt lat="29.4987003" lon="103.2848164"><ele>1978.17</ele><time>2026-02-01T02:05:00.000Z</time></trkpt>
        <trkpt lat="29.498653" lon="103.2847841"><ele>1977.47</ele><time>2026-02-01T02:05:02.000Z</time></trkpt>
        <trkpt lat="29.4986092" lon="103.2847473"><ele>1976.77</ele><time>2026-02-01T02:05:04.000Z</time></trkpt>
        <trkpt lat="29.4985477" lon="103.2846999"><ele>1976.01</ele><time>2026-02-01T02:05:08.000Z</time></trkpt>
        <trkpt lat="29.4984939" lon="103.2846658"><ele>1975.16</ele><time>2026-02-01T02:05:12.000Z</time></trkpt>
        <trkpt lat="29.4984456" lon="103.2846399"><ele>1974.27</ele><time>2026-02-01T02:05:16.000Z</time></trkpt>
        <trkpt lat="29.498401" lon="103.2846237"><ele>1973.42</ele><time>2026-02-01T02:05:19.000Z</time></trkpt>
        <trkpt lat="29.4983534" lon="103.2846121"><ele>1972.53</ele><time>2026-02-01T02:05:24.000Z</time></trkpt>
        <trkpt lat="29.4982987" lon="103.2846033"><ele>1971.44</ele><time>2026-02-01T02:05:28.000Z</time></trkpt>
        <trkpt lat="29.4982388" lon="103.2845918"><ele>1970.35</ele><time>2026-02-01T02:05:32.000Z</time></trkpt>
        <trkpt lat="29.4981776" lon="103.2845677"><ele>1969.48</ele><time>2026-02-01T02:05:38.000Z</time></trkpt>
        <trkpt lat="29.4981146" lon="103.2845493"><ele>1968.99</ele><time>2026-02-01T02:05:43.000Z</time></trkpt>
        <trkpt lat="29.4980638" lon="103.2845384"><ele>1968.71</ele><time>2026-02-01T02:05:48.000Z</time></trkpt>
        <trkpt lat="29.4980182" lon="103.2845302"><ele>1968.55</ele><time>2026-02-01T02:05:52.000Z</time></trkpt>
        <trkpt lat="29.497964" lon="103.284519"><ele>1968.45</ele><time>2026-02-01T02:05:58.000Z</time></trkpt>
        <trkpt lat="29.4978994" lon="103.2845231"><ele>1968.4</ele><time>2026-02-01T02:06:04.000Z</time></trkpt>
        <trkpt lat="29.4978468" lon="103.28453"><ele>1968.37</ele><time>2026-02-01T02:06:08.000Z</time></trkpt>
        <trkpt lat="29.4977988" lon="103.2845421"><ele>1968.36</ele><time>2026-02-01T02:06:12.000Z</time></trkpt>
        <trkpt lat="29.4977531" lon="103.2845444"><ele>1968.35</ele><time>2026-02-01T02:06:15.000Z</time></trkpt>
        <trkpt lat="29.4976993" lon="103.2845211"><ele>1968.34</ele><time>2026-02-01T02:06:22.000Z</time></trkpt>
        <trkpt lat="29.4976661" lon="103.284479"><ele>1968.34</ele><time>2026-02-01T02:06:26.000Z</time></trkpt>
        <trkpt lat="29.497636" lon="103.2844186"><ele>1968.34</ele><time>2026-02-01T02:06:32.000Z</time></trkpt>
        <trkpt lat="29.4975468" lon="103.2843301"><ele>1968.33</ele><time>2026-02-01T02:06:36.000Z</time></trkpt>
        <trkpt lat="29.4974953" lon="103.2842592"><ele>1964.9</ele><time>2026-02-01T02:06:40.000Z</time></trkpt>
        <trkpt lat="29.4974615" lon="103.2842058"><ele>1961.78</ele><time>2026-02-01T02:06:43.000Z</time></trkpt>
        <trkpt lat="29.4974297" lon="103.2841684"><ele>1959.13</ele><time>2026-02-01T02:06:47.000Z</time></trkpt>
        <trkpt lat="29.4973884" lon="103.2841378"><ele>1957.39</ele><time>2026-02-01T02:06:52.000Z</time></trkpt>
        <trkpt lat="29.4973428" lon="103.2840993"><ele>1955.94</ele><time>2026-02-01T02:06:56.000Z</time></trkpt>
        <trkpt lat="29.4972976" lon="103.2840569"><ele>1954.66</ele><time>2026-02-01T02:07:00.000Z</time></trkpt>
        <trkpt lat="29.4972493" lon="103.2840082"><ele>1953.48</ele><time>2026-02-01T02:07:04.000Z</time></trkpt>
        <trkpt lat="29.497203" lon="103.2839572"><ele>1952.52</ele><time>2026-02-01T02:07:08.000Z</time></trkpt>
        <trkpt lat="29.4971612" lon="103.2839122"><ele>1951.72</ele><time>2026-02-01T02:07:12.000Z</time></trkpt>
        <trkpt lat="29.4971272" lon="103.2838613"><ele>1951.03</ele><time>2026-02-01T02:07:16.000Z</time></trkpt>
        <trkpt lat="29.4971118" lon="103.2838068"><ele>1950.16</ele><time>2026-02-01T02:07:20.000Z</time></trkpt>
        <trkpt lat="29.4971271" lon="103.2837385"><ele>1949.38</ele><time>2026-02-01T02:07:26.000Z</time></trkpt>
        <trkpt lat="29.497143" lon="103.2836638"><ele>1948.77</ele><time>2026-02-01T02:07:30.000Z</time></trkpt>
        <trkpt lat="29.4971287" lon="103.2835909"><ele>1948.18</ele><time>2026-02-01T02:07:34.000Z</time></trkpt>
        <trkpt lat="29.4970978" lon="103.2835358"><ele>1947.36</ele><time>2026-02-01T02:07:37.000Z</time></trkpt>
        <trkpt lat="29.4970701" lon="103.2834808"><ele>1946.72</ele><time>2026-02-01T02:07:42.000Z</time></trkpt>
        <trkpt lat="29.4970485" lon="103.2834219"><ele>1945.99</ele><time>2026-02-01T02:07:46.000Z</time></trkpt>
        <trkpt lat="29.4970291" lon="103.2833633"><ele>1945.26</ele><time>2026-02-01T02:07:50.000Z</time></trkpt>
        <trkpt lat="29.4970066" lon="103.2833036"><ele>1944.48</ele><time>2026-02-01T02:07:54.000Z</time></trkpt>
        <trkpt lat="29.4969847" lon="103.2832446"><ele>1943.68</ele><time>2026-02-01T02:07:57.000Z</time></trkpt>
        <trkpt lat="29.496967" lon="103.2831843"><ele>1942.89</ele><time>2026-02-01T02:08:02.000Z</time></trkpt>
        <trkpt lat="29.4969629" lon="103.2831031"><ele>1942.08</ele><time>2026-02-01T02:08:08.000Z</time></trkpt>
        <trkpt lat="29.4969396" lon="103.2830462"><ele>1936.03</ele><time>2026-02-01T02:08:13.000Z</time></trkpt>
        <trkpt lat="29.4968729" lon="103.2830014"><ele>1932.47</ele><time>2026-02-01T02:08:17.000Z</time></trkpt>
        <trkpt lat="29.4968169" lon="103.2829861"><ele>1935.46</ele><time>2026-02-01T02:08:19.000Z</time></trkpt>
        <trkpt lat="29.4967718" lon="103.2830171"><ele>1936.63</ele><time>2026-02-01T02:08:23.000Z</time></trkpt>
        <trkpt lat="29.4967329" lon="103.283076"><ele>1936.15</ele><time>2026-02-01T02:08:29.000Z</time></trkpt>
        <trkpt lat="29.4967114" lon="103.2831468"><ele>1935.91</ele><time>2026-02-01T02:08:37.000Z</time></trkpt>
        <trkpt lat="29.4966946" lon="103.2832131"><ele>1935.84</ele><time>2026-02-01T02:08:41.000Z</time></trkpt>
        <trkpt lat="29.4966695" lon="103.283274"><ele>1935.77</ele><time>2026-02-01T02:08:48.000Z</time></trkpt>
        <trkpt lat="29.4966409" lon="103.2833193"><ele>1935.7</ele><time>2026-02-01T02:08:52.000Z</time></trkpt>
        <trkpt lat="29.4966024" lon="103.2833532"><ele>1935.66</ele><time>2026-02-01T02:08:55.000Z</time></trkpt>
        <trkpt lat="29.4965599" lon="103.283376"><ele>1935.64</ele><time>2026-02-01T02:09:00.000Z</time></trkpt>
        <trkpt lat="29.4965117" lon="103.2833936"><ele>1935.62</ele><time>2026-02-01T02:09:04.000Z</time></trkpt>
        <trkpt lat="29.4964605" lon="103.283413"><ele>1935.62</ele><time>2026-02-01T02:09:08.000Z</time></trkpt>
        <trkpt lat="29.4964086" lon="103.2834316"><ele>1935.61</ele><time>2026-02-01T02:09:12.000Z</time></trkpt>
        <trkpt lat="29.4963568" lon="103.2834417"><ele>1935.61</ele><time>2026-02-01T02:09:16.000Z</time></trkpt>
        <trkpt lat="29.4963032" lon="103.2834453"><ele>1935.61</ele><time>2026-02-01T02:09:20.000Z</time></trkpt>
        <trkpt lat="29.4962521" lon="103.283445"><ele>1935.61</ele><time>2026-02-01T02:09:24.000Z</time></trkpt>
        <trkpt lat="29.4961979" lon="103.283443"><ele>1935.61</ele><time>2026-02-01T02:09:28.000Z</time></trkpt>
        <trkpt lat="29.4961404" lon="103.2834461"><ele>1935.61</ele><time>2026-02-01T02:09:32.000Z</time></trkpt>
        <trkpt lat="29.4960868" lon="103.2834457"><ele>1935.61</ele><time>2026-02-01T02:09:36.000Z</time></trkpt>
        <trkpt lat="29.496032" lon="103.2834409"><ele>1935.61</ele><time>2026-02-01T02:09:40.000Z</time></trkpt>
        <trkpt lat="29.4959547" lon="103.2834616"><ele>1935.61</ele><time>2026-02-01T02:09:41.000Z</time></trkpt>
        <trkpt lat="29.4958865" lon="103.2834822"><ele>1933.88</ele><time>2026-02-01T02:09:46.000Z</time></trkpt>
        <trkpt lat="29.4958258" lon="103.2834741"><ele>1931.59</ele><time>2026-02-01T02:09:50.000Z</time></trkpt>
        <trkpt lat="29.4957758" lon="103.2834566"><ele>1929.87</ele><time>2026-02-01T02:09:54.000Z</time></trkpt>
        <trkpt lat="29.4957295" lon="103.2834316"><ele>1928.42</ele><time>2026-02-01T02:09:58.000Z</time></trkpt>
        <trkpt lat="29.495688" lon="103.2834006"><ele>1927.42</ele><time>2026-02-01T02:10:02.000Z</time></trkpt>
        <trkpt lat="29.4956535" lon="103.2833546"><ele>1926.85</ele><time>2026-02-01T02:10:06.000Z</time></trkpt>
        <trkpt lat="29.4956157" lon="103.2832975"><ele>1926.52</ele><time>2026-02-01T02:10:10.000Z</time></trkpt>
        <trkpt lat="29.4955748" lon="103.2832561"><ele>1926.29</ele><time>2026-02-01T02:10:14.000Z</time></trkpt>
        <trkpt lat="29.495527" lon="103.2832744"><ele>1925.82</ele><time>2026-02-01T02:10:18.000Z</time></trkpt>
        <trkpt lat="29.4954794" lon="103.283319"><ele>1924.95</ele><time>2026-02-01T02:10:22.000Z</time></trkpt>
        <trkpt lat="29.4954305" lon="103.2833614"><ele>1923.79</ele><time>2026-02-01T02:10:26.000Z</time></trkpt>
        <trkpt lat="29.4953753" lon="103.2833714"><ele>1922.65</ele><time>2026-02-01T02:10:29.000Z</time></trkpt>
        <trkpt lat="29.4953273" lon="103.2833613"><ele>1921.66</ele><time>2026-02-01T02:10:33.000Z</time></trkpt>
        <trkpt lat="29.4952702" lon="103.2833395"><ele>1920.92</ele><time>2026-02-01T02:10:39.000Z</time></trkpt>
        <trkpt lat="29.4952201" lon="103.2833216"><ele>1919.87</ele><time>2026-02-01T02:10:41.000Z</time></trkpt>
        <trkpt lat="29.4951662" lon="103.2832871"><ele>1918.75</ele><time>2026-02-01T02:10:45.000Z</time></trkpt>
        <trkpt lat="29.4951132" lon="103.2832694"><ele>1917.51</ele><time>2026-02-01T02:10:49.000Z</time></trkpt>
        <trkpt lat="29.4950647" lon="103.2832339"><ele>1916.81</ele><time>2026-02-01T02:10:53.000Z</time></trkpt>
        <trkpt lat="29.4950488" lon="103.2832045"><ele>1915.85</ele><time>2026-02-01T02:10:55.000Z</time></trkpt>
        <trkpt lat="29.4950087" lon="103.2831546"><ele>1913.44</ele><time>2026-02-01T02:10:59.000Z</time></trkpt>
        <trkpt lat="29.4949611" lon="103.2831096"><ele>1911.66</ele><time>2026-02-01T02:11:03.000Z</time></trkpt>
        <trkpt lat="29.4949109" lon="103.2830764"><ele>1910.34</ele><time>2026-02-01T02:11:07.000Z</time></trkpt>
        <trkpt lat="29.4948547" lon="103.2830439"><ele>1909.52</ele><time>2026-02-01T02:11:12.000Z</time></trkpt>
        <trkpt lat="29.4947999" lon="103.2830079"><ele>1908.77</ele><time>2026-02-01T02:11:15.000Z</time></trkpt>
        <trkpt lat="29.4947475" lon="103.282979"><ele>1908.69</ele><time>2026-02-01T02:11:19.000Z</time></trkpt>
        <trkpt lat="29.4946934" lon="103.2829582"><ele>1908.47</ele><time>2026-02-01T02:11:23.000Z</time></trkpt>
        <trkpt lat="29.4946467" lon="103.2829361"><ele>1908.36</ele><time>2026-02-01T02:11:27.000Z</time></trkpt>
        <trkpt lat="29.4946009" lon="103.2829133"><ele>1908.29</ele><time>2026-02-01T02:11:31.000Z</time></trkpt>
        <trkpt lat="29.4945505" lon="103.2829076"><ele>1908.26</ele><time>2026-02-01T02:11:35.000Z</time></trkpt>
        <trkpt lat="29.4944668" lon="103.2828942"><ele>1908.24</ele><time>2026-02-01T02:11:39.000Z</time></trkpt>
        <trkpt lat="29.4943973" lon="103.2828974"><ele>1907.03</ele><time>2026-02-01T02:11:41.000Z</time></trkpt>
        <trkpt lat="29.494332" lon="103.2828734"><ele>1907.65</ele><time>2026-02-01T02:11:49.000Z</time></trkpt>
        <trkpt lat="29.4942589" lon="103.2828538"><ele>1910.46</ele><time>2026-02-01T02:11:53.000Z</time></trkpt>
        <trkpt lat="29.4942018" lon="103.2828485"><ele>1912.88</ele><time>2026-02-01T02:11:55.000Z</time></trkpt>
        <trkpt lat="29.4941472" lon="103.2828529"><ele>1914.55</ele><time>2026-02-01T02:11:57.000Z</time></trkpt>
        <trkpt lat="29.4940949" lon="103.2828531"><ele>1915.76</ele><time>2026-02-01T02:11:59.000Z</time></trkpt>
        <trkpt lat="29.4940344" lon="103.2828448"><ele>1916.52</ele><time>2026-02-01T02:12:03.000Z</time></trkpt>
        <trkpt lat="29.4939793" lon="103.2828297"><ele>1917.07</ele><time>2026-02-01T02:12:07.000Z</time></trkpt>
        <trkpt lat="29.4939191" lon="103.2828028"><ele>1917.22</ele><time>2026-02-01T02:12:11.000Z</time></trkpt>
        <trkpt lat="29.4938673" lon="103.2827779"><ele>1917.31</ele><time>2026-02-01T02:12:15.000Z</time></trkpt>
        <trkpt lat="29.4937942" lon="103.2827286"><ele>1915.11</ele><time>2026-02-01T02:12:19.000Z</time></trkpt>
        <trkpt lat="29.4937413" lon="103.2826849"><ele>1914.14</ele><time>2026-02-01T02:12:24.000Z</time></trkpt>
        <trkpt lat="29.4937021" lon="103.2826292"><ele>1913.7</ele><time>2026-02-01T02:12:28.000Z</time></trkpt>
        <trkpt lat="29.4936628" lon="103.2825714"><ele>1914.52</ele><time>2026-02-01T02:12:32.000Z</time></trkpt>
        <trkpt lat="29.493618" lon="103.2825139"><ele>1914.83</ele><time>2026-02-01T02:12:36.000Z</time></trkpt>
        <trkpt lat="29.4935762" lon="103.282463"><ele>1915.1</ele><time>2026-02-01T02:12:40.000Z</time></trkpt>
        <trkpt lat="29.4935321" lon="103.2824169"><ele>1915</ele><time>2026-02-01T02:12:44.000Z</time></trkpt>
        <trkpt lat="29.4934817" lon="103.2823976"><ele>1915.17</ele><time>2026-02-01T02:12:48.000Z</time></trkpt>
        <trkpt lat="29.4934295" lon="103.2824042"><ele>1915.1</ele><time>2026-02-01T02:12:52.000Z</time></trkpt>
        <trkpt lat="29.4933726" lon="103.2824135"><ele>1914.71</ele><time>2026-02-01T02:12:56.000Z</time></trkpt>
        <trkpt lat="29.4933096" lon="103.2823997"><ele>1914.05</ele><time>2026-02-01T02:13:00.000Z</time></trkpt>
        <trkpt lat="29.4932401" lon="103.2823564"><ele>1914.36</ele><time>2026-02-01T02:13:04.000Z</time></trkpt>
        <trkpt lat="29.4931779" lon="103.282314"><ele>1915.41</ele><time>2026-02-01T02:13:08.000Z</time></trkpt>
        <trkpt lat="29.4931171" lon="103.2822761"><ele>1916.39</ele><time>2026-02-01T02:13:11.000Z</time></trkpt>
        <trkpt lat="29.4930547" lon="103.2822401"><ele>1916.83</ele><time>2026-02-01T02:13:16.000Z</time></trkpt>
        <trkpt lat="29.4929919" lon="103.2822063"><ele>1917.26</ele><time>2026-02-01T02:13:20.000Z</time></trkpt>
        <trkpt lat="29.4929358" lon="103.2821761"><ele>1917.43</ele><time>2026-02-01T02:13:24.000Z</time></trkpt>
        <trkpt lat="29.492883" lon="103.2821691"><ele>1917.77</ele><time>2026-02-01T02:13:28.000Z</time></trkpt>
        <trkpt lat="29.4928217" lon="103.2821959"><ele>1918.02</ele><time>2026-02-01T02:13:31.000Z</time></trkpt>
        <trkpt lat="29.4927756" lon="103.2822496"><ele>1918.04</ele><time>2026-02-01T02:13:35.000Z</time></trkpt>
        <trkpt lat="29.4927456" lon="103.2823053"><ele>1917.59</ele><time>2026-02-01T02:13:40.000Z</time></trkpt>
        <trkpt lat="29.4927178" lon="103.2823562"><ele>1916.98</ele><time>2026-02-01T02:13:44.000Z</time></trkpt>
        <trkpt lat="29.492683" lon="103.2824033"><ele>1916.54</ele><time>2026-02-01T02:13:48.000Z</time></trkpt>
        <trkpt lat="29.4926404" lon="103.2824452"><ele>1916.06</ele><time>2026-02-01T02:13:52.000Z</time></trkpt>
        <trkpt lat="29.4925921" lon="103.2824824"><ele>1915.82</ele><time>2026-02-01T02:13:56.000Z</time></trkpt>
        <trkpt lat="29.4925369" lon="103.2825135"><ele>1915.64</ele><time>2026-02-01T02:14:00.000Z</time></trkpt>
        <trkpt lat="29.4924844" lon="103.2825397"><ele>1915.28</ele><time>2026-02-01T02:14:04.000Z</time></trkpt>
        <trkpt lat="29.4924279" lon="103.2825619"><ele>1914.87</ele><time>2026-02-01T02:14:08.000Z</time></trkpt>
        <trkpt lat="29.492375" lon="103.2825448"><ele>1914.78</ele><time>2026-02-01T02:14:12.000Z</time></trkpt>
        <trkpt lat="29.4923367" lon="103.282495"><ele>1914.47</ele><time>2026-02-01T02:14:16.000Z</time></trkpt>
        <trkpt lat="29.4923095" lon="103.2824322"><ele>1913.94</ele><time>2026-02-01T02:14:20.000Z</time></trkpt>
        <trkpt lat="29.4922954" lon="103.2823732"><ele>1913.39</ele><time>2026-02-01T02:14:24.000Z</time></trkpt>
        <trkpt lat="29.4922682" lon="103.2822923"><ele>1913.03</ele><time>2026-02-01T02:14:30.000Z</time></trkpt>
        <trkpt lat="29.4922259" lon="103.2822218"><ele>1912.6</ele><time>2026-02-01T02:14:34.000Z</time></trkpt>
        <trkpt lat="29.4921807" lon="103.2821939"><ele>1911.84</ele><time>2026-02-01T02:14:38.000Z</time></trkpt>
        <trkpt lat="29.4921342" lon="103.2822187"><ele>1911.54</ele><time>2026-02-01T02:14:42.000Z</time></trkpt>
        <trkpt lat="29.4920937" lon="103.2822816"><ele>1911.59</ele><time>2026-02-01T02:14:46.000Z</time></trkpt>
        <trkpt lat="29.4920648" lon="103.2823443"><ele>1911.03</ele><time>2026-02-01T02:14:49.000Z</time></trkpt>
        <trkpt lat="29.4920413" lon="103.2824049"><ele>1910.36</ele><time>2026-02-01T02:14:54.000Z</time></trkpt>
        <trkpt lat="29.4920195" lon="103.2824573"><ele>1909.79</ele><time>2026-02-01T02:14:58.000Z</time></trkpt>
        <trkpt lat="29.4919901" lon="103.2825202"><ele>1909.47</ele><time>2026-02-01T02:15:04.000Z</time></trkpt>
        <trkpt lat="29.49196" lon="103.2825875"><ele>1909.28</ele><time>2026-02-01T02:15:09.000Z</time></trkpt>
        <trkpt lat="29.4919447" lon="103.2826468"><ele>1909.18</ele><time>2026-02-01T02:15:13.000Z</time></trkpt>
        <trkpt lat="29.4919358" lon="103.2827013"><ele>1909.12</ele><time>2026-02-01T02:15:18.000Z</time></trkpt>
        <trkpt lat="29.4919252" lon="103.2827536"><ele>1909.09</ele><time>2026-02-01T02:15:22.000Z</time></trkpt>
        <trkpt lat="29.491911" lon="103.2828085"><ele>1909.07</ele><time>2026-02-01T02:15:26.000Z</time></trkpt>
        <trkpt lat="29.491895" lon="103.2828605"><ele>1909.06</ele><time>2026-02-01T02:15:30.000Z</time></trkpt>
        <trkpt lat="29.4918751" lon="103.2829106"><ele>1909.05</ele><time>2026-02-01T02:15:34.000Z</time></trkpt>
        <trkpt lat="29.4918531" lon="103.2829616"><ele>1909.05</ele><time>2026-02-01T02:15:38.000Z</time></trkpt>
        <trkpt lat="29.4918243" lon="103.2830131"><ele>1909.04</ele><time>2026-02-01T02:15:42.000Z</time></trkpt>
        <trkpt lat="29.4917956" lon="103.2830605"><ele>1909.04</ele><time>2026-02-01T02:15:46.000Z</time></trkpt>
        <trkpt lat="29.4917563" lon="103.2830888"><ele>1909.04</ele><time>2026-02-01T02:15:50.000Z</time></trkpt>
        <trkpt lat="29.4917111" lon="103.2830886"><ele>1909.04</ele><time>2026-02-01T02:15:54.000Z</time></trkpt>
        <trkpt lat="29.4916475" lon="103.2830831"><ele>1909.04</ele><time>2026-02-01T02:16:00.000Z</time></trkpt>
        <trkpt lat="29.4915626" lon="103.2831089"><ele>1909.04</ele><time>2026-02-01T02:16:02.000Z</time></trkpt>
        <trkpt lat="29.4915033" lon="103.2831271"><ele>1907.46</ele><time>2026-02-01T02:16:04.000Z</time></trkpt>
        <trkpt lat="29.4914701" lon="103.2831372"><ele>1905.82</ele><time>2026-02-01T02:16:06.000Z</time></trkpt>
        <trkpt lat="29.4914206" lon="103.2831592"><ele>1904.59</ele><time>2026-02-01T02:16:10.000Z</time></trkpt>
        <trkpt lat="29.4913647" lon="103.2831937"><ele>1904.97</ele><time>2026-02-01T02:16:14.000Z</time></trkpt>
        <trkpt lat="29.4913105" lon="103.283226"><ele>1906.11</ele><time>2026-02-01T02:16:18.000Z</time></trkpt>
        <trkpt lat="29.4912587" lon="103.2832507"><ele>1906.56</ele><time>2026-02-01T02:16:22.000Z</time></trkpt>
        <trkpt lat="29.4912051" lon="103.2832587"><ele>1906.24</ele><time>2026-02-01T02:16:26.000Z</time></trkpt>
        <trkpt lat="29.4911513" lon="103.2832421"><ele>1905.74</ele><time>2026-02-01T02:16:30.000Z</time></trkpt>
        <trkpt lat="29.4911054" lon="103.2832011"><ele>1904.98</ele><time>2026-02-01T02:16:34.000Z</time></trkpt>
        <trkpt lat="29.4910684" lon="103.283137"><ele>1904.59</ele><time>2026-02-01T02:16:38.000Z</time></trkpt>
        <trkpt lat="29.4910221" lon="103.2831065"><ele>1903.95</ele><time>2026-02-01T02:16:42.000Z</time></trkpt>
        <trkpt lat="29.4909715" lon="103.2831331"><ele>1903.64</ele><time>2026-02-01T02:16:46.000Z</time></trkpt>
        <trkpt lat="29.4909376" lon="103.2831863"><ele>1903.33</ele><time>2026-02-01T02:16:50.000Z</time></trkpt>
        <trkpt lat="29.4909057" lon="103.2832518"><ele>1902.75</ele><time>2026-02-01T02:16:54.000Z</time></trkpt>
        <trkpt lat="29.4908731" lon="103.2833164"><ele>1901.98</ele><time>2026-02-01T02:16:58.000Z</time></trkpt>
        <trkpt lat="29.4908333" lon="103.2833667"><ele>1901.34</ele><time>2026-02-01T02:17:02.000Z</time></trkpt>
        <trkpt lat="29.4907826" lon="103.2833968"><ele>1900.76</ele><time>2026-02-01T02:17:06.000Z</time></trkpt>
        <trkpt lat="29.490723" lon="103.283417"><ele>1900.14</ele><time>2026-02-01T02:17:10.000Z</time></trkpt>
        <trkpt lat="29.4906712" lon="103.2834392"><ele>1899.49</ele><time>2026-02-01T02:17:14.000Z</time></trkpt>
        <trkpt lat="29.4906339" lon="103.2834845"><ele>1898.86</ele><time>2026-02-01T02:17:18.000Z</time></trkpt>
        <trkpt lat="29.4906126" lon="103.2835344"><ele>1898.27</ele><time>2026-02-01T02:17:22.000Z</time></trkpt>
        <trkpt lat="29.4905978" lon="103.2835867"><ele>1897.94</ele><time>2026-02-01T02:17:26.000Z</time></trkpt>
        <trkpt lat="29.4905854" lon="103.2836396"><ele>1897.75</ele><time>2026-02-01T02:17:30.000Z</time></trkpt>
        <trkpt lat="29.4905756" lon="103.2836933"><ele>1897.64</ele><time>2026-02-01T02:17:35.000Z</time></trkpt>
        <trkpt lat="29.4905428" lon="103.2837427"><ele>1889.94</ele><time>2026-02-01T02:17:39.000Z</time></trkpt>
        <trkpt lat="29.4904931" lon="103.2837679"><ele>1886.14</ele><time>2026-02-01T02:17:43.000Z</time></trkpt>
        <trkpt lat="29.4904356" lon="103.2837701"><ele>1884.59</ele><time>2026-02-01T02:17:47.000Z</time></trkpt>
        <trkpt lat="29.4903839" lon="103.2837539"><ele>1883.93</ele><time>2026-02-01T02:17:51.000Z</time></trkpt>
        <trkpt lat="29.4903664" lon="103.2837349"><ele>1883.55</ele><time>2026-02-01T02:17:53.000Z</time></trkpt>
        <trkpt lat="29.4903202" lon="103.2836971"><ele>1884.7</ele><time>2026-02-01T02:17:58.000Z</time></trkpt>
        <trkpt lat="29.4902678" lon="103.2836616"><ele>1885.12</ele><time>2026-02-01T02:18:01.000Z</time></trkpt>
        <trkpt lat="29.4901954" lon="103.2836367"><ele>1884.96</ele><time>2026-02-01T02:18:06.000Z</time></trkpt>
        <trkpt lat="29.4901121" lon="103.283592"><ele>1884.75</ele><time>2026-02-01T02:18:10.000Z</time></trkpt>
        <trkpt lat="29.490058" lon="103.2835582"><ele>1887.67</ele><time>2026-02-01T02:18:11.000Z</time></trkpt>
        <trkpt lat="29.4900089" lon="103.2835429"><ele>1889.44</ele><time>2026-02-01T02:18:16.000Z</time></trkpt>
        <trkpt lat="29.4899592" lon="103.2835474"><ele>1891.26</ele><time>2026-02-01T02:18:20.000Z</time></trkpt>
        <trkpt lat="29.4899004" lon="103.2835799"><ele>1892.18</ele><time>2026-02-01T02:18:23.000Z</time></trkpt>
        <trkpt lat="29.4898446" lon="103.2835903"><ele>1892.16</ele><time>2026-02-01T02:18:28.000Z</time></trkpt>
        <trkpt lat="29.4897892" lon="103.2835782"><ele>1891.93</ele><time>2026-02-01T02:18:31.000Z</time></trkpt>
        <trkpt lat="29.4897372" lon="103.2835642"><ele>1891.44</ele><time>2026-02-01T02:18:36.000Z</time></trkpt>
        <trkpt lat="29.4896849" lon="103.2835644"><ele>1891.03</ele><time>2026-02-01T02:18:40.000Z</time></trkpt>
        <trkpt lat="29.489634" lon="103.2835861"><ele>1890.59</ele><time>2026-02-01T02:18:43.000Z</time></trkpt>
        <trkpt lat="29.4895841" lon="103.2836113"><ele>1890.03</ele><time>2026-02-01T02:18:48.000Z</time></trkpt>
        <trkpt lat="29.4895405" lon="103.2836474"><ele>1889.8</ele><time>2026-02-01T02:18:52.000Z</time></trkpt>
        <trkpt lat="29.4894881" lon="103.2837015"><ele>1889.68</ele><time>2026-02-01T02:18:56.000Z</time></trkpt>
        <trkpt lat="29.4894433" lon="103.283767"><ele>1888.98</ele><time>2026-02-01T02:19:00.000Z</time></trkpt>
        <trkpt lat="29.4894141" lon="103.2838284"><ele>1888.07</ele><time>2026-02-01T02:19:04.000Z</time></trkpt>
        <trkpt lat="29.4893957" lon="103.2838859"><ele>1887.37</ele><time>2026-02-01T02:19:08.000Z</time></trkpt>
        <trkpt lat="29.4893755" lon="103.2839436"><ele>1886.88</ele><time>2026-02-01T02:19:12.000Z</time></trkpt>
        <trkpt lat="29.4893543" lon="103.2840016"><ele>1886.41</ele><time>2026-02-01T02:19:15.000Z</time></trkpt>
        <trkpt lat="29.4893233" lon="103.2840619"><ele>1886.04</ele><time>2026-02-01T02:19:19.000Z</time></trkpt>
        <trkpt lat="29.4892784" lon="103.2841004"><ele>1885.53</ele><time>2026-02-01T02:19:24.000Z</time></trkpt>
        <trkpt lat="29.4892247" lon="103.2841225"><ele>1885.15</ele><time>2026-02-01T02:19:28.000Z</time></trkpt>
        <trkpt lat="29.4891623" lon="103.2841291"><ele>1884.82</ele><time>2026-02-01T02:19:32.000Z</time></trkpt>
        <trkpt lat="29.4891034" lon="103.2841144"><ele>1884.44</ele><time>2026-02-01T02:19:36.000Z</time></trkpt>
        <trkpt lat="29.4890452" lon="103.2840926"><ele>1883.88</ele><time>2026-02-01T02:19:39.000Z</time></trkpt>
        <trkpt lat="29.4889953" lon="103.2840614"><ele>1882.91</ele><time>2026-02-01T02:19:45.000Z</time></trkpt>
        <trkpt lat="29.4889541" lon="103.2840277"><ele>1881.27</ele><time>2026-02-01T02:19:49.000Z</time></trkpt>
        <trkpt lat="29.4889214" lon="103.2839819"><ele>1879.67</ele><time>2026-02-01T02:19:53.000Z</time></trkpt>
        <trkpt lat="29.4888812" lon="103.2839395"><ele>1878.08</ele><time>2026-02-01T02:19:57.000Z</time></trkpt>
        <trkpt lat="29.4888432" lon="103.2839015"><ele>1876.56</ele><time>2026-02-01T02:20:01.000Z</time></trkpt>
        <trkpt lat="29.4887984" lon="103.2838484"><ele>1875.45</ele><time>2026-02-01T02:20:09.000Z</time></trkpt>
        <trkpt lat="29.4887432" lon="103.2838296"><ele>1870.85</ele><time>2026-02-01T02:20:15.000Z</time></trkpt>
        <trkpt lat="29.4886921" lon="103.283828"><ele>1867.61</ele><time>2026-02-01T02:20:19.000Z</time></trkpt>
        <trkpt lat="29.4886279" lon="103.2838428"><ele>1865.89</ele><time>2026-02-01T02:20:24.000Z</time></trkpt>
        <trkpt lat="29.488561" lon="103.2838674"><ele>1865.09</ele><time>2026-02-01T02:20:27.000Z</time></trkpt>
        <trkpt lat="29.4885161" lon="103.283891"><ele>1867.25</ele><time>2026-02-01T02:20:29.000Z</time></trkpt>
        <trkpt lat="29.4884659" lon="103.283928"><ele>1868.62</ele><time>2026-02-01T02:20:36.000Z</time></trkpt>
        <trkpt lat="29.4884189" lon="103.2839603"><ele>1870</ele><time>2026-02-01T02:20:40.000Z</time></trkpt>
        <trkpt lat="29.4883708" lon="103.2839811"><ele>1870.86</ele><time>2026-02-01T02:20:44.000Z</time></trkpt>
        <trkpt lat="29.4883087" lon="103.2840015"><ele>1871.6</ele><time>2026-02-01T02:20:47.000Z</time></trkpt>
        <trkpt lat="29.4882519" lon="103.28401"><ele>1872.06</ele><time>2026-02-01T02:20:51.000Z</time></trkpt>
        <trkpt lat="29.4882004" lon="103.2840107"><ele>1871.84</ele><time>2026-02-01T02:20:55.000Z</time></trkpt>
        <trkpt lat="29.488153" lon="103.2840088"><ele>1871.2</ele><time>2026-02-01T02:20:59.000Z</time></trkpt>
        <trkpt lat="29.4881073" lon="103.2840027"><ele>1870.36</ele><time>2026-02-01T02:21:03.000Z</time></trkpt>
        <trkpt lat="29.4880599" lon="103.2840038"><ele>1869.6</ele><time>2026-02-01T02:21:07.000Z</time></trkpt>
        <trkpt lat="29.4880151" lon="103.2840131"><ele>1868.98</ele><time>2026-02-01T02:21:11.000Z</time></trkpt>
        <trkpt lat="29.4879675" lon="103.2840306"><ele>1868.27</ele><time>2026-02-01T02:21:15.000Z</time></trkpt>
        <trkpt lat="29.4879119" lon="103.2840481"><ele>1867.41</ele><time>2026-02-01T02:21:19.000Z</time></trkpt>
        <trkpt lat="29.4878543" lon="103.2840582"><ele>1866.71</ele><time>2026-02-01T02:21:23.000Z</time></trkpt>
        <trkpt lat="29.4878022" lon="103.2840539"><ele>1866.3</ele><time>2026-02-01T02:21:27.000Z</time></trkpt>
        <trkpt lat="29.4877532" lon="103.2840255"><ele>1865.99</ele><time>2026-02-01T02:21:31.000Z</time></trkpt>
        <trkpt lat="29.4877066" lon="103.2840044"><ele>1865.52</ele><time>2026-02-01T02:21:35.000Z</time></trkpt>
        <trkpt lat="29.4876434" lon="103.2839978"><ele>1864.93</ele><time>2026-02-01T02:21:41.000Z</time></trkpt>
        <trkpt lat="29.4875897" lon="103.2839939"><ele>1863.73</ele><time>2026-02-01T02:21:45.000Z</time></trkpt>
        <trkpt lat="29.4875398" lon="103.2839891"><ele>1862.68</ele><time>2026-02-01T02:21:49.000Z</time></trkpt>
        <trkpt lat="29.4874917" lon="103.2839737"><ele>1861.93</ele><time>2026-02-01T02:21:53.000Z</time></trkpt>
        <trkpt lat="29.4874418" lon="103.2839548"><ele>1861.35</ele><time>2026-02-01T02:21:57.000Z</time></trkpt>
        <trkpt lat="29.4873855" lon="103.2839599"><ele>1860.74</ele><time>2026-02-01T02:22:03.000Z</time></trkpt>
        <trkpt lat="29.4873369" lon="103.2839731"><ele>1858.74</ele><time>2026-02-01T02:22:07.000Z</time></trkpt>
        <trkpt lat="29.4872826" lon="103.2839893"><ele>1857.28</ele><time>2026-02-01T02:22:12.000Z</time></trkpt>
        <trkpt lat="29.487209" lon="103.2840122"><ele>1856.75</ele><time>2026-02-01T02:22:16.000Z</time></trkpt>
        <trkpt lat="29.4871491" lon="103.2840211"><ele>1859.32</ele><time>2026-02-01T02:22:18.000Z</time></trkpt>
        <trkpt lat="29.4871023" lon="103.2839805"><ele>1860.47</ele><time>2026-02-01T02:22:21.000Z</time></trkpt>
        <trkpt lat="29.4870545" lon="103.2839228"><ele>1860.33</ele><time>2026-02-01T02:22:28.000Z</time></trkpt>
        <trkpt lat="29.4870006" lon="103.283874"><ele>1859.13</ele><time>2026-02-01T02:22:32.000Z</time></trkpt>
        <trkpt lat="29.4869521" lon="103.2838277"><ele>1857.73</ele><time>2026-02-01T02:22:36.000Z</time></trkpt>
        <trkpt lat="29.4869105" lon="103.2837769"><ele>1856.29</ele><time>2026-02-01T02:22:39.000Z</time></trkpt>
        <trkpt lat="29.4868796" lon="103.2837173"><ele>1855.08</ele><time>2026-02-01T02:22:44.000Z</time></trkpt>
        <trkpt lat="29.4868454" lon="103.2836628"><ele>1854.03</ele><time>2026-02-01T02:22:48.000Z</time></trkpt>
        <trkpt lat="29.4868043" lon="103.2836193"><ele>1852.91</ele><time>2026-02-01T02:22:52.000Z</time></trkpt>
        <trkpt lat="29.4867516" lon="103.2835939"><ele>1851.95</ele><time>2026-02-01T02:22:56.000Z</time></trkpt>
        <trkpt lat="29.486698" lon="103.2836062"><ele>1851.15</ele><time>2026-02-01T02:22:59.000Z</time></trkpt>
        <trkpt lat="29.4866532" lon="103.283645"><ele>1850.32</ele><time>2026-02-01T02:23:03.000Z</time></trkpt>
        <trkpt lat="29.4866146" lon="103.2836936"><ele>1849.32</ele><time>2026-02-01T02:23:07.000Z</time></trkpt>
        <trkpt lat="29.4865792" lon="103.2837463"><ele>1848.48</ele><time>2026-02-01T02:23:11.000Z</time></trkpt>
        <trkpt lat="29.4865339" lon="103.283791"><ele>1847.92</ele><time>2026-02-01T02:23:16.000Z</time></trkpt>
        <trkpt lat="29.4864806" lon="103.2838149"><ele>1847.25</ele><time>2026-02-01T02:23:20.000Z</time></trkpt>
        <trkpt lat="29.4864258" lon="103.2838145"><ele>1846.58</ele><time>2026-02-01T02:23:24.000Z</time></trkpt>
        <trkpt lat="29.4863659" lon="103.2838065"><ele>1845.97</ele><time>2026-02-01T02:23:27.000Z</time></trkpt>
        <trkpt lat="29.4863083" lon="103.2837881"><ele>1845.43</ele><time>2026-02-01T02:23:32.000Z</time></trkpt>
        <trkpt lat="29.4862437" lon="103.2838082"><ele>1844.72</ele><time>2026-02-01T02:23:37.000Z</time></trkpt>
        <trkpt lat="29.4861902" lon="103.2838502"><ele>1844.03</ele><time>2026-02-01T02:23:42.000Z</time></trkpt>
        <trkpt lat="29.4861393" lon="103.2838814"><ele>1843.2</ele><time>2026-02-01T02:23:46.000Z</time></trkpt>
        <trkpt lat="29.4860925" lon="103.2838946"><ele>1842.4</ele><time>2026-02-01T02:23:50.000Z</time></trkpt>
        <trkpt lat="29.4860393" lon="103.283892"><ele>1841.88</ele><time>2026-02-01T02:23:54.000Z</time></trkpt>
        <trkpt lat="29.485984" lon="103.2838899"><ele>1841.25</ele><time>2026-02-01T02:23:58.000Z</time></trkpt>
        <trkpt lat="29.4859274" lon="103.2839076"><ele>1840.35</ele><time>2026-02-01T02:24:02.000Z</time></trkpt>
        <trkpt lat="29.485869" lon="103.2839132"><ele>1839.08</ele><time>2026-02-01T02:24:06.000Z</time></trkpt>
        <trkpt lat="29.4858173" lon="103.2838892"><ele>1837.86</ele><time>2026-02-01T02:24:10.000Z</time></trkpt>
        <trkpt lat="29.4857753" lon="103.2838423"><ele>1836.79</ele><time>2026-02-01T02:24:14.000Z</time></trkpt>
        <trkpt lat="29.4857207" lon="103.2838071"><ele>1835.96</ele><time>2026-02-01T02:24:18.000Z</time></trkpt>
        <trkpt lat="29.4856644" lon="103.2837825"><ele>1835.33</ele><time>2026-02-01T02:24:22.000Z</time></trkpt>
        <trkpt lat="29.4856146" lon="103.283774"><ele>1834.71</ele><time>2026-02-01T02:24:26.000Z</time></trkpt>
        <trkpt lat="29.4855646" lon="103.2837755"><ele>1833.95</ele><time>2026-02-01T02:24:29.000Z</time></trkpt>
        <trkpt lat="29.4855086" lon="103.283784"><ele>1833.17</ele><time>2026-02-01T02:24:34.000Z</time></trkpt>
        <trkpt lat="29.485455" lon="103.2837845"><ele>1832.53</ele><time>2026-02-01T02:24:38.000Z</time></trkpt>
        <trkpt lat="29.4854058" lon="103.2837744"><ele>1831.72</ele><time>2026-02-01T02:24:42.000Z</time></trkpt>
        <trkpt lat="29.4853526" lon="103.2837632"><ele>1830.81</ele><time>2026-02-01T02:24:46.000Z</time></trkpt>
        <trkpt lat="29.4853024" lon="103.2837516"><ele>1829.82</ele><time>2026-02-01T02:24:50.000Z</time></trkpt>
        <trkpt lat="29.4852528" lon="103.283738"><ele>1829.05</ele><time>2026-02-01T02:24:54.000Z</time></trkpt>
        <trkpt lat="29.4851912" lon="103.2837255"><ele>1828.13</ele><time>2026-02-01T02:25:00.000Z</time></trkpt>
        <trkpt lat="29.4851376" lon="103.2837131"><ele>1826.96</ele><time>2026-02-01T02:25:04.000Z</time></trkpt>
        <trkpt lat="29.4850826" lon="103.2837095"><ele>1825.74</ele><time>2026-02-01T02:25:10.000Z</time></trkpt>
        <trkpt lat="29.4850342" lon="103.2837135"><ele>1824.81</ele><time>2026-02-01T02:25:16.000Z</time></trkpt>
        <trkpt lat="29.48498" lon="103.2837103"><ele>1824.27</ele><time>2026-02-01T02:25:22.000Z</time></trkpt>
        <trkpt lat="29.4849301" lon="103.2837083"><ele>1823.97</ele><time>2026-02-01T02:25:28.000Z</time></trkpt>
        <trkpt lat="29.4848799" lon="103.2836985"><ele>1823.8</ele><time>2026-02-01T02:25:34.000Z</time></trkpt>
        <trkpt lat="29.4848268" lon="103.2836874"><ele>1823.7</ele><time>2026-02-01T02:25:40.000Z</time></trkpt>
        <trkpt lat="29.4847787" lon="103.2836683"><ele>1823.64</ele><time>2026-02-01T02:25:48.000Z</time></trkpt>
        <trkpt lat="29.4847316" lon="103.2836635"><ele>1823.61</ele><time>2026-02-01T02:25:55.000Z</time></trkpt>
        <trkpt lat="29.4846823" lon="103.283672"><ele>1823.59</ele><time>2026-02-01T02:26:02.000Z</time></trkpt>
        <trkpt lat="29.4846394" lon="103.2837154"><ele>1823.58</ele><time>2026-02-01T02:26:08.000Z</time></trkpt>
        <trkpt lat="29.4846156" lon="103.2837701"><ele>1823.58</ele><time>2026-02-01T02:26:12.000Z</time></trkpt>
        <trkpt lat="29.4845929" lon="103.2838202"><ele>1823.57</ele><time>2026-02-01T02:26:16.000Z</time></trkpt>
        <trkpt lat="29.4845573" lon="103.2838809"><ele>1823.57</ele><time>2026-02-01T02:26:22.000Z</time></trkpt>
        <trkpt lat="29.4845189" lon="103.2839191"><ele>1823.57</ele><time>2026-02-01T02:26:26.000Z</time></trkpt>
        <trkpt lat="29.484475" lon="103.283937"><ele>1823.57</ele><time>2026-02-01T02:26:30.000Z</time></trkpt>
        <trkpt lat="29.4844318" lon="103.2839575"><ele>1823.57</ele><time>2026-02-01T02:26:34.000Z</time></trkpt>
        <trkpt lat="29.4843948" lon="103.2840029"><ele>1823.57</ele><time>2026-02-01T02:26:38.000Z</time></trkpt>
        <trkpt lat="29.4843524" lon="103.2840241"><ele>1823.57</ele><time>2026-02-01T02:26:41.000Z</time></trkpt>
        <trkpt lat="29.4843014" lon="103.284058"><ele>1823.57</ele><time>2026-02-01T02:26:48.000Z</time></trkpt>
        <trkpt lat="29.4842564" lon="103.2840838"><ele>1823.57</ele><time>2026-02-01T02:26:52.000Z</time></trkpt>
        <trkpt lat="29.4842138" lon="103.2841075"><ele>1823.57</ele><time>2026-02-01T02:26:56.000Z</time></trkpt>
        <trkpt lat="29.4841751" lon="103.2841352"><ele>1823.57</ele><time>2026-02-01T02:27:00.000Z</time></trkpt>
        <trkpt lat="29.4841215" lon="103.2841697"><ele>1823.57</ele><time>2026-02-01T02:27:06.000Z</time></trkpt>
        <trkpt lat="29.4840783" lon="103.2842067"><ele>1823.57</ele><time>2026-02-01T02:27:10.000Z</time></trkpt>
        <trkpt lat="29.4840393" lon="103.2842389"><ele>1823.57</ele><time>2026-02-01T02:27:14.000Z</time></trkpt>
        <trkpt lat="29.4840007" lon="103.2842707"><ele>1823.57</ele><time>2026-02-01T02:27:18.000Z</time></trkpt>
        <trkpt lat="29.4839523" lon="103.2843125"><ele>1823.57</ele><time>2026-02-01T02:27:24.000Z</time></trkpt>
        <trkpt lat="29.4839129" lon="103.2843504"><ele>1823.57</ele><time>2026-02-01T02:27:28.000Z</time></trkpt>
        <trkpt lat="29.4838696" lon="103.2843785"><ele>1823.57</ele><time>2026-02-01T02:27:32.000Z</time></trkpt>
        <trkpt lat="29.4838216" lon="103.2843924"><ele>1823.57</ele><time>2026-02-01T02:27:36.000Z</time></trkpt>
        <trkpt lat="29.483774" lon="103.2844044"><ele>1823.57</ele><time>2026-02-01T02:27:41.000Z</time></trkpt>
        <trkpt lat="29.4836108" lon="103.2843937"><ele>1823.57</ele><time>2026-02-01T02:27:45.000Z</time></trkpt>
        <trkpt lat="29.4834077" lon="103.2843604"><ele>1812.2</ele><time>2026-02-01T02:27:49.000Z</time></trkpt>
        <trkpt lat="29.483307" lon="103.2843641"><ele>1805.39</ele><time>2026-02-01T02:27:55.000Z</time></trkpt>
        <trkpt lat="29.483248" lon="103.2843878"><ele>1800.89</ele><time>2026-02-01T02:28:01.000Z</time></trkpt>
        <trkpt lat="29.4832136" lon="103.2844294"><ele>1798.16</ele><time>2026-02-01T02:28:07.000Z</time></trkpt>
        <trkpt lat="29.4831988" lon="103.2844888"><ele>1796.12</ele><time>2026-02-01T02:28:11.000Z</time></trkpt>
        <trkpt lat="29.4831923" lon="103.2845552"><ele>1794.9</ele><time>2026-02-01T02:28:21.000Z</time></trkpt>
        <trkpt lat="29.4832072" lon="103.2846259"><ele>1793.85</ele><time>2026-02-01T02:28:27.000Z</time></trkpt>
        <trkpt lat="29.4832227" lon="103.2846906"><ele>1793.17</ele><time>2026-02-01T02:28:33.000Z</time></trkpt>
        <trkpt lat="29.4832637" lon="103.2847137"><ele>1792.9</ele><time>2026-02-01T02:28:49.000Z</time></trkpt>
        <trkpt lat="29.4832586" lon="103.2847595"><ele>1792.59</ele><time>2026-02-01T02:29:33.000Z</time></trkpt>
        <trkpt lat="29.4832661" lon="103.2848132"><ele>1792.7</ele><time>2026-02-01T02:29:35.000Z</time></trkpt>
        <trkpt lat="29.4832825" lon="103.2848688"><ele>1792.89</ele><time>2026-02-01T02:29:37.000Z</time></trkpt>
        <trkpt lat="29.4833" lon="103.2849224"><ele>1793.1</ele><time>2026-02-01T02:29:40.000Z</time></trkpt>
        <trkpt lat="29.4833174" lon="103.2849758"><ele>1795</ele><time>2026-02-01T02:29:42.000Z</time></trkpt>
        <trkpt lat="29.4833637" lon="103.2850398"><ele>1796.16</ele><time>2026-02-01T02:29:46.000Z</time></trkpt>
        <trkpt lat="29.4833783" lon="103.2850982"><ele>1797</ele><time>2026-02-01T02:29:50.000Z</time></trkpt>
        <trkpt lat="29.4833766" lon="103.2851071"><ele>1797.41</ele><time>2026-02-01T02:29:54.000Z</time></trkpt>
        <trkpt lat="29.4820466" lon="103.285671"><ele>1797.48</ele><time>2026-02-01T02:32:46.000Z</time></trkpt>
        <trkpt lat="29.4817856" lon="103.2859197"><ele>1797.23</ele><time>2026-02-01T02:32:52.000Z</time></trkpt>
        <trkpt lat="29.4817801" lon="103.2860568"><ele>1799.66</ele><time>2026-02-01T02:32:54.000Z</time></trkpt>
        <trkpt lat="29.4818389" lon="103.2861668"><ele>1802.37</ele><time>2026-02-01T02:32:56.000Z</time></trkpt>
        <trkpt lat="29.4819404" lon="103.2862516"><ele>1804.64</ele><time>2026-02-01T02:32:58.000Z</time></trkpt>
        <trkpt lat="29.482059" lon="103.2863267"><ele>1806.24</ele><time>2026-02-01T02:33:00.000Z</time></trkpt>
        <trkpt lat="29.4821567" lon="103.2863933"><ele>1807.07</ele><time>2026-02-01T02:33:02.000Z</time></trkpt>
        <trkpt lat="29.4822366" lon="103.2864585"><ele>1807.47</ele><time>2026-02-01T02:33:04.000Z</time></trkpt>
        <trkpt lat="29.4823028" lon="103.2865238"><ele>1807.29</ele><time>2026-02-01T02:33:06.000Z</time></trkpt>
        <trkpt lat="29.4823253" lon="103.2866003"><ele>1806.69</ele><time>2026-02-01T02:33:08.000Z</time></trkpt>
        <trkpt lat="29.4823277" lon="103.2866733"><ele>1805.87</ele><time>2026-02-01T02:33:10.000Z</time></trkpt>
        <trkpt lat="29.4823104" lon="103.2867472"><ele>1804.44</ele><time>2026-02-01T02:33:12.000Z</time></trkpt>
        <trkpt lat="29.4822552" lon="103.2867335"><ele>1803.09</ele><time>2026-02-01T02:33:16.000Z</time></trkpt>
        <trkpt lat="29.4821919" lon="103.2866908"><ele>1800.06</ele><time>2026-02-01T02:33:20.000Z</time></trkpt>
        <trkpt lat="29.4821155" lon="103.2866696"><ele>1797.75</ele><time>2026-02-01T02:33:22.000Z</time></trkpt>
        <trkpt lat="29.4820333" lon="103.2866421"><ele>1796.38</ele><time>2026-02-01T02:33:24.000Z</time></trkpt>
        <trkpt lat="29.481937" lon="103.2866197"><ele>1795.28</ele><time>2026-02-01T02:33:26.000Z</time></trkpt>
        <trkpt lat="29.4818165" lon="103.2865892"><ele>1794.3</ele><time>2026-02-01T02:33:28.000Z</time></trkpt>
        <trkpt lat="29.4816833" lon="103.2865761"><ele>1793.39</ele><time>2026-02-01T02:33:30.000Z</time></trkpt>
        <trkpt lat="29.4815445" lon="103.2865668"><ele>1792.78</ele><time>2026-02-01T02:33:32.000Z</time></trkpt>
        <trkpt lat="29.4813816" lon="103.286577"><ele>1792.39</ele><time>2026-02-01T02:33:34.000Z</time></trkpt>
        <trkpt lat="29.4812198" lon="103.2865955"><ele>1792.3</ele><time>2026-02-01T02:33:36.000Z</time></trkpt>
        <trkpt lat="29.4810723" lon="103.2865458"><ele>1792.3</ele><time>2026-02-01T02:33:38.000Z</time></trkpt>
        <trkpt lat="29.4809315" lon="103.2864873"><ele>1792.21</ele><time>2026-02-01T02:33:40.000Z</time></trkpt>
        <trkpt lat="29.4807997" lon="103.2864312"><ele>1792.17</ele><time>2026-02-01T02:33:42.000Z</time></trkpt>
        <trkpt lat="29.4806703" lon="103.2863814"><ele>1791.94</ele><time>2026-02-01T02:33:44.000Z</time></trkpt>
        <trkpt lat="29.4805625" lon="103.2863172"><ele>1791.79</ele><time>2026-02-01T02:33:46.000Z</time></trkpt>
        <trkpt lat="29.4804824" lon="103.2862082"><ele>1791.51</ele><time>2026-02-01T02:33:48.000Z</time></trkpt>
        <trkpt lat="29.4803979" lon="103.2860697"><ele>1791.38</ele><time>2026-02-01T02:33:50.000Z</time></trkpt>
        <trkpt lat="29.4802975" lon="103.2859127"><ele>1791.43</ele><time>2026-02-01T02:33:52.000Z</time></trkpt>
        <trkpt lat="29.4801867" lon="103.2858055"><ele>1791.57</ele><time>2026-02-01T02:33:54.000Z</time></trkpt>
        <trkpt lat="29.4800805" lon="103.2856981"><ele>1791.77</ele><time>2026-02-01T02:33:56.000Z</time></trkpt>
        <trkpt lat="29.4799646" lon="103.2856052"><ele>1791.94</ele><time>2026-02-01T02:33:58.000Z</time></trkpt>
        <trkpt lat="29.4798453" lon="103.2855216"><ele>1792.12</ele><time>2026-02-01T02:34:00.000Z</time></trkpt>
        <trkpt lat="29.4797297" lon="103.2854448"><ele>1792.29</ele><time>2026-02-01T02:34:02.000Z</time></trkpt>
        <trkpt lat="29.4795857" lon="103.2853985"><ele>1792.41</ele><time>2026-02-01T02:34:04.000Z</time></trkpt>
        <trkpt lat="29.4794489" lon="103.2853416"><ele>1792.52</ele><time>2026-02-01T02:34:06.000Z</time></trkpt>
        <trkpt lat="29.4793231" lon="103.2852789"><ele>1792.58</ele><time>2026-02-01T02:34:08.000Z</time></trkpt>
        <trkpt lat="29.4792146" lon="103.2852177"><ele>1792.58</ele><time>2026-02-01T02:34:10.000Z</time></trkpt>
        <trkpt lat="29.4791189" lon="103.285154"><ele>1792.61</ele><time>2026-02-01T02:34:12.000Z</time></trkpt>
        <trkpt lat="29.4790171" lon="103.2850586"><ele>1792.66</ele><time>2026-02-01T02:34:14.000Z</time></trkpt>
        <trkpt lat="29.4789102" lon="103.284962"><ele>1792.67</ele><time>2026-02-01T02:34:16.000Z</time></trkpt>
        <trkpt lat="29.4788106" lon="103.2848658"><ele>1792.62</ele><time>2026-02-01T02:34:18.000Z</time></trkpt>
        <trkpt lat="29.4787009" lon="103.2847669"><ele>1792.59</ele><time>2026-02-01T02:34:20.000Z</time></trkpt>
        <trkpt lat="29.4785918" lon="103.2846752"><ele>1792.53</ele><time>2026-02-01T02:34:22.000Z</time></trkpt>
        <trkpt lat="29.4784795" lon="103.2845677"><ele>1792.5</ele><time>2026-02-01T02:34:24.000Z</time></trkpt>
        <trkpt lat="29.4783539" lon="103.2844443"><ele>1792.47</ele><time>2026-02-01T02:34:26.000Z</time></trkpt>
        <trkpt lat="29.4782208" lon="103.2843234"><ele>1792.44</ele><time>2026-02-01T02:34:28.000Z</time></trkpt>
        <trkpt lat="29.4780939" lon="103.2841713"><ele>1792.44</ele><time>2026-02-01T02:34:30.000Z</time></trkpt>
        <trkpt lat="29.4779504" lon="103.2840298"><ele>1792.61</ele><time>2026-02-01T02:34:32.000Z</time></trkpt>
        <trkpt lat="29.4777659" lon="103.2839207"><ele>1792.85</ele><time>2026-02-01T02:34:34.000Z</time></trkpt>
        <trkpt lat="29.4775433" lon="103.2839446"><ele>1792.98</ele><time>2026-02-01T02:34:36.000Z</time></trkpt>
        <trkpt lat="29.4773686" lon="103.2839229"><ele>1792.43</ele><time>2026-02-01T02:34:38.000Z</time></trkpt>
        <trkpt lat="29.4772272" lon="103.2838954"><ele>1791.26</ele><time>2026-02-01T02:34:40.000Z</time></trkpt>
        <trkpt lat="29.477105" lon="103.2838358"><ele>1787.81</ele><time>2026-02-01T02:34:42.000Z</time></trkpt>
        <trkpt lat="29.4769745" lon="103.2837729"><ele>1783.26</ele><time>2026-02-01T02:34:44.000Z</time></trkpt>
        <trkpt lat="29.4768277" lon="103.2837238"><ele>1778.01</ele><time>2026-02-01T02:34:46.000Z</time></trkpt>
        <trkpt lat="29.4766755" lon="103.283691"><ele>1772.54</ele><time>2026-02-01T02:34:48.000Z</time></trkpt>
        <trkpt lat="29.4765512" lon="103.2836726"><ele>1766.97</ele><time>2026-02-01T02:34:50.000Z</time></trkpt>
        <trkpt lat="29.4764443" lon="103.2836918"><ele>1761.36</ele><time>2026-02-01T02:34:52.000Z</time></trkpt>
        <trkpt lat="29.4763644" lon="103.2837706"><ele>1757.24</ele><time>2026-02-01T02:34:54.000Z</time></trkpt>
        <trkpt lat="29.4763227" lon="103.283919"><ele>1754.63</ele><time>2026-02-01T02:34:56.000Z</time></trkpt>
        <trkpt lat="29.4762901" lon="103.2841031"><ele>1752.52</ele><time>2026-02-01T02:34:58.000Z</time></trkpt>
        <trkpt lat="29.476232" lon="103.2843028"><ele>1750.23</ele><time>2026-02-01T02:35:00.000Z</time></trkpt>
        <trkpt lat="29.4761323" lon="103.2844902"><ele>1747.53</ele><time>2026-02-01T02:35:02.000Z</time></trkpt>
        <trkpt lat="29.4760157" lon="103.2846635"><ele>1744.96</ele><time>2026-02-01T02:35:04.000Z</time></trkpt>
        <trkpt lat="29.475902" lon="103.2848145"><ele>1742.85</ele><time>2026-02-01T02:35:06.000Z</time></trkpt>
        <trkpt lat="29.4757966" lon="103.2849365"><ele>1741.08</ele><time>2026-02-01T02:35:08.000Z</time></trkpt>
        <trkpt lat="29.475688" lon="103.2850272"><ele>1739.5</ele><time>2026-02-01T02:35:10.000Z</time></trkpt>
        <trkpt lat="29.4755785" lon="103.2851082"><ele>1737.75</ele><time>2026-02-01T02:35:12.000Z</time></trkpt>
        <trkpt lat="29.4754826" lon="103.2852058"><ele>1735.59</ele><time>2026-02-01T02:35:14.000Z</time></trkpt>
        <trkpt lat="29.475411" lon="103.2853406"><ele>1732.84</ele><time>2026-02-01T02:35:16.000Z</time></trkpt>
        <trkpt lat="29.4753541" lon="103.2855143"><ele>1729.04</ele><time>2026-02-01T02:35:18.000Z</time></trkpt>
        <trkpt lat="29.4753119" lon="103.2857214"><ele>1725.12</ele><time>2026-02-01T02:35:20.000Z</time></trkpt>
        <trkpt lat="29.4752824" lon="103.2859658"><ele>1721.12</ele><time>2026-02-01T02:35:22.000Z</time></trkpt>
        <trkpt lat="29.4752309" lon="103.2861943"><ele>1716.31</ele><time>2026-02-01T02:35:24.000Z</time></trkpt>
        <trkpt lat="29.4752309" lon="103.2861943"><ele>1716.31</ele><time>2026-02-01T02:35:26.000Z</time></trkpt>
      </trkseg>
      <trkseg>
        <trkpt lat="29.474737" lon="103.2878554"><ele>1685.15</ele><time>2026-02-01T02:35:44.000Z</time></trkpt>
        <trkpt lat="29.474737" lon="103.2878554"><ele>1685.15</ele><time>2026-02-01T02:35:46.000Z</time></trkpt>
        <trkpt lat="29.4746067" lon="103.2880396"><ele>1685.15</ele><time>2026-02-01T02:35:50.000Z</time></trkpt>
        <trkpt lat="29.4744974" lon="103.2879936"><ele>1683.86</ele><time>2026-02-01T02:35:52.000Z</time></trkpt>
        <trkpt lat="29.4744069" lon="103.2878418"><ele>1682.29</ele><time>2026-02-01T02:35:54.000Z</time></trkpt>
        <trkpt lat="29.4743151" lon="103.2876798"><ele>1680.46</ele><time>2026-02-01T02:35:56.000Z</time></trkpt>
        <trkpt lat="29.4741005" lon="103.287509"><ele>1678.65</ele><time>2026-02-01T02:36:00.000Z</time></trkpt>
        <trkpt lat="29.4738345" lon="103.2873385"><ele>1676.43</ele><time>2026-02-01T02:36:04.000Z</time></trkpt>
        <trkpt lat="29.4736589" lon="103.2872334"><ele>1674.49</ele><time>2026-02-01T02:36:06.000Z</time></trkpt>
        <trkpt lat="29.4734194" lon="103.2871121"><ele>1672.79</ele><time>2026-02-01T02:36:10.000Z</time></trkpt>
        <trkpt lat="29.4732562" lon="103.2870448"><ele>1670.7</ele><time>2026-02-01T02:36:12.000Z</time></trkpt>
        <trkpt lat="29.473032" lon="103.2869609"><ele>1668.86</ele><time>2026-02-01T02:36:16.000Z</time></trkpt>
        <trkpt lat="29.4728278" lon="103.2868486"><ele>1666.64</ele><time>2026-02-01T02:36:20.000Z</time></trkpt>
        <trkpt lat="29.4726239" lon="103.2867478"><ele>1664.33</ele><time>2026-02-01T02:36:24.000Z</time></trkpt>
        <trkpt lat="29.4724881" lon="103.2866921"><ele>1662.12</ele><time>2026-02-01T02:36:26.000Z</time></trkpt>
        <trkpt lat="29.4723097" lon="103.2866293"><ele>1660.45</ele><time>2026-02-01T02:36:30.000Z</time></trkpt>
        <trkpt lat="29.4721979" lon="103.2865919"><ele>1658.77</ele><time>2026-02-01T02:36:32.000Z</time></trkpt>
        <trkpt lat="29.4720705" lon="103.2865387"><ele>1657.53</ele><time>2026-02-01T02:36:36.000Z</time></trkpt>
        <trkpt lat="29.4719597" lon="103.2865042"><ele>1656.29</ele><time>2026-02-01T02:36:38.000Z</time></trkpt>
        <trkpt lat="29.4718552" lon="103.2864665"><ele>1655.33</ele><time>2026-02-01T02:36:40.000Z</time></trkpt>
        <trkpt lat="29.4716418" lon="103.2864108"><ele>1654.27</ele><time>2026-02-01T02:36:44.000Z</time></trkpt>
        <trkpt lat="29.4714698" lon="103.2863769"><ele>1652.73</ele><time>2026-02-01T02:36:46.000Z</time></trkpt>
        <trkpt lat="29.471214" lon="103.2862936"><ele>1651.45</ele><time>2026-02-01T02:36:50.000Z</time></trkpt>
        <trkpt lat="29.470945" lon="103.2861329"><ele>1649.98</ele><time>2026-02-01T02:36:54.000Z</time></trkpt>
        <trkpt lat="29.4707636" lon="103.2860276"><ele>1648.51</ele><time>2026-02-01T02:36:56.000Z</time></trkpt>
        <trkpt lat="29.4705123" lon="103.2858849"><ele>1647.43</ele><time>2026-02-01T02:37:00.000Z</time></trkpt>
        <trkpt lat="29.470333" lon="103.2858103"><ele>1646.29</ele><time>2026-02-01T02:37:02.000Z</time></trkpt>
        <trkpt lat="29.470176" lon="103.2857809"><ele>1645.43</ele><time>2026-02-01T02:37:04.000Z</time></trkpt>
        <trkpt lat="29.4700218" lon="103.2857662"><ele>1644.73</ele><time>2026-02-01T02:37:06.000Z</time></trkpt>
        <trkpt lat="29.4697536" lon="103.2857301"><ele>1644.14</ele><time>2026-02-01T02:37:10.000Z</time></trkpt>
        <trkpt lat="29.4694524" lon="103.2856962"><ele>1643.52</ele><time>2026-02-01T02:37:14.000Z</time></trkpt>
        <trkpt lat="29.4692619" lon="103.2856829"><ele>1642.92</ele><time>2026-02-01T02:37:16.000Z</time></trkpt>
        <trkpt lat="29.4691337" lon="103.2856791"><ele>1642.49</ele><time>2026-02-01T02:37:18.000Z</time></trkpt>
        <trkpt lat="29.4689118" lon="103.2857325"><ele>1642.16</ele><time>2026-02-01T02:37:22.000Z</time></trkpt>
        <trkpt lat="29.4686652" lon="103.2858443"><ele>1641.88</ele><time>2026-02-01T02:37:26.000Z</time></trkpt>
        <trkpt lat="29.4686652" lon="103.2858443"><ele>1641.88</ele><time>2026-02-01T02:37:26.000Z</time></trkpt>
        <trkpt lat="29.4681395" lon="103.2871842"><ele>1641.1</ele><time>2026-02-01T02:37:38.000Z</time></trkpt>
        <trkpt lat="29.4681395" lon="103.2871842"><ele>1641.1</ele><time>2026-02-01T02:37:40.000Z</time></trkpt>
        <trkpt lat="29.4678619" lon="103.2871694"><ele>1641.1</ele><time>2026-02-01T02:37:44.000Z</time></trkpt>
        <trkpt lat="29.4675049" lon="103.2871132"><ele>1641.14</ele><time>2026-02-01T02:37:48.000Z</time></trkpt>
        <trkpt lat="29.4671826" lon="103.2869409"><ele>1641.36</ele><time>2026-02-01T02:37:52.000Z</time></trkpt>
        <trkpt lat="29.4669969" lon="103.2867929"><ele>1641.69</ele><time>2026-02-01T02:37:54.000Z</time></trkpt>
        <trkpt lat="29.4667842" lon="103.2866087"><ele>1641.97</ele><time>2026-02-01T02:37:58.000Z</time></trkpt>
        <trkpt lat="29.4666776" lon="103.2864822"><ele>1642.34</ele><time>2026-02-01T02:38:00.000Z</time></trkpt>
        <trkpt lat="29.4666208" lon="103.2863473"><ele>1642.62</ele><time>2026-02-01T02:38:02.000Z</time></trkpt>
        <trkpt lat="29.4665188" lon="103.2860728"><ele>1642.8</ele><time>2026-02-01T02:38:06.000Z</time></trkpt>
        <trkpt lat="29.4664778" lon="103.2857285"><ele>1643.07</ele><time>2026-02-01T02:38:10.000Z</time></trkpt>
        <trkpt lat="29.466437" lon="103.285545"><ele>1643.14</ele><time>2026-02-01T02:38:12.000Z</time></trkpt>
        <trkpt lat="29.4663052" lon="103.2854964"><ele>1642.37</ele><time>2026-02-01T02:38:14.000Z</time></trkpt>
        <trkpt lat="29.4659741" lon="103.2855593"><ele>1641.8</ele><time>2026-02-01T02:38:18.000Z</time></trkpt>
        <trkpt lat="29.4656261" lon="103.2855939"><ele>1639.33</ele><time>2026-02-01T02:38:22.000Z</time></trkpt>
        <trkpt lat="29.4652929" lon="103.2856561"><ele>1636.68</ele><time>2026-02-01T02:38:26.000Z</time></trkpt>
        <trkpt lat="29.4649925" lon="103.2858133"><ele>1632.6</ele><time>2026-02-01T02:38:30.000Z</time></trkpt>
        <trkpt lat="29.4648389" lon="103.2859275"><ele>1629.53</ele><time>2026-02-01T02:38:32.000Z</time></trkpt>
        <trkpt lat="29.464736" lon="103.2860283"><ele>1626.9</ele><time>2026-02-01T02:38:34.000Z</time></trkpt>
        <trkpt lat="29.4646249" lon="103.28611"><ele>1624.35</ele><time>2026-02-01T02:38:36.000Z</time></trkpt>
        <trkpt lat="29.4644907" lon="103.286152"><ele>1622.26</ele><time>2026-02-01T02:38:38.000Z</time></trkpt>
        <trkpt lat="29.4642314" lon="103.2861054"><ele>1620.56</ele><time>2026-02-01T02:38:42.000Z</time></trkpt>
        <trkpt lat="29.4639652" lon="103.2859521"><ele>1618.6</ele><time>2026-02-01T02:38:46.000Z</time></trkpt>
        <trkpt lat="29.4638059" lon="103.2858433"><ele>1616.17</ele><time>2026-02-01T02:38:48.000Z</time></trkpt>
        <trkpt lat="29.4636785" lon="103.2857802"><ele>1614.14</ele><time>2026-02-01T02:38:50.000Z</time></trkpt>
        <trkpt lat="29.4635459" lon="103.2857578"><ele>1612.44</ele><time>2026-02-01T02:38:52.000Z</time></trkpt>
        <trkpt lat="29.4632995" lon="103.2857213"><ele>1610.79</ele><time>2026-02-01T02:38:56.000Z</time></trkpt>
        <trkpt lat="29.4631267" lon="103.2856655"><ele>1608.77</ele><time>2026-02-01T02:38:58.000Z</time></trkpt>
        <trkpt lat="29.4628978" lon="103.2855525"><ele>1606.93</ele><time>2026-02-01T02:39:02.000Z</time></trkpt>
        <trkpt lat="29.4626247" lon="103.2854037"><ele>1604.31</ele><time>2026-02-01T02:39:06.000Z</time></trkpt>
        <trkpt lat="29.4624335" lon="103.2852864"><ele>1601.55</ele><time>2026-02-01T02:39:08.000Z</time></trkpt>
        <trkpt lat="29.462268" lon="103.2851883"><ele>1599.31</ele><time>2026-02-01T02:39:10.000Z</time></trkpt>
        <trkpt lat="29.4621054" lon="103.2851065"><ele>1597.42</ele><time>2026-02-01T02:39:12.000Z</time></trkpt>
        <trkpt lat="29.4618259" lon="103.285009"><ele>1595.72</ele><time>2026-02-01T02:39:16.000Z</time></trkpt>
        <trkpt lat="29.4615508" lon="103.2848953"><ele>1593.45</ele><time>2026-02-01T02:39:20.000Z</time></trkpt>
        <trkpt lat="29.4612552" lon="103.2847746"><ele>1590.86</ele><time>2026-02-01T02:39:24.000Z</time></trkpt>
        <trkpt lat="29.4609453" lon="103.2845987"><ele>1587.75</ele><time>2026-02-01T02:39:28.000Z</time></trkpt>
        <trkpt lat="29.4607645" lon="103.284485"><ele>1584.46</ele><time>2026-02-01T02:39:30.000Z</time></trkpt>
        <trkpt lat="29.4605605" lon="103.284469"><ele>1581.57</ele><time>2026-02-01T02:39:34.000Z</time></trkpt>
        <trkpt lat="29.4604209" lon="103.2845027"><ele>1578.79</ele><time>2026-02-01T02:39:36.000Z</time></trkpt>
        <trkpt lat="29.4602993" lon="103.2844935"><ele>1576.76</ele><time>2026-02-01T02:39:38.000Z</time></trkpt>
        <trkpt lat="29.4601739" lon="103.2844463"><ele>1575.12</ele><time>2026-02-01T02:39:40.000Z</time></trkpt>
        <trkpt lat="29.4599" lon="103.2844157"><ele>1573.56</ele><time>2026-02-01T02:39:44.000Z</time></trkpt>
        <trkpt lat="29.4596769" lon="103.2843964"><ele>1571.44</ele><time>2026-02-01T02:39:46.000Z</time></trkpt>
        <trkpt lat="29.4593513" lon="103.2842652"><ele>1569.62</ele><time>2026-02-01T02:39:50.000Z</time></trkpt>
        <trkpt lat="29.4590318" lon="103.2841404"><ele>1567.38</ele><time>2026-02-01T02:39:54.000Z</time></trkpt>
        <trkpt lat="29.4587366" lon="103.2840797"><ele>1565.09</ele><time>2026-02-01T02:39:58.000Z</time></trkpt>
        <trkpt lat="29.4585587" lon="103.284056"><ele>1562.78</ele><time>2026-02-01T02:40:00.000Z</time></trkpt>
        <trkpt lat="29.4584197" lon="103.2840453"><ele>1561.08</ele><time>2026-02-01T02:40:02.000Z</time></trkpt>
        <trkpt lat="29.4581752" lon="103.2840618"><ele>1559.87</ele><time>2026-02-01T02:40:06.000Z</time></trkpt>
        <trkpt lat="29.4578796" lon="103.2841444"><ele>1558.44</ele><time>2026-02-01T02:40:10.000Z</time></trkpt>
        <trkpt lat="29.457708" lon="103.2842579"><ele>1556.87</ele><time>2026-02-01T02:40:12.000Z</time></trkpt>
        <trkpt lat="29.4576021" lon="103.2844061"><ele>1555.46</ele><time>2026-02-01T02:40:14.000Z</time></trkpt>
        <trkpt lat="29.4575239" lon="103.2845719"><ele>1554.1</ele><time>2026-02-01T02:40:16.000Z</time></trkpt>
        <trkpt lat="29.4574296" lon="103.2848292"><ele>1552.86</ele><time>2026-02-01T02:40:20.000Z</time></trkpt>
        <trkpt lat="29.4573223" lon="103.2850532"><ele>1551.55</ele><time>2026-02-01T02:40:24.000Z</time></trkpt>
        <trkpt lat="29.4572046" lon="103.2850879"><ele>1550.23</ele><time>2026-02-01T02:40:26.000Z</time></trkpt>
        <trkpt lat="29.4569838" lon="103.2849727"><ele>1549.13</ele><time>2026-02-01T02:40:30.000Z</time></trkpt>
        <trkpt lat="29.4568181" lon="103.2848775"><ele>1547.79</ele><time>2026-02-01T02:40:32.000Z</time></trkpt>
        <trkpt lat="29.4566681" lon="103.2848206"><ele>1546.73</ele><time>2026-02-01T02:40:34.000Z</time></trkpt>
        <trkpt lat="29.4564614" lon="103.2848815"><ele>1545.84</ele><time>2026-02-01T02:40:38.000Z</time></trkpt>
        <trkpt lat="29.4563787" lon="103.2850182"><ele>1544.87</ele><time>2026-02-01T02:40:40.000Z</time></trkpt>
        <trkpt lat="29.4564199" lon="103.2853226"><ele>1544.18</ele><time>2026-02-01T02:40:44.000Z</time></trkpt>
        <trkpt lat="29.4565034" lon="103.2855493"><ele>1543.26</ele><time>2026-02-01T02:40:46.000Z</time></trkpt>
        <trkpt lat="29.4565733" lon="103.2858355"><ele>1542.45</ele><time>2026-02-01T02:40:50.000Z</time></trkpt>
        <trkpt lat="29.4564538" lon="103.2859489"><ele>1541.34</ele><time>2026-02-01T02:40:54.000Z</time></trkpt>
        <trkpt lat="29.4561974" lon="103.2858579"><ele>1540.34</ele><time>2026-02-01T02:40:58.000Z</time></trkpt>
        <trkpt lat="29.4559262" lon="103.2857191"><ele>1539.59</ele><time>2026-02-01T02:41:02.000Z</time></trkpt>
        <trkpt lat="29.4556833" lon="103.2855184"><ele>1538.92</ele><time>2026-02-01T02:41:06.000Z</time></trkpt>
        <trkpt lat="29.4555279" lon="103.2853844"><ele>1538.2</ele><time>2026-02-01T02:41:08.000Z</time></trkpt>
        <trkpt lat="29.4553924" lon="103.2853025"><ele>1537.63</ele><time>2026-02-01T02:41:10.000Z</time></trkpt>
        <trkpt lat="29.4551268" lon="103.2852158"><ele>1537.11</ele><time>2026-02-01T02:41:14.000Z</time></trkpt>
        <trkpt lat="29.4548453" lon="103.2851445"><ele>1536.68</ele><time>2026-02-01T02:41:18.000Z</time></trkpt>
        <trkpt lat="29.4545999" lon="103.285166"><ele>1536.51</ele><time>2026-02-01T02:41:22.000Z</time></trkpt>
        <trkpt lat="29.4544136" lon="103.2853463"><ele>1537.12</ele><time>2026-02-01T02:41:26.000Z</time></trkpt>
        <trkpt lat="29.454325" lon="103.2854981"><ele>1538.28</ele><time>2026-02-01T02:41:28.000Z</time></trkpt>
        <trkpt lat="29.4542678" lon="103.2856097"><ele>1539.08</ele><time>2026-02-01T02:41:30.000Z</time></trkpt>
        <trkpt lat="29.4541192" lon="103.2856576"><ele>1539.79</ele><time>2026-02-01T02:41:34.000Z</time></trkpt>
        <trkpt lat="29.453996" lon="103.2856162"><ele>1540.65</ele><time>2026-02-01T02:41:36.000Z</time></trkpt>
        <trkpt lat="29.4538014" lon="103.2854657"><ele>1541.18</ele><time>2026-02-01T02:41:40.000Z</time></trkpt>
        <trkpt lat="29.4536591" lon="103.2853554"><ele>1541.93</ele><time>2026-02-01T02:41:42.000Z</time></trkpt>
        <trkpt lat="29.4534408" lon="103.2852674"><ele>1542.58</ele><time>2026-02-01T02:41:46.000Z</time></trkpt>
        <trkpt lat="29.4532903" lon="103.2852757"><ele>1543.53</ele><time>2026-02-01T02:41:48.000Z</time></trkpt>
        <trkpt lat="29.4530774" lon="103.285343"><ele>1544.24</ele><time>2026-02-01T02:41:52.000Z</time></trkpt>
        <trkpt lat="29.4528509" lon="103.2853923"><ele>1545.11</ele><time>2026-02-01T02:41:56.000Z</time></trkpt>
        <trkpt lat="29.4527062" lon="103.2854431"><ele>1545.82</ele><time>2026-02-01T02:41:58.000Z</time></trkpt>
        <trkpt lat="29.4524891" lon="103.2854594"><ele>1546.34</ele><time>2026-02-01T02:42:02.000Z</time></trkpt>
        <trkpt lat="29.4522989" lon="103.2853031"><ele>1547.13</ele><time>2026-02-01T02:42:06.000Z</time></trkpt>
        <trkpt lat="29.4521731" lon="103.2851999"><ele>1547.84</ele><time>2026-02-01T02:42:08.000Z</time></trkpt>
        <trkpt lat="29.4520234" lon="103.2852586"><ele>1548.43</ele><time>2026-02-01T02:42:12.000Z</time></trkpt>
        <trkpt lat="29.4519566" lon="103.2853991"><ele>1549.23</ele><time>2026-02-01T02:42:14.000Z</time></trkpt>
        <trkpt lat="29.4518768" lon="103.2856626"><ele>1549.92</ele><time>2026-02-01T02:42:18.000Z</time></trkpt>
        <trkpt lat="29.451733" lon="103.2858576"><ele>1551.02</ele><time>2026-02-01T02:42:22.000Z</time></trkpt>
        <trkpt lat="29.4516178" lon="103.2858922"><ele>1552.23</ele><time>2026-02-01T02:42:24.000Z</time></trkpt>
        <trkpt lat="29.4514835" lon="103.2857149"><ele>1553.2</ele><time>2026-02-01T02:42:28.000Z</time></trkpt>
        <trkpt lat="29.4513706" lon="103.2854595"><ele>1554.22</ele><time>2026-02-01T02:42:32.000Z</time></trkpt>
        <trkpt lat="29.4512735" lon="103.2853076"><ele>1555.1</ele><time>2026-02-01T02:42:34.000Z</time></trkpt>
        <trkpt lat="29.451183" lon="103.2852149"><ele>1555.71</ele><time>2026-02-01T02:42:36.000Z</time></trkpt>
        <trkpt lat="29.4510189" lon="103.2851323"><ele>1556.2</ele><time>2026-02-01T02:42:40.000Z</time></trkpt>
        <trkpt lat="29.4508908" lon="103.2851623"><ele>1556.83</ele><time>2026-02-01T02:42:42.000Z</time></trkpt>
        <trkpt lat="29.4507873" lon="103.2852657"><ele>1557.18</ele><time>2026-02-01T02:42:44.000Z</time></trkpt>
        <trkpt lat="29.4506926" lon="103.2853559"><ele>1557.52</ele><time>2026-02-01T02:42:46.000Z</time></trkpt>
        <trkpt lat="29.4505827" lon="103.2852709"><ele>1557.86</ele><time>2026-02-01T02:42:50.000Z</time></trkpt>
        <trkpt lat="29.4504498" lon="103.2850803"><ele>1558.38</ele><time>2026-02-01T02:42:54.000Z</time></trkpt>
        <trkpt lat="29.4503143" lon="103.2850192"><ele>1558.96</ele><time>2026-02-01T02:42:56.000Z</time></trkpt>
        <trkpt lat="29.4500792" lon="103.2851563"><ele>1559.73</ele><time>2026-02-01T02:43:00.000Z</time></trkpt>
        <trkpt lat="29.4499325" lon="103.28532"><ele>1560.46</ele><time>2026-02-01T02:43:02.000Z</time></trkpt>
        <trkpt lat="29.44977" lon="103.2855621"><ele>1560.86</ele><time>2026-02-01T02:43:06.000Z</time></trkpt>
        <trkpt lat="29.4495517" lon="103.2856306"><ele>1561.01</ele><time>2026-02-01T02:43:10.000Z</time></trkpt>
        <trkpt lat="29.4493621" lon="103.2854587"><ele>1561.13</ele><time>2026-02-01T02:43:14.000Z</time></trkpt>
        <trkpt lat="29.4492634" lon="103.2852959"><ele>1561.66</ele><time>2026-02-01T02:43:16.000Z</time></trkpt>
        <trkpt lat="29.4491941" lon="103.2851839"><ele>1562.16</ele><time>2026-02-01T02:43:18.000Z</time></trkpt>
        <trkpt lat="29.4490191" lon="103.2852032"><ele>1562.51</ele><time>2026-02-01T02:43:22.000Z</time></trkpt>
        <trkpt lat="29.4488641" lon="103.285264"><ele>1562.51</ele><time>2026-02-01T02:43:24.000Z</time></trkpt>
        <trkpt lat="29.448739" lon="103.2852515"><ele>1562.47</ele><time>2026-02-01T02:43:26.000Z</time></trkpt>
        <trkpt lat="29.4485408" lon="103.2850887"><ele>1562.26</ele><time>2026-02-01T02:43:30.000Z</time></trkpt>
        <trkpt lat="29.448266" lon="103.284974"><ele>1561.48</ele><time>2026-02-01T02:43:34.000Z</time></trkpt>
        <trkpt lat="29.4479762" lon="103.285021"><ele>1559.87</ele><time>2026-02-01T02:43:38.000Z</time></trkpt>
        <trkpt lat="29.4477874" lon="103.2850676"><ele>1558.36</ele><time>2026-02-01T02:43:40.000Z</time></trkpt>
        <trkpt lat="29.4476369" lon="103.2850832"><ele>1557.26</ele><time>2026-02-01T02:43:42.000Z</time></trkpt>
        <trkpt lat="29.4474927" lon="103.2850751"><ele>1556.54</ele><time>2026-02-01T02:43:44.000Z</time></trkpt>
        <trkpt lat="29.4472479" lon="103.2849925"><ele>1555.95</ele><time>2026-02-01T02:43:48.000Z</time></trkpt>
        <trkpt lat="29.4469714" lon="103.2849958"><ele>1554.76</ele><time>2026-02-01T02:43:52.000Z</time></trkpt>
        <trkpt lat="29.4467681" lon="103.2849878"><ele>1553.52</ele><time>2026-02-01T02:43:56.000Z</time></trkpt>
        <trkpt lat="29.4467284" lon="103.2848973"><ele>1551.86</ele><time>2026-02-01T02:43:58.000Z</time></trkpt>
        <trkpt lat="29.4468086" lon="103.2847591"><ele>1550.27</ele><time>2026-02-01T02:44:00.000Z</time></trkpt>
        <trkpt lat="29.446931" lon="103.2846473"><ele>1548.25</ele><time>2026-02-01T02:44:02.000Z</time></trkpt>
        <trkpt lat="29.4470355" lon="103.284579"><ele>1546.58</ele><time>2026-02-01T02:44:04.000Z</time></trkpt>
        <trkpt lat="29.4470922" lon="103.2845195"><ele>1544.62</ele><time>2026-02-01T02:44:06.000Z</time></trkpt>
        <trkpt lat="29.4469576" lon="103.2844208"><ele>1542.8</ele><time>2026-02-01T02:44:10.000Z</time></trkpt>
        <trkpt lat="29.4467049" lon="103.2844918"><ele>1540.76</ele><time>2026-02-01T02:44:14.000Z</time></trkpt>
        <trkpt lat="29.4464212" lon="103.2845398"><ele>1538.6</ele><time>2026-02-01T02:44:18.000Z</time></trkpt>
        <trkpt lat="29.4461591" lon="103.2845655"><ele>1536.89</ele><time>2026-02-01T02:44:22.000Z</time></trkpt>
        <trkpt lat="29.4458748" lon="103.2846187"><ele>1534.7</ele><time>2026-02-01T02:44:26.000Z</time></trkpt>
        <trkpt lat="29.4457012" lon="103.2846462"><ele>1532.28</ele><time>2026-02-01T02:44:28.000Z</time></trkpt>
        <trkpt lat="29.4455965" lon="103.2846321"><ele>1530.35</ele><time>2026-02-01T02:44:30.000Z</time></trkpt>
        <trkpt lat="29.445559" lon="103.284475"><ele>1528.63</ele><time>2026-02-01T02:44:34.000Z</time></trkpt>
        <trkpt lat="29.4456251" lon="103.2843379"><ele>1526.5</ele><time>2026-02-01T02:44:36.000Z</time></trkpt>
        <trkpt lat="29.4458305" lon="103.284229"><ele>1524.29</ele><time>2026-02-01T02:44:40.000Z</time></trkpt>
        <trkpt lat="29.4459835" lon="103.2841692"><ele>1521.47</ele><time>2026-02-01T02:44:42.000Z</time></trkpt>
        <trkpt lat="29.4460677" lon="103.2841098"><ele>1519.13</ele><time>2026-02-01T02:44:44.000Z</time></trkpt>
        <trkpt lat="29.4459841" lon="103.2839855"><ele>1517.42</ele><time>2026-02-01T02:44:48.000Z</time></trkpt>
        <trkpt lat="29.4457525" lon="103.2839709"><ele>1515.61</ele><time>2026-02-01T02:44:52.000Z</time></trkpt>
        <trkpt lat="29.4455181" lon="103.2840251"><ele>1513.48</ele><time>2026-02-01T02:44:56.000Z</time></trkpt>
        <trkpt lat="29.4453888" lon="103.2840499"><ele>1511.14</ele><time>2026-02-01T02:44:58.000Z</time></trkpt>
        <trkpt lat="29.4453281" lon="103.2840148"><ele>1509.25</ele><time>2026-02-01T02:45:00.000Z</time></trkpt>
        <trkpt lat="29.4453386" lon="103.2839251"><ele>1507.55</ele><time>2026-02-01T02:45:02.000Z</time></trkpt>
        <trkpt lat="29.4455103" lon="103.2838067"><ele>1505.97</ele><time>2026-02-01T02:45:06.000Z</time></trkpt>
        <trkpt lat="29.4457512" lon="103.2837084"><ele>1504.12</ele><time>2026-02-01T02:45:10.000Z</time></trkpt>
        <trkpt lat="29.4459049" lon="103.2836423"><ele>1502.02</ele><time>2026-02-01T02:45:12.000Z</time></trkpt>
        <trkpt lat="29.4460998" lon="103.2835634"><ele>1500.31</ele><time>2026-02-01T02:45:16.000Z</time></trkpt>
        <trkpt lat="29.4462469" lon="103.2835245"><ele>1498.09</ele><time>2026-02-01T02:45:18.000Z</time></trkpt>
        <trkpt lat="29.4464777" lon="103.2834603"><ele>1496.18</ele><time>2026-02-01T02:45:22.000Z</time></trkpt>
        <trkpt lat="29.4466333" lon="103.283393"><ele>1493.59</ele><time>2026-02-01T02:45:24.000Z</time></trkpt>
        <trkpt lat="29.4467522" lon="103.2833336"><ele>1491.42</ele><time>2026-02-01T02:45:26.000Z</time></trkpt>
        <trkpt lat="29.4468579" lon="103.2833066"><ele>1489.49</ele><time>2026-02-01T02:45:28.000Z</time></trkpt>
        <trkpt lat="29.4470132" lon="103.2833023"><ele>1487.72</ele><time>2026-02-01T02:45:32.000Z</time></trkpt>
        <trkpt lat="29.4471019" lon="103.2832266"><ele>1485.79</ele><time>2026-02-01T02:45:34.000Z</time></trkpt>
        <trkpt lat="29.4471564" lon="103.2831004"><ele>1484.2</ele><time>2026-02-01T02:45:36.000Z</time></trkpt>
        <trkpt lat="29.4472642" lon="103.282879"><ele>1482.71</ele><time>2026-02-01T02:45:40.000Z</time></trkpt>
        <trkpt lat="29.4473438" lon="103.2827302"><ele>1480.66</ele><time>2026-02-01T02:45:42.000Z</time></trkpt>
        <trkpt lat="29.4474525" lon="103.2825519"><ele>1478.88</ele><time>2026-02-01T02:45:46.000Z</time></trkpt>
        <trkpt lat="29.4475635" lon="103.2824567"><ele>1476.44</ele><time>2026-02-01T02:45:48.000Z</time></trkpt>
        <trkpt lat="29.4477445" lon="103.2823017"><ele>1474.55</ele><time>2026-02-01T02:45:52.000Z</time></trkpt>
        <trkpt lat="29.4479305" lon="103.2821173"><ele>1472.2</ele><time>2026-02-01T02:45:56.000Z</time></trkpt>
        <trkpt lat="29.4481329" lon="103.2820255"><ele>1469.67</ele><time>2026-02-01T02:46:00.000Z</time></trkpt>
        <trkpt lat="29.4482352" lon="103.2818907"><ele>1467.3</ele><time>2026-02-01T02:46:04.000Z</time></trkpt>
        <trkpt lat="29.4480506" lon="103.2818094"><ele>1464.89</ele><time>2026-02-01T02:46:08.000Z</time></trkpt>
        <trkpt lat="29.4477421" lon="103.281843"><ele>1462.56</ele><time>2026-02-01T02:46:12.000Z</time></trkpt>
        <trkpt lat="29.4475203" lon="103.2818651"><ele>1460.2</ele><time>2026-02-01T02:46:14.000Z</time></trkpt>
        <trkpt lat="29.4472327" lon="103.2818621"><ele>1458.32</ele><time>2026-02-01T02:46:18.000Z</time></trkpt>
        <trkpt lat="29.4469931" lon="103.2819271"><ele>1456.05</ele><time>2026-02-01T02:46:22.000Z</time></trkpt>
        <trkpt lat="29.4468705" lon="103.2819722"><ele>1453.56</ele><time>2026-02-01T02:46:24.000Z</time></trkpt>
        <trkpt lat="29.4467834" lon="103.2818823"><ele>1451.55</ele><time>2026-02-01T02:46:28.000Z</time></trkpt>
        <trkpt lat="29.4468366" lon="103.2817668"><ele>1449.19</ele><time>2026-02-01T02:46:30.000Z</time></trkpt>
        <trkpt lat="29.4470952" lon="103.2816437"><ele>1446.99</ele><time>2026-02-01T02:46:34.000Z</time></trkpt>
        <trkpt lat="29.4474186" lon="103.281519"><ele>1444.11</ele><time>2026-02-01T02:46:38.000Z</time></trkpt>
        <trkpt lat="29.447624" lon="103.2814147"><ele>1440.99</ele><time>2026-02-01T02:46:40.000Z</time></trkpt>
        <trkpt lat="29.4478869" lon="103.2812495"><ele>1438.72</ele><time>2026-02-01T02:46:44.000Z</time></trkpt>
        <trkpt lat="29.4480633" lon="103.2811599"><ele>1436.24</ele><time>2026-02-01T02:46:46.000Z</time></trkpt>
        <trkpt lat="29.4482046" lon="103.2810699"><ele>1434.4</ele><time>2026-02-01T02:46:50.000Z</time></trkpt>
        <trkpt lat="29.4481548" lon="103.2809339"><ele>1432.32</ele><time>2026-02-01T02:46:54.000Z</time></trkpt>
        <trkpt lat="29.4480216" lon="103.2809082"><ele>1430.23</ele><time>2026-02-01T02:46:56.000Z</time></trkpt>
        <trkpt lat="29.4477661" lon="103.2809764"><ele>1428.45</ele><time>2026-02-01T02:47:00.000Z</time></trkpt>
        <trkpt lat="29.4474614" lon="103.2809902"><ele>1426.51</ele><time>2026-02-01T02:47:04.000Z</time></trkpt>
        <trkpt lat="29.4472581" lon="103.2809719"><ele>1424.54</ele><time>2026-02-01T02:47:06.000Z</time></trkpt>
        <trkpt lat="29.4471041" lon="103.2809358"><ele>1422.94</ele><time>2026-02-01T02:47:08.000Z</time></trkpt>
        <trkpt lat="29.4469706" lon="103.2808997"><ele>1421.59</ele><time>2026-02-01T02:47:10.000Z</time></trkpt>
        <trkpt lat="29.4468456" lon="103.280875"><ele>1420.47</ele><time>2026-02-01T02:47:12.000Z</time></trkpt>
        <trkpt lat="29.4466865" lon="103.2808741"><ele>1419.43</ele><time>2026-02-01T02:47:16.000Z</time></trkpt>
        <trkpt lat="29.4466149" lon="103.2808383"><ele>1418.08</ele><time>2026-02-01T02:47:18.000Z</time></trkpt>
        <trkpt lat="29.4466252" lon="103.2807589"><ele>1416.93</ele><time>2026-02-01T02:47:20.000Z</time></trkpt>
        <trkpt lat="29.4467161" lon="103.280687"><ele>1416</ele><time>2026-02-01T02:47:22.000Z</time></trkpt>
        <trkpt lat="29.4468488" lon="103.2806584"><ele>1414.99</ele><time>2026-02-01T02:47:24.000Z</time></trkpt>
        <trkpt lat="29.446993" lon="103.2806489"><ele>1413.76</ele><time>2026-02-01T02:47:26.000Z</time></trkpt>
        <trkpt lat="29.4472197" lon="103.2805817"><ele>1412.54</ele><time>2026-02-01T02:47:30.000Z</time></trkpt>
        <trkpt lat="29.4473736" lon="103.2805286"><ele>1411.09</ele><time>2026-02-01T02:47:32.000Z</time></trkpt>
        <trkpt lat="29.4475506" lon="103.2804814"><ele>1409.92</ele><time>2026-02-01T02:47:36.000Z</time></trkpt>
        <trkpt lat="29.4476111" lon="103.2803439"><ele>1408.55</ele><time>2026-02-01T02:47:40.000Z</time></trkpt>
        <trkpt lat="29.4475325" lon="103.2802598"><ele>1407.03</ele><time>2026-02-01T02:47:42.000Z</time></trkpt>
        <trkpt lat="29.4472762" lon="103.2802515"><ele>1406.02</ele><time>2026-02-01T02:47:46.000Z</time></trkpt>
        <trkpt lat="29.4469665" lon="103.2802619"><ele>1404.47</ele><time>2026-02-01T02:47:50.000Z</time></trkpt>
        <trkpt lat="29.4467706" lon="103.2802757"><ele>1402.63</ele><time>2026-02-01T02:47:52.000Z</time></trkpt>
        <trkpt lat="29.4465864" lon="103.2802576"><ele>1401.24</ele><time>2026-02-01T02:47:56.000Z</time></trkpt>
        <trkpt lat="29.446558" lon="103.2801062"><ele>1399.65</ele><time>2026-02-01T02:48:00.000Z</time></trkpt>
        <trkpt lat="29.4466629" lon="103.2799992"><ele>1398.1</ele><time>2026-02-01T02:48:02.000Z</time></trkpt>
        <trkpt lat="29.446917" lon="103.2798915"><ele>1396.97</ele><time>2026-02-01T02:48:06.000Z</time></trkpt>
        <trkpt lat="29.4471152" lon="103.279825"><ele>1395.29</ele><time>2026-02-01T02:48:08.000Z</time></trkpt>
        <trkpt lat="29.4473393" lon="103.2797587"><ele>1393.77</ele><time>2026-02-01T02:48:12.000Z</time></trkpt>
        <trkpt lat="29.4474291" lon="103.2796168"><ele>1391.94</ele><time>2026-02-01T02:48:16.000Z</time></trkpt>
        <trkpt lat="29.4472481" lon="103.279549"><ele>1389.75</ele><time>2026-02-01T02:48:20.000Z</time></trkpt>
        <trkpt lat="29.4470467" lon="103.2795623"><ele>1387.39</ele><time>2026-02-01T02:48:22.000Z</time></trkpt>
        <trkpt lat="29.446743" lon="103.2795814"><ele>1385.4</ele><time>2026-02-01T02:48:26.000Z</time></trkpt>
        <trkpt lat="29.4464949" lon="103.2795792"><ele>1383.16</ele><time>2026-02-01T02:48:30.000Z</time></trkpt>
        <trkpt lat="29.4463779" lon="103.279457"><ele>1380.87</ele><time>2026-02-01T02:48:34.000Z</time></trkpt>
        <trkpt lat="29.4465062" lon="103.2793188"><ele>1378.49</ele><time>2026-02-01T02:48:38.000Z</time></trkpt>
        <trkpt lat="29.4466634" lon="103.279274"><ele>1376.08</ele><time>2026-02-01T02:48:40.000Z</time></trkpt>
        <trkpt lat="29.4468075" lon="103.2792679"><ele>1374.25</ele><time>2026-02-01T02:48:42.000Z</time></trkpt>
        <trkpt lat="29.4469371" lon="103.2791722"><ele>1372.72</ele><time>2026-02-01T02:48:46.000Z</time></trkpt>
        <trkpt lat="29.4469469" lon="103.2790652"><ele>1371.28</ele><time>2026-02-01T02:48:48.000Z</time></trkpt>
        <trkpt lat="29.4467895" lon="103.2789805"><ele>1370.08</ele><time>2026-02-01T02:48:52.000Z</time></trkpt>
        <trkpt lat="29.4466449" lon="103.2789676"><ele>1368.64</ele><time>2026-02-01T02:48:54.000Z</time></trkpt>
        <trkpt lat="29.4465196" lon="103.2789821"><ele>1367.41</ele><time>2026-02-01T02:48:58.000Z</time></trkpt>
        <trkpt lat="29.4465196" lon="103.2789821"><ele>1367.41</ele><time>2026-02-01T02:49:01.000Z</time></trkpt>
      </trkseg>
      <trkseg>
        <trkpt lat="29.4464492" lon="103.2789879"><ele>1363.7</ele><time>2026-02-01T02:49:16.000Z</time></trkpt>
        <trkpt lat="29.4464492" lon="103.2789879"><ele>1363.7</ele><time>2026-02-01T02:49:19.000Z</time></trkpt>
        <trkpt lat="29.446399" lon="103.2789972"><ele>1363.7</ele><time>2026-02-01T02:49:21.000Z</time></trkpt>
        <trkpt lat="29.4463933" lon="103.2789989"><ele>1363.83</ele><time>2026-02-01T02:49:27.000Z</time></trkpt>
        <trkpt lat="29.4463646" lon="103.2790285"><ele>1363.84</ele><time>2026-02-01T02:49:54.000Z</time></trkpt>
        <trkpt lat="29.4463525" lon="103.2790535"><ele>1366.01</ele><time>2026-02-01T02:50:00.000Z</time></trkpt>
        <trkpt lat="29.4463922" lon="103.2790421"><ele>1367.44</ele><time>2026-02-01T02:50:16.000Z</time></trkpt>
        <trkpt lat="29.4463922" lon="103.2790421"><ele>1367.44</ele><time>2026-02-01T02:51:44.000Z</time></trkpt>
      </trkseg>
  </trk>
</gpx>